<?xml version="1.0" encoding="UTF-8" standalone="no" ?>
<gpx xmlns="http://www.topografix.com/GPX/1/1" xmlns:xsi="http://www.w3.org/2001/XMLSchema-instance" xsi:schemaLocation="http://www.topografix.com/GPX/1/1 http://www.topografix.com/GPX/1/1/gpx.xsd" version="1.1" creator="VisuGPX - https://www.visugpx.com">
  <metadata>
    <name>La Cordiolo 2016, parcours 2016</name>
    <desc><![CDATA[La Cordiolo]]></desc>
  </metadata>
  <trk>
    <name><![CDATA[La Cordiolo 2016, parcours 2016_1]]></name>
    <trkseg>
      <trkpt lat="44.06663" lon="1.94024">
        <ele>160</ele>
        <time>2016-04-03T08:01:21.000Z</time>
      </trkpt>
      <trkpt lat="44.06663" lon="1.94024">
        <ele>160</ele>
        <time>2016-04-03T08:01:27.000Z</time>
      </trkpt>
      <trkpt lat="44.06662" lon="1.93991">
        <ele>160</ele>
        <time>2016-04-03T08:02:10.000Z</time>
      </trkpt>
      <trkpt lat="44.06662" lon="1.93991">
        <ele>160</ele>
        <time>2016-04-03T08:02:14.000Z</time>
      </trkpt>
      <trkpt lat="44.06664" lon="1.93974">
        <ele>158</ele>
        <time>2016-04-03T08:02:18.000Z</time>
      </trkpt>
      <trkpt lat="44.06667" lon="1.93959">
        <ele>157</ele>
        <time>2016-04-03T08:02:24.000Z</time>
      </trkpt>
      <trkpt lat="44.06667" lon="1.93959">
        <ele>157</ele>
        <time>2016-04-03T08:02:26.000Z</time>
      </trkpt>
      <trkpt lat="44.06667" lon="1.93959">
        <ele>157</ele>
        <time>2016-04-03T08:02:28.000Z</time>
      </trkpt>
      <trkpt lat="44.06667" lon="1.93959">
        <ele>157</ele>
        <time>2016-04-03T08:02:30.000Z</time>
      </trkpt>
      <trkpt lat="44.06667" lon="1.93959">
        <ele>157</ele>
        <time>2016-04-03T08:02:32.000Z</time>
      </trkpt>
      <trkpt lat="44.06667" lon="1.93959">
        <ele>157</ele>
        <time>2016-04-03T08:02:34.000Z</time>
      </trkpt>
      <trkpt lat="44.06677" lon="1.93948">
        <ele>153</ele>
        <time>2016-04-03T08:02:38.000Z</time>
      </trkpt>
      <trkpt lat="44.06686" lon="1.93953">
        <ele>151</ele>
        <time>2016-04-03T08:02:42.000Z</time>
      </trkpt>
      <trkpt lat="44.06699" lon="1.93957">
        <ele>150</ele>
        <time>2016-04-03T08:02:46.000Z</time>
      </trkpt>
      <trkpt lat="44.06711" lon="1.93958">
        <ele>150</ele>
        <time>2016-04-03T08:02:50.000Z</time>
      </trkpt>
      <trkpt lat="44.0672" lon="1.93968">
        <ele>147</ele>
        <time>2016-04-03T08:02:54.000Z</time>
      </trkpt>
      <trkpt lat="44.0672" lon="1.93981">
        <ele>145</ele>
        <time>2016-04-03T08:02:56.000Z</time>
      </trkpt>
      <trkpt lat="44.06725" lon="1.93991">
        <ele>144</ele>
        <time>2016-04-03T08:02:58.000Z</time>
      </trkpt>
      <trkpt lat="44.06734" lon="1.94">
        <ele>143</ele>
        <time>2016-04-03T08:03:00.000Z</time>
      </trkpt>
      <trkpt lat="44.06742" lon="1.94011">
        <ele>143</ele>
        <time>2016-04-03T08:03:02.000Z</time>
      </trkpt>
      <trkpt lat="44.06749" lon="1.9402">
        <ele>143</ele>
        <time>2016-04-03T08:03:04.000Z</time>
      </trkpt>
      <trkpt lat="44.06759" lon="1.94025">
        <ele>143</ele>
        <time>2016-04-03T08:03:06.000Z</time>
      </trkpt>
      <trkpt lat="44.06771" lon="1.94025">
        <ele>144</ele>
        <time>2016-04-03T08:03:08.000Z</time>
      </trkpt>
      <trkpt lat="44.06771" lon="1.94025">
        <ele>144</ele>
        <time>2016-04-03T08:03:10.000Z</time>
      </trkpt>
      <trkpt lat="44.06771" lon="1.94025">
        <ele>144</ele>
        <time>2016-04-03T08:03:12.000Z</time>
      </trkpt>
      <trkpt lat="44.06771" lon="1.94025">
        <ele>144</ele>
        <time>2016-04-03T08:03:14.000Z</time>
      </trkpt>
      <trkpt lat="44.06771" lon="1.94025">
        <ele>144</ele>
        <time>2016-04-03T08:03:16.000Z</time>
      </trkpt>
      <trkpt lat="44.06771" lon="1.94025">
        <ele>144</ele>
        <time>2016-04-03T08:03:18.000Z</time>
      </trkpt>
      <trkpt lat="44.06771" lon="1.94025">
        <ele>144</ele>
        <time>2016-04-03T08:03:20.000Z</time>
      </trkpt>
      <trkpt lat="44.06771" lon="1.94025">
        <ele>144</ele>
        <time>2016-04-03T08:03:22.000Z</time>
      </trkpt>
      <trkpt lat="44.06771" lon="1.94025">
        <ele>144</ele>
        <time>2016-04-03T08:03:24.000Z</time>
      </trkpt>
      <trkpt lat="44.06802" lon="1.94031">
        <ele>152</ele>
        <time>2016-04-03T08:03:28.000Z</time>
      </trkpt>
      <trkpt lat="44.06821" lon="1.94036">
        <ele>153</ele>
        <time>2016-04-03T08:03:30.000Z</time>
      </trkpt>
      <trkpt lat="44.06833" lon="1.94039">
        <ele>154</ele>
        <time>2016-04-03T08:03:32.000Z</time>
      </trkpt>
      <trkpt lat="44.06833" lon="1.94039">
        <ele>154</ele>
        <time>2016-04-03T08:03:34.000Z</time>
      </trkpt>
      <trkpt lat="44.06833" lon="1.94039">
        <ele>154</ele>
        <time>2016-04-03T08:03:36.000Z</time>
      </trkpt>
      <trkpt lat="44.06833" lon="1.94039">
        <ele>154</ele>
        <time>2016-04-03T08:03:38.000Z</time>
      </trkpt>
      <trkpt lat="44.06845" lon="1.94032">
        <ele>156</ele>
        <time>2016-04-03T08:03:42.000Z</time>
      </trkpt>
      <trkpt lat="44.06853" lon="1.94023">
        <ele>156</ele>
        <time>2016-04-03T08:03:44.000Z</time>
      </trkpt>
      <trkpt lat="44.0686" lon="1.94014">
        <ele>156</ele>
        <time>2016-04-03T08:03:46.000Z</time>
      </trkpt>
      <trkpt lat="44.06866" lon="1.94004">
        <ele>155</ele>
        <time>2016-04-03T08:03:48.000Z</time>
      </trkpt>
      <trkpt lat="44.06871" lon="1.93995">
        <ele>155</ele>
        <time>2016-04-03T08:03:50.000Z</time>
      </trkpt>
      <trkpt lat="44.06882" lon="1.93979">
        <ele>155</ele>
        <time>2016-04-03T08:03:52.000Z</time>
      </trkpt>
      <trkpt lat="44.06889" lon="1.9397">
        <ele>156</ele>
        <time>2016-04-03T08:03:54.000Z</time>
      </trkpt>
      <trkpt lat="44.06896" lon="1.9396">
        <ele>156</ele>
        <time>2016-04-03T08:03:56.000Z</time>
      </trkpt>
      <trkpt lat="44.06903" lon="1.93939">
        <ele>156</ele>
        <time>2016-04-03T08:04:00.000Z</time>
      </trkpt>
      <trkpt lat="44.06903" lon="1.93939">
        <ele>156</ele>
        <time>2016-04-03T08:04:02.000Z</time>
      </trkpt>
      <trkpt lat="44.06903" lon="1.93939">
        <ele>156</ele>
        <time>2016-04-03T08:04:10.000Z</time>
      </trkpt>
      <trkpt lat="44.06903" lon="1.93939">
        <ele>156</ele>
        <time>2016-04-03T08:04:12.000Z</time>
      </trkpt>
      <trkpt lat="44.06903" lon="1.93939">
        <ele>156</ele>
        <time>2016-04-03T08:04:14.000Z</time>
      </trkpt>
      <trkpt lat="44.06903" lon="1.93939">
        <ele>156</ele>
        <time>2016-04-03T08:04:16.000Z</time>
      </trkpt>
      <trkpt lat="44.06903" lon="1.93939">
        <ele>156</ele>
        <time>2016-04-03T08:04:18.000Z</time>
      </trkpt>
      <trkpt lat="44.06928" lon="1.93825">
        <ele>151</ele>
        <time>2016-04-03T08:04:22.000Z</time>
      </trkpt>
      <trkpt lat="44.06928" lon="1.93825">
        <ele>151</ele>
        <time>2016-04-03T08:04:24.000Z</time>
      </trkpt>
      <trkpt lat="44.06928" lon="1.93825">
        <ele>151</ele>
        <time>2016-04-03T08:04:26.000Z</time>
      </trkpt>
      <trkpt lat="44.06928" lon="1.93825">
        <ele>151</ele>
        <time>2016-04-03T08:04:28.000Z</time>
      </trkpt>
      <trkpt lat="44.06928" lon="1.93825">
        <ele>151</ele>
        <time>2016-04-03T08:04:30.000Z</time>
      </trkpt>
      <trkpt lat="44.06928" lon="1.93825">
        <ele>151</ele>
        <time>2016-04-03T08:04:36.000Z</time>
      </trkpt>
      <trkpt lat="44.06928" lon="1.93825">
        <ele>151</ele>
        <time>2016-04-03T08:04:38.000Z</time>
      </trkpt>
      <trkpt lat="44.06947" lon="1.93761">
        <ele>149</ele>
        <time>2016-04-03T08:04:42.000Z</time>
      </trkpt>
      <trkpt lat="44.06947" lon="1.93761">
        <ele>149</ele>
        <time>2016-04-03T08:04:46.000Z</time>
      </trkpt>
      <trkpt lat="44.06947" lon="1.93761">
        <ele>149</ele>
        <time>2016-04-03T08:04:48.000Z</time>
      </trkpt>
      <trkpt lat="44.06947" lon="1.93761">
        <ele>149</ele>
        <time>2016-04-03T08:04:50.000Z</time>
      </trkpt>
      <trkpt lat="44.06978" lon="1.93734">
        <ele>150</ele>
        <time>2016-04-03T08:04:54.000Z</time>
      </trkpt>
      <trkpt lat="44.06983" lon="1.93718">
        <ele>152</ele>
        <time>2016-04-03T08:04:58.000Z</time>
      </trkpt>
      <trkpt lat="44.06991" lon="1.93709">
        <ele>151</ele>
        <time>2016-04-03T08:05:02.000Z</time>
      </trkpt>
      <trkpt lat="44.06991" lon="1.93709">
        <ele>151</ele>
        <time>2016-04-03T08:05:06.000Z</time>
      </trkpt>
      <trkpt lat="44.07" lon="1.93685">
        <ele>153</ele>
        <time>2016-04-03T08:05:08.000Z</time>
      </trkpt>
      <trkpt lat="44.07001" lon="1.93677">
        <ele>154</ele>
        <time>2016-04-03T08:05:12.000Z</time>
      </trkpt>
      <trkpt lat="44.07003" lon="1.93669">
        <ele>154</ele>
        <time>2016-04-03T08:05:14.000Z</time>
      </trkpt>
      <trkpt lat="44.07006" lon="1.9366">
        <ele>154</ele>
        <time>2016-04-03T08:05:16.000Z</time>
      </trkpt>
      <trkpt lat="44.07009" lon="1.93651">
        <ele>154</ele>
        <time>2016-04-03T08:05:18.000Z</time>
      </trkpt>
      <trkpt lat="44.07012" lon="1.93642">
        <ele>154</ele>
        <time>2016-04-03T08:05:20.000Z</time>
      </trkpt>
      <trkpt lat="44.07017" lon="1.93626">
        <ele>154</ele>
        <time>2016-04-03T08:05:22.000Z</time>
      </trkpt>
      <trkpt lat="44.07017" lon="1.93626">
        <ele>154</ele>
        <time>2016-04-03T08:05:24.000Z</time>
      </trkpt>
      <trkpt lat="44.07017" lon="1.93626">
        <ele>154</ele>
        <time>2016-04-03T08:05:26.000Z</time>
      </trkpt>
      <trkpt lat="44.07017" lon="1.93626">
        <ele>154</ele>
        <time>2016-04-03T08:05:28.000Z</time>
      </trkpt>
      <trkpt lat="44.07017" lon="1.93626">
        <ele>154</ele>
        <time>2016-04-03T08:05:30.000Z</time>
      </trkpt>
      <trkpt lat="44.07017" lon="1.93626">
        <ele>154</ele>
        <time>2016-04-03T08:05:32.000Z</time>
      </trkpt>
      <trkpt lat="44.07017" lon="1.93626">
        <ele>154</ele>
        <time>2016-04-03T08:05:36.000Z</time>
      </trkpt>
      <trkpt lat="44.07017" lon="1.93626">
        <ele>154</ele>
        <time>2016-04-03T08:05:38.000Z</time>
      </trkpt>
      <trkpt lat="44.07047" lon="1.93565">
        <ele>156</ele>
        <time>2016-04-03T08:05:42.000Z</time>
      </trkpt>
      <trkpt lat="44.07047" lon="1.93565">
        <ele>156</ele>
        <time>2016-04-03T08:05:46.000Z</time>
      </trkpt>
      <trkpt lat="44.07047" lon="1.93565">
        <ele>156</ele>
        <time>2016-04-03T08:05:48.000Z</time>
      </trkpt>
      <trkpt lat="44.07047" lon="1.93565">
        <ele>156</ele>
        <time>2016-04-03T08:05:50.000Z</time>
      </trkpt>
      <trkpt lat="44.07075" lon="1.93549">
        <ele>154</ele>
        <time>2016-04-03T08:05:56.000Z</time>
      </trkpt>
      <trkpt lat="44.07075" lon="1.93549">
        <ele>154</ele>
        <time>2016-04-03T08:05:58.000Z</time>
      </trkpt>
      <trkpt lat="44.07083" lon="1.93543">
        <ele>153</ele>
        <time>2016-04-03T08:06:00.000Z</time>
      </trkpt>
      <trkpt lat="44.07093" lon="1.93532">
        <ele>154</ele>
        <time>2016-04-03T08:06:04.000Z</time>
      </trkpt>
      <trkpt lat="44.07102" lon="1.93524">
        <ele>155</ele>
        <time>2016-04-03T08:06:06.000Z</time>
      </trkpt>
      <trkpt lat="44.0711" lon="1.93515">
        <ele>155</ele>
        <time>2016-04-03T08:06:08.000Z</time>
      </trkpt>
      <trkpt lat="44.07117" lon="1.93506">
        <ele>156</ele>
        <time>2016-04-03T08:06:10.000Z</time>
      </trkpt>
      <trkpt lat="44.07124" lon="1.93498">
        <ele>157</ele>
        <time>2016-04-03T08:06:12.000Z</time>
      </trkpt>
      <trkpt lat="44.07135" lon="1.93484">
        <ele>158</ele>
        <time>2016-04-03T08:06:16.000Z</time>
      </trkpt>
      <trkpt lat="44.07135" lon="1.93484">
        <ele>158</ele>
        <time>2016-04-03T08:06:18.000Z</time>
      </trkpt>
      <trkpt lat="44.07153" lon="1.93456">
        <ele>157</ele>
        <time>2016-04-03T08:06:22.000Z</time>
      </trkpt>
      <trkpt lat="44.07161" lon="1.9345">
        <ele>157</ele>
        <time>2016-04-03T08:06:24.000Z</time>
      </trkpt>
      <trkpt lat="44.07176" lon="1.93455">
        <ele>157</ele>
        <time>2016-04-03T08:06:28.000Z</time>
      </trkpt>
      <trkpt lat="44.07176" lon="1.93455">
        <ele>157</ele>
        <time>2016-04-03T08:06:30.000Z</time>
      </trkpt>
      <trkpt lat="44.07176" lon="1.93455">
        <ele>157</ele>
        <time>2016-04-03T08:06:32.000Z</time>
      </trkpt>
      <trkpt lat="44.07176" lon="1.93455">
        <ele>157</ele>
        <time>2016-04-03T08:06:34.000Z</time>
      </trkpt>
      <trkpt lat="44.07219" lon="1.93482">
        <ele>157</ele>
        <time>2016-04-03T08:06:40.000Z</time>
      </trkpt>
      <trkpt lat="44.07219" lon="1.93482">
        <ele>157</ele>
        <time>2016-04-03T08:06:42.000Z</time>
      </trkpt>
      <trkpt lat="44.07219" lon="1.93482">
        <ele>157</ele>
        <time>2016-04-03T08:06:44.000Z</time>
      </trkpt>
      <trkpt lat="44.07219" lon="1.93482">
        <ele>157</ele>
        <time>2016-04-03T08:06:46.000Z</time>
      </trkpt>
      <trkpt lat="44.07219" lon="1.93482">
        <ele>157</ele>
        <time>2016-04-03T08:06:50.000Z</time>
      </trkpt>
      <trkpt lat="44.07219" lon="1.93482">
        <ele>157</ele>
        <time>2016-04-03T08:06:52.000Z</time>
      </trkpt>
      <trkpt lat="44.07219" lon="1.93482">
        <ele>157</ele>
        <time>2016-04-03T08:06:54.000Z</time>
      </trkpt>
      <trkpt lat="44.07219" lon="1.93482">
        <ele>157</ele>
        <time>2016-04-03T08:06:56.000Z</time>
      </trkpt>
      <trkpt lat="44.07219" lon="1.93482">
        <ele>157</ele>
        <time>2016-04-03T08:07:02.000Z</time>
      </trkpt>
      <trkpt lat="44.07219" lon="1.93482">
        <ele>157</ele>
        <time>2016-04-03T08:07:04.000Z</time>
      </trkpt>
      <trkpt lat="44.07219" lon="1.93482">
        <ele>157</ele>
        <time>2016-04-03T08:07:06.000Z</time>
      </trkpt>
      <trkpt lat="44.07264" lon="1.93494">
        <ele>155</ele>
        <time>2016-04-03T08:07:10.000Z</time>
      </trkpt>
      <trkpt lat="44.07288" lon="1.93496">
        <ele>155</ele>
        <time>2016-04-03T08:07:12.000Z</time>
      </trkpt>
      <trkpt lat="44.07304" lon="1.93493">
        <ele>155</ele>
        <time>2016-04-03T08:07:14.000Z</time>
      </trkpt>
      <trkpt lat="44.07314" lon="1.93489">
        <ele>155</ele>
        <time>2016-04-03T08:07:16.000Z</time>
      </trkpt>
      <trkpt lat="44.07322" lon="1.93485">
        <ele>155</ele>
        <time>2016-04-03T08:07:18.000Z</time>
      </trkpt>
      <trkpt lat="44.07322" lon="1.93485">
        <ele>155</ele>
        <time>2016-04-03T08:07:20.000Z</time>
      </trkpt>
      <trkpt lat="44.07322" lon="1.93485">
        <ele>155</ele>
        <time>2016-04-03T08:07:22.000Z</time>
      </trkpt>
      <trkpt lat="44.07322" lon="1.93485">
        <ele>155</ele>
        <time>2016-04-03T08:07:24.000Z</time>
      </trkpt>
      <trkpt lat="44.07322" lon="1.93485">
        <ele>155</ele>
        <time>2016-04-03T08:07:26.000Z</time>
      </trkpt>
      <trkpt lat="44.07322" lon="1.93485">
        <ele>155</ele>
        <time>2016-04-03T08:07:28.000Z</time>
      </trkpt>
      <trkpt lat="44.07322" lon="1.93485">
        <ele>155</ele>
        <time>2016-04-03T08:07:30.000Z</time>
      </trkpt>
      <trkpt lat="44.07372" lon="1.93471">
        <ele>155</ele>
        <time>2016-04-03T08:07:34.000Z</time>
      </trkpt>
      <trkpt lat="44.07378" lon="1.93454">
        <ele>157</ele>
        <time>2016-04-03T08:07:38.000Z</time>
      </trkpt>
      <trkpt lat="44.07384" lon="1.93438">
        <ele>157</ele>
        <time>2016-04-03T08:07:42.000Z</time>
      </trkpt>
      <trkpt lat="44.07384" lon="1.93438">
        <ele>157</ele>
        <time>2016-04-03T08:07:44.000Z</time>
      </trkpt>
      <trkpt lat="44.07384" lon="1.93438">
        <ele>157</ele>
        <time>2016-04-03T08:07:46.000Z</time>
      </trkpt>
      <trkpt lat="44.07384" lon="1.93438">
        <ele>157</ele>
        <time>2016-04-03T08:07:48.000Z</time>
      </trkpt>
      <trkpt lat="44.07384" lon="1.93438">
        <ele>157</ele>
        <time>2016-04-03T08:07:52.000Z</time>
      </trkpt>
      <trkpt lat="44.07384" lon="1.93438">
        <ele>157</ele>
        <time>2016-04-03T08:07:54.000Z</time>
      </trkpt>
      <trkpt lat="44.0741" lon="1.93363">
        <ele>161</ele>
        <time>2016-04-03T08:08:00.000Z</time>
      </trkpt>
      <trkpt lat="44.07416" lon="1.93347">
        <ele>162</ele>
        <time>2016-04-03T08:08:04.000Z</time>
      </trkpt>
      <trkpt lat="44.07416" lon="1.93347">
        <ele>162</ele>
        <time>2016-04-03T08:08:08.000Z</time>
      </trkpt>
      <trkpt lat="44.07416" lon="1.93347">
        <ele>162</ele>
        <time>2016-04-03T08:08:10.000Z</time>
      </trkpt>
      <trkpt lat="44.0743" lon="1.93315">
        <ele>164</ele>
        <time>2016-04-03T08:08:12.000Z</time>
      </trkpt>
      <trkpt lat="44.07435" lon="1.93298">
        <ele>165</ele>
        <time>2016-04-03T08:08:16.000Z</time>
      </trkpt>
      <trkpt lat="44.07435" lon="1.93298">
        <ele>165</ele>
        <time>2016-04-03T08:08:18.000Z</time>
      </trkpt>
      <trkpt lat="44.07435" lon="1.93298">
        <ele>165</ele>
        <time>2016-04-03T08:08:20.000Z</time>
      </trkpt>
      <trkpt lat="44.07448" lon="1.93263">
        <ele>165</ele>
        <time>2016-04-03T08:08:24.000Z</time>
      </trkpt>
      <trkpt lat="44.07448" lon="1.93263">
        <ele>165</ele>
        <time>2016-04-03T08:08:26.000Z</time>
      </trkpt>
      <trkpt lat="44.07448" lon="1.93263">
        <ele>165</ele>
        <time>2016-04-03T08:08:28.000Z</time>
      </trkpt>
      <trkpt lat="44.07448" lon="1.93263">
        <ele>165</ele>
        <time>2016-04-03T08:08:30.000Z</time>
      </trkpt>
      <trkpt lat="44.07465" lon="1.93222">
        <ele>165</ele>
        <time>2016-04-03T08:08:34.000Z</time>
      </trkpt>
      <trkpt lat="44.0747" lon="1.93214">
        <ele>165</ele>
        <time>2016-04-03T08:08:38.000Z</time>
      </trkpt>
      <trkpt lat="44.07474" lon="1.93207">
        <ele>165</ele>
        <time>2016-04-03T08:08:40.000Z</time>
      </trkpt>
      <trkpt lat="44.07479" lon="1.932">
        <ele>166</ele>
        <time>2016-04-03T08:08:42.000Z</time>
      </trkpt>
      <trkpt lat="44.07479" lon="1.932">
        <ele>166</ele>
        <time>2016-04-03T08:08:44.000Z</time>
      </trkpt>
      <trkpt lat="44.07479" lon="1.932">
        <ele>166</ele>
        <time>2016-04-03T08:08:46.000Z</time>
      </trkpt>
      <trkpt lat="44.07479" lon="1.932">
        <ele>166</ele>
        <time>2016-04-03T08:08:48.000Z</time>
      </trkpt>
      <trkpt lat="44.07479" lon="1.932">
        <ele>166</ele>
        <time>2016-04-03T08:08:50.000Z</time>
      </trkpt>
      <trkpt lat="44.07493" lon="1.93178">
        <ele>167</ele>
        <time>2016-04-03T08:08:52.000Z</time>
      </trkpt>
      <trkpt lat="44.07503" lon="1.93163">
        <ele>167</ele>
        <time>2016-04-03T08:08:54.000Z</time>
      </trkpt>
      <trkpt lat="44.07509" lon="1.93151">
        <ele>167</ele>
        <time>2016-04-03T08:08:56.000Z</time>
      </trkpt>
      <trkpt lat="44.07515" lon="1.93142">
        <ele>167</ele>
        <time>2016-04-03T08:08:58.000Z</time>
      </trkpt>
      <trkpt lat="44.07515" lon="1.93142">
        <ele>167</ele>
        <time>2016-04-03T08:09:00.000Z</time>
      </trkpt>
      <trkpt lat="44.07515" lon="1.93142">
        <ele>167</ele>
        <time>2016-04-03T08:09:02.000Z</time>
      </trkpt>
      <trkpt lat="44.07515" lon="1.93142">
        <ele>167</ele>
        <time>2016-04-03T08:09:04.000Z</time>
      </trkpt>
      <trkpt lat="44.07515" lon="1.93142">
        <ele>167</ele>
        <time>2016-04-03T08:09:06.000Z</time>
      </trkpt>
      <trkpt lat="44.07515" lon="1.93142">
        <ele>167</ele>
        <time>2016-04-03T08:09:08.000Z</time>
      </trkpt>
      <trkpt lat="44.07515" lon="1.93142">
        <ele>167</ele>
        <time>2016-04-03T08:09:10.000Z</time>
      </trkpt>
      <trkpt lat="44.07515" lon="1.93142">
        <ele>167</ele>
        <time>2016-04-03T08:09:20.000Z</time>
      </trkpt>
      <trkpt lat="44.07534" lon="1.9309">
        <ele>167</ele>
        <time>2016-04-03T08:09:22.000Z</time>
      </trkpt>
      <trkpt lat="44.07544" lon="1.93059">
        <ele>167</ele>
        <time>2016-04-03T08:09:24.000Z</time>
      </trkpt>
      <trkpt lat="44.07549" lon="1.93039">
        <ele>167</ele>
        <time>2016-04-03T08:09:26.000Z</time>
      </trkpt>
      <trkpt lat="44.07551" lon="1.93024">
        <ele>167</ele>
        <time>2016-04-03T08:09:28.000Z</time>
      </trkpt>
      <trkpt lat="44.07552" lon="1.93012">
        <ele>167</ele>
        <time>2016-04-03T08:09:30.000Z</time>
      </trkpt>
      <trkpt lat="44.07551" lon="1.92991">
        <ele>167</ele>
        <time>2016-04-03T08:09:32.000Z</time>
      </trkpt>
      <trkpt lat="44.07549" lon="1.92972">
        <ele>168</ele>
        <time>2016-04-03T08:09:36.000Z</time>
      </trkpt>
      <trkpt lat="44.07546" lon="1.92954">
        <ele>168</ele>
        <time>2016-04-03T08:09:40.000Z</time>
      </trkpt>
      <trkpt lat="44.07546" lon="1.92954">
        <ele>168</ele>
        <time>2016-04-03T08:09:42.000Z</time>
      </trkpt>
      <trkpt lat="44.07546" lon="1.92954">
        <ele>168</ele>
        <time>2016-04-03T08:09:44.000Z</time>
      </trkpt>
      <trkpt lat="44.07531" lon="1.92923">
        <ele>165</ele>
        <time>2016-04-03T08:09:48.000Z</time>
      </trkpt>
      <trkpt lat="44.07523" lon="1.92908">
        <ele>163</ele>
        <time>2016-04-03T08:09:52.000Z</time>
      </trkpt>
      <trkpt lat="44.07514" lon="1.92892">
        <ele>162</ele>
        <time>2016-04-03T08:09:56.000Z</time>
      </trkpt>
      <trkpt lat="44.07505" lon="1.92874">
        <ele>161</ele>
        <time>2016-04-03T08:10:00.000Z</time>
      </trkpt>
      <trkpt lat="44.07499" lon="1.92864">
        <ele>161</ele>
        <time>2016-04-03T08:10:02.000Z</time>
      </trkpt>
      <trkpt lat="44.07489" lon="1.92846">
        <ele>159</ele>
        <time>2016-04-03T08:10:06.000Z</time>
      </trkpt>
      <trkpt lat="44.07489" lon="1.92846">
        <ele>159</ele>
        <time>2016-04-03T08:10:08.000Z</time>
      </trkpt>
      <trkpt lat="44.07489" lon="1.92846">
        <ele>159</ele>
        <time>2016-04-03T08:10:10.000Z</time>
      </trkpt>
      <trkpt lat="44.07489" lon="1.92846">
        <ele>159</ele>
        <time>2016-04-03T08:10:12.000Z</time>
      </trkpt>
      <trkpt lat="44.07489" lon="1.92846">
        <ele>159</ele>
        <time>2016-04-03T08:10:14.000Z</time>
      </trkpt>
      <trkpt lat="44.07468" lon="1.92797">
        <ele>157</ele>
        <time>2016-04-03T08:10:18.000Z</time>
      </trkpt>
      <trkpt lat="44.07461" lon="1.92779">
        <ele>157</ele>
        <time>2016-04-03T08:10:22.000Z</time>
      </trkpt>
      <trkpt lat="44.07461" lon="1.92779">
        <ele>157</ele>
        <time>2016-04-03T08:10:24.000Z</time>
      </trkpt>
      <trkpt lat="44.07461" lon="1.92779">
        <ele>157</ele>
        <time>2016-04-03T08:10:26.000Z</time>
      </trkpt>
      <trkpt lat="44.07461" lon="1.92779">
        <ele>157</ele>
        <time>2016-04-03T08:10:28.000Z</time>
      </trkpt>
      <trkpt lat="44.07461" lon="1.92779">
        <ele>157</ele>
        <time>2016-04-03T08:10:30.000Z</time>
      </trkpt>
      <trkpt lat="44.07461" lon="1.92779">
        <ele>157</ele>
        <time>2016-04-03T08:10:32.000Z</time>
      </trkpt>
      <trkpt lat="44.07461" lon="1.92779">
        <ele>157</ele>
        <time>2016-04-03T08:10:34.000Z</time>
      </trkpt>
      <trkpt lat="44.07461" lon="1.92779">
        <ele>157</ele>
        <time>2016-04-03T08:10:36.000Z</time>
      </trkpt>
      <trkpt lat="44.07461" lon="1.92779">
        <ele>157</ele>
        <time>2016-04-03T08:10:38.000Z</time>
      </trkpt>
      <trkpt lat="44.07461" lon="1.92779">
        <ele>157</ele>
        <time>2016-04-03T08:10:40.000Z</time>
      </trkpt>
      <trkpt lat="44.07461" lon="1.92779">
        <ele>157</ele>
        <time>2016-04-03T08:10:42.000Z</time>
      </trkpt>
      <trkpt lat="44.07436" lon="1.92707">
        <ele>157</ele>
        <time>2016-04-03T08:10:46.000Z</time>
      </trkpt>
      <trkpt lat="44.07425" lon="1.92695">
        <ele>156</ele>
        <time>2016-04-03T08:10:52.000Z</time>
      </trkpt>
      <trkpt lat="44.07425" lon="1.92695">
        <ele>156</ele>
        <time>2016-04-03T08:10:54.000Z</time>
      </trkpt>
      <trkpt lat="44.07425" lon="1.92695">
        <ele>156</ele>
        <time>2016-04-03T08:10:56.000Z</time>
      </trkpt>
      <trkpt lat="44.07419" lon="1.92689">
        <ele>155</ele>
        <time>2016-04-03T08:10:58.000Z</time>
      </trkpt>
      <trkpt lat="44.07414" lon="1.92684">
        <ele>154</ele>
        <time>2016-04-03T08:11:00.000Z</time>
      </trkpt>
      <trkpt lat="44.07409" lon="1.92681">
        <ele>154</ele>
        <time>2016-04-03T08:11:02.000Z</time>
      </trkpt>
      <trkpt lat="44.07405" lon="1.92677">
        <ele>153</ele>
        <time>2016-04-03T08:11:04.000Z</time>
      </trkpt>
      <trkpt lat="44.07401" lon="1.92673">
        <ele>153</ele>
        <time>2016-04-03T08:11:06.000Z</time>
      </trkpt>
      <trkpt lat="44.07393" lon="1.92665">
        <ele>152</ele>
        <time>2016-04-03T08:11:08.000Z</time>
      </trkpt>
      <trkpt lat="44.07381" lon="1.92652">
        <ele>151</ele>
        <time>2016-04-03T08:11:12.000Z</time>
      </trkpt>
      <trkpt lat="44.07369" lon="1.92646">
        <ele>149</ele>
        <time>2016-04-03T08:11:16.000Z</time>
      </trkpt>
      <trkpt lat="44.07369" lon="1.92646">
        <ele>149</ele>
        <time>2016-04-03T08:11:18.000Z</time>
      </trkpt>
      <trkpt lat="44.07357" lon="1.92642">
        <ele>147</ele>
        <time>2016-04-03T08:11:20.000Z</time>
      </trkpt>
      <trkpt lat="44.07342" lon="1.92636">
        <ele>146</ele>
        <time>2016-04-03T08:11:24.000Z</time>
      </trkpt>
      <trkpt lat="44.07342" lon="1.92636">
        <ele>146</ele>
        <time>2016-04-03T08:11:26.000Z</time>
      </trkpt>
      <trkpt lat="44.07328" lon="1.92641">
        <ele>145</ele>
        <time>2016-04-03T08:11:28.000Z</time>
      </trkpt>
      <trkpt lat="44.07311" lon="1.92646">
        <ele>144</ele>
        <time>2016-04-03T08:11:32.000Z</time>
      </trkpt>
      <trkpt lat="44.07297" lon="1.92648">
        <ele>142</ele>
        <time>2016-04-03T08:11:37.000Z</time>
      </trkpt>
      <trkpt lat="44.07297" lon="1.92648">
        <ele>142</ele>
        <time>2016-04-03T08:11:38.000Z</time>
      </trkpt>
      <trkpt lat="44.07297" lon="1.92648">
        <ele>142</ele>
        <time>2016-04-03T08:11:41.000Z</time>
      </trkpt>
      <trkpt lat="44.07281" lon="1.92639">
        <ele>140</ele>
        <time>2016-04-03T08:11:46.000Z</time>
      </trkpt>
      <trkpt lat="44.07286" lon="1.92619">
        <ele>138</ele>
        <time>2016-04-03T08:11:50.000Z</time>
      </trkpt>
      <trkpt lat="44.0729" lon="1.92599">
        <ele>137</ele>
        <time>2016-04-03T08:11:54.000Z</time>
      </trkpt>
      <trkpt lat="44.0729" lon="1.92599">
        <ele>137</ele>
        <time>2016-04-03T08:11:56.000Z</time>
      </trkpt>
      <trkpt lat="44.07291" lon="1.92578">
        <ele>135</ele>
        <time>2016-04-03T08:11:58.000Z</time>
      </trkpt>
      <trkpt lat="44.07291" lon="1.92565">
        <ele>135</ele>
        <time>2016-04-03T08:12:00.000Z</time>
      </trkpt>
      <trkpt lat="44.0729" lon="1.92552">
        <ele>135</ele>
        <time>2016-04-03T08:12:02.000Z</time>
      </trkpt>
      <trkpt lat="44.07288" lon="1.92527">
        <ele>135</ele>
        <time>2016-04-03T08:12:06.000Z</time>
      </trkpt>
      <trkpt lat="44.07288" lon="1.92527">
        <ele>135</ele>
        <time>2016-04-03T08:12:08.000Z</time>
      </trkpt>
      <trkpt lat="44.07288" lon="1.92527">
        <ele>135</ele>
        <time>2016-04-03T08:12:10.000Z</time>
      </trkpt>
      <trkpt lat="44.07288" lon="1.92527">
        <ele>135</ele>
        <time>2016-04-03T08:12:12.000Z</time>
      </trkpt>
      <trkpt lat="44.07288" lon="1.92527">
        <ele>135</ele>
        <time>2016-04-03T08:12:14.000Z</time>
      </trkpt>
      <trkpt lat="44.07288" lon="1.92527">
        <ele>135</ele>
        <time>2016-04-03T08:12:16.000Z</time>
      </trkpt>
      <trkpt lat="44.07269" lon="1.92453">
        <ele>134</ele>
        <time>2016-04-03T08:12:22.000Z</time>
      </trkpt>
      <trkpt lat="44.07269" lon="1.92453">
        <ele>134</ele>
        <time>2016-04-03T08:12:24.000Z</time>
      </trkpt>
      <trkpt lat="44.07264" lon="1.92435">
        <ele>134</ele>
        <time>2016-04-03T08:12:26.000Z</time>
      </trkpt>
      <trkpt lat="44.07264" lon="1.92435">
        <ele>134</ele>
        <time>2016-04-03T08:12:28.000Z</time>
      </trkpt>
      <trkpt lat="44.07256" lon="1.92415">
        <ele>135</ele>
        <time>2016-04-03T08:12:30.000Z</time>
      </trkpt>
      <trkpt lat="44.07251" lon="1.92396">
        <ele>136</ele>
        <time>2016-04-03T08:12:34.000Z</time>
      </trkpt>
      <trkpt lat="44.07244" lon="1.92375">
        <ele>136</ele>
        <time>2016-04-03T08:12:38.000Z</time>
      </trkpt>
      <trkpt lat="44.07237" lon="1.92352">
        <ele>137</ele>
        <time>2016-04-03T08:12:42.000Z</time>
      </trkpt>
      <trkpt lat="44.07232" lon="1.9234">
        <ele>138</ele>
        <time>2016-04-03T08:12:44.000Z</time>
      </trkpt>
      <trkpt lat="44.07229" lon="1.92327">
        <ele>138</ele>
        <time>2016-04-03T08:12:46.000Z</time>
      </trkpt>
      <trkpt lat="44.07225" lon="1.92314">
        <ele>138</ele>
        <time>2016-04-03T08:12:48.000Z</time>
      </trkpt>
      <trkpt lat="44.07221" lon="1.923">
        <ele>138</ele>
        <time>2016-04-03T08:12:50.000Z</time>
      </trkpt>
      <trkpt lat="44.07218" lon="1.92288">
        <ele>139</ele>
        <time>2016-04-03T08:12:52.000Z</time>
      </trkpt>
      <trkpt lat="44.07214" lon="1.92273">
        <ele>140</ele>
        <time>2016-04-03T08:12:54.000Z</time>
      </trkpt>
      <trkpt lat="44.07213" lon="1.92261">
        <ele>140</ele>
        <time>2016-04-03T08:12:56.000Z</time>
      </trkpt>
      <trkpt lat="44.07212" lon="1.92247">
        <ele>141</ele>
        <time>2016-04-03T08:12:58.000Z</time>
      </trkpt>
      <trkpt lat="44.07211" lon="1.92234">
        <ele>141</ele>
        <time>2016-04-03T08:13:00.000Z</time>
      </trkpt>
      <trkpt lat="44.07211" lon="1.92234">
        <ele>141</ele>
        <time>2016-04-03T08:13:02.000Z</time>
      </trkpt>
      <trkpt lat="44.07211" lon="1.92234">
        <ele>141</ele>
        <time>2016-04-03T08:13:04.000Z</time>
      </trkpt>
      <trkpt lat="44.07211" lon="1.92234">
        <ele>141</ele>
        <time>2016-04-03T08:13:06.000Z</time>
      </trkpt>
      <trkpt lat="44.07211" lon="1.92234">
        <ele>141</ele>
        <time>2016-04-03T08:13:08.000Z</time>
      </trkpt>
      <trkpt lat="44.07211" lon="1.92234">
        <ele>141</ele>
        <time>2016-04-03T08:13:10.000Z</time>
      </trkpt>
      <trkpt lat="44.07211" lon="1.92234">
        <ele>141</ele>
        <time>2016-04-03T08:13:12.000Z</time>
      </trkpt>
      <trkpt lat="44.07211" lon="1.92234">
        <ele>141</ele>
        <time>2016-04-03T08:13:14.000Z</time>
      </trkpt>
      <trkpt lat="44.07211" lon="1.92234">
        <ele>141</ele>
        <time>2016-04-03T08:13:16.000Z</time>
      </trkpt>
      <trkpt lat="44.07205" lon="1.92197">
        <ele>148</ele>
        <time>2016-04-03T08:13:20.000Z</time>
      </trkpt>
      <trkpt lat="44.072" lon="1.92173">
        <ele>148</ele>
        <time>2016-04-03T08:13:22.000Z</time>
      </trkpt>
      <trkpt lat="44.07196" lon="1.92157">
        <ele>148</ele>
        <time>2016-04-03T08:13:24.000Z</time>
      </trkpt>
      <trkpt lat="44.07192" lon="1.92143">
        <ele>148</ele>
        <time>2016-04-03T08:13:26.000Z</time>
      </trkpt>
      <trkpt lat="44.07188" lon="1.92132">
        <ele>148</ele>
        <time>2016-04-03T08:13:28.000Z</time>
      </trkpt>
      <trkpt lat="44.07178" lon="1.92112">
        <ele>149</ele>
        <time>2016-04-03T08:13:30.000Z</time>
      </trkpt>
      <trkpt lat="44.07178" lon="1.92112">
        <ele>149</ele>
        <time>2016-04-03T08:13:32.000Z</time>
      </trkpt>
      <trkpt lat="44.07168" lon="1.92094">
        <ele>150</ele>
        <time>2016-04-03T08:13:34.000Z</time>
      </trkpt>
      <trkpt lat="44.07168" lon="1.92094">
        <ele>150</ele>
        <time>2016-04-03T08:13:36.000Z</time>
      </trkpt>
      <trkpt lat="44.07158" lon="1.92075">
        <ele>150</ele>
        <time>2016-04-03T08:13:38.000Z</time>
      </trkpt>
      <trkpt lat="44.07148" lon="1.92056">
        <ele>151</ele>
        <time>2016-04-03T08:13:42.000Z</time>
      </trkpt>
      <trkpt lat="44.07137" lon="1.92037">
        <ele>152</ele>
        <time>2016-04-03T08:13:46.000Z</time>
      </trkpt>
      <trkpt lat="44.07125" lon="1.92023">
        <ele>152</ele>
        <time>2016-04-03T08:13:50.000Z</time>
      </trkpt>
      <trkpt lat="44.07125" lon="1.92023">
        <ele>152</ele>
        <time>2016-04-03T08:13:52.000Z</time>
      </trkpt>
      <trkpt lat="44.07125" lon="1.92023">
        <ele>152</ele>
        <time>2016-04-03T08:13:54.000Z</time>
      </trkpt>
      <trkpt lat="44.07125" lon="1.92023">
        <ele>152</ele>
        <time>2016-04-03T08:13:56.000Z</time>
      </trkpt>
      <trkpt lat="44.07125" lon="1.92023">
        <ele>152</ele>
        <time>2016-04-03T08:13:58.000Z</time>
      </trkpt>
      <trkpt lat="44.07125" lon="1.92023">
        <ele>152</ele>
        <time>2016-04-03T08:14:00.000Z</time>
      </trkpt>
      <trkpt lat="44.07125" lon="1.92023">
        <ele>152</ele>
        <time>2016-04-03T08:14:02.000Z</time>
      </trkpt>
      <trkpt lat="44.07074" lon="1.91966">
        <ele>151</ele>
        <time>2016-04-03T08:14:08.000Z</time>
      </trkpt>
      <trkpt lat="44.07061" lon="1.91955">
        <ele>150</ele>
        <time>2016-04-03T08:14:12.000Z</time>
      </trkpt>
      <trkpt lat="44.07061" lon="1.91955">
        <ele>150</ele>
        <time>2016-04-03T08:14:14.000Z</time>
      </trkpt>
      <trkpt lat="44.07061" lon="1.91955">
        <ele>150</ele>
        <time>2016-04-03T08:14:16.000Z</time>
      </trkpt>
      <trkpt lat="44.07061" lon="1.91955">
        <ele>150</ele>
        <time>2016-04-03T08:14:18.000Z</time>
      </trkpt>
      <trkpt lat="44.07048" lon="1.9194">
        <ele>152</ele>
        <time>2016-04-03T08:14:54.000Z</time>
      </trkpt>
      <trkpt lat="44.07039" lon="1.91923">
        <ele>153</ele>
        <time>2016-04-03T08:15:00.000Z</time>
      </trkpt>
      <trkpt lat="44.07029" lon="1.91911">
        <ele>153</ele>
        <time>2016-04-03T08:15:04.000Z</time>
      </trkpt>
      <trkpt lat="44.07018" lon="1.91898">
        <ele>154</ele>
        <time>2016-04-03T08:15:08.000Z</time>
      </trkpt>
      <trkpt lat="44.07007" lon="1.91885">
        <ele>155</ele>
        <time>2016-04-03T08:15:12.000Z</time>
      </trkpt>
      <trkpt lat="44.07007" lon="1.91885">
        <ele>155</ele>
        <time>2016-04-03T08:15:14.000Z</time>
      </trkpt>
      <trkpt lat="44.07002" lon="1.91878">
        <ele>155</ele>
        <time>2016-04-03T08:15:16.000Z</time>
      </trkpt>
      <trkpt lat="44.07002" lon="1.91878">
        <ele>155</ele>
        <time>2016-04-03T08:15:18.000Z</time>
      </trkpt>
      <trkpt lat="44.07002" lon="1.91878">
        <ele>155</ele>
        <time>2016-04-03T08:15:20.000Z</time>
      </trkpt>
      <trkpt lat="44.06989" lon="1.91859">
        <ele>155</ele>
        <time>2016-04-03T08:15:24.000Z</time>
      </trkpt>
      <trkpt lat="44.0698" lon="1.91847">
        <ele>155</ele>
        <time>2016-04-03T08:15:26.000Z</time>
      </trkpt>
      <trkpt lat="44.06973" lon="1.91837">
        <ele>155</ele>
        <time>2016-04-03T08:15:28.000Z</time>
      </trkpt>
      <trkpt lat="44.06965" lon="1.91828">
        <ele>155</ele>
        <time>2016-04-03T08:15:30.000Z</time>
      </trkpt>
      <trkpt lat="44.06959" lon="1.91819">
        <ele>155</ele>
        <time>2016-04-03T08:15:32.000Z</time>
      </trkpt>
      <trkpt lat="44.06948" lon="1.91802">
        <ele>154</ele>
        <time>2016-04-03T08:15:34.000Z</time>
      </trkpt>
      <trkpt lat="44.06948" lon="1.91802">
        <ele>154</ele>
        <time>2016-04-03T08:15:36.000Z</time>
      </trkpt>
      <trkpt lat="44.06948" lon="1.91802">
        <ele>154</ele>
        <time>2016-04-03T08:15:38.000Z</time>
      </trkpt>
      <trkpt lat="44.06948" lon="1.91802">
        <ele>154</ele>
        <time>2016-04-03T08:15:40.000Z</time>
      </trkpt>
      <trkpt lat="44.06948" lon="1.91802">
        <ele>154</ele>
        <time>2016-04-03T08:15:42.000Z</time>
      </trkpt>
      <trkpt lat="44.06948" lon="1.91802">
        <ele>154</ele>
        <time>2016-04-03T08:15:50.000Z</time>
      </trkpt>
      <trkpt lat="44.06948" lon="1.91802">
        <ele>154</ele>
        <time>2016-04-03T08:15:52.000Z</time>
      </trkpt>
      <trkpt lat="44.06948" lon="1.91802">
        <ele>154</ele>
        <time>2016-04-03T08:15:54.000Z</time>
      </trkpt>
      <trkpt lat="44.06946" lon="1.91678">
        <ele>153</ele>
        <time>2016-04-03T08:16:00.000Z</time>
      </trkpt>
      <trkpt lat="44.06946" lon="1.91678">
        <ele>153</ele>
        <time>2016-04-03T08:16:02.000Z</time>
      </trkpt>
      <trkpt lat="44.06945" lon="1.91657">
        <ele>152</ele>
        <time>2016-04-03T08:16:04.000Z</time>
      </trkpt>
      <trkpt lat="44.06947" lon="1.91637">
        <ele>151</ele>
        <time>2016-04-03T08:16:08.000Z</time>
      </trkpt>
      <trkpt lat="44.06955" lon="1.91619">
        <ele>151</ele>
        <time>2016-04-03T08:16:12.000Z</time>
      </trkpt>
      <trkpt lat="44.06955" lon="1.91619">
        <ele>151</ele>
        <time>2016-04-03T08:16:14.000Z</time>
      </trkpt>
      <trkpt lat="44.06969" lon="1.91593">
        <ele>150</ele>
        <time>2016-04-03T08:16:18.000Z</time>
      </trkpt>
      <trkpt lat="44.06979" lon="1.91577">
        <ele>149</ele>
        <time>2016-04-03T08:16:22.000Z</time>
      </trkpt>
      <trkpt lat="44.06979" lon="1.91577">
        <ele>149</ele>
        <time>2016-04-03T08:16:24.000Z</time>
      </trkpt>
      <trkpt lat="44.06979" lon="1.91577">
        <ele>149</ele>
        <time>2016-04-03T08:16:26.000Z</time>
      </trkpt>
      <trkpt lat="44.06979" lon="1.91577">
        <ele>149</ele>
        <time>2016-04-03T08:16:28.000Z</time>
      </trkpt>
      <trkpt lat="44.07007" lon="1.91538">
        <ele>148</ele>
        <time>2016-04-03T08:16:32.000Z</time>
      </trkpt>
      <trkpt lat="44.07015" lon="1.91522">
        <ele>149</ele>
        <time>2016-04-03T08:16:36.000Z</time>
      </trkpt>
      <trkpt lat="44.07015" lon="1.91522">
        <ele>149</ele>
        <time>2016-04-03T08:16:38.000Z</time>
      </trkpt>
      <trkpt lat="44.07018" lon="1.915">
        <ele>149</ele>
        <time>2016-04-03T08:16:40.000Z</time>
      </trkpt>
      <trkpt lat="44.07018" lon="1.915">
        <ele>149</ele>
        <time>2016-04-03T08:16:42.000Z</time>
      </trkpt>
      <trkpt lat="44.07018" lon="1.915">
        <ele>149</ele>
        <time>2016-04-03T08:16:44.000Z</time>
      </trkpt>
      <trkpt lat="44.07018" lon="1.915">
        <ele>149</ele>
        <time>2016-04-03T08:16:46.000Z</time>
      </trkpt>
      <trkpt lat="44.07012" lon="1.91442">
        <ele>149</ele>
        <time>2016-04-03T08:16:52.000Z</time>
      </trkpt>
      <trkpt lat="44.07011" lon="1.91432">
        <ele>148</ele>
        <time>2016-04-03T08:16:56.000Z</time>
      </trkpt>
      <trkpt lat="44.07011" lon="1.91422">
        <ele>147</ele>
        <time>2016-04-03T08:16:58.000Z</time>
      </trkpt>
      <trkpt lat="44.07011" lon="1.91422">
        <ele>147</ele>
        <time>2016-04-03T08:17:00.000Z</time>
      </trkpt>
      <trkpt lat="44.07016" lon="1.91405">
        <ele>146</ele>
        <time>2016-04-03T08:17:04.000Z</time>
      </trkpt>
      <trkpt lat="44.07022" lon="1.91394">
        <ele>146</ele>
        <time>2016-04-03T08:17:06.000Z</time>
      </trkpt>
      <trkpt lat="44.07028" lon="1.91387">
        <ele>146</ele>
        <time>2016-04-03T08:17:08.000Z</time>
      </trkpt>
      <trkpt lat="44.07028" lon="1.91387">
        <ele>146</ele>
        <time>2016-04-03T08:17:10.000Z</time>
      </trkpt>
      <trkpt lat="44.07028" lon="1.91387">
        <ele>146</ele>
        <time>2016-04-03T08:17:12.000Z</time>
      </trkpt>
      <trkpt lat="44.07028" lon="1.91387">
        <ele>146</ele>
        <time>2016-04-03T08:17:14.000Z</time>
      </trkpt>
      <trkpt lat="44.07028" lon="1.91387">
        <ele>146</ele>
        <time>2016-04-03T08:17:16.000Z</time>
      </trkpt>
      <trkpt lat="44.07028" lon="1.91387">
        <ele>146</ele>
        <time>2016-04-03T08:17:18.000Z</time>
      </trkpt>
      <trkpt lat="44.07028" lon="1.91387">
        <ele>146</ele>
        <time>2016-04-03T08:17:20.000Z</time>
      </trkpt>
      <trkpt lat="44.07028" lon="1.91387">
        <ele>146</ele>
        <time>2016-04-03T08:17:22.000Z</time>
      </trkpt>
      <trkpt lat="44.07028" lon="1.91387">
        <ele>146</ele>
        <time>2016-04-03T08:17:24.000Z</time>
      </trkpt>
      <trkpt lat="44.0705" lon="1.91357">
        <ele>148</ele>
        <time>2016-04-03T08:17:28.000Z</time>
      </trkpt>
      <trkpt lat="44.07061" lon="1.91338">
        <ele>148</ele>
        <time>2016-04-03T08:17:30.000Z</time>
      </trkpt>
      <trkpt lat="44.07067" lon="1.91325">
        <ele>148</ele>
        <time>2016-04-03T08:17:32.000Z</time>
      </trkpt>
      <trkpt lat="44.07071" lon="1.91314">
        <ele>148</ele>
        <time>2016-04-03T08:17:34.000Z</time>
      </trkpt>
      <trkpt lat="44.07073" lon="1.91305">
        <ele>147</ele>
        <time>2016-04-03T08:17:36.000Z</time>
      </trkpt>
      <trkpt lat="44.07074" lon="1.91287">
        <ele>147</ele>
        <time>2016-04-03T08:17:38.000Z</time>
      </trkpt>
      <trkpt lat="44.07072" lon="1.9127">
        <ele>148</ele>
        <time>2016-04-03T08:17:42.000Z</time>
      </trkpt>
      <trkpt lat="44.07072" lon="1.9127">
        <ele>148</ele>
        <time>2016-04-03T08:17:44.000Z</time>
      </trkpt>
      <trkpt lat="44.07072" lon="1.9127">
        <ele>148</ele>
        <time>2016-04-03T08:17:46.000Z</time>
      </trkpt>
      <trkpt lat="44.07072" lon="1.9127">
        <ele>148</ele>
        <time>2016-04-03T08:17:48.000Z</time>
      </trkpt>
      <trkpt lat="44.07072" lon="1.9127">
        <ele>148</ele>
        <time>2016-04-03T08:17:50.000Z</time>
      </trkpt>
      <trkpt lat="44.07072" lon="1.9127">
        <ele>148</ele>
        <time>2016-04-03T08:17:52.000Z</time>
      </trkpt>
      <trkpt lat="44.0705" lon="1.91223">
        <ele>147</ele>
        <time>2016-04-03T08:17:56.000Z</time>
      </trkpt>
      <trkpt lat="44.07045" lon="1.91208">
        <ele>146</ele>
        <time>2016-04-03T08:18:00.000Z</time>
      </trkpt>
      <trkpt lat="44.07045" lon="1.91208">
        <ele>146</ele>
        <time>2016-04-03T08:18:02.000Z</time>
      </trkpt>
      <trkpt lat="44.07045" lon="1.91208">
        <ele>146</ele>
        <time>2016-04-03T08:18:04.000Z</time>
      </trkpt>
      <trkpt lat="44.07045" lon="1.91208">
        <ele>146</ele>
        <time>2016-04-03T08:18:06.000Z</time>
      </trkpt>
      <trkpt lat="44.07045" lon="1.91208">
        <ele>146</ele>
        <time>2016-04-03T08:18:08.000Z</time>
      </trkpt>
      <trkpt lat="44.07045" lon="1.91208">
        <ele>146</ele>
        <time>2016-04-03T08:18:12.000Z</time>
      </trkpt>
      <trkpt lat="44.07045" lon="1.91208">
        <ele>146</ele>
        <time>2016-04-03T08:18:14.000Z</time>
      </trkpt>
      <trkpt lat="44.07045" lon="1.91208">
        <ele>146</ele>
        <time>2016-04-03T08:18:16.000Z</time>
      </trkpt>
      <trkpt lat="44.07038" lon="1.9116">
        <ele>151</ele>
        <time>2016-04-03T08:19:29.000Z</time>
      </trkpt>
      <trkpt lat="44.07035" lon="1.91144">
        <ele>151</ele>
        <time>2016-04-03T08:19:35.000Z</time>
      </trkpt>
      <trkpt lat="44.07033" lon="1.9113">
        <ele>151</ele>
        <time>2016-04-03T08:19:39.000Z</time>
      </trkpt>
      <trkpt lat="44.07033" lon="1.91118">
        <ele>152</ele>
        <time>2016-04-03T08:19:43.000Z</time>
      </trkpt>
      <trkpt lat="44.07033" lon="1.91118">
        <ele>152</ele>
        <time>2016-04-03T08:19:45.000Z</time>
      </trkpt>
      <trkpt lat="44.07038" lon="1.91107">
        <ele>152</ele>
        <time>2016-04-03T08:19:47.000Z</time>
      </trkpt>
      <trkpt lat="44.07045" lon="1.91095">
        <ele>152</ele>
        <time>2016-04-03T08:19:51.000Z</time>
      </trkpt>
      <trkpt lat="44.07053" lon="1.91083">
        <ele>152</ele>
        <time>2016-04-03T08:19:55.000Z</time>
      </trkpt>
      <trkpt lat="44.0706" lon="1.91071">
        <ele>152</ele>
        <time>2016-04-03T08:19:59.000Z</time>
      </trkpt>
      <trkpt lat="44.0706" lon="1.91071">
        <ele>152</ele>
        <time>2016-04-03T08:20:01.000Z</time>
      </trkpt>
      <trkpt lat="44.0706" lon="1.91071">
        <ele>152</ele>
        <time>2016-04-03T08:20:03.000Z</time>
      </trkpt>
      <trkpt lat="44.0706" lon="1.91071">
        <ele>152</ele>
        <time>2016-04-03T08:20:05.000Z</time>
      </trkpt>
      <trkpt lat="44.0706" lon="1.91071">
        <ele>152</ele>
        <time>2016-04-03T08:20:07.000Z</time>
      </trkpt>
      <trkpt lat="44.0706" lon="1.91071">
        <ele>152</ele>
        <time>2016-04-03T08:20:09.000Z</time>
      </trkpt>
      <trkpt lat="44.0706" lon="1.91071">
        <ele>152</ele>
        <time>2016-04-03T08:20:15.000Z</time>
      </trkpt>
      <trkpt lat="44.07062" lon="1.91036">
        <ele>159</ele>
        <time>2016-04-03T08:20:49.000Z</time>
      </trkpt>
      <trkpt lat="44.07062" lon="1.91018">
        <ele>159</ele>
        <time>2016-04-03T08:20:51.000Z</time>
      </trkpt>
      <trkpt lat="44.07061" lon="1.91006">
        <ele>160</ele>
        <time>2016-04-03T08:20:53.000Z</time>
      </trkpt>
      <trkpt lat="44.0706" lon="1.90998">
        <ele>160</ele>
        <time>2016-04-03T08:20:55.000Z</time>
      </trkpt>
      <trkpt lat="44.0706" lon="1.90998">
        <ele>160</ele>
        <time>2016-04-03T08:20:57.000Z</time>
      </trkpt>
      <trkpt lat="44.0706" lon="1.90998">
        <ele>160</ele>
        <time>2016-04-03T08:20:59.000Z</time>
      </trkpt>
      <trkpt lat="44.0706" lon="1.90998">
        <ele>160</ele>
        <time>2016-04-03T08:21:01.000Z</time>
      </trkpt>
      <trkpt lat="44.0706" lon="1.90998">
        <ele>160</ele>
        <time>2016-04-03T08:21:03.000Z</time>
      </trkpt>
      <trkpt lat="44.0706" lon="1.90998">
        <ele>160</ele>
        <time>2016-04-03T08:21:05.000Z</time>
      </trkpt>
      <trkpt lat="44.07063" lon="1.90982">
        <ele>162</ele>
        <time>2016-04-03T08:21:54.000Z</time>
      </trkpt>
      <trkpt lat="44.07053" lon="1.90962">
        <ele>160</ele>
        <time>2016-04-03T08:21:59.000Z</time>
      </trkpt>
      <trkpt lat="44.07043" lon="1.90945">
        <ele>159</ele>
        <time>2016-04-03T08:22:01.000Z</time>
      </trkpt>
      <trkpt lat="44.07036" lon="1.90929">
        <ele>158</ele>
        <time>2016-04-03T08:22:03.000Z</time>
      </trkpt>
      <trkpt lat="44.0703" lon="1.90913">
        <ele>157</ele>
        <time>2016-04-03T08:22:05.000Z</time>
      </trkpt>
      <trkpt lat="44.07021" lon="1.90884">
        <ele>157</ele>
        <time>2016-04-03T08:22:07.000Z</time>
      </trkpt>
      <trkpt lat="44.07021" lon="1.90884">
        <ele>157</ele>
        <time>2016-04-03T08:22:09.000Z</time>
      </trkpt>
      <trkpt lat="44.07021" lon="1.90884">
        <ele>157</ele>
        <time>2016-04-03T08:22:11.000Z</time>
      </trkpt>
      <trkpt lat="44.07021" lon="1.90884">
        <ele>157</ele>
        <time>2016-04-03T08:22:13.000Z</time>
      </trkpt>
      <trkpt lat="44.07021" lon="1.90884">
        <ele>157</ele>
        <time>2016-04-03T08:22:15.000Z</time>
      </trkpt>
      <trkpt lat="44.07021" lon="1.90884">
        <ele>157</ele>
        <time>2016-04-03T08:22:17.000Z</time>
      </trkpt>
      <trkpt lat="44.07021" lon="1.90884">
        <ele>157</ele>
        <time>2016-04-03T08:22:25.000Z</time>
      </trkpt>
      <trkpt lat="44.07021" lon="1.90884">
        <ele>157</ele>
        <time>2016-04-03T08:22:27.000Z</time>
      </trkpt>
      <trkpt lat="44.07021" lon="1.90884">
        <ele>157</ele>
        <time>2016-04-03T08:22:29.000Z</time>
      </trkpt>
      <trkpt lat="44.07021" lon="1.90884">
        <ele>157</ele>
        <time>2016-04-03T08:22:31.000Z</time>
      </trkpt>
      <trkpt lat="44.07021" lon="1.90884">
        <ele>157</ele>
        <time>2016-04-03T08:22:33.000Z</time>
      </trkpt>
      <trkpt lat="44.07021" lon="1.90884">
        <ele>157</ele>
        <time>2016-04-03T08:22:35.000Z</time>
      </trkpt>
      <trkpt lat="44.07021" lon="1.90884">
        <ele>157</ele>
        <time>2016-04-03T08:22:37.000Z</time>
      </trkpt>
      <trkpt lat="44.07021" lon="1.90884">
        <ele>157</ele>
        <time>2016-04-03T08:22:39.000Z</time>
      </trkpt>
      <trkpt lat="44.0699" lon="1.90777">
        <ele>156</ele>
        <time>2016-04-03T08:22:45.000Z</time>
      </trkpt>
      <trkpt lat="44.0699" lon="1.90763">
        <ele>156</ele>
        <time>2016-04-03T08:22:49.000Z</time>
      </trkpt>
      <trkpt lat="44.0699" lon="1.90763">
        <ele>156</ele>
        <time>2016-04-03T08:22:51.000Z</time>
      </trkpt>
      <trkpt lat="44.0699" lon="1.90763">
        <ele>156</ele>
        <time>2016-04-03T08:22:53.000Z</time>
      </trkpt>
      <trkpt lat="44.0699" lon="1.90763">
        <ele>156</ele>
        <time>2016-04-03T08:22:55.000Z</time>
      </trkpt>
      <trkpt lat="44.0699" lon="1.90763">
        <ele>156</ele>
        <time>2016-04-03T08:22:57.000Z</time>
      </trkpt>
      <trkpt lat="44.06997" lon="1.90732">
        <ele>154</ele>
        <time>2016-04-03T08:23:01.000Z</time>
      </trkpt>
      <trkpt lat="44.07004" lon="1.90717">
        <ele>152</ele>
        <time>2016-04-03T08:23:07.000Z</time>
      </trkpt>
      <trkpt lat="44.0701" lon="1.90704">
        <ele>152</ele>
        <time>2016-04-03T08:23:11.000Z</time>
      </trkpt>
      <trkpt lat="44.07015" lon="1.90689">
        <ele>153</ele>
        <time>2016-04-03T08:23:15.000Z</time>
      </trkpt>
      <trkpt lat="44.07022" lon="1.9067">
        <ele>153</ele>
        <time>2016-04-03T08:23:19.000Z</time>
      </trkpt>
      <trkpt lat="44.07025" lon="1.90661">
        <ele>152</ele>
        <time>2016-04-03T08:23:23.000Z</time>
      </trkpt>
      <trkpt lat="44.07027" lon="1.90651">
        <ele>151</ele>
        <time>2016-04-03T08:23:25.000Z</time>
      </trkpt>
      <trkpt lat="44.0703" lon="1.90642">
        <ele>151</ele>
        <time>2016-04-03T08:23:27.000Z</time>
      </trkpt>
      <trkpt lat="44.07033" lon="1.90633">
        <ele>151</ele>
        <time>2016-04-03T08:23:29.000Z</time>
      </trkpt>
      <trkpt lat="44.07036" lon="1.90623">
        <ele>151</ele>
        <time>2016-04-03T08:23:31.000Z</time>
      </trkpt>
      <trkpt lat="44.07041" lon="1.90605">
        <ele>152</ele>
        <time>2016-04-03T08:23:33.000Z</time>
      </trkpt>
      <trkpt lat="44.07041" lon="1.90605">
        <ele>152</ele>
        <time>2016-04-03T08:23:35.000Z</time>
      </trkpt>
      <trkpt lat="44.07041" lon="1.90605">
        <ele>152</ele>
        <time>2016-04-03T08:23:37.000Z</time>
      </trkpt>
      <trkpt lat="44.07041" lon="1.90605">
        <ele>152</ele>
        <time>2016-04-03T08:23:39.000Z</time>
      </trkpt>
      <trkpt lat="44.07041" lon="1.90605">
        <ele>152</ele>
        <time>2016-04-03T08:23:41.000Z</time>
      </trkpt>
      <trkpt lat="44.07041" lon="1.90605">
        <ele>152</ele>
        <time>2016-04-03T08:23:47.000Z</time>
      </trkpt>
      <trkpt lat="44.07041" lon="1.90605">
        <ele>152</ele>
        <time>2016-04-03T08:23:49.000Z</time>
      </trkpt>
      <trkpt lat="44.07041" lon="1.90605">
        <ele>152</ele>
        <time>2016-04-03T08:23:51.000Z</time>
      </trkpt>
      <trkpt lat="44.07041" lon="1.90605">
        <ele>152</ele>
        <time>2016-04-03T08:23:53.000Z</time>
      </trkpt>
      <trkpt lat="44.07041" lon="1.90605">
        <ele>152</ele>
        <time>2016-04-03T08:23:55.000Z</time>
      </trkpt>
      <trkpt lat="44.07068" lon="1.90503">
        <ele>152</ele>
        <time>2016-04-03T08:23:59.000Z</time>
      </trkpt>
      <trkpt lat="44.07075" lon="1.90491">
        <ele>151</ele>
        <time>2016-04-03T08:24:03.000Z</time>
      </trkpt>
      <trkpt lat="44.07075" lon="1.90491">
        <ele>151</ele>
        <time>2016-04-03T08:24:05.000Z</time>
      </trkpt>
      <trkpt lat="44.07085" lon="1.90485">
        <ele>152</ele>
        <time>2016-04-03T08:24:07.000Z</time>
      </trkpt>
      <trkpt lat="44.071" lon="1.90481">
        <ele>153</ele>
        <time>2016-04-03T08:24:11.000Z</time>
      </trkpt>
      <trkpt lat="44.07113" lon="1.90473">
        <ele>153</ele>
        <time>2016-04-03T08:24:15.000Z</time>
      </trkpt>
      <trkpt lat="44.07113" lon="1.90473">
        <ele>153</ele>
        <time>2016-04-03T08:24:17.000Z</time>
      </trkpt>
      <trkpt lat="44.07113" lon="1.90473">
        <ele>153</ele>
        <time>2016-04-03T08:24:19.000Z</time>
      </trkpt>
      <trkpt lat="44.07113" lon="1.90473">
        <ele>153</ele>
        <time>2016-04-03T08:24:21.000Z</time>
      </trkpt>
      <trkpt lat="44.07113" lon="1.90473">
        <ele>153</ele>
        <time>2016-04-03T08:24:23.000Z</time>
      </trkpt>
      <trkpt lat="44.07113" lon="1.90473">
        <ele>153</ele>
        <time>2016-04-03T08:24:25.000Z</time>
      </trkpt>
      <trkpt lat="44.07113" lon="1.90473">
        <ele>153</ele>
        <time>2016-04-03T08:24:27.000Z</time>
      </trkpt>
      <trkpt lat="44.07113" lon="1.90473">
        <ele>153</ele>
        <time>2016-04-03T08:24:29.000Z</time>
      </trkpt>
      <trkpt lat="44.07167" lon="1.90444">
        <ele>153</ele>
        <time>2016-04-03T08:24:33.000Z</time>
      </trkpt>
      <trkpt lat="44.0717" lon="1.90425">
        <ele>154</ele>
        <time>2016-04-03T08:24:37.000Z</time>
      </trkpt>
      <trkpt lat="44.07174" lon="1.90408">
        <ele>153</ele>
        <time>2016-04-03T08:24:41.000Z</time>
      </trkpt>
      <trkpt lat="44.07174" lon="1.90408">
        <ele>153</ele>
        <time>2016-04-03T08:24:43.000Z</time>
      </trkpt>
      <trkpt lat="44.07174" lon="1.90408">
        <ele>153</ele>
        <time>2016-04-03T08:24:45.000Z</time>
      </trkpt>
      <trkpt lat="44.07174" lon="1.90408">
        <ele>153</ele>
        <time>2016-04-03T08:24:53.000Z</time>
      </trkpt>
      <trkpt lat="44.07174" lon="1.90408">
        <ele>153</ele>
        <time>2016-04-03T08:24:55.000Z</time>
      </trkpt>
      <trkpt lat="44.07174" lon="1.90408">
        <ele>153</ele>
        <time>2016-04-03T08:24:57.000Z</time>
      </trkpt>
      <trkpt lat="44.07174" lon="1.90408">
        <ele>153</ele>
        <time>2016-04-03T08:24:59.000Z</time>
      </trkpt>
      <trkpt lat="44.07174" lon="1.90408">
        <ele>153</ele>
        <time>2016-04-03T08:25:01.000Z</time>
      </trkpt>
      <trkpt lat="44.07174" lon="1.90408">
        <ele>153</ele>
        <time>2016-04-03T08:25:03.000Z</time>
      </trkpt>
      <trkpt lat="44.07174" lon="1.90408">
        <ele>153</ele>
        <time>2016-04-03T08:25:05.000Z</time>
      </trkpt>
      <trkpt lat="44.07172" lon="1.90358">
        <ele>161</ele>
        <time>2016-04-03T08:25:11.000Z</time>
      </trkpt>
      <trkpt lat="44.07172" lon="1.9033">
        <ele>162</ele>
        <time>2016-04-03T08:25:13.000Z</time>
      </trkpt>
      <trkpt lat="44.07171" lon="1.90313">
        <ele>162</ele>
        <time>2016-04-03T08:25:15.000Z</time>
      </trkpt>
      <trkpt lat="44.0717" lon="1.90301">
        <ele>161</ele>
        <time>2016-04-03T08:25:17.000Z</time>
      </trkpt>
      <trkpt lat="44.0717" lon="1.90291">
        <ele>161</ele>
        <time>2016-04-03T08:25:19.000Z</time>
      </trkpt>
      <trkpt lat="44.07171" lon="1.90273">
        <ele>162</ele>
        <time>2016-04-03T08:25:21.000Z</time>
      </trkpt>
      <trkpt lat="44.07171" lon="1.90273">
        <ele>162</ele>
        <time>2016-04-03T08:25:23.000Z</time>
      </trkpt>
      <trkpt lat="44.07173" lon="1.9026">
        <ele>163</ele>
        <time>2016-04-03T08:25:25.000Z</time>
      </trkpt>
      <trkpt lat="44.07173" lon="1.9026">
        <ele>163</ele>
        <time>2016-04-03T08:25:27.000Z</time>
      </trkpt>
      <trkpt lat="44.07193" lon="1.90216">
        <ele>161</ele>
        <time>2016-04-03T08:25:39.000Z</time>
      </trkpt>
      <trkpt lat="44.07203" lon="1.90211">
        <ele>161</ele>
        <time>2016-04-03T08:25:43.000Z</time>
      </trkpt>
      <trkpt lat="44.07203" lon="1.90211">
        <ele>161</ele>
        <time>2016-04-03T08:25:45.000Z</time>
      </trkpt>
      <trkpt lat="44.07213" lon="1.90209">
        <ele>161</ele>
        <time>2016-04-03T08:25:47.000Z</time>
      </trkpt>
      <trkpt lat="44.07226" lon="1.90211">
        <ele>161</ele>
        <time>2016-04-03T08:25:51.000Z</time>
      </trkpt>
      <trkpt lat="44.07238" lon="1.90217">
        <ele>160</ele>
        <time>2016-04-03T08:25:55.000Z</time>
      </trkpt>
      <trkpt lat="44.07238" lon="1.90217">
        <ele>160</ele>
        <time>2016-04-03T08:25:57.000Z</time>
      </trkpt>
      <trkpt lat="44.07238" lon="1.90217">
        <ele>160</ele>
        <time>2016-04-03T08:25:59.000Z</time>
      </trkpt>
      <trkpt lat="44.07238" lon="1.90217">
        <ele>160</ele>
        <time>2016-04-03T08:26:01.000Z</time>
      </trkpt>
      <trkpt lat="44.07238" lon="1.90217">
        <ele>160</ele>
        <time>2016-04-03T08:26:03.000Z</time>
      </trkpt>
      <trkpt lat="44.07238" lon="1.90217">
        <ele>160</ele>
        <time>2016-04-03T08:26:05.000Z</time>
      </trkpt>
      <trkpt lat="44.07238" lon="1.90217">
        <ele>160</ele>
        <time>2016-04-03T08:26:07.000Z</time>
      </trkpt>
      <trkpt lat="44.07271" lon="1.90266">
        <ele>159</ele>
        <time>2016-04-03T08:26:11.000Z</time>
      </trkpt>
      <trkpt lat="44.0728" lon="1.90277">
        <ele>158</ele>
        <time>2016-04-03T08:26:15.000Z</time>
      </trkpt>
      <trkpt lat="44.0728" lon="1.90277">
        <ele>158</ele>
        <time>2016-04-03T08:26:17.000Z</time>
      </trkpt>
      <trkpt lat="44.0729" lon="1.90286">
        <ele>158</ele>
        <time>2016-04-03T08:26:19.000Z</time>
      </trkpt>
      <trkpt lat="44.07301" lon="1.90293">
        <ele>158</ele>
        <time>2016-04-03T08:26:23.000Z</time>
      </trkpt>
      <trkpt lat="44.07314" lon="1.90297">
        <ele>158</ele>
        <time>2016-04-03T08:26:27.000Z</time>
      </trkpt>
      <trkpt lat="44.07314" lon="1.90297">
        <ele>158</ele>
        <time>2016-04-03T08:26:29.000Z</time>
      </trkpt>
      <trkpt lat="44.07314" lon="1.90297">
        <ele>158</ele>
        <time>2016-04-03T08:26:31.000Z</time>
      </trkpt>
      <trkpt lat="44.07314" lon="1.90297">
        <ele>158</ele>
        <time>2016-04-03T08:26:33.000Z</time>
      </trkpt>
      <trkpt lat="44.07314" lon="1.90297">
        <ele>158</ele>
        <time>2016-04-03T08:26:35.000Z</time>
      </trkpt>
      <trkpt lat="44.07349" lon="1.90291">
        <ele>157</ele>
        <time>2016-04-03T08:26:39.000Z</time>
      </trkpt>
      <trkpt lat="44.07362" lon="1.90291">
        <ele>156</ele>
        <time>2016-04-03T08:26:43.000Z</time>
      </trkpt>
      <trkpt lat="44.07362" lon="1.90291">
        <ele>156</ele>
        <time>2016-04-03T08:26:45.000Z</time>
      </trkpt>
      <trkpt lat="44.07362" lon="1.90291">
        <ele>156</ele>
        <time>2016-04-03T08:26:47.000Z</time>
      </trkpt>
      <trkpt lat="44.07362" lon="1.90291">
        <ele>156</ele>
        <time>2016-04-03T08:26:49.000Z</time>
      </trkpt>
      <trkpt lat="44.07362" lon="1.90291">
        <ele>156</ele>
        <time>2016-04-03T08:26:51.000Z</time>
      </trkpt>
      <trkpt lat="44.07381" lon="1.90292">
        <ele>156</ele>
        <time>2016-04-03T08:26:55.000Z</time>
      </trkpt>
      <trkpt lat="44.07394" lon="1.90291">
        <ele>156</ele>
        <time>2016-04-03T08:26:57.000Z</time>
      </trkpt>
      <trkpt lat="44.07402" lon="1.9029">
        <ele>156</ele>
        <time>2016-04-03T08:26:59.000Z</time>
      </trkpt>
      <trkpt lat="44.07402" lon="1.9029">
        <ele>156</ele>
        <time>2016-04-03T08:27:01.000Z</time>
      </trkpt>
      <trkpt lat="44.07402" lon="1.9029">
        <ele>156</ele>
        <time>2016-04-03T08:27:03.000Z</time>
      </trkpt>
      <trkpt lat="44.07418" lon="1.90276">
        <ele>157</ele>
        <time>2016-04-03T08:27:09.000Z</time>
      </trkpt>
      <trkpt lat="44.07418" lon="1.90276">
        <ele>157</ele>
        <time>2016-04-03T08:27:11.000Z</time>
      </trkpt>
      <trkpt lat="44.07418" lon="1.90276">
        <ele>157</ele>
        <time>2016-04-03T08:27:13.000Z</time>
      </trkpt>
      <trkpt lat="44.07437" lon="1.90271">
        <ele>156</ele>
        <time>2016-04-03T08:27:17.000Z</time>
      </trkpt>
      <trkpt lat="44.0745" lon="1.9027">
        <ele>156</ele>
        <time>2016-04-03T08:27:19.000Z</time>
      </trkpt>
      <trkpt lat="44.0746" lon="1.90271">
        <ele>155</ele>
        <time>2016-04-03T08:27:21.000Z</time>
      </trkpt>
      <trkpt lat="44.07469" lon="1.90273">
        <ele>155</ele>
        <time>2016-04-03T08:27:23.000Z</time>
      </trkpt>
      <trkpt lat="44.07476" lon="1.90275">
        <ele>155</ele>
        <time>2016-04-03T08:27:26.000Z</time>
      </trkpt>
      <trkpt lat="44.07476" lon="1.90275">
        <ele>155</ele>
        <time>2016-04-03T08:27:27.000Z</time>
      </trkpt>
      <trkpt lat="44.07476" lon="1.90275">
        <ele>155</ele>
        <time>2016-04-03T08:27:29.000Z</time>
      </trkpt>
      <trkpt lat="44.07476" lon="1.90275">
        <ele>155</ele>
        <time>2016-04-03T08:27:31.000Z</time>
      </trkpt>
      <trkpt lat="44.07476" lon="1.90275">
        <ele>155</ele>
        <time>2016-04-03T08:27:33.000Z</time>
      </trkpt>
      <trkpt lat="44.07476" lon="1.90275">
        <ele>155</ele>
        <time>2016-04-03T08:27:39.000Z</time>
      </trkpt>
      <trkpt lat="44.07476" lon="1.90275">
        <ele>155</ele>
        <time>2016-04-03T08:27:41.000Z</time>
      </trkpt>
      <trkpt lat="44.07476" lon="1.90275">
        <ele>155</ele>
        <time>2016-04-03T08:27:43.000Z</time>
      </trkpt>
      <trkpt lat="44.07552" lon="1.90305">
        <ele>152</ele>
        <time>2016-04-03T08:27:47.000Z</time>
      </trkpt>
      <trkpt lat="44.07564" lon="1.90312">
        <ele>151</ele>
        <time>2016-04-03T08:27:51.000Z</time>
      </trkpt>
      <trkpt lat="44.07578" lon="1.90316">
        <ele>151</ele>
        <time>2016-04-03T08:27:55.000Z</time>
      </trkpt>
      <trkpt lat="44.07578" lon="1.90316">
        <ele>151</ele>
        <time>2016-04-03T08:27:57.000Z</time>
      </trkpt>
      <trkpt lat="44.07578" lon="1.90316">
        <ele>151</ele>
        <time>2016-04-03T08:27:59.000Z</time>
      </trkpt>
      <trkpt lat="44.07597" lon="1.90317">
        <ele>153</ele>
        <time>2016-04-03T08:28:01.000Z</time>
      </trkpt>
      <trkpt lat="44.0761" lon="1.90316">
        <ele>153</ele>
        <time>2016-04-03T08:28:05.000Z</time>
      </trkpt>
      <trkpt lat="44.0761" lon="1.90316">
        <ele>153</ele>
        <time>2016-04-03T08:28:07.000Z</time>
      </trkpt>
      <trkpt lat="44.0761" lon="1.90316">
        <ele>153</ele>
        <time>2016-04-03T08:28:09.000Z</time>
      </trkpt>
      <trkpt lat="44.07644" lon="1.90311">
        <ele>153</ele>
        <time>2016-04-03T08:28:15.000Z</time>
      </trkpt>
      <trkpt lat="44.07658" lon="1.90312">
        <ele>153</ele>
        <time>2016-04-03T08:28:19.000Z</time>
      </trkpt>
      <trkpt lat="44.07658" lon="1.90312">
        <ele>153</ele>
        <time>2016-04-03T08:28:21.000Z</time>
      </trkpt>
      <trkpt lat="44.07658" lon="1.90312">
        <ele>153</ele>
        <time>2016-04-03T08:28:23.000Z</time>
      </trkpt>
      <trkpt lat="44.07658" lon="1.90312">
        <ele>153</ele>
        <time>2016-04-03T08:28:25.000Z</time>
      </trkpt>
      <trkpt lat="44.0769" lon="1.90319">
        <ele>152</ele>
        <time>2016-04-03T08:28:29.000Z</time>
      </trkpt>
      <trkpt lat="44.07703" lon="1.90323">
        <ele>152</ele>
        <time>2016-04-03T08:28:33.000Z</time>
      </trkpt>
      <trkpt lat="44.07703" lon="1.90323">
        <ele>152</ele>
        <time>2016-04-03T08:28:35.000Z</time>
      </trkpt>
      <trkpt lat="44.07703" lon="1.90323">
        <ele>152</ele>
        <time>2016-04-03T08:28:37.000Z</time>
      </trkpt>
      <trkpt lat="44.07703" lon="1.90323">
        <ele>152</ele>
        <time>2016-04-03T08:28:39.000Z</time>
      </trkpt>
      <trkpt lat="44.07703" lon="1.90323">
        <ele>152</ele>
        <time>2016-04-03T08:28:41.000Z</time>
      </trkpt>
      <trkpt lat="44.07703" lon="1.90323">
        <ele>152</ele>
        <time>2016-04-03T08:28:43.000Z</time>
      </trkpt>
      <trkpt lat="44.07703" lon="1.90323">
        <ele>152</ele>
        <time>2016-04-03T08:28:45.000Z</time>
      </trkpt>
      <trkpt lat="44.07713" lon="1.90352">
        <ele>151</ele>
        <time>2016-04-03T08:28:49.000Z</time>
      </trkpt>
      <trkpt lat="44.0772" lon="1.90372">
        <ele>151</ele>
        <time>2016-04-03T08:28:51.000Z</time>
      </trkpt>
      <trkpt lat="44.07724" lon="1.90386">
        <ele>151</ele>
        <time>2016-04-03T08:28:53.000Z</time>
      </trkpt>
      <trkpt lat="44.07728" lon="1.90398">
        <ele>152</ele>
        <time>2016-04-03T08:28:55.000Z</time>
      </trkpt>
      <trkpt lat="44.07731" lon="1.90408">
        <ele>152</ele>
        <time>2016-04-03T08:28:57.000Z</time>
      </trkpt>
      <trkpt lat="44.07736" lon="1.90428">
        <ele>152</ele>
        <time>2016-04-03T08:28:59.000Z</time>
      </trkpt>
      <trkpt lat="44.07736" lon="1.90428">
        <ele>152</ele>
        <time>2016-04-03T08:29:01.000Z</time>
      </trkpt>
      <trkpt lat="44.07736" lon="1.90428">
        <ele>152</ele>
        <time>2016-04-03T08:29:03.000Z</time>
      </trkpt>
      <trkpt lat="44.07736" lon="1.90428">
        <ele>152</ele>
        <time>2016-04-03T08:29:05.000Z</time>
      </trkpt>
      <trkpt lat="44.07736" lon="1.90428">
        <ele>152</ele>
        <time>2016-04-03T08:29:07.000Z</time>
      </trkpt>
      <trkpt lat="44.07764" lon="1.90434">
        <ele>152</ele>
        <time>2016-04-03T08:29:13.000Z</time>
      </trkpt>
      <trkpt lat="44.07775" lon="1.90417">
        <ele>152</ele>
        <time>2016-04-03T08:29:17.000Z</time>
      </trkpt>
      <trkpt lat="44.07788" lon="1.90401">
        <ele>152</ele>
        <time>2016-04-03T08:29:21.000Z</time>
      </trkpt>
      <trkpt lat="44.078" lon="1.90383">
        <ele>152</ele>
        <time>2016-04-03T08:29:25.000Z</time>
      </trkpt>
      <trkpt lat="44.07806" lon="1.90374">
        <ele>152</ele>
        <time>2016-04-03T08:29:27.000Z</time>
      </trkpt>
      <trkpt lat="44.07813" lon="1.90365">
        <ele>152</ele>
        <time>2016-04-03T08:29:29.000Z</time>
      </trkpt>
      <trkpt lat="44.07818" lon="1.90355">
        <ele>152</ele>
        <time>2016-04-03T08:29:31.000Z</time>
      </trkpt>
      <trkpt lat="44.07823" lon="1.90344">
        <ele>152</ele>
        <time>2016-04-03T08:29:33.000Z</time>
      </trkpt>
      <trkpt lat="44.07826" lon="1.90332">
        <ele>152</ele>
        <time>2016-04-03T08:29:35.000Z</time>
      </trkpt>
      <trkpt lat="44.07826" lon="1.90332">
        <ele>152</ele>
        <time>2016-04-03T08:29:37.000Z</time>
      </trkpt>
      <trkpt lat="44.07826" lon="1.90332">
        <ele>152</ele>
        <time>2016-04-03T08:29:39.000Z</time>
      </trkpt>
      <trkpt lat="44.07826" lon="1.90332">
        <ele>152</ele>
        <time>2016-04-03T08:29:41.000Z</time>
      </trkpt>
      <trkpt lat="44.07826" lon="1.90332">
        <ele>152</ele>
        <time>2016-04-03T08:29:43.000Z</time>
      </trkpt>
      <trkpt lat="44.07836" lon="1.90265">
        <ele>154</ele>
        <time>2016-04-03T08:29:47.000Z</time>
      </trkpt>
      <trkpt lat="44.0784" lon="1.90253">
        <ele>155</ele>
        <time>2016-04-03T08:29:49.000Z</time>
      </trkpt>
      <trkpt lat="44.07846" lon="1.90243">
        <ele>155</ele>
        <time>2016-04-03T08:29:51.000Z</time>
      </trkpt>
      <trkpt lat="44.07852" lon="1.90233">
        <ele>156</ele>
        <time>2016-04-03T08:29:53.000Z</time>
      </trkpt>
      <trkpt lat="44.07858" lon="1.90221">
        <ele>155</ele>
        <time>2016-04-03T08:29:55.000Z</time>
      </trkpt>
      <trkpt lat="44.07864" lon="1.90208">
        <ele>155</ele>
        <time>2016-04-03T08:29:57.000Z</time>
      </trkpt>
      <trkpt lat="44.07869" lon="1.90194">
        <ele>154</ele>
        <time>2016-04-03T08:29:59.000Z</time>
      </trkpt>
      <trkpt lat="44.07873" lon="1.9018">
        <ele>154</ele>
        <time>2016-04-03T08:30:01.000Z</time>
      </trkpt>
      <trkpt lat="44.07877" lon="1.90166">
        <ele>154</ele>
        <time>2016-04-03T08:30:03.000Z</time>
      </trkpt>
      <trkpt lat="44.07881" lon="1.90153">
        <ele>153</ele>
        <time>2016-04-03T08:30:05.000Z</time>
      </trkpt>
      <trkpt lat="44.07884" lon="1.90139">
        <ele>153</ele>
        <time>2016-04-03T08:30:07.000Z</time>
      </trkpt>
      <trkpt lat="44.07888" lon="1.90125">
        <ele>152</ele>
        <time>2016-04-03T08:30:09.000Z</time>
      </trkpt>
      <trkpt lat="44.07892" lon="1.90111">
        <ele>152</ele>
        <time>2016-04-03T08:30:11.000Z</time>
      </trkpt>
      <trkpt lat="44.07896" lon="1.90097">
        <ele>152</ele>
        <time>2016-04-03T08:30:13.000Z</time>
      </trkpt>
      <trkpt lat="44.079" lon="1.90083">
        <ele>152</ele>
        <time>2016-04-03T08:30:15.000Z</time>
      </trkpt>
      <trkpt lat="44.07904" lon="1.90069">
        <ele>151</ele>
        <time>2016-04-03T08:30:17.000Z</time>
      </trkpt>
      <trkpt lat="44.07904" lon="1.90069">
        <ele>151</ele>
        <time>2016-04-03T08:30:19.000Z</time>
      </trkpt>
      <trkpt lat="44.07904" lon="1.90069">
        <ele>151</ele>
        <time>2016-04-03T08:30:21.000Z</time>
      </trkpt>
      <trkpt lat="44.07904" lon="1.90069">
        <ele>151</ele>
        <time>2016-04-03T08:30:23.000Z</time>
      </trkpt>
      <trkpt lat="44.07904" lon="1.90069">
        <ele>151</ele>
        <time>2016-04-03T08:30:25.000Z</time>
      </trkpt>
      <trkpt lat="44.07904" lon="1.90069">
        <ele>151</ele>
        <time>2016-04-03T08:30:27.000Z</time>
      </trkpt>
      <trkpt lat="44.07904" lon="1.90069">
        <ele>151</ele>
        <time>2016-04-03T08:30:29.000Z</time>
      </trkpt>
      <trkpt lat="44.07904" lon="1.90069">
        <ele>151</ele>
        <time>2016-04-03T08:30:31.000Z</time>
      </trkpt>
      <trkpt lat="44.07904" lon="1.90069">
        <ele>151</ele>
        <time>2016-04-03T08:30:33.000Z</time>
      </trkpt>
      <trkpt lat="44.07904" lon="1.90069">
        <ele>151</ele>
        <time>2016-04-03T08:30:37.000Z</time>
      </trkpt>
      <trkpt lat="44.07904" lon="1.90069">
        <ele>151</ele>
        <time>2016-04-03T08:30:39.000Z</time>
      </trkpt>
      <trkpt lat="44.07942" lon="1.89949">
        <ele>151</ele>
        <time>2016-04-03T08:30:43.000Z</time>
      </trkpt>
      <trkpt lat="44.07932" lon="1.89933">
        <ele>151</ele>
        <time>2016-04-03T08:30:47.000Z</time>
      </trkpt>
      <trkpt lat="44.07932" lon="1.89933">
        <ele>151</ele>
        <time>2016-04-03T08:30:49.000Z</time>
      </trkpt>
      <trkpt lat="44.07932" lon="1.89933">
        <ele>151</ele>
        <time>2016-04-03T08:30:51.000Z</time>
      </trkpt>
      <trkpt lat="44.07932" lon="1.89933">
        <ele>151</ele>
        <time>2016-04-03T08:30:55.000Z</time>
      </trkpt>
      <trkpt lat="44.07932" lon="1.89933">
        <ele>151</ele>
        <time>2016-04-03T08:30:57.000Z</time>
      </trkpt>
      <trkpt lat="44.07932" lon="1.89933">
        <ele>151</ele>
        <time>2016-04-03T08:30:59.000Z</time>
      </trkpt>
      <trkpt lat="44.07912" lon="1.89907">
        <ele>152</ele>
        <time>2016-04-03T08:31:03.000Z</time>
      </trkpt>
      <trkpt lat="44.07898" lon="1.89893">
        <ele>152</ele>
        <time>2016-04-03T08:31:05.000Z</time>
      </trkpt>
      <trkpt lat="44.07888" lon="1.89884">
        <ele>152</ele>
        <time>2016-04-03T08:31:07.000Z</time>
      </trkpt>
      <trkpt lat="44.07878" lon="1.89876">
        <ele>153</ele>
        <time>2016-04-03T08:31:09.000Z</time>
      </trkpt>
      <trkpt lat="44.0787" lon="1.89868">
        <ele>154</ele>
        <time>2016-04-03T08:31:11.000Z</time>
      </trkpt>
      <trkpt lat="44.07856" lon="1.89852">
        <ele>154</ele>
        <time>2016-04-03T08:31:13.000Z</time>
      </trkpt>
      <trkpt lat="44.07856" lon="1.89852">
        <ele>154</ele>
        <time>2016-04-03T08:31:15.000Z</time>
      </trkpt>
      <trkpt lat="44.07856" lon="1.89852">
        <ele>154</ele>
        <time>2016-04-03T08:31:17.000Z</time>
      </trkpt>
      <trkpt lat="44.07856" lon="1.89852">
        <ele>154</ele>
        <time>2016-04-03T08:31:19.000Z</time>
      </trkpt>
      <trkpt lat="44.07856" lon="1.89852">
        <ele>154</ele>
        <time>2016-04-03T08:31:21.000Z</time>
      </trkpt>
      <trkpt lat="44.07856" lon="1.89852">
        <ele>154</ele>
        <time>2016-04-03T08:31:23.000Z</time>
      </trkpt>
      <trkpt lat="44.07856" lon="1.89852">
        <ele>154</ele>
        <time>2016-04-03T08:31:25.000Z</time>
      </trkpt>
      <trkpt lat="44.07856" lon="1.89852">
        <ele>154</ele>
        <time>2016-04-03T08:31:31.000Z</time>
      </trkpt>
      <trkpt lat="44.07856" lon="1.89852">
        <ele>154</ele>
        <time>2016-04-03T08:31:33.000Z</time>
      </trkpt>
      <trkpt lat="44.07856" lon="1.89852">
        <ele>154</ele>
        <time>2016-04-03T08:31:35.000Z</time>
      </trkpt>
      <trkpt lat="44.07856" lon="1.89852">
        <ele>154</ele>
        <time>2016-04-03T08:31:37.000Z</time>
      </trkpt>
      <trkpt lat="44.07856" lon="1.89852">
        <ele>154</ele>
        <time>2016-04-03T08:31:39.000Z</time>
      </trkpt>
      <trkpt lat="44.07822" lon="1.89719">
        <ele>160</ele>
        <time>2016-04-03T08:31:45.000Z</time>
      </trkpt>
      <trkpt lat="44.07823" lon="1.897">
        <ele>161</ele>
        <time>2016-04-03T08:31:49.000Z</time>
      </trkpt>
      <trkpt lat="44.07821" lon="1.89681">
        <ele>163</ele>
        <time>2016-04-03T08:31:53.000Z</time>
      </trkpt>
      <trkpt lat="44.07821" lon="1.89681">
        <ele>163</ele>
        <time>2016-04-03T08:31:55.000Z</time>
      </trkpt>
      <trkpt lat="44.07821" lon="1.89681">
        <ele>163</ele>
        <time>2016-04-03T08:31:57.000Z</time>
      </trkpt>
      <trkpt lat="44.07821" lon="1.89681">
        <ele>163</ele>
        <time>2016-04-03T08:31:59.000Z</time>
      </trkpt>
      <trkpt lat="44.07821" lon="1.89681">
        <ele>163</ele>
        <time>2016-04-03T08:32:01.000Z</time>
      </trkpt>
      <trkpt lat="44.07821" lon="1.89681">
        <ele>163</ele>
        <time>2016-04-03T08:32:03.000Z</time>
      </trkpt>
      <trkpt lat="44.0778" lon="1.89638">
        <ele>169</ele>
        <time>2016-04-03T08:32:09.000Z</time>
      </trkpt>
      <trkpt lat="44.07769" lon="1.89629">
        <ele>170</ele>
        <time>2016-04-03T08:32:13.000Z</time>
      </trkpt>
      <trkpt lat="44.07769" lon="1.89629">
        <ele>170</ele>
        <time>2016-04-03T08:32:15.000Z</time>
      </trkpt>
      <trkpt lat="44.0776" lon="1.89617">
        <ele>172</ele>
        <time>2016-04-03T08:32:17.000Z</time>
      </trkpt>
      <trkpt lat="44.07753" lon="1.89599">
        <ele>172</ele>
        <time>2016-04-03T08:32:21.000Z</time>
      </trkpt>
      <trkpt lat="44.07746" lon="1.89582">
        <ele>173</ele>
        <time>2016-04-03T08:32:25.000Z</time>
      </trkpt>
      <trkpt lat="44.07739" lon="1.89564">
        <ele>175</ele>
        <time>2016-04-03T08:32:29.000Z</time>
      </trkpt>
      <trkpt lat="44.07736" lon="1.89552">
        <ele>176</ele>
        <time>2016-04-03T08:32:33.000Z</time>
      </trkpt>
      <trkpt lat="44.07733" lon="1.89542">
        <ele>176</ele>
        <time>2016-04-03T08:32:35.000Z</time>
      </trkpt>
      <trkpt lat="44.07733" lon="1.89542">
        <ele>176</ele>
        <time>2016-04-03T08:32:37.000Z</time>
      </trkpt>
      <trkpt lat="44.07727" lon="1.89527">
        <ele>174</ele>
        <time>2016-04-03T08:32:39.000Z</time>
      </trkpt>
      <trkpt lat="44.07722" lon="1.89514">
        <ele>173</ele>
        <time>2016-04-03T08:32:41.000Z</time>
      </trkpt>
      <trkpt lat="44.07722" lon="1.89514">
        <ele>173</ele>
        <time>2016-04-03T08:32:43.000Z</time>
      </trkpt>
      <trkpt lat="44.07722" lon="1.89514">
        <ele>173</ele>
        <time>2016-04-03T08:32:45.000Z</time>
      </trkpt>
      <trkpt lat="44.07722" lon="1.89514">
        <ele>173</ele>
        <time>2016-04-03T08:32:47.000Z</time>
      </trkpt>
      <trkpt lat="44.07722" lon="1.89514">
        <ele>173</ele>
        <time>2016-04-03T08:32:49.000Z</time>
      </trkpt>
      <trkpt lat="44.07722" lon="1.89514">
        <ele>173</ele>
        <time>2016-04-03T08:32:51.000Z</time>
      </trkpt>
      <trkpt lat="44.07722" lon="1.89514">
        <ele>173</ele>
        <time>2016-04-03T08:32:53.000Z</time>
      </trkpt>
      <trkpt lat="44.07722" lon="1.89514">
        <ele>173</ele>
        <time>2016-04-03T08:32:55.000Z</time>
      </trkpt>
      <trkpt lat="44.07722" lon="1.89514">
        <ele>173</ele>
        <time>2016-04-03T08:32:57.000Z</time>
      </trkpt>
      <trkpt lat="44.07702" lon="1.89484">
        <ele>171</ele>
        <time>2016-04-03T08:33:01.000Z</time>
      </trkpt>
      <trkpt lat="44.07689" lon="1.89471">
        <ele>171</ele>
        <time>2016-04-03T08:33:03.000Z</time>
      </trkpt>
      <trkpt lat="44.0768" lon="1.89466">
        <ele>171</ele>
        <time>2016-04-03T08:33:05.000Z</time>
      </trkpt>
      <trkpt lat="44.07672" lon="1.89467">
        <ele>170</ele>
        <time>2016-04-03T08:33:07.000Z</time>
      </trkpt>
      <trkpt lat="44.07664" lon="1.8947">
        <ele>171</ele>
        <time>2016-04-03T08:33:09.000Z</time>
      </trkpt>
      <trkpt lat="44.0765" lon="1.89477">
        <ele>171</ele>
        <time>2016-04-03T08:33:11.000Z</time>
      </trkpt>
      <trkpt lat="44.0765" lon="1.89477">
        <ele>171</ele>
        <time>2016-04-03T08:33:13.000Z</time>
      </trkpt>
      <trkpt lat="44.0765" lon="1.89477">
        <ele>171</ele>
        <time>2016-04-03T08:33:15.000Z</time>
      </trkpt>
      <trkpt lat="44.0765" lon="1.89477">
        <ele>171</ele>
        <time>2016-04-03T08:33:17.000Z</time>
      </trkpt>
      <trkpt lat="44.0765" lon="1.89477">
        <ele>171</ele>
        <time>2016-04-03T08:33:19.000Z</time>
      </trkpt>
      <trkpt lat="44.0765" lon="1.89477">
        <ele>171</ele>
        <time>2016-04-03T08:33:21.000Z</time>
      </trkpt>
      <trkpt lat="44.0765" lon="1.89477">
        <ele>171</ele>
        <time>2016-04-03T08:33:23.000Z</time>
      </trkpt>
      <trkpt lat="44.0765" lon="1.89477">
        <ele>171</ele>
        <time>2016-04-03T08:33:26.000Z</time>
      </trkpt>
      <trkpt lat="44.07621" lon="1.89447">
        <ele>173</ele>
        <time>2016-04-03T08:33:31.000Z</time>
      </trkpt>
      <trkpt lat="44.07621" lon="1.89447">
        <ele>173</ele>
        <time>2016-04-03T08:33:37.000Z</time>
      </trkpt>
      <trkpt lat="44.07621" lon="1.89447">
        <ele>173</ele>
        <time>2016-04-03T08:33:39.000Z</time>
      </trkpt>
      <trkpt lat="44.07621" lon="1.89447">
        <ele>173</ele>
        <time>2016-04-03T08:33:41.000Z</time>
      </trkpt>
      <trkpt lat="44.07621" lon="1.89447">
        <ele>173</ele>
        <time>2016-04-03T08:33:43.000Z</time>
      </trkpt>
      <trkpt lat="44.07621" lon="1.89447">
        <ele>173</ele>
        <time>2016-04-03T08:33:45.000Z</time>
      </trkpt>
      <trkpt lat="44.07604" lon="1.89407">
        <ele>176</ele>
        <time>2016-04-03T08:33:49.000Z</time>
      </trkpt>
      <trkpt lat="44.076" lon="1.89396">
        <ele>176</ele>
        <time>2016-04-03T08:33:53.000Z</time>
      </trkpt>
      <trkpt lat="44.07593" lon="1.89382">
        <ele>178</ele>
        <time>2016-04-03T08:33:59.000Z</time>
      </trkpt>
      <trkpt lat="44.07593" lon="1.89382">
        <ele>178</ele>
        <time>2016-04-03T08:34:01.000Z</time>
      </trkpt>
      <trkpt lat="44.07593" lon="1.89382">
        <ele>178</ele>
        <time>2016-04-03T08:34:03.000Z</time>
      </trkpt>
      <trkpt lat="44.07593" lon="1.89382">
        <ele>178</ele>
        <time>2016-04-03T08:34:05.000Z</time>
      </trkpt>
      <trkpt lat="44.07593" lon="1.89382">
        <ele>178</ele>
        <time>2016-04-03T08:34:09.000Z</time>
      </trkpt>
      <trkpt lat="44.07593" lon="1.89382">
        <ele>178</ele>
        <time>2016-04-03T08:34:11.000Z</time>
      </trkpt>
      <trkpt lat="44.07593" lon="1.89382">
        <ele>178</ele>
        <time>2016-04-03T08:34:13.000Z</time>
      </trkpt>
      <trkpt lat="44.07593" lon="1.89382">
        <ele>178</ele>
        <time>2016-04-03T08:34:15.000Z</time>
      </trkpt>
      <trkpt lat="44.07585" lon="1.89361">
        <ele>188</ele>
        <time>2016-04-03T08:34:27.000Z</time>
      </trkpt>
      <trkpt lat="44.07579" lon="1.89351">
        <ele>189</ele>
        <time>2016-04-03T08:34:29.000Z</time>
      </trkpt>
      <trkpt lat="44.07575" lon="1.89346">
        <ele>189</ele>
        <time>2016-04-03T08:34:31.000Z</time>
      </trkpt>
      <trkpt lat="44.07569" lon="1.89345">
        <ele>190</ele>
        <time>2016-04-03T08:34:35.000Z</time>
      </trkpt>
      <trkpt lat="44.07564" lon="1.89344">
        <ele>191</ele>
        <time>2016-04-03T08:34:37.000Z</time>
      </trkpt>
      <trkpt lat="44.07559" lon="1.89345">
        <ele>191</ele>
        <time>2016-04-03T08:34:39.000Z</time>
      </trkpt>
      <trkpt lat="44.07553" lon="1.89346">
        <ele>190</ele>
        <time>2016-04-03T08:34:43.000Z</time>
      </trkpt>
      <trkpt lat="44.07553" lon="1.89346">
        <ele>190</ele>
        <time>2016-04-03T08:34:45.000Z</time>
      </trkpt>
      <trkpt lat="44.07553" lon="1.89346">
        <ele>190</ele>
        <time>2016-04-03T08:34:47.000Z</time>
      </trkpt>
      <trkpt lat="44.07553" lon="1.89346">
        <ele>190</ele>
        <time>2016-04-03T08:34:49.000Z</time>
      </trkpt>
      <trkpt lat="44.07549" lon="1.89337">
        <ele>190</ele>
        <time>2016-04-03T08:34:53.000Z</time>
      </trkpt>
      <trkpt lat="44.07547" lon="1.89331">
        <ele>190</ele>
        <time>2016-04-03T08:34:55.000Z</time>
      </trkpt>
      <trkpt lat="44.07547" lon="1.89331">
        <ele>190</ele>
        <time>2016-04-03T08:34:57.000Z</time>
      </trkpt>
      <trkpt lat="44.07545" lon="1.89324">
        <ele>191</ele>
        <time>2016-04-03T08:34:59.000Z</time>
      </trkpt>
      <trkpt lat="44.07545" lon="1.89324">
        <ele>191</ele>
        <time>2016-04-03T08:35:03.000Z</time>
      </trkpt>
      <trkpt lat="44.07545" lon="1.89324">
        <ele>191</ele>
        <time>2016-04-03T08:35:05.000Z</time>
      </trkpt>
      <trkpt lat="44.07545" lon="1.89324">
        <ele>191</ele>
        <time>2016-04-03T08:35:07.000Z</time>
      </trkpt>
      <trkpt lat="44.07545" lon="1.89324">
        <ele>191</ele>
        <time>2016-04-03T08:35:09.000Z</time>
      </trkpt>
      <trkpt lat="44.07545" lon="1.89324">
        <ele>191</ele>
        <time>2016-04-03T08:35:11.000Z</time>
      </trkpt>
      <trkpt lat="44.07545" lon="1.89324">
        <ele>191</ele>
        <time>2016-04-03T08:35:13.000Z</time>
      </trkpt>
      <trkpt lat="44.07533" lon="1.89316">
        <ele>193</ele>
        <time>2016-04-03T08:35:15.000Z</time>
      </trkpt>
      <trkpt lat="44.07524" lon="1.89312">
        <ele>193</ele>
        <time>2016-04-03T08:35:17.000Z</time>
      </trkpt>
      <trkpt lat="44.07519" lon="1.8931">
        <ele>193</ele>
        <time>2016-04-03T08:35:19.000Z</time>
      </trkpt>
      <trkpt lat="44.07513" lon="1.89309">
        <ele>193</ele>
        <time>2016-04-03T08:35:23.000Z</time>
      </trkpt>
      <trkpt lat="44.07508" lon="1.89308">
        <ele>193</ele>
        <time>2016-04-03T08:35:25.000Z</time>
      </trkpt>
      <trkpt lat="44.07503" lon="1.89308">
        <ele>192</ele>
        <time>2016-04-03T08:35:29.000Z</time>
      </trkpt>
      <trkpt lat="44.07498" lon="1.89306">
        <ele>192</ele>
        <time>2016-04-03T08:35:31.000Z</time>
      </trkpt>
      <trkpt lat="44.07493" lon="1.89302">
        <ele>191</ele>
        <time>2016-04-03T08:35:35.000Z</time>
      </trkpt>
      <trkpt lat="44.07493" lon="1.89302">
        <ele>191</ele>
        <time>2016-04-03T08:35:37.000Z</time>
      </trkpt>
      <trkpt lat="44.07493" lon="1.89302">
        <ele>191</ele>
        <time>2016-04-03T08:35:39.000Z</time>
      </trkpt>
      <trkpt lat="44.07493" lon="1.89302">
        <ele>191</ele>
        <time>2016-04-03T08:35:41.000Z</time>
      </trkpt>
      <trkpt lat="44.0749" lon="1.89288">
        <ele>189</ele>
        <time>2016-04-03T08:35:45.000Z</time>
      </trkpt>
      <trkpt lat="44.07489" lon="1.89279">
        <ele>189</ele>
        <time>2016-04-03T08:35:47.000Z</time>
      </trkpt>
      <trkpt lat="44.07489" lon="1.89272">
        <ele>189</ele>
        <time>2016-04-03T08:35:49.000Z</time>
      </trkpt>
      <trkpt lat="44.07489" lon="1.89272">
        <ele>189</ele>
        <time>2016-04-03T08:35:51.000Z</time>
      </trkpt>
      <trkpt lat="44.07491" lon="1.89264">
        <ele>188</ele>
        <time>2016-04-03T08:35:53.000Z</time>
      </trkpt>
      <trkpt lat="44.07492" lon="1.89257">
        <ele>188</ele>
        <time>2016-04-03T08:35:55.000Z</time>
      </trkpt>
      <trkpt lat="44.07494" lon="1.89251">
        <ele>187</ele>
        <time>2016-04-03T08:35:57.000Z</time>
      </trkpt>
      <trkpt lat="44.07495" lon="1.89242">
        <ele>187</ele>
        <time>2016-04-03T08:36:01.000Z</time>
      </trkpt>
      <trkpt lat="44.07497" lon="1.89235">
        <ele>187</ele>
        <time>2016-04-03T08:36:03.000Z</time>
      </trkpt>
      <trkpt lat="44.07497" lon="1.89235">
        <ele>187</ele>
        <time>2016-04-03T08:36:05.000Z</time>
      </trkpt>
      <trkpt lat="44.07497" lon="1.89235">
        <ele>187</ele>
        <time>2016-04-03T08:36:07.000Z</time>
      </trkpt>
      <trkpt lat="44.07502" lon="1.89219">
        <ele>187</ele>
        <time>2016-04-03T08:36:13.000Z</time>
      </trkpt>
      <trkpt lat="44.07505" lon="1.89208">
        <ele>187</ele>
        <time>2016-04-03T08:36:15.000Z</time>
      </trkpt>
      <trkpt lat="44.07508" lon="1.89199">
        <ele>186</ele>
        <time>2016-04-03T08:36:17.000Z</time>
      </trkpt>
      <trkpt lat="44.0751" lon="1.89193">
        <ele>187</ele>
        <time>2016-04-03T08:36:19.000Z</time>
      </trkpt>
      <trkpt lat="44.07512" lon="1.89186">
        <ele>187</ele>
        <time>2016-04-03T08:36:21.000Z</time>
      </trkpt>
      <trkpt lat="44.07515" lon="1.89174">
        <ele>187</ele>
        <time>2016-04-03T08:36:23.000Z</time>
      </trkpt>
      <trkpt lat="44.07515" lon="1.89174">
        <ele>187</ele>
        <time>2016-04-03T08:36:25.000Z</time>
      </trkpt>
      <trkpt lat="44.07515" lon="1.89174">
        <ele>187</ele>
        <time>2016-04-03T08:36:27.000Z</time>
      </trkpt>
      <trkpt lat="44.07515" lon="1.89174">
        <ele>187</ele>
        <time>2016-04-03T08:36:29.000Z</time>
      </trkpt>
      <trkpt lat="44.07523" lon="1.89147">
        <ele>187</ele>
        <time>2016-04-03T08:36:33.000Z</time>
      </trkpt>
      <trkpt lat="44.07526" lon="1.89129">
        <ele>186</ele>
        <time>2016-04-03T08:36:39.000Z</time>
      </trkpt>
      <trkpt lat="44.07526" lon="1.89129">
        <ele>186</ele>
        <time>2016-04-03T08:36:41.000Z</time>
      </trkpt>
      <trkpt lat="44.07526" lon="1.89129">
        <ele>186</ele>
        <time>2016-04-03T08:36:43.000Z</time>
      </trkpt>
      <trkpt lat="44.07526" lon="1.89129">
        <ele>186</ele>
        <time>2016-04-03T08:36:45.000Z</time>
      </trkpt>
      <trkpt lat="44.07533" lon="1.89103">
        <ele>186</ele>
        <time>2016-04-03T08:36:49.000Z</time>
      </trkpt>
      <trkpt lat="44.07533" lon="1.89103">
        <ele>186</ele>
        <time>2016-04-03T08:36:53.000Z</time>
      </trkpt>
      <trkpt lat="44.07533" lon="1.89103">
        <ele>186</ele>
        <time>2016-04-03T08:36:55.000Z</time>
      </trkpt>
      <trkpt lat="44.07546" lon="1.89079">
        <ele>185</ele>
        <time>2016-04-03T08:36:59.000Z</time>
      </trkpt>
      <trkpt lat="44.07546" lon="1.89079">
        <ele>185</ele>
        <time>2016-04-03T08:37:05.000Z</time>
      </trkpt>
      <trkpt lat="44.07546" lon="1.89079">
        <ele>185</ele>
        <time>2016-04-03T08:37:07.000Z</time>
      </trkpt>
      <trkpt lat="44.07568" lon="1.8907">
        <ele>184</ele>
        <time>2016-04-03T08:37:09.000Z</time>
      </trkpt>
      <trkpt lat="44.07583" lon="1.89067">
        <ele>185</ele>
        <time>2016-04-03T08:37:15.000Z</time>
      </trkpt>
      <trkpt lat="44.07583" lon="1.89067">
        <ele>185</ele>
        <time>2016-04-03T08:37:17.000Z</time>
      </trkpt>
      <trkpt lat="44.07589" lon="1.89079">
        <ele>183</ele>
        <time>2016-04-03T08:37:19.000Z</time>
      </trkpt>
      <trkpt lat="44.07589" lon="1.89079">
        <ele>183</ele>
        <time>2016-04-03T08:37:21.000Z</time>
      </trkpt>
      <trkpt lat="44.07589" lon="1.89079">
        <ele>183</ele>
        <time>2016-04-03T08:37:23.000Z</time>
      </trkpt>
      <trkpt lat="44.07605" lon="1.89097">
        <ele>184</ele>
        <time>2016-04-03T08:37:27.000Z</time>
      </trkpt>
      <trkpt lat="44.07605" lon="1.89097">
        <ele>184</ele>
        <time>2016-04-03T08:37:29.000Z</time>
      </trkpt>
      <trkpt lat="44.07616" lon="1.891">
        <ele>184</ele>
        <time>2016-04-03T08:37:31.000Z</time>
      </trkpt>
      <trkpt lat="44.07616" lon="1.891">
        <ele>184</ele>
        <time>2016-04-03T08:37:33.000Z</time>
      </trkpt>
      <trkpt lat="44.07616" lon="1.891">
        <ele>184</ele>
        <time>2016-04-03T08:37:35.000Z</time>
      </trkpt>
      <trkpt lat="44.07616" lon="1.891">
        <ele>184</ele>
        <time>2016-04-03T08:37:37.000Z</time>
      </trkpt>
      <trkpt lat="44.07628" lon="1.89093">
        <ele>181</ele>
        <time>2016-04-03T08:37:43.000Z</time>
      </trkpt>
      <trkpt lat="44.07635" lon="1.8909">
        <ele>180</ele>
        <time>2016-04-03T08:37:45.000Z</time>
      </trkpt>
      <trkpt lat="44.07635" lon="1.8909">
        <ele>180</ele>
        <time>2016-04-03T08:37:47.000Z</time>
      </trkpt>
      <trkpt lat="44.07635" lon="1.8909">
        <ele>180</ele>
        <time>2016-04-03T08:37:49.000Z</time>
      </trkpt>
      <trkpt lat="44.07645" lon="1.89081">
        <ele>180</ele>
        <time>2016-04-03T08:37:53.000Z</time>
      </trkpt>
      <trkpt lat="44.07652" lon="1.89075">
        <ele>181</ele>
        <time>2016-04-03T08:37:55.000Z</time>
      </trkpt>
      <trkpt lat="44.07656" lon="1.8907">
        <ele>181</ele>
        <time>2016-04-03T08:37:57.000Z</time>
      </trkpt>
      <trkpt lat="44.07656" lon="1.8907">
        <ele>181</ele>
        <time>2016-04-03T08:37:59.000Z</time>
      </trkpt>
      <trkpt lat="44.07656" lon="1.8907">
        <ele>181</ele>
        <time>2016-04-03T08:38:01.000Z</time>
      </trkpt>
      <trkpt lat="44.07656" lon="1.8907">
        <ele>181</ele>
        <time>2016-04-03T08:38:03.000Z</time>
      </trkpt>
      <trkpt lat="44.07656" lon="1.8907">
        <ele>181</ele>
        <time>2016-04-03T08:38:05.000Z</time>
      </trkpt>
      <trkpt lat="44.07661" lon="1.89057">
        <ele>181</ele>
        <time>2016-04-03T08:38:07.000Z</time>
      </trkpt>
      <trkpt lat="44.07663" lon="1.89048">
        <ele>182</ele>
        <time>2016-04-03T08:38:09.000Z</time>
      </trkpt>
      <trkpt lat="44.07663" lon="1.89042">
        <ele>183</ele>
        <time>2016-04-03T08:38:11.000Z</time>
      </trkpt>
      <trkpt lat="44.07663" lon="1.89042">
        <ele>183</ele>
        <time>2016-04-03T08:38:13.000Z</time>
      </trkpt>
      <trkpt lat="44.07663" lon="1.89042">
        <ele>183</ele>
        <time>2016-04-03T08:38:15.000Z</time>
      </trkpt>
      <trkpt lat="44.07663" lon="1.89021">
        <ele>189</ele>
        <time>2016-04-03T08:40:06.000Z</time>
      </trkpt>
      <trkpt lat="44.07662" lon="1.89008">
        <ele>189</ele>
        <time>2016-04-03T08:40:08.000Z</time>
      </trkpt>
      <trkpt lat="44.07662" lon="1.89">
        <ele>190</ele>
        <time>2016-04-03T08:40:10.000Z</time>
      </trkpt>
      <trkpt lat="44.07661" lon="1.88993">
        <ele>191</ele>
        <time>2016-04-03T08:40:12.000Z</time>
      </trkpt>
      <trkpt lat="44.07661" lon="1.88993">
        <ele>191</ele>
        <time>2016-04-03T08:40:14.000Z</time>
      </trkpt>
      <trkpt lat="44.07661" lon="1.88993">
        <ele>191</ele>
        <time>2016-04-03T08:40:16.000Z</time>
      </trkpt>
      <trkpt lat="44.07661" lon="1.88993">
        <ele>191</ele>
        <time>2016-04-03T08:40:18.000Z</time>
      </trkpt>
      <trkpt lat="44.07661" lon="1.88979">
        <ele>195</ele>
        <time>2016-04-03T08:40:22.000Z</time>
      </trkpt>
      <trkpt lat="44.07661" lon="1.88971">
        <ele>196</ele>
        <time>2016-04-03T08:40:24.000Z</time>
      </trkpt>
      <trkpt lat="44.07662" lon="1.88964">
        <ele>196</ele>
        <time>2016-04-03T08:40:26.000Z</time>
      </trkpt>
      <trkpt lat="44.07663" lon="1.88957">
        <ele>198</ele>
        <time>2016-04-03T08:40:30.000Z</time>
      </trkpt>
      <trkpt lat="44.07663" lon="1.88957">
        <ele>198</ele>
        <time>2016-04-03T08:40:32.000Z</time>
      </trkpt>
      <trkpt lat="44.07663" lon="1.88957">
        <ele>198</ele>
        <time>2016-04-03T08:40:34.000Z</time>
      </trkpt>
      <trkpt lat="44.07663" lon="1.88957">
        <ele>198</ele>
        <time>2016-04-03T08:40:36.000Z</time>
      </trkpt>
      <trkpt lat="44.07663" lon="1.88957">
        <ele>198</ele>
        <time>2016-04-03T08:40:42.000Z</time>
      </trkpt>
      <trkpt lat="44.07663" lon="1.88957">
        <ele>198</ele>
        <time>2016-04-03T08:40:44.000Z</time>
      </trkpt>
      <trkpt lat="44.07662" lon="1.88939">
        <ele>203</ele>
        <time>2016-04-03T08:40:48.000Z</time>
      </trkpt>
      <trkpt lat="44.07661" lon="1.88928">
        <ele>203</ele>
        <time>2016-04-03T08:40:50.000Z</time>
      </trkpt>
      <trkpt lat="44.07662" lon="1.88922">
        <ele>204</ele>
        <time>2016-04-03T08:40:52.000Z</time>
      </trkpt>
      <trkpt lat="44.07662" lon="1.88922">
        <ele>204</ele>
        <time>2016-04-03T08:40:54.000Z</time>
      </trkpt>
      <trkpt lat="44.07663" lon="1.88915">
        <ele>204</ele>
        <time>2016-04-03T08:40:58.000Z</time>
      </trkpt>
      <trkpt lat="44.07663" lon="1.88915">
        <ele>204</ele>
        <time>2016-04-03T08:41:00.000Z</time>
      </trkpt>
      <trkpt lat="44.07663" lon="1.88915">
        <ele>204</ele>
        <time>2016-04-03T08:41:02.000Z</time>
      </trkpt>
      <trkpt lat="44.07663" lon="1.88915">
        <ele>204</ele>
        <time>2016-04-03T08:41:04.000Z</time>
      </trkpt>
      <trkpt lat="44.07663" lon="1.88915">
        <ele>204</ele>
        <time>2016-04-03T08:41:06.000Z</time>
      </trkpt>
      <trkpt lat="44.07663" lon="1.88915">
        <ele>204</ele>
        <time>2016-04-03T08:41:08.000Z</time>
      </trkpt>
      <trkpt lat="44.07665" lon="1.88904">
        <ele>205</ele>
        <time>2016-04-03T08:41:12.000Z</time>
      </trkpt>
      <trkpt lat="44.07665" lon="1.88904">
        <ele>205</ele>
        <time>2016-04-03T08:41:14.000Z</time>
      </trkpt>
      <trkpt lat="44.07665" lon="1.88904">
        <ele>205</ele>
        <time>2016-04-03T08:41:16.000Z</time>
      </trkpt>
      <trkpt lat="44.07665" lon="1.88904">
        <ele>205</ele>
        <time>2016-04-03T08:41:18.000Z</time>
      </trkpt>
      <trkpt lat="44.07665" lon="1.88904">
        <ele>205</ele>
        <time>2016-04-03T08:41:20.000Z</time>
      </trkpt>
      <trkpt lat="44.07668" lon="1.88893">
        <ele>207</ele>
        <time>2016-04-03T08:41:24.000Z</time>
      </trkpt>
      <trkpt lat="44.07669" lon="1.88886">
        <ele>207</ele>
        <time>2016-04-03T08:41:26.000Z</time>
      </trkpt>
      <trkpt lat="44.07669" lon="1.88886">
        <ele>207</ele>
        <time>2016-04-03T08:41:28.000Z</time>
      </trkpt>
      <trkpt lat="44.07669" lon="1.88886">
        <ele>207</ele>
        <time>2016-04-03T08:41:30.000Z</time>
      </trkpt>
      <trkpt lat="44.07673" lon="1.88864">
        <ele>210</ele>
        <time>2016-04-03T08:42:39.000Z</time>
      </trkpt>
      <trkpt lat="44.07674" lon="1.8885">
        <ele>210</ele>
        <time>2016-04-03T08:42:41.000Z</time>
      </trkpt>
      <trkpt lat="44.07675" lon="1.88842">
        <ele>209</ele>
        <time>2016-04-03T08:42:43.000Z</time>
      </trkpt>
      <trkpt lat="44.07675" lon="1.88842">
        <ele>209</ele>
        <time>2016-04-03T08:42:45.000Z</time>
      </trkpt>
      <trkpt lat="44.07675" lon="1.88842">
        <ele>209</ele>
        <time>2016-04-03T08:42:47.000Z</time>
      </trkpt>
      <trkpt lat="44.07675" lon="1.88842">
        <ele>209</ele>
        <time>2016-04-03T08:42:49.000Z</time>
      </trkpt>
      <trkpt lat="44.07675" lon="1.88842">
        <ele>209</ele>
        <time>2016-04-03T08:42:51.000Z</time>
      </trkpt>
      <trkpt lat="44.0768" lon="1.88831">
        <ele>210</ele>
        <time>2016-04-03T08:43:01.000Z</time>
      </trkpt>
      <trkpt lat="44.07683" lon="1.88824">
        <ele>210</ele>
        <time>2016-04-03T08:43:03.000Z</time>
      </trkpt>
      <trkpt lat="44.07685" lon="1.88817">
        <ele>210</ele>
        <time>2016-04-03T08:43:07.000Z</time>
      </trkpt>
      <trkpt lat="44.07687" lon="1.88811">
        <ele>210</ele>
        <time>2016-04-03T08:43:11.000Z</time>
      </trkpt>
      <trkpt lat="44.07689" lon="1.88805">
        <ele>210</ele>
        <time>2016-04-03T08:43:15.000Z</time>
      </trkpt>
      <trkpt lat="44.07691" lon="1.88798">
        <ele>210</ele>
        <time>2016-04-03T08:43:19.000Z</time>
      </trkpt>
      <trkpt lat="44.07691" lon="1.88798">
        <ele>210</ele>
        <time>2016-04-03T08:43:21.000Z</time>
      </trkpt>
      <trkpt lat="44.07691" lon="1.88798">
        <ele>210</ele>
        <time>2016-04-03T08:43:23.000Z</time>
      </trkpt>
      <trkpt lat="44.07691" lon="1.88798">
        <ele>210</ele>
        <time>2016-04-03T08:43:25.000Z</time>
      </trkpt>
      <trkpt lat="44.07691" lon="1.88798">
        <ele>210</ele>
        <time>2016-04-03T08:43:27.000Z</time>
      </trkpt>
      <trkpt lat="44.07693" lon="1.88787">
        <ele>212</ele>
        <time>2016-04-03T08:43:31.000Z</time>
      </trkpt>
      <trkpt lat="44.07695" lon="1.8878">
        <ele>212</ele>
        <time>2016-04-03T08:43:33.000Z</time>
      </trkpt>
      <trkpt lat="44.07696" lon="1.88772">
        <ele>212</ele>
        <time>2016-04-03T08:43:37.000Z</time>
      </trkpt>
      <trkpt lat="44.07696" lon="1.88772">
        <ele>212</ele>
        <time>2016-04-03T08:43:39.000Z</time>
      </trkpt>
      <trkpt lat="44.07696" lon="1.88772">
        <ele>212</ele>
        <time>2016-04-03T08:43:41.000Z</time>
      </trkpt>
      <trkpt lat="44.07696" lon="1.88772">
        <ele>212</ele>
        <time>2016-04-03T08:43:43.000Z</time>
      </trkpt>
      <trkpt lat="44.07696" lon="1.88772">
        <ele>212</ele>
        <time>2016-04-03T08:43:45.000Z</time>
      </trkpt>
      <trkpt lat="44.07696" lon="1.88772">
        <ele>212</ele>
        <time>2016-04-03T08:43:47.000Z</time>
      </trkpt>
      <trkpt lat="44.07704" lon="1.88763">
        <ele>214</ele>
        <time>2016-04-03T08:43:53.000Z</time>
      </trkpt>
      <trkpt lat="44.07708" lon="1.88757">
        <ele>214</ele>
        <time>2016-04-03T08:43:55.000Z</time>
      </trkpt>
      <trkpt lat="44.07713" lon="1.88751">
        <ele>214</ele>
        <time>2016-04-03T08:43:59.000Z</time>
      </trkpt>
      <trkpt lat="44.07716" lon="1.88747">
        <ele>214</ele>
        <time>2016-04-03T08:44:01.000Z</time>
      </trkpt>
      <trkpt lat="44.07716" lon="1.88747">
        <ele>214</ele>
        <time>2016-04-03T08:44:03.000Z</time>
      </trkpt>
      <trkpt lat="44.07716" lon="1.88747">
        <ele>214</ele>
        <time>2016-04-03T08:44:05.000Z</time>
      </trkpt>
      <trkpt lat="44.07716" lon="1.88747">
        <ele>214</ele>
        <time>2016-04-03T08:44:07.000Z</time>
      </trkpt>
      <trkpt lat="44.0772" lon="1.88738">
        <ele>215</ele>
        <time>2016-04-03T08:44:11.000Z</time>
      </trkpt>
      <trkpt lat="44.07722" lon="1.88732">
        <ele>215</ele>
        <time>2016-04-03T08:44:13.000Z</time>
      </trkpt>
      <trkpt lat="44.07722" lon="1.88732">
        <ele>215</ele>
        <time>2016-04-03T08:44:15.000Z</time>
      </trkpt>
      <trkpt lat="44.07722" lon="1.88732">
        <ele>215</ele>
        <time>2016-04-03T08:44:17.000Z</time>
      </trkpt>
      <trkpt lat="44.07722" lon="1.88732">
        <ele>215</ele>
        <time>2016-04-03T08:44:19.000Z</time>
      </trkpt>
      <trkpt lat="44.07722" lon="1.88732">
        <ele>215</ele>
        <time>2016-04-03T08:44:21.000Z</time>
      </trkpt>
      <trkpt lat="44.07725" lon="1.8872">
        <ele>218</ele>
        <time>2016-04-03T08:44:27.000Z</time>
      </trkpt>
      <trkpt lat="44.07726" lon="1.88713">
        <ele>218</ele>
        <time>2016-04-03T08:44:29.000Z</time>
      </trkpt>
      <trkpt lat="44.07728" lon="1.88706">
        <ele>218</ele>
        <time>2016-04-03T08:44:33.000Z</time>
      </trkpt>
      <trkpt lat="44.07728" lon="1.88706">
        <ele>218</ele>
        <time>2016-04-03T08:44:35.000Z</time>
      </trkpt>
      <trkpt lat="44.07728" lon="1.88706">
        <ele>218</ele>
        <time>2016-04-03T08:44:37.000Z</time>
      </trkpt>
      <trkpt lat="44.07728" lon="1.88706">
        <ele>218</ele>
        <time>2016-04-03T08:44:39.000Z</time>
      </trkpt>
      <trkpt lat="44.07728" lon="1.88706">
        <ele>218</ele>
        <time>2016-04-03T08:44:41.000Z</time>
      </trkpt>
      <trkpt lat="44.07728" lon="1.88706">
        <ele>218</ele>
        <time>2016-04-03T08:44:43.000Z</time>
      </trkpt>
      <trkpt lat="44.07728" lon="1.88706">
        <ele>218</ele>
        <time>2016-04-03T08:44:45.000Z</time>
      </trkpt>
      <trkpt lat="44.07728" lon="1.88706">
        <ele>218</ele>
        <time>2016-04-03T08:44:47.000Z</time>
      </trkpt>
      <trkpt lat="44.07728" lon="1.88706">
        <ele>218</ele>
        <time>2016-04-03T08:44:49.000Z</time>
      </trkpt>
      <trkpt lat="44.0773" lon="1.88693">
        <ele>220</ele>
        <time>2016-04-03T08:45:13.000Z</time>
      </trkpt>
      <trkpt lat="44.07732" lon="1.88683">
        <ele>220</ele>
        <time>2016-04-03T08:45:15.000Z</time>
      </trkpt>
      <trkpt lat="44.07734" lon="1.88674">
        <ele>220</ele>
        <time>2016-04-03T08:45:17.000Z</time>
      </trkpt>
      <trkpt lat="44.07735" lon="1.88667">
        <ele>220</ele>
        <time>2016-04-03T08:45:19.000Z</time>
      </trkpt>
      <trkpt lat="44.07738" lon="1.88661">
        <ele>219</ele>
        <time>2016-04-03T08:45:21.000Z</time>
      </trkpt>
      <trkpt lat="44.07738" lon="1.88661">
        <ele>219</ele>
        <time>2016-04-03T08:45:23.000Z</time>
      </trkpt>
      <trkpt lat="44.07738" lon="1.88661">
        <ele>219</ele>
        <time>2016-04-03T08:45:25.000Z</time>
      </trkpt>
      <trkpt lat="44.07738" lon="1.88661">
        <ele>219</ele>
        <time>2016-04-03T08:45:27.000Z</time>
      </trkpt>
      <trkpt lat="44.07738" lon="1.88661">
        <ele>219</ele>
        <time>2016-04-03T08:45:29.000Z</time>
      </trkpt>
      <trkpt lat="44.07744" lon="1.88627">
        <ele>218</ele>
        <time>2016-04-03T08:45:33.000Z</time>
      </trkpt>
      <trkpt lat="44.07743" lon="1.88612">
        <ele>218</ele>
        <time>2016-04-03T08:45:37.000Z</time>
      </trkpt>
      <trkpt lat="44.07743" lon="1.88612">
        <ele>218</ele>
        <time>2016-04-03T08:45:41.000Z</time>
      </trkpt>
      <trkpt lat="44.07743" lon="1.88612">
        <ele>218</ele>
        <time>2016-04-03T08:45:43.000Z</time>
      </trkpt>
      <trkpt lat="44.07743" lon="1.88612">
        <ele>218</ele>
        <time>2016-04-03T08:45:45.000Z</time>
      </trkpt>
      <trkpt lat="44.07727" lon="1.88593">
        <ele>219</ele>
        <time>2016-04-03T08:46:12.000Z</time>
      </trkpt>
      <trkpt lat="44.07727" lon="1.88593">
        <ele>219</ele>
        <time>2016-04-03T08:46:14.000Z</time>
      </trkpt>
      <trkpt lat="44.07727" lon="1.88593">
        <ele>219</ele>
        <time>2016-04-03T08:46:16.000Z</time>
      </trkpt>
      <trkpt lat="44.07727" lon="1.88593">
        <ele>219</ele>
        <time>2016-04-03T08:46:18.000Z</time>
      </trkpt>
      <trkpt lat="44.07718" lon="1.8859">
        <ele>222</ele>
        <time>2016-04-03T08:46:40.000Z</time>
      </trkpt>
      <trkpt lat="44.07718" lon="1.8859">
        <ele>222</ele>
        <time>2016-04-03T08:46:42.000Z</time>
      </trkpt>
      <trkpt lat="44.07718" lon="1.8859">
        <ele>222</ele>
        <time>2016-04-03T08:46:44.000Z</time>
      </trkpt>
      <trkpt lat="44.07718" lon="1.8859">
        <ele>222</ele>
        <time>2016-04-03T08:46:46.000Z</time>
      </trkpt>
      <trkpt lat="44.07708" lon="1.88596">
        <ele>224</ele>
        <time>2016-04-03T08:46:58.000Z</time>
      </trkpt>
      <trkpt lat="44.07701" lon="1.88601">
        <ele>224</ele>
        <time>2016-04-03T08:47:00.000Z</time>
      </trkpt>
      <trkpt lat="44.07698" lon="1.88605">
        <ele>225</ele>
        <time>2016-04-03T08:47:02.000Z</time>
      </trkpt>
      <trkpt lat="44.07694" lon="1.8861">
        <ele>225</ele>
        <time>2016-04-03T08:47:06.000Z</time>
      </trkpt>
      <trkpt lat="44.07694" lon="1.8861">
        <ele>225</ele>
        <time>2016-04-03T08:47:08.000Z</time>
      </trkpt>
      <trkpt lat="44.07694" lon="1.8861">
        <ele>225</ele>
        <time>2016-04-03T08:47:10.000Z</time>
      </trkpt>
      <trkpt lat="44.07694" lon="1.8861">
        <ele>225</ele>
        <time>2016-04-03T08:47:12.000Z</time>
      </trkpt>
      <trkpt lat="44.07688" lon="1.88617">
        <ele>226</ele>
        <time>2016-04-03T08:47:14.000Z</time>
      </trkpt>
      <trkpt lat="44.07684" lon="1.88621">
        <ele>226</ele>
        <time>2016-04-03T08:47:16.000Z</time>
      </trkpt>
      <trkpt lat="44.07684" lon="1.88621">
        <ele>226</ele>
        <time>2016-04-03T08:47:18.000Z</time>
      </trkpt>
      <trkpt lat="44.07684" lon="1.88621">
        <ele>226</ele>
        <time>2016-04-03T08:47:20.000Z</time>
      </trkpt>
      <trkpt lat="44.07684" lon="1.88621">
        <ele>226</ele>
        <time>2016-04-03T08:47:22.000Z</time>
      </trkpt>
      <trkpt lat="44.07684" lon="1.88621">
        <ele>226</ele>
        <time>2016-04-03T08:47:24.000Z</time>
      </trkpt>
      <trkpt lat="44.07684" lon="1.88621">
        <ele>226</ele>
        <time>2016-04-03T08:47:26.000Z</time>
      </trkpt>
      <trkpt lat="44.07671" lon="1.88626">
        <ele>230</ele>
        <time>2016-04-03T08:47:34.000Z</time>
      </trkpt>
      <trkpt lat="44.07663" lon="1.8863">
        <ele>231</ele>
        <time>2016-04-03T08:47:36.000Z</time>
      </trkpt>
      <trkpt lat="44.07657" lon="1.88633">
        <ele>231</ele>
        <time>2016-04-03T08:47:38.000Z</time>
      </trkpt>
      <trkpt lat="44.07651" lon="1.88636">
        <ele>232</ele>
        <time>2016-04-03T08:47:40.000Z</time>
      </trkpt>
      <trkpt lat="44.07645" lon="1.88637">
        <ele>232</ele>
        <time>2016-04-03T08:47:42.000Z</time>
      </trkpt>
      <trkpt lat="44.07633" lon="1.88639">
        <ele>232</ele>
        <time>2016-04-03T08:47:44.000Z</time>
      </trkpt>
      <trkpt lat="44.07621" lon="1.8864">
        <ele>232</ele>
        <time>2016-04-03T08:47:48.000Z</time>
      </trkpt>
      <trkpt lat="44.07621" lon="1.8864">
        <ele>232</ele>
        <time>2016-04-03T08:47:50.000Z</time>
      </trkpt>
      <trkpt lat="44.07621" lon="1.8864">
        <ele>232</ele>
        <time>2016-04-03T08:47:52.000Z</time>
      </trkpt>
      <trkpt lat="44.07601" lon="1.88642">
        <ele>232</ele>
        <time>2016-04-03T08:47:54.000Z</time>
      </trkpt>
      <trkpt lat="44.07589" lon="1.88645">
        <ele>232</ele>
        <time>2016-04-03T08:47:58.000Z</time>
      </trkpt>
      <trkpt lat="44.07578" lon="1.88646">
        <ele>230</ele>
        <time>2016-04-03T08:48:02.000Z</time>
      </trkpt>
      <trkpt lat="44.07578" lon="1.88646">
        <ele>230</ele>
        <time>2016-04-03T08:48:04.000Z</time>
      </trkpt>
      <trkpt lat="44.07567" lon="1.88623">
        <ele>229</ele>
        <time>2016-04-03T08:48:08.000Z</time>
      </trkpt>
      <trkpt lat="44.0756" lon="1.88609">
        <ele>229</ele>
        <time>2016-04-03T08:48:12.000Z</time>
      </trkpt>
      <trkpt lat="44.0756" lon="1.88609">
        <ele>229</ele>
        <time>2016-04-03T08:48:14.000Z</time>
      </trkpt>
      <trkpt lat="44.0756" lon="1.88609">
        <ele>229</ele>
        <time>2016-04-03T08:48:16.000Z</time>
      </trkpt>
      <trkpt lat="44.0756" lon="1.88609">
        <ele>229</ele>
        <time>2016-04-03T08:48:18.000Z</time>
      </trkpt>
      <trkpt lat="44.0756" lon="1.88609">
        <ele>229</ele>
        <time>2016-04-03T08:48:20.000Z</time>
      </trkpt>
      <trkpt lat="44.0756" lon="1.88609">
        <ele>229</ele>
        <time>2016-04-03T08:48:22.000Z</time>
      </trkpt>
      <trkpt lat="44.0756" lon="1.88609">
        <ele>229</ele>
        <time>2016-04-03T08:48:24.000Z</time>
      </trkpt>
      <trkpt lat="44.0756" lon="1.88609">
        <ele>229</ele>
        <time>2016-04-03T08:48:26.000Z</time>
      </trkpt>
      <trkpt lat="44.0756" lon="1.88609">
        <ele>229</ele>
        <time>2016-04-03T08:48:28.000Z</time>
      </trkpt>
      <trkpt lat="44.0756" lon="1.88609">
        <ele>229</ele>
        <time>2016-04-03T08:48:30.000Z</time>
      </trkpt>
      <trkpt lat="44.0756" lon="1.88609">
        <ele>229</ele>
        <time>2016-04-03T08:48:32.000Z</time>
      </trkpt>
      <trkpt lat="44.0756" lon="1.88609">
        <ele>229</ele>
        <time>2016-04-03T08:48:34.000Z</time>
      </trkpt>
      <trkpt lat="44.0756" lon="1.88609">
        <ele>229</ele>
        <time>2016-04-03T08:48:36.000Z</time>
      </trkpt>
      <trkpt lat="44.0756" lon="1.88609">
        <ele>229</ele>
        <time>2016-04-03T08:48:38.000Z</time>
      </trkpt>
      <trkpt lat="44.0756" lon="1.88609">
        <ele>229</ele>
        <time>2016-04-03T08:48:40.000Z</time>
      </trkpt>
      <trkpt lat="44.0756" lon="1.88609">
        <ele>229</ele>
        <time>2016-04-03T08:48:42.000Z</time>
      </trkpt>
      <trkpt lat="44.0756" lon="1.88609">
        <ele>229</ele>
        <time>2016-04-03T08:48:44.000Z</time>
      </trkpt>
      <trkpt lat="44.0756" lon="1.88609">
        <ele>229</ele>
        <time>2016-04-03T08:48:46.000Z</time>
      </trkpt>
      <trkpt lat="44.07567" lon="1.88528">
        <ele>230</ele>
        <time>2016-04-03T08:48:50.000Z</time>
      </trkpt>
      <trkpt lat="44.07567" lon="1.88528">
        <ele>230</ele>
        <time>2016-04-03T08:48:54.000Z</time>
      </trkpt>
      <trkpt lat="44.07567" lon="1.88528">
        <ele>230</ele>
        <time>2016-04-03T08:48:56.000Z</time>
      </trkpt>
      <trkpt lat="44.0756" lon="1.88526">
        <ele>229</ele>
        <time>2016-04-03T08:49:02.000Z</time>
      </trkpt>
      <trkpt lat="44.07556" lon="1.88524">
        <ele>229</ele>
        <time>2016-04-03T08:49:04.000Z</time>
      </trkpt>
      <trkpt lat="44.07556" lon="1.88524">
        <ele>229</ele>
        <time>2016-04-03T08:49:10.000Z</time>
      </trkpt>
      <trkpt lat="44.07556" lon="1.88524">
        <ele>229</ele>
        <time>2016-04-03T08:49:12.000Z</time>
      </trkpt>
      <trkpt lat="44.07564" lon="1.88519">
        <ele>228</ele>
        <time>2016-04-03T08:52:46.000Z</time>
      </trkpt>
      <trkpt lat="44.0757" lon="1.88517">
        <ele>228</ele>
        <time>2016-04-03T08:52:48.000Z</time>
      </trkpt>
      <trkpt lat="44.07574" lon="1.88515">
        <ele>228</ele>
        <time>2016-04-03T08:52:50.000Z</time>
      </trkpt>
      <trkpt lat="44.07574" lon="1.88515">
        <ele>228</ele>
        <time>2016-04-03T08:52:52.000Z</time>
      </trkpt>
      <trkpt lat="44.07579" lon="1.88513">
        <ele>228</ele>
        <time>2016-04-03T08:52:54.000Z</time>
      </trkpt>
      <trkpt lat="44.07579" lon="1.88513">
        <ele>228</ele>
        <time>2016-04-03T08:52:56.000Z</time>
      </trkpt>
      <trkpt lat="44.07579" lon="1.88513">
        <ele>228</ele>
        <time>2016-04-03T08:52:58.000Z</time>
      </trkpt>
      <trkpt lat="44.07579" lon="1.88513">
        <ele>228</ele>
        <time>2016-04-03T08:53:00.000Z</time>
      </trkpt>
      <trkpt lat="44.07579" lon="1.88513">
        <ele>228</ele>
        <time>2016-04-03T08:53:02.000Z</time>
      </trkpt>
      <trkpt lat="44.07579" lon="1.88513">
        <ele>228</ele>
        <time>2016-04-03T08:53:04.000Z</time>
      </trkpt>
      <trkpt lat="44.07589" lon="1.88505">
        <ele>229</ele>
        <time>2016-04-03T08:53:15.000Z</time>
      </trkpt>
      <trkpt lat="44.07596" lon="1.88498">
        <ele>229</ele>
        <time>2016-04-03T08:53:17.000Z</time>
      </trkpt>
      <trkpt lat="44.07601" lon="1.88492">
        <ele>229</ele>
        <time>2016-04-03T08:53:19.000Z</time>
      </trkpt>
      <trkpt lat="44.07606" lon="1.88487">
        <ele>230</ele>
        <time>2016-04-03T08:53:21.000Z</time>
      </trkpt>
      <trkpt lat="44.0761" lon="1.88482">
        <ele>230</ele>
        <time>2016-04-03T08:53:23.000Z</time>
      </trkpt>
      <trkpt lat="44.07616" lon="1.88472">
        <ele>230</ele>
        <time>2016-04-03T08:53:25.000Z</time>
      </trkpt>
      <trkpt lat="44.07616" lon="1.88472">
        <ele>230</ele>
        <time>2016-04-03T08:53:27.000Z</time>
      </trkpt>
      <trkpt lat="44.07616" lon="1.88472">
        <ele>230</ele>
        <time>2016-04-03T08:53:29.000Z</time>
      </trkpt>
      <trkpt lat="44.07616" lon="1.88472">
        <ele>230</ele>
        <time>2016-04-03T08:53:31.000Z</time>
      </trkpt>
      <trkpt lat="44.07616" lon="1.88472">
        <ele>230</ele>
        <time>2016-04-03T08:53:33.000Z</time>
      </trkpt>
      <trkpt lat="44.07616" lon="1.88472">
        <ele>230</ele>
        <time>2016-04-03T08:53:35.000Z</time>
      </trkpt>
      <trkpt lat="44.07616" lon="1.88472">
        <ele>230</ele>
        <time>2016-04-03T08:53:37.000Z</time>
      </trkpt>
      <trkpt lat="44.07628" lon="1.88443">
        <ele>230</ele>
        <time>2016-04-03T08:53:49.000Z</time>
      </trkpt>
      <trkpt lat="44.07628" lon="1.88443">
        <ele>230</ele>
        <time>2016-04-03T08:53:53.000Z</time>
      </trkpt>
      <trkpt lat="44.07628" lon="1.88443">
        <ele>230</ele>
        <time>2016-04-03T08:53:55.000Z</time>
      </trkpt>
      <trkpt lat="44.07631" lon="1.88422">
        <ele>230</ele>
        <time>2016-04-03T08:54:01.000Z</time>
      </trkpt>
      <trkpt lat="44.07631" lon="1.88422">
        <ele>230</ele>
        <time>2016-04-03T08:54:03.000Z</time>
      </trkpt>
      <trkpt lat="44.07631" lon="1.88422">
        <ele>230</ele>
        <time>2016-04-03T08:54:05.000Z</time>
      </trkpt>
      <trkpt lat="44.07636" lon="1.88404">
        <ele>229</ele>
        <time>2016-04-03T08:54:25.000Z</time>
      </trkpt>
      <trkpt lat="44.07636" lon="1.88404">
        <ele>229</ele>
        <time>2016-04-03T08:54:31.000Z</time>
      </trkpt>
      <trkpt lat="44.07636" lon="1.88404">
        <ele>229</ele>
        <time>2016-04-03T08:54:33.000Z</time>
      </trkpt>
      <trkpt lat="44.07644" lon="1.88404">
        <ele>229</ele>
        <time>2016-04-03T08:54:41.000Z</time>
      </trkpt>
      <trkpt lat="44.07644" lon="1.88404">
        <ele>229</ele>
        <time>2016-04-03T08:54:45.000Z</time>
      </trkpt>
      <trkpt lat="44.07644" lon="1.88404">
        <ele>229</ele>
        <time>2016-04-03T08:54:48.000Z</time>
      </trkpt>
      <trkpt lat="44.0765" lon="1.88397">
        <ele>231</ele>
        <time>2016-04-03T08:55:32.000Z</time>
      </trkpt>
      <trkpt lat="44.07652" lon="1.88392">
        <ele>231</ele>
        <time>2016-04-03T08:55:34.000Z</time>
      </trkpt>
      <trkpt lat="44.07651" lon="1.88384">
        <ele>229</ele>
        <time>2016-04-03T08:55:38.000Z</time>
      </trkpt>
      <trkpt lat="44.07647" lon="1.88377">
        <ele>227</ele>
        <time>2016-04-03T08:55:42.000Z</time>
      </trkpt>
      <trkpt lat="44.07644" lon="1.88371">
        <ele>225</ele>
        <time>2016-04-03T08:55:44.000Z</time>
      </trkpt>
      <trkpt lat="44.07644" lon="1.88371">
        <ele>225</ele>
        <time>2016-04-03T08:55:46.000Z</time>
      </trkpt>
      <trkpt lat="44.07644" lon="1.88371">
        <ele>225</ele>
        <time>2016-04-03T08:55:48.000Z</time>
      </trkpt>
      <trkpt lat="44.07644" lon="1.88371">
        <ele>225</ele>
        <time>2016-04-03T08:55:50.000Z</time>
      </trkpt>
      <trkpt lat="44.07644" lon="1.88371">
        <ele>225</ele>
        <time>2016-04-03T08:55:52.000Z</time>
      </trkpt>
      <trkpt lat="44.07644" lon="1.88371">
        <ele>225</ele>
        <time>2016-04-03T08:55:54.000Z</time>
      </trkpt>
      <trkpt lat="44.07644" lon="1.88371">
        <ele>225</ele>
        <time>2016-04-03T08:55:56.000Z</time>
      </trkpt>
      <trkpt lat="44.0765" lon="1.88355">
        <ele>221</ele>
        <time>2016-04-03T08:55:58.000Z</time>
      </trkpt>
      <trkpt lat="44.07655" lon="1.88345">
        <ele>221</ele>
        <time>2016-04-03T08:56:00.000Z</time>
      </trkpt>
      <trkpt lat="44.07657" lon="1.88337">
        <ele>222</ele>
        <time>2016-04-03T08:56:02.000Z</time>
      </trkpt>
      <trkpt lat="44.07656" lon="1.8833">
        <ele>221</ele>
        <time>2016-04-03T08:56:04.000Z</time>
      </trkpt>
      <trkpt lat="44.07654" lon="1.88322">
        <ele>221</ele>
        <time>2016-04-03T08:56:06.000Z</time>
      </trkpt>
      <trkpt lat="44.07647" lon="1.88308">
        <ele>220</ele>
        <time>2016-04-03T08:56:08.000Z</time>
      </trkpt>
      <trkpt lat="44.07647" lon="1.88308">
        <ele>220</ele>
        <time>2016-04-03T08:56:10.000Z</time>
      </trkpt>
      <trkpt lat="44.07647" lon="1.88308">
        <ele>220</ele>
        <time>2016-04-03T08:56:12.000Z</time>
      </trkpt>
      <trkpt lat="44.07647" lon="1.88308">
        <ele>220</ele>
        <time>2016-04-03T08:56:14.000Z</time>
      </trkpt>
      <trkpt lat="44.07647" lon="1.88308">
        <ele>220</ele>
        <time>2016-04-03T08:56:16.000Z</time>
      </trkpt>
      <trkpt lat="44.07647" lon="1.88308">
        <ele>220</ele>
        <time>2016-04-03T08:56:22.000Z</time>
      </trkpt>
      <trkpt lat="44.07655" lon="1.8825">
        <ele>213</ele>
        <time>2016-04-03T08:56:26.000Z</time>
      </trkpt>
      <trkpt lat="44.0766" lon="1.88234">
        <ele>209</ele>
        <time>2016-04-03T08:56:30.000Z</time>
      </trkpt>
      <trkpt lat="44.0766" lon="1.88234">
        <ele>209</ele>
        <time>2016-04-03T08:56:32.000Z</time>
      </trkpt>
      <trkpt lat="44.0766" lon="1.88234">
        <ele>209</ele>
        <time>2016-04-03T08:56:34.000Z</time>
      </trkpt>
      <trkpt lat="44.0766" lon="1.88234">
        <ele>209</ele>
        <time>2016-04-03T08:56:36.000Z</time>
      </trkpt>
      <trkpt lat="44.0766" lon="1.88234">
        <ele>209</ele>
        <time>2016-04-03T08:56:38.000Z</time>
      </trkpt>
      <trkpt lat="44.07663" lon="1.88197">
        <ele>205</ele>
        <time>2016-04-03T08:56:42.000Z</time>
      </trkpt>
      <trkpt lat="44.07663" lon="1.88197">
        <ele>205</ele>
        <time>2016-04-03T08:56:44.000Z</time>
      </trkpt>
      <trkpt lat="44.07671" lon="1.88185">
        <ele>205</ele>
        <time>2016-04-03T08:56:46.000Z</time>
      </trkpt>
      <trkpt lat="44.07671" lon="1.88185">
        <ele>205</ele>
        <time>2016-04-03T08:56:48.000Z</time>
      </trkpt>
      <trkpt lat="44.07671" lon="1.88185">
        <ele>205</ele>
        <time>2016-04-03T08:56:50.000Z</time>
      </trkpt>
      <trkpt lat="44.07671" lon="1.88185">
        <ele>205</ele>
        <time>2016-04-03T08:56:52.000Z</time>
      </trkpt>
      <trkpt lat="44.07671" lon="1.88185">
        <ele>205</ele>
        <time>2016-04-03T08:56:54.000Z</time>
      </trkpt>
      <trkpt lat="44.07671" lon="1.88185">
        <ele>205</ele>
        <time>2016-04-03T08:56:56.000Z</time>
      </trkpt>
      <trkpt lat="44.07671" lon="1.88185">
        <ele>205</ele>
        <time>2016-04-03T08:56:58.000Z</time>
      </trkpt>
      <trkpt lat="44.07693" lon="1.88167">
        <ele>196</ele>
        <time>2016-04-03T08:57:00.000Z</time>
      </trkpt>
      <trkpt lat="44.07693" lon="1.88167">
        <ele>196</ele>
        <time>2016-04-03T08:57:04.000Z</time>
      </trkpt>
      <trkpt lat="44.07698" lon="1.88154">
        <ele>192</ele>
        <time>2016-04-03T08:57:06.000Z</time>
      </trkpt>
      <trkpt lat="44.07697" lon="1.88138">
        <ele>190</ele>
        <time>2016-04-03T08:57:10.000Z</time>
      </trkpt>
      <trkpt lat="44.07697" lon="1.88138">
        <ele>190</ele>
        <time>2016-04-03T08:57:12.000Z</time>
      </trkpt>
      <trkpt lat="44.07697" lon="1.88138">
        <ele>190</ele>
        <time>2016-04-03T08:57:14.000Z</time>
      </trkpt>
      <trkpt lat="44.07697" lon="1.88138">
        <ele>190</ele>
        <time>2016-04-03T08:57:18.000Z</time>
      </trkpt>
      <trkpt lat="44.07697" lon="1.88138">
        <ele>190</ele>
        <time>2016-04-03T08:57:20.000Z</time>
      </trkpt>
      <trkpt lat="44.0769" lon="1.88129">
        <ele>186</ele>
        <time>2016-04-03T08:59:19.000Z</time>
      </trkpt>
      <trkpt lat="44.07685" lon="1.88122">
        <ele>186</ele>
        <time>2016-04-03T08:59:21.000Z</time>
      </trkpt>
      <trkpt lat="44.07685" lon="1.88122">
        <ele>186</ele>
        <time>2016-04-03T08:59:23.000Z</time>
      </trkpt>
      <trkpt lat="44.07685" lon="1.88122">
        <ele>186</ele>
        <time>2016-04-03T08:59:25.000Z</time>
      </trkpt>
      <trkpt lat="44.07685" lon="1.88122">
        <ele>186</ele>
        <time>2016-04-03T08:59:27.000Z</time>
      </trkpt>
      <trkpt lat="44.07681" lon="1.88114">
        <ele>184</ele>
        <time>2016-04-03T08:59:50.000Z</time>
      </trkpt>
      <trkpt lat="44.07679" lon="1.88107">
        <ele>184</ele>
        <time>2016-04-03T08:59:54.000Z</time>
      </trkpt>
      <trkpt lat="44.07679" lon="1.88107">
        <ele>184</ele>
        <time>2016-04-03T08:59:58.000Z</time>
      </trkpt>
      <trkpt lat="44.07679" lon="1.88107">
        <ele>184</ele>
        <time>2016-04-03T09:00:00.000Z</time>
      </trkpt>
      <trkpt lat="44.07683" lon="1.88098">
        <ele>181</ele>
        <time>2016-04-03T09:00:21.000Z</time>
      </trkpt>
      <trkpt lat="44.07687" lon="1.88093">
        <ele>181</ele>
        <time>2016-04-03T09:00:23.000Z</time>
      </trkpt>
      <trkpt lat="44.07687" lon="1.88093">
        <ele>181</ele>
        <time>2016-04-03T09:00:25.000Z</time>
      </trkpt>
      <trkpt lat="44.07687" lon="1.88093">
        <ele>181</ele>
        <time>2016-04-03T09:00:27.000Z</time>
      </trkpt>
      <trkpt lat="44.07704" lon="1.88079">
        <ele>175</ele>
        <time>2016-04-03T09:03:08.000Z</time>
      </trkpt>
      <trkpt lat="44.07714" lon="1.88072">
        <ele>175</ele>
        <time>2016-04-03T09:03:10.000Z</time>
      </trkpt>
      <trkpt lat="44.07719" lon="1.88068">
        <ele>175</ele>
        <time>2016-04-03T09:03:12.000Z</time>
      </trkpt>
      <trkpt lat="44.07723" lon="1.88065">
        <ele>175</ele>
        <time>2016-04-03T09:03:16.000Z</time>
      </trkpt>
      <trkpt lat="44.07723" lon="1.88065">
        <ele>175</ele>
        <time>2016-04-03T09:03:18.000Z</time>
      </trkpt>
      <trkpt lat="44.07723" lon="1.88065">
        <ele>175</ele>
        <time>2016-04-03T09:03:20.000Z</time>
      </trkpt>
      <trkpt lat="44.07723" lon="1.88065">
        <ele>175</ele>
        <time>2016-04-03T09:03:34.000Z</time>
      </trkpt>
      <trkpt lat="44.07723" lon="1.88065">
        <ele>175</ele>
        <time>2016-04-03T09:03:36.000Z</time>
      </trkpt>
      <trkpt lat="44.07739" lon="1.88051">
        <ele>173</ele>
        <time>2016-04-03T09:04:28.000Z</time>
      </trkpt>
      <trkpt lat="44.07748" lon="1.88043">
        <ele>173</ele>
        <time>2016-04-03T09:04:30.000Z</time>
      </trkpt>
      <trkpt lat="44.07754" lon="1.88036">
        <ele>174</ele>
        <time>2016-04-03T09:04:32.000Z</time>
      </trkpt>
      <trkpt lat="44.07757" lon="1.88029">
        <ele>174</ele>
        <time>2016-04-03T09:04:34.000Z</time>
      </trkpt>
      <trkpt lat="44.07759" lon="1.88023">
        <ele>174</ele>
        <time>2016-04-03T09:04:36.000Z</time>
      </trkpt>
      <trkpt lat="44.07765" lon="1.88013">
        <ele>174</ele>
        <time>2016-04-03T09:04:38.000Z</time>
      </trkpt>
      <trkpt lat="44.07765" lon="1.88013">
        <ele>174</ele>
        <time>2016-04-03T09:04:40.000Z</time>
      </trkpt>
      <trkpt lat="44.07765" lon="1.88013">
        <ele>174</ele>
        <time>2016-04-03T09:04:42.000Z</time>
      </trkpt>
      <trkpt lat="44.07765" lon="1.88013">
        <ele>174</ele>
        <time>2016-04-03T09:04:44.000Z</time>
      </trkpt>
      <trkpt lat="44.07765" lon="1.88013">
        <ele>174</ele>
        <time>2016-04-03T09:04:46.000Z</time>
      </trkpt>
      <trkpt lat="44.07765" lon="1.88013">
        <ele>174</ele>
        <time>2016-04-03T09:04:48.000Z</time>
      </trkpt>
      <trkpt lat="44.07765" lon="1.88013">
        <ele>174</ele>
        <time>2016-04-03T09:04:50.000Z</time>
      </trkpt>
      <trkpt lat="44.07782" lon="1.87994">
        <ele>175</ele>
        <time>2016-04-03T09:04:54.000Z</time>
      </trkpt>
      <trkpt lat="44.07782" lon="1.87994">
        <ele>175</ele>
        <time>2016-04-03T09:04:58.000Z</time>
      </trkpt>
      <trkpt lat="44.07782" lon="1.87994">
        <ele>175</ele>
        <time>2016-04-03T09:05:00.000Z</time>
      </trkpt>
      <trkpt lat="44.07782" lon="1.87994">
        <ele>175</ele>
        <time>2016-04-03T09:05:03.000Z</time>
      </trkpt>
      <trkpt lat="44.07782" lon="1.87994">
        <ele>175</ele>
        <time>2016-04-03T09:05:04.000Z</time>
      </trkpt>
      <trkpt lat="44.07782" lon="1.87994">
        <ele>175</ele>
        <time>2016-04-03T09:05:06.000Z</time>
      </trkpt>
      <trkpt lat="44.07805" lon="1.87991">
        <ele>179</ele>
        <time>2016-04-03T09:05:10.000Z</time>
      </trkpt>
      <trkpt lat="44.07805" lon="1.87991">
        <ele>179</ele>
        <time>2016-04-03T09:05:12.000Z</time>
      </trkpt>
      <trkpt lat="44.07805" lon="1.87991">
        <ele>179</ele>
        <time>2016-04-03T09:05:14.000Z</time>
      </trkpt>
      <trkpt lat="44.07805" lon="1.87991">
        <ele>179</ele>
        <time>2016-04-03T09:05:16.000Z</time>
      </trkpt>
      <trkpt lat="44.07805" lon="1.87991">
        <ele>179</ele>
        <time>2016-04-03T09:05:18.000Z</time>
      </trkpt>
      <trkpt lat="44.07805" lon="1.87991">
        <ele>179</ele>
        <time>2016-04-03T09:05:20.000Z</time>
      </trkpt>
      <trkpt lat="44.07805" lon="1.87991">
        <ele>179</ele>
        <time>2016-04-03T09:05:22.000Z</time>
      </trkpt>
      <trkpt lat="44.07805" lon="1.87991">
        <ele>179</ele>
        <time>2016-04-03T09:05:24.000Z</time>
      </trkpt>
      <trkpt lat="44.07835" lon="1.87987">
        <ele>181</ele>
        <time>2016-04-03T09:05:30.000Z</time>
      </trkpt>
      <trkpt lat="44.07835" lon="1.87987">
        <ele>181</ele>
        <time>2016-04-03T09:05:40.000Z</time>
      </trkpt>
      <trkpt lat="44.07838" lon="1.88003">
        <ele>184</ele>
        <time>2016-04-03T09:05:46.000Z</time>
      </trkpt>
      <trkpt lat="44.0784" lon="1.88012">
        <ele>184</ele>
        <time>2016-04-03T09:05:48.000Z</time>
      </trkpt>
      <trkpt lat="44.0784" lon="1.88012">
        <ele>184</ele>
        <time>2016-04-03T09:05:50.000Z</time>
      </trkpt>
      <trkpt lat="44.0784" lon="1.88012">
        <ele>184</ele>
        <time>2016-04-03T09:05:52.000Z</time>
      </trkpt>
      <trkpt lat="44.0784" lon="1.88012">
        <ele>184</ele>
        <time>2016-04-03T09:05:54.000Z</time>
      </trkpt>
      <trkpt lat="44.0784" lon="1.88012">
        <ele>184</ele>
        <time>2016-04-03T09:05:56.000Z</time>
      </trkpt>
      <trkpt lat="44.0784" lon="1.88012">
        <ele>184</ele>
        <time>2016-04-03T09:05:58.000Z</time>
      </trkpt>
      <trkpt lat="44.0784" lon="1.88012">
        <ele>184</ele>
        <time>2016-04-03T09:06:00.000Z</time>
      </trkpt>
      <trkpt lat="44.0784" lon="1.88012">
        <ele>184</ele>
        <time>2016-04-03T09:06:05.000Z</time>
      </trkpt>
      <trkpt lat="44.0785" lon="1.8803">
        <ele>181</ele>
        <time>2016-04-03T09:06:43.000Z</time>
      </trkpt>
      <trkpt lat="44.07856" lon="1.88041">
        <ele>181</ele>
        <time>2016-04-03T09:06:45.000Z</time>
      </trkpt>
      <trkpt lat="44.0786" lon="1.88046">
        <ele>181</ele>
        <time>2016-04-03T09:06:47.000Z</time>
      </trkpt>
      <trkpt lat="44.07865" lon="1.88047">
        <ele>181</ele>
        <time>2016-04-03T09:06:51.000Z</time>
      </trkpt>
      <trkpt lat="44.0787" lon="1.88047">
        <ele>182</ele>
        <time>2016-04-03T09:06:55.000Z</time>
      </trkpt>
      <trkpt lat="44.0787" lon="1.88047">
        <ele>182</ele>
        <time>2016-04-03T09:06:57.000Z</time>
      </trkpt>
      <trkpt lat="44.0787" lon="1.88047">
        <ele>182</ele>
        <time>2016-04-03T09:06:59.000Z</time>
      </trkpt>
      <trkpt lat="44.07879" lon="1.88044">
        <ele>183</ele>
        <time>2016-04-03T09:07:03.000Z</time>
      </trkpt>
      <trkpt lat="44.07885" lon="1.88043">
        <ele>183</ele>
        <time>2016-04-03T09:07:05.000Z</time>
      </trkpt>
      <trkpt lat="44.0789" lon="1.88042">
        <ele>184</ele>
        <time>2016-04-03T09:07:07.000Z</time>
      </trkpt>
      <trkpt lat="44.07895" lon="1.88041">
        <ele>183</ele>
        <time>2016-04-03T09:07:09.000Z</time>
      </trkpt>
      <trkpt lat="44.07895" lon="1.88041">
        <ele>183</ele>
        <time>2016-04-03T09:07:11.000Z</time>
      </trkpt>
      <trkpt lat="44.07895" lon="1.88041">
        <ele>183</ele>
        <time>2016-04-03T09:07:15.000Z</time>
      </trkpt>
      <trkpt lat="44.07904" lon="1.88036">
        <ele>184</ele>
        <time>2016-04-03T09:07:17.000Z</time>
      </trkpt>
      <trkpt lat="44.07911" lon="1.88032">
        <ele>184</ele>
        <time>2016-04-03T09:07:19.000Z</time>
      </trkpt>
      <trkpt lat="44.07917" lon="1.88029">
        <ele>184</ele>
        <time>2016-04-03T09:07:21.000Z</time>
      </trkpt>
      <trkpt lat="44.07921" lon="1.88026">
        <ele>185</ele>
        <time>2016-04-03T09:07:23.000Z</time>
      </trkpt>
      <trkpt lat="44.07925" lon="1.88024">
        <ele>186</ele>
        <time>2016-04-03T09:07:25.000Z</time>
      </trkpt>
      <trkpt lat="44.07935" lon="1.88019">
        <ele>186</ele>
        <time>2016-04-03T09:07:27.000Z</time>
      </trkpt>
      <trkpt lat="44.07935" lon="1.88019">
        <ele>186</ele>
        <time>2016-04-03T09:07:29.000Z</time>
      </trkpt>
      <trkpt lat="44.07935" lon="1.88019">
        <ele>186</ele>
        <time>2016-04-03T09:07:31.000Z</time>
      </trkpt>
      <trkpt lat="44.07935" lon="1.88019">
        <ele>186</ele>
        <time>2016-04-03T09:07:33.000Z</time>
      </trkpt>
      <trkpt lat="44.07959" lon="1.87975">
        <ele>176</ele>
        <time>2016-04-03T09:08:53.000Z</time>
      </trkpt>
      <trkpt lat="44.07959" lon="1.87975">
        <ele>176</ele>
        <time>2016-04-03T09:08:57.000Z</time>
      </trkpt>
      <trkpt lat="44.07959" lon="1.87975">
        <ele>176</ele>
        <time>2016-04-03T09:08:59.000Z</time>
      </trkpt>
      <trkpt lat="44.07959" lon="1.87975">
        <ele>176</ele>
        <time>2016-04-03T09:09:01.000Z</time>
      </trkpt>
      <trkpt lat="44.07959" lon="1.87975">
        <ele>176</ele>
        <time>2016-04-03T09:09:17.000Z</time>
      </trkpt>
      <trkpt lat="44.07955" lon="1.87978">
        <ele>177</ele>
        <time>2016-04-03T09:09:31.000Z</time>
      </trkpt>
      <trkpt lat="44.07951" lon="1.87982">
        <ele>177</ele>
        <time>2016-04-03T09:09:33.000Z</time>
      </trkpt>
      <trkpt lat="44.07951" lon="1.87982">
        <ele>177</ele>
        <time>2016-04-03T09:09:35.000Z</time>
      </trkpt>
      <trkpt lat="44.07947" lon="1.87986">
        <ele>177</ele>
        <time>2016-04-03T09:09:37.000Z</time>
      </trkpt>
      <trkpt lat="44.07947" lon="1.87986">
        <ele>177</ele>
        <time>2016-04-03T09:09:39.000Z</time>
      </trkpt>
      <trkpt lat="44.07947" lon="1.87986">
        <ele>177</ele>
        <time>2016-04-03T09:09:41.000Z</time>
      </trkpt>
      <trkpt lat="44.07947" lon="1.87986">
        <ele>177</ele>
        <time>2016-04-03T09:09:49.000Z</time>
      </trkpt>
      <trkpt lat="44.07947" lon="1.87986">
        <ele>177</ele>
        <time>2016-04-03T09:09:51.000Z</time>
      </trkpt>
      <trkpt lat="44.07912" lon="1.87991">
        <ele>182</ele>
        <time>2016-04-03T09:10:43.000Z</time>
      </trkpt>
      <trkpt lat="44.07893" lon="1.87994">
        <ele>182</ele>
        <time>2016-04-03T09:10:45.000Z</time>
      </trkpt>
      <trkpt lat="44.07883" lon="1.87994">
        <ele>182</ele>
        <time>2016-04-03T09:10:47.000Z</time>
      </trkpt>
      <trkpt lat="44.07883" lon="1.87994">
        <ele>182</ele>
        <time>2016-04-03T09:10:49.000Z</time>
      </trkpt>
      <trkpt lat="44.07883" lon="1.87994">
        <ele>182</ele>
        <time>2016-04-03T09:10:51.000Z</time>
      </trkpt>
      <trkpt lat="44.07883" lon="1.87994">
        <ele>182</ele>
        <time>2016-04-03T09:10:55.000Z</time>
      </trkpt>
      <trkpt lat="44.07883" lon="1.87994">
        <ele>182</ele>
        <time>2016-04-03T09:10:57.000Z</time>
      </trkpt>
      <trkpt lat="44.07883" lon="1.87994">
        <ele>182</ele>
        <time>2016-04-03T09:10:59.000Z</time>
      </trkpt>
      <trkpt lat="44.07865" lon="1.87983">
        <ele>182</ele>
        <time>2016-04-03T09:11:11.000Z</time>
      </trkpt>
      <trkpt lat="44.07854" lon="1.87977">
        <ele>182</ele>
        <time>2016-04-03T09:11:13.000Z</time>
      </trkpt>
      <trkpt lat="44.07848" lon="1.87972">
        <ele>183</ele>
        <time>2016-04-03T09:11:15.000Z</time>
      </trkpt>
      <trkpt lat="44.07844" lon="1.87969">
        <ele>183</ele>
        <time>2016-04-03T09:11:19.000Z</time>
      </trkpt>
      <trkpt lat="44.07844" lon="1.87969">
        <ele>183</ele>
        <time>2016-04-03T09:11:21.000Z</time>
      </trkpt>
      <trkpt lat="44.07844" lon="1.87969">
        <ele>183</ele>
        <time>2016-04-03T09:11:23.000Z</time>
      </trkpt>
      <trkpt lat="44.07844" lon="1.87969">
        <ele>183</ele>
        <time>2016-04-03T09:11:25.000Z</time>
      </trkpt>
      <trkpt lat="44.07844" lon="1.87969">
        <ele>183</ele>
        <time>2016-04-03T09:11:27.000Z</time>
      </trkpt>
      <trkpt lat="44.07833" lon="1.8796">
        <ele>183</ele>
        <time>2016-04-03T09:12:03.000Z</time>
      </trkpt>
      <trkpt lat="44.07825" lon="1.87957">
        <ele>183</ele>
        <time>2016-04-03T09:12:05.000Z</time>
      </trkpt>
      <trkpt lat="44.0782" lon="1.87956">
        <ele>183</ele>
        <time>2016-04-03T09:12:07.000Z</time>
      </trkpt>
      <trkpt lat="44.07815" lon="1.87957">
        <ele>183</ele>
        <time>2016-04-03T09:12:09.000Z</time>
      </trkpt>
      <trkpt lat="44.07811" lon="1.87958">
        <ele>183</ele>
        <time>2016-04-03T09:12:11.000Z</time>
      </trkpt>
      <trkpt lat="44.07801" lon="1.87961">
        <ele>183</ele>
        <time>2016-04-03T09:12:13.000Z</time>
      </trkpt>
      <trkpt lat="44.07801" lon="1.87961">
        <ele>183</ele>
        <time>2016-04-03T09:12:15.000Z</time>
      </trkpt>
      <trkpt lat="44.07801" lon="1.87961">
        <ele>183</ele>
        <time>2016-04-03T09:12:17.000Z</time>
      </trkpt>
      <trkpt lat="44.07801" lon="1.87961">
        <ele>183</ele>
        <time>2016-04-03T09:12:19.000Z</time>
      </trkpt>
      <trkpt lat="44.07801" lon="1.87961">
        <ele>183</ele>
        <time>2016-04-03T09:12:21.000Z</time>
      </trkpt>
      <trkpt lat="44.07801" lon="1.87961">
        <ele>183</ele>
        <time>2016-04-03T09:12:23.000Z</time>
      </trkpt>
      <trkpt lat="44.07801" lon="1.87961">
        <ele>183</ele>
        <time>2016-04-03T09:12:25.000Z</time>
      </trkpt>
      <trkpt lat="44.07801" lon="1.87961">
        <ele>183</ele>
        <time>2016-04-03T09:12:27.000Z</time>
      </trkpt>
      <trkpt lat="44.07801" lon="1.87961">
        <ele>183</ele>
        <time>2016-04-03T09:12:29.000Z</time>
      </trkpt>
      <trkpt lat="44.07801" lon="1.87961">
        <ele>183</ele>
        <time>2016-04-03T09:12:31.000Z</time>
      </trkpt>
      <trkpt lat="44.07801" lon="1.87961">
        <ele>183</ele>
        <time>2016-04-03T09:12:33.000Z</time>
      </trkpt>
      <trkpt lat="44.07801" lon="1.87961">
        <ele>183</ele>
        <time>2016-04-03T09:12:35.000Z</time>
      </trkpt>
      <trkpt lat="44.07764" lon="1.87973">
        <ele>184</ele>
        <time>2016-04-03T09:12:37.000Z</time>
      </trkpt>
      <trkpt lat="44.07753" lon="1.87983">
        <ele>184</ele>
        <time>2016-04-03T09:12:43.000Z</time>
      </trkpt>
      <trkpt lat="44.07753" lon="1.87983">
        <ele>184</ele>
        <time>2016-04-03T09:12:45.000Z</time>
      </trkpt>
      <trkpt lat="44.07744" lon="1.87989">
        <ele>184</ele>
        <time>2016-04-03T09:12:47.000Z</time>
      </trkpt>
      <trkpt lat="44.07744" lon="1.87989">
        <ele>184</ele>
        <time>2016-04-03T09:12:49.000Z</time>
      </trkpt>
      <trkpt lat="44.07744" lon="1.87989">
        <ele>184</ele>
        <time>2016-04-03T09:12:51.000Z</time>
      </trkpt>
      <trkpt lat="44.07744" lon="1.87989">
        <ele>184</ele>
        <time>2016-04-03T09:12:53.000Z</time>
      </trkpt>
      <trkpt lat="44.07728" lon="1.88004">
        <ele>185</ele>
        <time>2016-04-03T09:12:57.000Z</time>
      </trkpt>
      <trkpt lat="44.07728" lon="1.88004">
        <ele>185</ele>
        <time>2016-04-03T09:12:59.000Z</time>
      </trkpt>
      <trkpt lat="44.07728" lon="1.88004">
        <ele>185</ele>
        <time>2016-04-03T09:13:01.000Z</time>
      </trkpt>
      <trkpt lat="44.07728" lon="1.88004">
        <ele>185</ele>
        <time>2016-04-03T09:13:03.000Z</time>
      </trkpt>
      <trkpt lat="44.07715" lon="1.88016">
        <ele>186</ele>
        <time>2016-04-03T09:13:05.000Z</time>
      </trkpt>
      <trkpt lat="44.07715" lon="1.88016">
        <ele>186</ele>
        <time>2016-04-03T09:13:11.000Z</time>
      </trkpt>
      <trkpt lat="44.07715" lon="1.88016">
        <ele>186</ele>
        <time>2016-04-03T09:13:13.000Z</time>
      </trkpt>
      <trkpt lat="44.07696" lon="1.88033">
        <ele>187</ele>
        <time>2016-04-03T09:13:17.000Z</time>
      </trkpt>
      <trkpt lat="44.07696" lon="1.88033">
        <ele>187</ele>
        <time>2016-04-03T09:13:23.000Z</time>
      </trkpt>
      <trkpt lat="44.07696" lon="1.88033">
        <ele>187</ele>
        <time>2016-04-03T09:13:25.000Z</time>
      </trkpt>
      <trkpt lat="44.07696" lon="1.88033">
        <ele>187</ele>
        <time>2016-04-03T09:13:27.000Z</time>
      </trkpt>
      <trkpt lat="44.07696" lon="1.88033">
        <ele>187</ele>
        <time>2016-04-03T09:13:29.000Z</time>
      </trkpt>
      <trkpt lat="44.07696" lon="1.88033">
        <ele>187</ele>
        <time>2016-04-03T09:13:31.000Z</time>
      </trkpt>
      <trkpt lat="44.07696" lon="1.88033">
        <ele>187</ele>
        <time>2016-04-03T09:13:33.000Z</time>
      </trkpt>
      <trkpt lat="44.07681" lon="1.88048">
        <ele>189</ele>
        <time>2016-04-03T09:13:37.000Z</time>
      </trkpt>
      <trkpt lat="44.07673" lon="1.88056">
        <ele>190</ele>
        <time>2016-04-03T09:13:39.000Z</time>
      </trkpt>
      <trkpt lat="44.07673" lon="1.88056">
        <ele>190</ele>
        <time>2016-04-03T09:13:41.000Z</time>
      </trkpt>
      <trkpt lat="44.07673" lon="1.88056">
        <ele>190</ele>
        <time>2016-04-03T09:13:43.000Z</time>
      </trkpt>
      <trkpt lat="44.07673" lon="1.88056">
        <ele>190</ele>
        <time>2016-04-03T09:13:45.000Z</time>
      </trkpt>
      <trkpt lat="44.07661" lon="1.88068">
        <ele>191</ele>
        <time>2016-04-03T09:13:51.000Z</time>
      </trkpt>
      <trkpt lat="44.07654" lon="1.88076">
        <ele>191</ele>
        <time>2016-04-03T09:13:53.000Z</time>
      </trkpt>
      <trkpt lat="44.07649" lon="1.88082">
        <ele>192</ele>
        <time>2016-04-03T09:13:55.000Z</time>
      </trkpt>
      <trkpt lat="44.07645" lon="1.88087">
        <ele>191</ele>
        <time>2016-04-03T09:13:57.000Z</time>
      </trkpt>
      <trkpt lat="44.07645" lon="1.88087">
        <ele>191</ele>
        <time>2016-04-03T09:13:59.000Z</time>
      </trkpt>
      <trkpt lat="44.07641" lon="1.88093">
        <ele>191</ele>
        <time>2016-04-03T09:14:01.000Z</time>
      </trkpt>
      <trkpt lat="44.07637" lon="1.88098">
        <ele>191</ele>
        <time>2016-04-03T09:14:03.000Z</time>
      </trkpt>
      <trkpt lat="44.07637" lon="1.88098">
        <ele>191</ele>
        <time>2016-04-03T09:14:05.000Z</time>
      </trkpt>
      <trkpt lat="44.07637" lon="1.88098">
        <ele>191</ele>
        <time>2016-04-03T09:14:07.000Z</time>
      </trkpt>
      <trkpt lat="44.07637" lon="1.88098">
        <ele>191</ele>
        <time>2016-04-03T09:14:09.000Z</time>
      </trkpt>
      <trkpt lat="44.07637" lon="1.88098">
        <ele>191</ele>
        <time>2016-04-03T09:14:11.000Z</time>
      </trkpt>
      <trkpt lat="44.07637" lon="1.88098">
        <ele>191</ele>
        <time>2016-04-03T09:14:13.000Z</time>
      </trkpt>
      <trkpt lat="44.0763" lon="1.88112">
        <ele>192</ele>
        <time>2016-04-03T09:14:22.000Z</time>
      </trkpt>
      <trkpt lat="44.07625" lon="1.88119">
        <ele>192</ele>
        <time>2016-04-03T09:14:24.000Z</time>
      </trkpt>
      <trkpt lat="44.07621" lon="1.88123">
        <ele>192</ele>
        <time>2016-04-03T09:14:26.000Z</time>
      </trkpt>
      <trkpt lat="44.07621" lon="1.88123">
        <ele>192</ele>
        <time>2016-04-03T09:14:28.000Z</time>
      </trkpt>
      <trkpt lat="44.07621" lon="1.88123">
        <ele>192</ele>
        <time>2016-04-03T09:14:30.000Z</time>
      </trkpt>
      <trkpt lat="44.07616" lon="1.88125">
        <ele>193</ele>
        <time>2016-04-03T09:14:32.000Z</time>
      </trkpt>
      <trkpt lat="44.07616" lon="1.88125">
        <ele>193</ele>
        <time>2016-04-03T09:14:36.000Z</time>
      </trkpt>
      <trkpt lat="44.07616" lon="1.88125">
        <ele>193</ele>
        <time>2016-04-03T09:14:38.000Z</time>
      </trkpt>
      <trkpt lat="44.07609" lon="1.88129">
        <ele>193</ele>
        <time>2016-04-03T09:14:40.000Z</time>
      </trkpt>
      <trkpt lat="44.07605" lon="1.88131">
        <ele>193</ele>
        <time>2016-04-03T09:14:42.000Z</time>
      </trkpt>
      <trkpt lat="44.07605" lon="1.88131">
        <ele>193</ele>
        <time>2016-04-03T09:14:44.000Z</time>
      </trkpt>
      <trkpt lat="44.07605" lon="1.88131">
        <ele>193</ele>
        <time>2016-04-03T09:14:46.000Z</time>
      </trkpt>
      <trkpt lat="44.07605" lon="1.88131">
        <ele>193</ele>
        <time>2016-04-03T09:14:48.000Z</time>
      </trkpt>
      <trkpt lat="44.07605" lon="1.88131">
        <ele>193</ele>
        <time>2016-04-03T09:14:50.000Z</time>
      </trkpt>
      <trkpt lat="44.07605" lon="1.88131">
        <ele>193</ele>
        <time>2016-04-03T09:14:52.000Z</time>
      </trkpt>
      <trkpt lat="44.07605" lon="1.88131">
        <ele>193</ele>
        <time>2016-04-03T09:14:54.000Z</time>
      </trkpt>
      <trkpt lat="44.0759" lon="1.88139">
        <ele>201</ele>
        <time>2016-04-03T09:15:10.000Z</time>
      </trkpt>
      <trkpt lat="44.07583" lon="1.88144">
        <ele>201</ele>
        <time>2016-04-03T09:15:12.000Z</time>
      </trkpt>
      <trkpt lat="44.07578" lon="1.88148">
        <ele>202</ele>
        <time>2016-04-03T09:15:14.000Z</time>
      </trkpt>
      <trkpt lat="44.07578" lon="1.88148">
        <ele>202</ele>
        <time>2016-04-03T09:15:16.000Z</time>
      </trkpt>
      <trkpt lat="44.07574" lon="1.88152">
        <ele>203</ele>
        <time>2016-04-03T09:15:18.000Z</time>
      </trkpt>
      <trkpt lat="44.07574" lon="1.88152">
        <ele>203</ele>
        <time>2016-04-03T09:15:22.000Z</time>
      </trkpt>
      <trkpt lat="44.07574" lon="1.88152">
        <ele>203</ele>
        <time>2016-04-03T09:15:24.000Z</time>
      </trkpt>
      <trkpt lat="44.07565" lon="1.88156">
        <ele>205</ele>
        <time>2016-04-03T09:15:28.000Z</time>
      </trkpt>
      <trkpt lat="44.07559" lon="1.88159">
        <ele>205</ele>
        <time>2016-04-03T09:15:30.000Z</time>
      </trkpt>
      <trkpt lat="44.07555" lon="1.88162">
        <ele>206</ele>
        <time>2016-04-03T09:15:34.000Z</time>
      </trkpt>
      <trkpt lat="44.0755" lon="1.88165">
        <ele>207</ele>
        <time>2016-04-03T09:15:38.000Z</time>
      </trkpt>
      <trkpt lat="44.0755" lon="1.88165">
        <ele>207</ele>
        <time>2016-04-03T09:15:40.000Z</time>
      </trkpt>
      <trkpt lat="44.0755" lon="1.88165">
        <ele>207</ele>
        <time>2016-04-03T09:15:42.000Z</time>
      </trkpt>
      <trkpt lat="44.0755" lon="1.88165">
        <ele>207</ele>
        <time>2016-04-03T09:15:44.000Z</time>
      </trkpt>
      <trkpt lat="44.0755" lon="1.88165">
        <ele>207</ele>
        <time>2016-04-03T09:15:46.000Z</time>
      </trkpt>
      <trkpt lat="44.0755" lon="1.88165">
        <ele>207</ele>
        <time>2016-04-03T09:15:54.000Z</time>
      </trkpt>
      <trkpt lat="44.07532" lon="1.88184">
        <ele>209</ele>
        <time>2016-04-03T09:16:25.000Z</time>
      </trkpt>
      <trkpt lat="44.07522" lon="1.88196">
        <ele>209</ele>
        <time>2016-04-03T09:16:27.000Z</time>
      </trkpt>
      <trkpt lat="44.07516" lon="1.88203">
        <ele>209</ele>
        <time>2016-04-03T09:16:29.000Z</time>
      </trkpt>
      <trkpt lat="44.07516" lon="1.88203">
        <ele>209</ele>
        <time>2016-04-03T09:16:31.000Z</time>
      </trkpt>
      <trkpt lat="44.07511" lon="1.88213">
        <ele>210</ele>
        <time>2016-04-03T09:16:35.000Z</time>
      </trkpt>
      <trkpt lat="44.07507" lon="1.88222">
        <ele>210</ele>
        <time>2016-04-03T09:16:37.000Z</time>
      </trkpt>
      <trkpt lat="44.07502" lon="1.8823">
        <ele>209</ele>
        <time>2016-04-03T09:16:39.000Z</time>
      </trkpt>
      <trkpt lat="44.07498" lon="1.88237">
        <ele>209</ele>
        <time>2016-04-03T09:16:41.000Z</time>
      </trkpt>
      <trkpt lat="44.07494" lon="1.88243">
        <ele>210</ele>
        <time>2016-04-03T09:16:43.000Z</time>
      </trkpt>
      <trkpt lat="44.07494" lon="1.88243">
        <ele>210</ele>
        <time>2016-04-03T09:16:45.000Z</time>
      </trkpt>
      <trkpt lat="44.07494" lon="1.88243">
        <ele>210</ele>
        <time>2016-04-03T09:16:47.000Z</time>
      </trkpt>
      <trkpt lat="44.07494" lon="1.88243">
        <ele>210</ele>
        <time>2016-04-03T09:16:49.000Z</time>
      </trkpt>
      <trkpt lat="44.07494" lon="1.88243">
        <ele>210</ele>
        <time>2016-04-03T09:16:51.000Z</time>
      </trkpt>
      <trkpt lat="44.07474" lon="1.88274">
        <ele>211</ele>
        <time>2016-04-03T09:16:55.000Z</time>
      </trkpt>
      <trkpt lat="44.07469" lon="1.88286">
        <ele>211</ele>
        <time>2016-04-03T09:16:59.000Z</time>
      </trkpt>
      <trkpt lat="44.07466" lon="1.88299">
        <ele>211</ele>
        <time>2016-04-03T09:17:03.000Z</time>
      </trkpt>
      <trkpt lat="44.07466" lon="1.88299">
        <ele>211</ele>
        <time>2016-04-03T09:17:05.000Z</time>
      </trkpt>
      <trkpt lat="44.07466" lon="1.88299">
        <ele>211</ele>
        <time>2016-04-03T09:17:07.000Z</time>
      </trkpt>
      <trkpt lat="44.0746" lon="1.8833">
        <ele>210</ele>
        <time>2016-04-03T09:17:17.000Z</time>
      </trkpt>
      <trkpt lat="44.0746" lon="1.8833">
        <ele>210</ele>
        <time>2016-04-03T09:17:19.000Z</time>
      </trkpt>
      <trkpt lat="44.0746" lon="1.8833">
        <ele>210</ele>
        <time>2016-04-03T09:17:21.000Z</time>
      </trkpt>
      <trkpt lat="44.0746" lon="1.8833">
        <ele>210</ele>
        <time>2016-04-03T09:17:23.000Z</time>
      </trkpt>
      <trkpt lat="44.0746" lon="1.8833">
        <ele>210</ele>
        <time>2016-04-03T09:17:25.000Z</time>
      </trkpt>
      <trkpt lat="44.07455" lon="1.88352">
        <ele>210</ele>
        <time>2016-04-03T09:17:29.000Z</time>
      </trkpt>
      <trkpt lat="44.07455" lon="1.88352">
        <ele>210</ele>
        <time>2016-04-03T09:17:31.000Z</time>
      </trkpt>
      <trkpt lat="44.07455" lon="1.88352">
        <ele>210</ele>
        <time>2016-04-03T09:17:33.000Z</time>
      </trkpt>
      <trkpt lat="44.07451" lon="1.88369">
        <ele>210</ele>
        <time>2016-04-03T09:17:37.000Z</time>
      </trkpt>
      <trkpt lat="44.07446" lon="1.88381">
        <ele>210</ele>
        <time>2016-04-03T09:17:43.000Z</time>
      </trkpt>
      <trkpt lat="44.07441" lon="1.88394">
        <ele>211</ele>
        <time>2016-04-03T09:17:49.000Z</time>
      </trkpt>
      <trkpt lat="44.07441" lon="1.88394">
        <ele>211</ele>
        <time>2016-04-03T09:17:51.000Z</time>
      </trkpt>
      <trkpt lat="44.07441" lon="1.88394">
        <ele>211</ele>
        <time>2016-04-03T09:17:53.000Z</time>
      </trkpt>
      <trkpt lat="44.07434" lon="1.88402">
        <ele>212</ele>
        <time>2016-04-03T09:17:55.000Z</time>
      </trkpt>
      <trkpt lat="44.07434" lon="1.88402">
        <ele>212</ele>
        <time>2016-04-03T09:17:57.000Z</time>
      </trkpt>
      <trkpt lat="44.0742" lon="1.88396">
        <ele>210</ele>
        <time>2016-04-03T09:18:01.000Z</time>
      </trkpt>
      <trkpt lat="44.07415" lon="1.88395">
        <ele>209</ele>
        <time>2016-04-03T09:18:05.000Z</time>
      </trkpt>
      <trkpt lat="44.07415" lon="1.88395">
        <ele>209</ele>
        <time>2016-04-03T09:18:07.000Z</time>
      </trkpt>
      <trkpt lat="44.07415" lon="1.88395">
        <ele>209</ele>
        <time>2016-04-03T09:18:11.000Z</time>
      </trkpt>
      <trkpt lat="44.07415" lon="1.88395">
        <ele>209</ele>
        <time>2016-04-03T09:18:13.000Z</time>
      </trkpt>
      <trkpt lat="44.07415" lon="1.88395">
        <ele>209</ele>
        <time>2016-04-03T09:18:15.000Z</time>
      </trkpt>
      <trkpt lat="44.07415" lon="1.88395">
        <ele>209</ele>
        <time>2016-04-03T09:18:17.000Z</time>
      </trkpt>
      <trkpt lat="44.07415" lon="1.88395">
        <ele>209</ele>
        <time>2016-04-03T09:18:19.000Z</time>
      </trkpt>
      <trkpt lat="44.07415" lon="1.88395">
        <ele>209</ele>
        <time>2016-04-03T09:18:21.000Z</time>
      </trkpt>
      <trkpt lat="44.07415" lon="1.88395">
        <ele>209</ele>
        <time>2016-04-03T09:18:23.000Z</time>
      </trkpt>
      <trkpt lat="44.07396" lon="1.88414">
        <ele>209</ele>
        <time>2016-04-03T09:18:27.000Z</time>
      </trkpt>
      <trkpt lat="44.07384" lon="1.88425">
        <ele>209</ele>
        <time>2016-04-03T09:18:29.000Z</time>
      </trkpt>
      <trkpt lat="44.07376" lon="1.88433">
        <ele>209</ele>
        <time>2016-04-03T09:18:31.000Z</time>
      </trkpt>
      <trkpt lat="44.07371" lon="1.88438">
        <ele>209</ele>
        <time>2016-04-03T09:18:33.000Z</time>
      </trkpt>
      <trkpt lat="44.07371" lon="1.88438">
        <ele>209</ele>
        <time>2016-04-03T09:18:35.000Z</time>
      </trkpt>
      <trkpt lat="44.07371" lon="1.88438">
        <ele>209</ele>
        <time>2016-04-03T09:18:37.000Z</time>
      </trkpt>
      <trkpt lat="44.07364" lon="1.88451">
        <ele>213</ele>
        <time>2016-04-03T09:18:47.000Z</time>
      </trkpt>
      <trkpt lat="44.07359" lon="1.88458">
        <ele>214</ele>
        <time>2016-04-03T09:18:49.000Z</time>
      </trkpt>
      <trkpt lat="44.07359" lon="1.88458">
        <ele>214</ele>
        <time>2016-04-03T09:18:51.000Z</time>
      </trkpt>
      <trkpt lat="44.07359" lon="1.88458">
        <ele>214</ele>
        <time>2016-04-03T09:18:53.000Z</time>
      </trkpt>
      <trkpt lat="44.07353" lon="1.88468">
        <ele>215</ele>
        <time>2016-04-03T09:18:55.000Z</time>
      </trkpt>
      <trkpt lat="44.07349" lon="1.88475">
        <ele>216</ele>
        <time>2016-04-03T09:18:57.000Z</time>
      </trkpt>
      <trkpt lat="44.07345" lon="1.8848">
        <ele>217</ele>
        <time>2016-04-03T09:18:59.000Z</time>
      </trkpt>
      <trkpt lat="44.07345" lon="1.8848">
        <ele>217</ele>
        <time>2016-04-03T09:19:01.000Z</time>
      </trkpt>
      <trkpt lat="44.07345" lon="1.8848">
        <ele>217</ele>
        <time>2016-04-03T09:19:03.000Z</time>
      </trkpt>
      <trkpt lat="44.07336" lon="1.88491">
        <ele>218</ele>
        <time>2016-04-03T09:19:36.000Z</time>
      </trkpt>
      <trkpt lat="44.0733" lon="1.88498">
        <ele>218</ele>
        <time>2016-04-03T09:19:38.000Z</time>
      </trkpt>
      <trkpt lat="44.07325" lon="1.88502">
        <ele>218</ele>
        <time>2016-04-03T09:19:40.000Z</time>
      </trkpt>
      <trkpt lat="44.0732" lon="1.88505">
        <ele>218</ele>
        <time>2016-04-03T09:19:42.000Z</time>
      </trkpt>
      <trkpt lat="44.07315" lon="1.88509">
        <ele>218</ele>
        <time>2016-04-03T09:19:46.000Z</time>
      </trkpt>
      <trkpt lat="44.0731" lon="1.88512">
        <ele>218</ele>
        <time>2016-04-03T09:19:48.000Z</time>
      </trkpt>
      <trkpt lat="44.07306" lon="1.88518">
        <ele>218</ele>
        <time>2016-04-03T09:19:52.000Z</time>
      </trkpt>
      <trkpt lat="44.07302" lon="1.88523">
        <ele>218</ele>
        <time>2016-04-03T09:19:54.000Z</time>
      </trkpt>
      <trkpt lat="44.07302" lon="1.88523">
        <ele>218</ele>
        <time>2016-04-03T09:19:56.000Z</time>
      </trkpt>
      <trkpt lat="44.07302" lon="1.88523">
        <ele>218</ele>
        <time>2016-04-03T09:19:58.000Z</time>
      </trkpt>
      <trkpt lat="44.07302" lon="1.88523">
        <ele>218</ele>
        <time>2016-04-03T09:20:00.000Z</time>
      </trkpt>
      <trkpt lat="44.07302" lon="1.88523">
        <ele>218</ele>
        <time>2016-04-03T09:20:04.000Z</time>
      </trkpt>
      <trkpt lat="44.07302" lon="1.88523">
        <ele>218</ele>
        <time>2016-04-03T09:20:06.000Z</time>
      </trkpt>
      <trkpt lat="44.07302" lon="1.88523">
        <ele>218</ele>
        <time>2016-04-03T09:20:08.000Z</time>
      </trkpt>
      <trkpt lat="44.07291" lon="1.88538">
        <ele>220</ele>
        <time>2016-04-03T09:20:12.000Z</time>
      </trkpt>
      <trkpt lat="44.07284" lon="1.88549">
        <ele>220</ele>
        <time>2016-04-03T09:20:14.000Z</time>
      </trkpt>
      <trkpt lat="44.07279" lon="1.88556">
        <ele>220</ele>
        <time>2016-04-03T09:20:16.000Z</time>
      </trkpt>
      <trkpt lat="44.07275" lon="1.88561">
        <ele>220</ele>
        <time>2016-04-03T09:20:18.000Z</time>
      </trkpt>
      <trkpt lat="44.07275" lon="1.88561">
        <ele>220</ele>
        <time>2016-04-03T09:20:20.000Z</time>
      </trkpt>
      <trkpt lat="44.07275" lon="1.88561">
        <ele>220</ele>
        <time>2016-04-03T09:20:22.000Z</time>
      </trkpt>
      <trkpt lat="44.07275" lon="1.88561">
        <ele>220</ele>
        <time>2016-04-03T09:20:24.000Z</time>
      </trkpt>
      <trkpt lat="44.07275" lon="1.88561">
        <ele>220</ele>
        <time>2016-04-03T09:20:26.000Z</time>
      </trkpt>
      <trkpt lat="44.07275" lon="1.88561">
        <ele>220</ele>
        <time>2016-04-03T09:20:28.000Z</time>
      </trkpt>
      <trkpt lat="44.07275" lon="1.88561">
        <ele>220</ele>
        <time>2016-04-03T09:20:30.000Z</time>
      </trkpt>
      <trkpt lat="44.07275" lon="1.88561">
        <ele>220</ele>
        <time>2016-04-03T09:20:32.000Z</time>
      </trkpt>
      <trkpt lat="44.07265" lon="1.88574">
        <ele>221</ele>
        <time>2016-04-03T09:20:34.000Z</time>
      </trkpt>
      <trkpt lat="44.07258" lon="1.88583">
        <ele>222</ele>
        <time>2016-04-03T09:20:36.000Z</time>
      </trkpt>
      <trkpt lat="44.07253" lon="1.88588">
        <ele>222</ele>
        <time>2016-04-03T09:20:38.000Z</time>
      </trkpt>
      <trkpt lat="44.07249" lon="1.88593">
        <ele>222</ele>
        <time>2016-04-03T09:20:40.000Z</time>
      </trkpt>
      <trkpt lat="44.07249" lon="1.88593">
        <ele>222</ele>
        <time>2016-04-03T09:20:42.000Z</time>
      </trkpt>
      <trkpt lat="44.07249" lon="1.88593">
        <ele>222</ele>
        <time>2016-04-03T09:20:44.000Z</time>
      </trkpt>
      <trkpt lat="44.07242" lon="1.88603">
        <ele>224</ele>
        <time>2016-04-03T09:20:48.000Z</time>
      </trkpt>
      <trkpt lat="44.07237" lon="1.8861">
        <ele>224</ele>
        <time>2016-04-03T09:20:50.000Z</time>
      </trkpt>
      <trkpt lat="44.07233" lon="1.88615">
        <ele>224</ele>
        <time>2016-04-03T09:20:52.000Z</time>
      </trkpt>
      <trkpt lat="44.0723" lon="1.8862">
        <ele>223</ele>
        <time>2016-04-03T09:20:54.000Z</time>
      </trkpt>
      <trkpt lat="44.0723" lon="1.8862">
        <ele>223</ele>
        <time>2016-04-03T09:20:56.000Z</time>
      </trkpt>
      <trkpt lat="44.0723" lon="1.8862">
        <ele>223</ele>
        <time>2016-04-03T09:20:58.000Z</time>
      </trkpt>
      <trkpt lat="44.0723" lon="1.8862">
        <ele>223</ele>
        <time>2016-04-03T09:21:00.000Z</time>
      </trkpt>
      <trkpt lat="44.0722" lon="1.88629">
        <ele>222</ele>
        <time>2016-04-03T09:21:04.000Z</time>
      </trkpt>
      <trkpt lat="44.07214" lon="1.88635">
        <ele>222</ele>
        <time>2016-04-03T09:21:06.000Z</time>
      </trkpt>
      <trkpt lat="44.07214" lon="1.88635">
        <ele>222</ele>
        <time>2016-04-03T09:21:08.000Z</time>
      </trkpt>
      <trkpt lat="44.07214" lon="1.88635">
        <ele>222</ele>
        <time>2016-04-03T09:21:10.000Z</time>
      </trkpt>
      <trkpt lat="44.07214" lon="1.88635">
        <ele>222</ele>
        <time>2016-04-03T09:21:12.000Z</time>
      </trkpt>
      <trkpt lat="44.07203" lon="1.88642">
        <ele>223</ele>
        <time>2016-04-03T09:21:16.000Z</time>
      </trkpt>
      <trkpt lat="44.07203" lon="1.88642">
        <ele>223</ele>
        <time>2016-04-03T09:21:18.000Z</time>
      </trkpt>
      <trkpt lat="44.07203" lon="1.88642">
        <ele>223</ele>
        <time>2016-04-03T09:21:20.000Z</time>
      </trkpt>
      <trkpt lat="44.07203" lon="1.88642">
        <ele>223</ele>
        <time>2016-04-03T09:21:22.000Z</time>
      </trkpt>
      <trkpt lat="44.07191" lon="1.8865">
        <ele>223</ele>
        <time>2016-04-03T09:21:26.000Z</time>
      </trkpt>
      <trkpt lat="44.07183" lon="1.88655">
        <ele>223</ele>
        <time>2016-04-03T09:21:28.000Z</time>
      </trkpt>
      <trkpt lat="44.07177" lon="1.88658">
        <ele>223</ele>
        <time>2016-04-03T09:21:30.000Z</time>
      </trkpt>
      <trkpt lat="44.07174" lon="1.88661">
        <ele>223</ele>
        <time>2016-04-03T09:21:32.000Z</time>
      </trkpt>
      <trkpt lat="44.07174" lon="1.88661">
        <ele>223</ele>
        <time>2016-04-03T09:21:35.000Z</time>
      </trkpt>
      <trkpt lat="44.07164" lon="1.88666">
        <ele>223</ele>
        <time>2016-04-03T09:21:40.000Z</time>
      </trkpt>
      <trkpt lat="44.07158" lon="1.88669">
        <ele>223</ele>
        <time>2016-04-03T09:21:42.000Z</time>
      </trkpt>
      <trkpt lat="44.07153" lon="1.88671">
        <ele>223</ele>
        <time>2016-04-03T09:21:44.000Z</time>
      </trkpt>
      <trkpt lat="44.07153" lon="1.88671">
        <ele>223</ele>
        <time>2016-04-03T09:21:46.000Z</time>
      </trkpt>
      <trkpt lat="44.07153" lon="1.88671">
        <ele>223</ele>
        <time>2016-04-03T09:21:48.000Z</time>
      </trkpt>
      <trkpt lat="44.07153" lon="1.88671">
        <ele>223</ele>
        <time>2016-04-03T09:21:50.000Z</time>
      </trkpt>
      <trkpt lat="44.07153" lon="1.88671">
        <ele>223</ele>
        <time>2016-04-03T09:21:52.000Z</time>
      </trkpt>
      <trkpt lat="44.07145" lon="1.88673">
        <ele>225</ele>
        <time>2016-04-03T09:21:54.000Z</time>
      </trkpt>
      <trkpt lat="44.07138" lon="1.88674">
        <ele>226</ele>
        <time>2016-04-03T09:21:56.000Z</time>
      </trkpt>
      <trkpt lat="44.07133" lon="1.88675">
        <ele>226</ele>
        <time>2016-04-03T09:21:58.000Z</time>
      </trkpt>
      <trkpt lat="44.07128" lon="1.88675">
        <ele>226</ele>
        <time>2016-04-03T09:22:00.000Z</time>
      </trkpt>
      <trkpt lat="44.07123" lon="1.88675">
        <ele>226</ele>
        <time>2016-04-03T09:22:02.000Z</time>
      </trkpt>
      <trkpt lat="44.07123" lon="1.88675">
        <ele>226</ele>
        <time>2016-04-03T09:22:04.000Z</time>
      </trkpt>
      <trkpt lat="44.07123" lon="1.88675">
        <ele>226</ele>
        <time>2016-04-03T09:22:06.000Z</time>
      </trkpt>
      <trkpt lat="44.07123" lon="1.88675">
        <ele>226</ele>
        <time>2016-04-03T09:22:08.000Z</time>
      </trkpt>
      <trkpt lat="44.07108" lon="1.88673">
        <ele>223</ele>
        <time>2016-04-03T09:22:29.000Z</time>
      </trkpt>
      <trkpt lat="44.07095" lon="1.8867">
        <ele>222</ele>
        <time>2016-04-03T09:22:35.000Z</time>
      </trkpt>
      <trkpt lat="44.07095" lon="1.8867">
        <ele>222</ele>
        <time>2016-04-03T09:22:37.000Z</time>
      </trkpt>
      <trkpt lat="44.07095" lon="1.8867">
        <ele>222</ele>
        <time>2016-04-03T09:22:39.000Z</time>
      </trkpt>
      <trkpt lat="44.07095" lon="1.8867">
        <ele>222</ele>
        <time>2016-04-03T09:22:41.000Z</time>
      </trkpt>
      <trkpt lat="44.07095" lon="1.8867">
        <ele>222</ele>
        <time>2016-04-03T09:22:43.000Z</time>
      </trkpt>
      <trkpt lat="44.07069" lon="1.88675">
        <ele>223</ele>
        <time>2016-04-03T09:22:49.000Z</time>
      </trkpt>
      <trkpt lat="44.07069" lon="1.88675">
        <ele>223</ele>
        <time>2016-04-03T09:22:51.000Z</time>
      </trkpt>
      <trkpt lat="44.07069" lon="1.88675">
        <ele>223</ele>
        <time>2016-04-03T09:22:53.000Z</time>
      </trkpt>
      <trkpt lat="44.07069" lon="1.88675">
        <ele>223</ele>
        <time>2016-04-03T09:22:55.000Z</time>
      </trkpt>
      <trkpt lat="44.07069" lon="1.88675">
        <ele>223</ele>
        <time>2016-04-03T09:22:57.000Z</time>
      </trkpt>
      <trkpt lat="44.07069" lon="1.88675">
        <ele>223</ele>
        <time>2016-04-03T09:22:59.000Z</time>
      </trkpt>
      <trkpt lat="44.07069" lon="1.88675">
        <ele>223</ele>
        <time>2016-04-03T09:23:01.000Z</time>
      </trkpt>
      <trkpt lat="44.07039" lon="1.88678">
        <ele>224</ele>
        <time>2016-04-03T09:23:09.000Z</time>
      </trkpt>
      <trkpt lat="44.07039" lon="1.88678">
        <ele>224</ele>
        <time>2016-04-03T09:23:19.000Z</time>
      </trkpt>
      <trkpt lat="44.07039" lon="1.88678">
        <ele>224</ele>
        <time>2016-04-03T09:23:21.000Z</time>
      </trkpt>
      <trkpt lat="44.07039" lon="1.88678">
        <ele>224</ele>
        <time>2016-04-03T09:23:23.000Z</time>
      </trkpt>
      <trkpt lat="44.07039" lon="1.88678">
        <ele>224</ele>
        <time>2016-04-03T09:23:25.000Z</time>
      </trkpt>
      <trkpt lat="44.07021" lon="1.88701">
        <ele>227</ele>
        <time>2016-04-03T09:23:29.000Z</time>
      </trkpt>
      <trkpt lat="44.07018" lon="1.88705">
        <ele>228</ele>
        <time>2016-04-03T09:23:33.000Z</time>
      </trkpt>
      <trkpt lat="44.07014" lon="1.88708">
        <ele>229</ele>
        <time>2016-04-03T09:23:35.000Z</time>
      </trkpt>
      <trkpt lat="44.07008" lon="1.88712">
        <ele>230</ele>
        <time>2016-04-03T09:23:37.000Z</time>
      </trkpt>
      <trkpt lat="44.07003" lon="1.88715">
        <ele>230</ele>
        <time>2016-04-03T09:23:39.000Z</time>
      </trkpt>
      <trkpt lat="44.07003" lon="1.88715">
        <ele>230</ele>
        <time>2016-04-03T09:23:41.000Z</time>
      </trkpt>
      <trkpt lat="44.07003" lon="1.88715">
        <ele>230</ele>
        <time>2016-04-03T09:23:43.000Z</time>
      </trkpt>
      <trkpt lat="44.07003" lon="1.88715">
        <ele>230</ele>
        <time>2016-04-03T09:23:45.000Z</time>
      </trkpt>
      <trkpt lat="44.07003" lon="1.88715">
        <ele>230</ele>
        <time>2016-04-03T09:23:47.000Z</time>
      </trkpt>
      <trkpt lat="44.07003" lon="1.88715">
        <ele>230</ele>
        <time>2016-04-03T09:23:50.000Z</time>
      </trkpt>
      <trkpt lat="44.06992" lon="1.88726">
        <ele>223</ele>
        <time>2016-04-03T09:24:22.000Z</time>
      </trkpt>
      <trkpt lat="44.06992" lon="1.88726">
        <ele>223</ele>
        <time>2016-04-03T09:24:24.000Z</time>
      </trkpt>
      <trkpt lat="44.06992" lon="1.88726">
        <ele>223</ele>
        <time>2016-04-03T09:24:26.000Z</time>
      </trkpt>
      <trkpt lat="44.06988" lon="1.88734">
        <ele>222</ele>
        <time>2016-04-03T09:24:50.000Z</time>
      </trkpt>
      <trkpt lat="44.06988" lon="1.88734">
        <ele>222</ele>
        <time>2016-04-03T09:24:54.000Z</time>
      </trkpt>
      <trkpt lat="44.06988" lon="1.88734">
        <ele>222</ele>
        <time>2016-04-03T09:24:54.000Z</time>
      </trkpt>
      <trkpt lat="44.06985" lon="1.88748">
        <ele>216</ele>
        <time>2016-04-03T09:27:06.000Z</time>
      </trkpt>
      <trkpt lat="44.06983" lon="1.88758">
        <ele>216</ele>
        <time>2016-04-03T09:27:08.000Z</time>
      </trkpt>
      <trkpt lat="44.06981" lon="1.88764">
        <ele>217</ele>
        <time>2016-04-03T09:27:10.000Z</time>
      </trkpt>
      <trkpt lat="44.06981" lon="1.88764">
        <ele>217</ele>
        <time>2016-04-03T09:27:12.000Z</time>
      </trkpt>
      <trkpt lat="44.06976" lon="1.88769">
        <ele>218</ele>
        <time>2016-04-03T09:27:14.000Z</time>
      </trkpt>
      <trkpt lat="44.06973" lon="1.88773">
        <ele>218</ele>
        <time>2016-04-03T09:27:16.000Z</time>
      </trkpt>
      <trkpt lat="44.06967" lon="1.88778">
        <ele>219</ele>
        <time>2016-04-03T09:27:20.000Z</time>
      </trkpt>
      <trkpt lat="44.06963" lon="1.88782">
        <ele>220</ele>
        <time>2016-04-03T09:27:22.000Z</time>
      </trkpt>
      <trkpt lat="44.06963" lon="1.88782">
        <ele>220</ele>
        <time>2016-04-03T09:27:24.000Z</time>
      </trkpt>
      <trkpt lat="44.06957" lon="1.88788">
        <ele>221</ele>
        <time>2016-04-03T09:27:26.000Z</time>
      </trkpt>
      <trkpt lat="44.06953" lon="1.88793">
        <ele>221</ele>
        <time>2016-04-03T09:27:28.000Z</time>
      </trkpt>
      <trkpt lat="44.06949" lon="1.88797">
        <ele>222</ele>
        <time>2016-04-03T09:27:30.000Z</time>
      </trkpt>
      <trkpt lat="44.06944" lon="1.88799">
        <ele>222</ele>
        <time>2016-04-03T09:27:32.000Z</time>
      </trkpt>
      <trkpt lat="44.06939" lon="1.88802">
        <ele>223</ele>
        <time>2016-04-03T09:27:34.000Z</time>
      </trkpt>
      <trkpt lat="44.06929" lon="1.88807">
        <ele>223</ele>
        <time>2016-04-03T09:27:36.000Z</time>
      </trkpt>
      <trkpt lat="44.06929" lon="1.88807">
        <ele>223</ele>
        <time>2016-04-03T09:27:38.000Z</time>
      </trkpt>
      <trkpt lat="44.06921" lon="1.88813">
        <ele>223</ele>
        <time>2016-04-03T09:27:40.000Z</time>
      </trkpt>
      <trkpt lat="44.06921" lon="1.88813">
        <ele>223</ele>
        <time>2016-04-03T09:27:44.000Z</time>
      </trkpt>
      <trkpt lat="44.06921" lon="1.88813">
        <ele>223</ele>
        <time>2016-04-03T09:27:46.000Z</time>
      </trkpt>
      <trkpt lat="44.06921" lon="1.88813">
        <ele>223</ele>
        <time>2016-04-03T09:27:48.000Z</time>
      </trkpt>
      <trkpt lat="44.06921" lon="1.88813">
        <ele>223</ele>
        <time>2016-04-03T09:27:50.000Z</time>
      </trkpt>
      <trkpt lat="44.06921" lon="1.88813">
        <ele>223</ele>
        <time>2016-04-03T09:27:52.000Z</time>
      </trkpt>
      <trkpt lat="44.06888" lon="1.88839">
        <ele>228</ele>
        <time>2016-04-03T09:27:58.000Z</time>
      </trkpt>
      <trkpt lat="44.06877" lon="1.88845">
        <ele>228</ele>
        <time>2016-04-03T09:28:02.000Z</time>
      </trkpt>
      <trkpt lat="44.06877" lon="1.88845">
        <ele>228</ele>
        <time>2016-04-03T09:28:04.000Z</time>
      </trkpt>
      <trkpt lat="44.06877" lon="1.88845">
        <ele>228</ele>
        <time>2016-04-03T09:28:06.000Z</time>
      </trkpt>
      <trkpt lat="44.06877" lon="1.88845">
        <ele>228</ele>
        <time>2016-04-03T09:28:08.000Z</time>
      </trkpt>
      <trkpt lat="44.06877" lon="1.88845">
        <ele>228</ele>
        <time>2016-04-03T09:28:10.000Z</time>
      </trkpt>
      <trkpt lat="44.06877" lon="1.88845">
        <ele>228</ele>
        <time>2016-04-03T09:28:12.000Z</time>
      </trkpt>
      <trkpt lat="44.06877" lon="1.88845">
        <ele>228</ele>
        <time>2016-04-03T09:28:14.000Z</time>
      </trkpt>
      <trkpt lat="44.06877" lon="1.88845">
        <ele>228</ele>
        <time>2016-04-03T09:28:16.000Z</time>
      </trkpt>
      <trkpt lat="44.06877" lon="1.88845">
        <ele>228</ele>
        <time>2016-04-03T09:28:18.000Z</time>
      </trkpt>
      <trkpt lat="44.06877" lon="1.88845">
        <ele>228</ele>
        <time>2016-04-03T09:28:20.000Z</time>
      </trkpt>
      <trkpt lat="44.06853" lon="1.88865">
        <ele>225</ele>
        <time>2016-04-03T09:28:27.000Z</time>
      </trkpt>
      <trkpt lat="44.06852" lon="1.88878">
        <ele>225</ele>
        <time>2016-04-03T09:28:33.000Z</time>
      </trkpt>
      <trkpt lat="44.06852" lon="1.88878">
        <ele>225</ele>
        <time>2016-04-03T09:28:35.000Z</time>
      </trkpt>
      <trkpt lat="44.06852" lon="1.88878">
        <ele>225</ele>
        <time>2016-04-03T09:28:37.000Z</time>
      </trkpt>
      <trkpt lat="44.06852" lon="1.88878">
        <ele>225</ele>
        <time>2016-04-03T09:28:39.000Z</time>
      </trkpt>
      <trkpt lat="44.06849" lon="1.889">
        <ele>223</ele>
        <time>2016-04-03T09:28:45.000Z</time>
      </trkpt>
      <trkpt lat="44.06847" lon="1.88915">
        <ele>223</ele>
        <time>2016-04-03T09:28:51.000Z</time>
      </trkpt>
      <trkpt lat="44.06845" lon="1.88922">
        <ele>223</ele>
        <time>2016-04-03T09:28:57.000Z</time>
      </trkpt>
      <trkpt lat="44.06842" lon="1.88928">
        <ele>223</ele>
        <time>2016-04-03T09:28:59.000Z</time>
      </trkpt>
      <trkpt lat="44.0684" lon="1.88934">
        <ele>223</ele>
        <time>2016-04-03T09:29:01.000Z</time>
      </trkpt>
      <trkpt lat="44.06837" lon="1.88939">
        <ele>223</ele>
        <time>2016-04-03T09:29:03.000Z</time>
      </trkpt>
      <trkpt lat="44.06837" lon="1.88939">
        <ele>223</ele>
        <time>2016-04-03T09:29:05.000Z</time>
      </trkpt>
      <trkpt lat="44.06837" lon="1.88939">
        <ele>223</ele>
        <time>2016-04-03T09:29:07.000Z</time>
      </trkpt>
      <trkpt lat="44.06837" lon="1.88939">
        <ele>223</ele>
        <time>2016-04-03T09:29:09.000Z</time>
      </trkpt>
      <trkpt lat="44.06827" lon="1.88945">
        <ele>223</ele>
        <time>2016-04-03T09:29:13.000Z</time>
      </trkpt>
      <trkpt lat="44.0682" lon="1.88948">
        <ele>223</ele>
        <time>2016-04-03T09:29:15.000Z</time>
      </trkpt>
      <trkpt lat="44.06815" lon="1.8895">
        <ele>223</ele>
        <time>2016-04-03T09:29:17.000Z</time>
      </trkpt>
      <trkpt lat="44.06815" lon="1.8895">
        <ele>223</ele>
        <time>2016-04-03T09:29:19.000Z</time>
      </trkpt>
      <trkpt lat="44.06815" lon="1.8895">
        <ele>223</ele>
        <time>2016-04-03T09:29:21.000Z</time>
      </trkpt>
      <trkpt lat="44.06805" lon="1.88952">
        <ele>222</ele>
        <time>2016-04-03T09:29:23.000Z</time>
      </trkpt>
      <trkpt lat="44.06798" lon="1.88953">
        <ele>221</ele>
        <time>2016-04-03T09:29:25.000Z</time>
      </trkpt>
      <trkpt lat="44.06792" lon="1.88953">
        <ele>221</ele>
        <time>2016-04-03T09:29:27.000Z</time>
      </trkpt>
      <trkpt lat="44.06787" lon="1.88951">
        <ele>220</ele>
        <time>2016-04-03T09:29:29.000Z</time>
      </trkpt>
      <trkpt lat="44.06781" lon="1.8895">
        <ele>220</ele>
        <time>2016-04-03T09:29:31.000Z</time>
      </trkpt>
      <trkpt lat="44.0677" lon="1.88948">
        <ele>219</ele>
        <time>2016-04-03T09:29:33.000Z</time>
      </trkpt>
      <trkpt lat="44.06756" lon="1.88939">
        <ele>218</ele>
        <time>2016-04-03T09:29:39.000Z</time>
      </trkpt>
      <trkpt lat="44.06745" lon="1.88939">
        <ele>217</ele>
        <time>2016-04-03T09:29:43.000Z</time>
      </trkpt>
      <trkpt lat="44.06745" lon="1.88939">
        <ele>217</ele>
        <time>2016-04-03T09:29:45.000Z</time>
      </trkpt>
      <trkpt lat="44.06745" lon="1.88939">
        <ele>217</ele>
        <time>2016-04-03T09:29:47.000Z</time>
      </trkpt>
      <trkpt lat="44.06745" lon="1.88939">
        <ele>217</ele>
        <time>2016-04-03T09:29:49.000Z</time>
      </trkpt>
      <trkpt lat="44.06745" lon="1.88939">
        <ele>217</ele>
        <time>2016-04-03T09:29:51.000Z</time>
      </trkpt>
      <trkpt lat="44.06745" lon="1.88939">
        <ele>217</ele>
        <time>2016-04-03T09:29:53.000Z</time>
      </trkpt>
      <trkpt lat="44.06745" lon="1.88939">
        <ele>217</ele>
        <time>2016-04-03T09:29:55.000Z</time>
      </trkpt>
      <trkpt lat="44.06736" lon="1.88952">
        <ele>214</ele>
        <time>2016-04-03T09:31:18.000Z</time>
      </trkpt>
      <trkpt lat="44.06732" lon="1.88966">
        <ele>215</ele>
        <time>2016-04-03T09:31:24.000Z</time>
      </trkpt>
      <trkpt lat="44.06728" lon="1.88978">
        <ele>216</ele>
        <time>2016-04-03T09:31:28.000Z</time>
      </trkpt>
      <trkpt lat="44.06728" lon="1.88978">
        <ele>216</ele>
        <time>2016-04-03T09:31:32.000Z</time>
      </trkpt>
      <trkpt lat="44.06728" lon="1.88978">
        <ele>216</ele>
        <time>2016-04-03T09:31:34.000Z</time>
      </trkpt>
      <trkpt lat="44.06728" lon="1.88978">
        <ele>216</ele>
        <time>2016-04-03T09:31:36.000Z</time>
      </trkpt>
      <trkpt lat="44.06728" lon="1.88998">
        <ele>226</ele>
        <time>2016-04-03T09:31:44.000Z</time>
      </trkpt>
      <trkpt lat="44.06728" lon="1.89011">
        <ele>228</ele>
        <time>2016-04-03T09:31:46.000Z</time>
      </trkpt>
      <trkpt lat="44.06728" lon="1.8902">
        <ele>229</ele>
        <time>2016-04-03T09:31:48.000Z</time>
      </trkpt>
      <trkpt lat="44.06727" lon="1.89028">
        <ele>230</ele>
        <time>2016-04-03T09:31:50.000Z</time>
      </trkpt>
      <trkpt lat="44.06727" lon="1.89028">
        <ele>230</ele>
        <time>2016-04-03T09:31:52.000Z</time>
      </trkpt>
      <trkpt lat="44.06727" lon="1.89028">
        <ele>230</ele>
        <time>2016-04-03T09:31:54.000Z</time>
      </trkpt>
      <trkpt lat="44.06727" lon="1.89028">
        <ele>230</ele>
        <time>2016-04-03T09:31:56.000Z</time>
      </trkpt>
      <trkpt lat="44.06727" lon="1.89028">
        <ele>230</ele>
        <time>2016-04-03T09:31:58.000Z</time>
      </trkpt>
      <trkpt lat="44.06727" lon="1.89028">
        <ele>230</ele>
        <time>2016-04-03T09:32:00.000Z</time>
      </trkpt>
      <trkpt lat="44.06727" lon="1.89028">
        <ele>230</ele>
        <time>2016-04-03T09:32:21.000Z</time>
      </trkpt>
      <trkpt lat="44.06721" lon="1.8905">
        <ele>227</ele>
        <time>2016-04-03T09:32:27.000Z</time>
      </trkpt>
      <trkpt lat="44.06717" lon="1.89061">
        <ele>227</ele>
        <time>2016-04-03T09:32:29.000Z</time>
      </trkpt>
      <trkpt lat="44.06714" lon="1.89067">
        <ele>227</ele>
        <time>2016-04-03T09:32:31.000Z</time>
      </trkpt>
      <trkpt lat="44.06711" lon="1.89072">
        <ele>226</ele>
        <time>2016-04-03T09:32:35.000Z</time>
      </trkpt>
      <trkpt lat="44.06706" lon="1.89076">
        <ele>226</ele>
        <time>2016-04-03T09:32:39.000Z</time>
      </trkpt>
      <trkpt lat="44.06702" lon="1.89078">
        <ele>226</ele>
        <time>2016-04-03T09:32:43.000Z</time>
      </trkpt>
      <trkpt lat="44.06697" lon="1.89079">
        <ele>227</ele>
        <time>2016-04-03T09:32:47.000Z</time>
      </trkpt>
      <trkpt lat="44.06691" lon="1.89079">
        <ele>228</ele>
        <time>2016-04-03T09:32:51.000Z</time>
      </trkpt>
      <trkpt lat="44.06686" lon="1.89079">
        <ele>230</ele>
        <time>2016-04-03T09:32:55.000Z</time>
      </trkpt>
      <trkpt lat="44.06686" lon="1.89079">
        <ele>230</ele>
        <time>2016-04-03T09:32:57.000Z</time>
      </trkpt>
      <trkpt lat="44.06686" lon="1.89079">
        <ele>230</ele>
        <time>2016-04-03T09:32:59.000Z</time>
      </trkpt>
      <trkpt lat="44.06686" lon="1.89079">
        <ele>230</ele>
        <time>2016-04-03T09:33:01.000Z</time>
      </trkpt>
      <trkpt lat="44.06676" lon="1.89079">
        <ele>231</ele>
        <time>2016-04-03T09:33:05.000Z</time>
      </trkpt>
      <trkpt lat="44.0667" lon="1.89078">
        <ele>232</ele>
        <time>2016-04-03T09:33:07.000Z</time>
      </trkpt>
      <trkpt lat="44.06665" lon="1.89078">
        <ele>232</ele>
        <time>2016-04-03T09:33:09.000Z</time>
      </trkpt>
      <trkpt lat="44.06659" lon="1.89076">
        <ele>232</ele>
        <time>2016-04-03T09:33:13.000Z</time>
      </trkpt>
      <trkpt lat="44.06654" lon="1.89075">
        <ele>233</ele>
        <time>2016-04-03T09:33:15.000Z</time>
      </trkpt>
      <trkpt lat="44.06649" lon="1.89072">
        <ele>233</ele>
        <time>2016-04-03T09:33:19.000Z</time>
      </trkpt>
      <trkpt lat="44.06649" lon="1.89072">
        <ele>233</ele>
        <time>2016-04-03T09:33:21.000Z</time>
      </trkpt>
      <trkpt lat="44.06641" lon="1.89069">
        <ele>233</ele>
        <time>2016-04-03T09:33:25.000Z</time>
      </trkpt>
      <trkpt lat="44.06635" lon="1.89067">
        <ele>233</ele>
        <time>2016-04-03T09:33:27.000Z</time>
      </trkpt>
      <trkpt lat="44.06629" lon="1.89065">
        <ele>234</ele>
        <time>2016-04-03T09:33:29.000Z</time>
      </trkpt>
      <trkpt lat="44.06625" lon="1.89064">
        <ele>234</ele>
        <time>2016-04-03T09:33:31.000Z</time>
      </trkpt>
      <trkpt lat="44.06625" lon="1.89064">
        <ele>234</ele>
        <time>2016-04-03T09:33:33.000Z</time>
      </trkpt>
      <trkpt lat="44.06625" lon="1.89064">
        <ele>234</ele>
        <time>2016-04-03T09:33:35.000Z</time>
      </trkpt>
      <trkpt lat="44.06625" lon="1.89064">
        <ele>234</ele>
        <time>2016-04-03T09:33:37.000Z</time>
      </trkpt>
      <trkpt lat="44.06625" lon="1.89064">
        <ele>234</ele>
        <time>2016-04-03T09:33:39.000Z</time>
      </trkpt>
      <trkpt lat="44.06625" lon="1.89064">
        <ele>234</ele>
        <time>2016-04-03T09:33:41.000Z</time>
      </trkpt>
      <trkpt lat="44.06625" lon="1.89064">
        <ele>234</ele>
        <time>2016-04-03T09:33:43.000Z</time>
      </trkpt>
      <trkpt lat="44.06625" lon="1.89064">
        <ele>234</ele>
        <time>2016-04-03T09:33:45.000Z</time>
      </trkpt>
      <trkpt lat="44.06625" lon="1.89064">
        <ele>234</ele>
        <time>2016-04-03T09:33:49.000Z</time>
      </trkpt>
      <trkpt lat="44.06625" lon="1.89064">
        <ele>234</ele>
        <time>2016-04-03T09:33:51.000Z</time>
      </trkpt>
      <trkpt lat="44.06625" lon="1.89064">
        <ele>234</ele>
        <time>2016-04-03T09:33:53.000Z</time>
      </trkpt>
      <trkpt lat="44.06603" lon="1.89061">
        <ele>237</ele>
        <time>2016-04-03T09:33:57.000Z</time>
      </trkpt>
      <trkpt lat="44.06591" lon="1.8906">
        <ele>238</ele>
        <time>2016-04-03T09:33:59.000Z</time>
      </trkpt>
      <trkpt lat="44.06584" lon="1.8906">
        <ele>238</ele>
        <time>2016-04-03T09:34:01.000Z</time>
      </trkpt>
      <trkpt lat="44.06578" lon="1.8906">
        <ele>238</ele>
        <time>2016-04-03T09:34:03.000Z</time>
      </trkpt>
      <trkpt lat="44.06578" lon="1.8906">
        <ele>238</ele>
        <time>2016-04-03T09:34:05.000Z</time>
      </trkpt>
      <trkpt lat="44.0657" lon="1.89061">
        <ele>238</ele>
        <time>2016-04-03T09:34:09.000Z</time>
      </trkpt>
      <trkpt lat="44.06564" lon="1.89061">
        <ele>238</ele>
        <time>2016-04-03T09:34:11.000Z</time>
      </trkpt>
      <trkpt lat="44.06559" lon="1.89061">
        <ele>238</ele>
        <time>2016-04-03T09:34:13.000Z</time>
      </trkpt>
      <trkpt lat="44.06554" lon="1.89061">
        <ele>239</ele>
        <time>2016-04-03T09:34:15.000Z</time>
      </trkpt>
      <trkpt lat="44.06554" lon="1.89061">
        <ele>239</ele>
        <time>2016-04-03T09:34:17.000Z</time>
      </trkpt>
      <trkpt lat="44.06548" lon="1.8906">
        <ele>240</ele>
        <time>2016-04-03T09:34:19.000Z</time>
      </trkpt>
      <trkpt lat="44.06548" lon="1.8906">
        <ele>240</ele>
        <time>2016-04-03T09:34:21.000Z</time>
      </trkpt>
      <trkpt lat="44.06548" lon="1.8906">
        <ele>240</ele>
        <time>2016-04-03T09:34:23.000Z</time>
      </trkpt>
      <trkpt lat="44.06548" lon="1.8906">
        <ele>240</ele>
        <time>2016-04-03T09:34:25.000Z</time>
      </trkpt>
      <trkpt lat="44.06548" lon="1.8906">
        <ele>240</ele>
        <time>2016-04-03T09:34:27.000Z</time>
      </trkpt>
      <trkpt lat="44.06538" lon="1.89058">
        <ele>243</ele>
        <time>2016-04-03T09:34:29.000Z</time>
      </trkpt>
      <trkpt lat="44.06531" lon="1.89056">
        <ele>244</ele>
        <time>2016-04-03T09:34:31.000Z</time>
      </trkpt>
      <trkpt lat="44.06525" lon="1.89054">
        <ele>244</ele>
        <time>2016-04-03T09:34:33.000Z</time>
      </trkpt>
      <trkpt lat="44.06521" lon="1.89052">
        <ele>245</ele>
        <time>2016-04-03T09:34:35.000Z</time>
      </trkpt>
      <trkpt lat="44.06521" lon="1.89052">
        <ele>245</ele>
        <time>2016-04-03T09:34:37.000Z</time>
      </trkpt>
      <trkpt lat="44.06521" lon="1.89052">
        <ele>245</ele>
        <time>2016-04-03T09:34:39.000Z</time>
      </trkpt>
      <trkpt lat="44.06521" lon="1.89052">
        <ele>245</ele>
        <time>2016-04-03T09:34:41.000Z</time>
      </trkpt>
      <trkpt lat="44.06509" lon="1.89046">
        <ele>246</ele>
        <time>2016-04-03T09:34:45.000Z</time>
      </trkpt>
      <trkpt lat="44.06501" lon="1.89042">
        <ele>247</ele>
        <time>2016-04-03T09:34:47.000Z</time>
      </trkpt>
      <trkpt lat="44.06495" lon="1.89039">
        <ele>247</ele>
        <time>2016-04-03T09:34:49.000Z</time>
      </trkpt>
      <trkpt lat="44.0649" lon="1.89037">
        <ele>247</ele>
        <time>2016-04-03T09:34:51.000Z</time>
      </trkpt>
      <trkpt lat="44.0649" lon="1.89037">
        <ele>247</ele>
        <time>2016-04-03T09:34:53.000Z</time>
      </trkpt>
      <trkpt lat="44.0649" lon="1.89037">
        <ele>247</ele>
        <time>2016-04-03T09:34:55.000Z</time>
      </trkpt>
      <trkpt lat="44.0649" lon="1.89037">
        <ele>247</ele>
        <time>2016-04-03T09:34:57.000Z</time>
      </trkpt>
      <trkpt lat="44.0649" lon="1.89037">
        <ele>247</ele>
        <time>2016-04-03T09:34:59.000Z</time>
      </trkpt>
      <trkpt lat="44.06479" lon="1.89031">
        <ele>244</ele>
        <time>2016-04-03T09:35:05.000Z</time>
      </trkpt>
      <trkpt lat="44.06472" lon="1.89026">
        <ele>244</ele>
        <time>2016-04-03T09:35:07.000Z</time>
      </trkpt>
      <trkpt lat="44.06467" lon="1.89023">
        <ele>244</ele>
        <time>2016-04-03T09:35:09.000Z</time>
      </trkpt>
      <trkpt lat="44.06463" lon="1.8902">
        <ele>244</ele>
        <time>2016-04-03T09:35:11.000Z</time>
      </trkpt>
      <trkpt lat="44.06458" lon="1.89015">
        <ele>244</ele>
        <time>2016-04-03T09:35:15.000Z</time>
      </trkpt>
      <trkpt lat="44.06453" lon="1.8901">
        <ele>243</ele>
        <time>2016-04-03T09:35:17.000Z</time>
      </trkpt>
      <trkpt lat="44.06448" lon="1.89005">
        <ele>243</ele>
        <time>2016-04-03T09:35:19.000Z</time>
      </trkpt>
      <trkpt lat="44.06443" lon="1.89001">
        <ele>242</ele>
        <time>2016-04-03T09:35:21.000Z</time>
      </trkpt>
      <trkpt lat="44.06443" lon="1.89001">
        <ele>242</ele>
        <time>2016-04-03T09:35:23.000Z</time>
      </trkpt>
      <trkpt lat="44.06443" lon="1.89001">
        <ele>242</ele>
        <time>2016-04-03T09:35:25.000Z</time>
      </trkpt>
      <trkpt lat="44.06443" lon="1.89001">
        <ele>242</ele>
        <time>2016-04-03T09:35:27.000Z</time>
      </trkpt>
      <trkpt lat="44.0643" lon="1.88991">
        <ele>240</ele>
        <time>2016-04-03T09:35:33.000Z</time>
      </trkpt>
      <trkpt lat="44.06421" lon="1.88984">
        <ele>239</ele>
        <time>2016-04-03T09:35:35.000Z</time>
      </trkpt>
      <trkpt lat="44.06413" lon="1.88979">
        <ele>239</ele>
        <time>2016-04-03T09:35:37.000Z</time>
      </trkpt>
      <trkpt lat="44.06405" lon="1.88973">
        <ele>238</ele>
        <time>2016-04-03T09:35:39.000Z</time>
      </trkpt>
      <trkpt lat="44.06396" lon="1.88967">
        <ele>236</ele>
        <time>2016-04-03T09:35:41.000Z</time>
      </trkpt>
      <trkpt lat="44.06379" lon="1.88953">
        <ele>236</ele>
        <time>2016-04-03T09:35:43.000Z</time>
      </trkpt>
      <trkpt lat="44.0637" lon="1.88943">
        <ele>235</ele>
        <time>2016-04-03T09:35:45.000Z</time>
      </trkpt>
      <trkpt lat="44.06361" lon="1.88931">
        <ele>234</ele>
        <time>2016-04-03T09:35:47.000Z</time>
      </trkpt>
      <trkpt lat="44.06351" lon="1.88919">
        <ele>233</ele>
        <time>2016-04-03T09:35:49.000Z</time>
      </trkpt>
      <trkpt lat="44.06342" lon="1.88909">
        <ele>233</ele>
        <time>2016-04-03T09:35:51.000Z</time>
      </trkpt>
      <trkpt lat="44.06333" lon="1.88901">
        <ele>233</ele>
        <time>2016-04-03T09:35:53.000Z</time>
      </trkpt>
      <trkpt lat="44.06324" lon="1.88894">
        <ele>232</ele>
        <time>2016-04-03T09:35:55.000Z</time>
      </trkpt>
      <trkpt lat="44.06324" lon="1.88894">
        <ele>232</ele>
        <time>2016-04-03T09:35:57.000Z</time>
      </trkpt>
      <trkpt lat="44.06324" lon="1.88894">
        <ele>232</ele>
        <time>2016-04-03T09:35:59.000Z</time>
      </trkpt>
      <trkpt lat="44.06324" lon="1.88894">
        <ele>232</ele>
        <time>2016-04-03T09:36:01.000Z</time>
      </trkpt>
      <trkpt lat="44.06324" lon="1.88894">
        <ele>232</ele>
        <time>2016-04-03T09:36:03.000Z</time>
      </trkpt>
      <trkpt lat="44.06324" lon="1.88894">
        <ele>232</ele>
        <time>2016-04-03T09:36:05.000Z</time>
      </trkpt>
      <trkpt lat="44.06324" lon="1.88894">
        <ele>232</ele>
        <time>2016-04-03T09:36:07.000Z</time>
      </trkpt>
      <trkpt lat="44.06271" lon="1.88898">
        <ele>232</ele>
        <time>2016-04-03T09:36:13.000Z</time>
      </trkpt>
      <trkpt lat="44.06261" lon="1.88899">
        <ele>233</ele>
        <time>2016-04-03T09:36:17.000Z</time>
      </trkpt>
      <trkpt lat="44.06261" lon="1.88899">
        <ele>233</ele>
        <time>2016-04-03T09:36:19.000Z</time>
      </trkpt>
      <trkpt lat="44.06261" lon="1.88899">
        <ele>233</ele>
        <time>2016-04-03T09:36:21.000Z</time>
      </trkpt>
      <trkpt lat="44.06261" lon="1.88899">
        <ele>233</ele>
        <time>2016-04-03T09:36:23.000Z</time>
      </trkpt>
      <trkpt lat="44.06261" lon="1.88899">
        <ele>233</ele>
        <time>2016-04-03T09:36:25.000Z</time>
      </trkpt>
      <trkpt lat="44.06261" lon="1.88899">
        <ele>233</ele>
        <time>2016-04-03T09:36:31.000Z</time>
      </trkpt>
      <trkpt lat="44.06261" lon="1.88899">
        <ele>233</ele>
        <time>2016-04-03T09:36:33.000Z</time>
      </trkpt>
      <trkpt lat="44.06261" lon="1.88899">
        <ele>233</ele>
        <time>2016-04-03T09:36:35.000Z</time>
      </trkpt>
      <trkpt lat="44.06217" lon="1.88902">
        <ele>237</ele>
        <time>2016-04-03T09:36:39.000Z</time>
      </trkpt>
      <trkpt lat="44.06205" lon="1.88904">
        <ele>238</ele>
        <time>2016-04-03T09:36:45.000Z</time>
      </trkpt>
      <trkpt lat="44.06192" lon="1.88906">
        <ele>239</ele>
        <time>2016-04-03T09:36:51.000Z</time>
      </trkpt>
      <trkpt lat="44.06183" lon="1.88906">
        <ele>240</ele>
        <time>2016-04-03T09:36:55.000Z</time>
      </trkpt>
      <trkpt lat="44.06183" lon="1.88906">
        <ele>240</ele>
        <time>2016-04-03T09:36:59.000Z</time>
      </trkpt>
      <trkpt lat="44.06183" lon="1.88906">
        <ele>240</ele>
        <time>2016-04-03T09:37:01.000Z</time>
      </trkpt>
      <trkpt lat="44.06183" lon="1.88906">
        <ele>240</ele>
        <time>2016-04-03T09:37:03.000Z</time>
      </trkpt>
      <trkpt lat="44.06183" lon="1.88906">
        <ele>240</ele>
        <time>2016-04-03T09:37:05.000Z</time>
      </trkpt>
      <trkpt lat="44.06183" lon="1.88906">
        <ele>240</ele>
        <time>2016-04-03T09:37:07.000Z</time>
      </trkpt>
      <trkpt lat="44.06183" lon="1.88906">
        <ele>240</ele>
        <time>2016-04-03T09:37:09.000Z</time>
      </trkpt>
      <trkpt lat="44.06183" lon="1.88906">
        <ele>240</ele>
        <time>2016-04-03T09:37:11.000Z</time>
      </trkpt>
      <trkpt lat="44.06183" lon="1.88906">
        <ele>240</ele>
        <time>2016-04-03T09:37:13.000Z</time>
      </trkpt>
      <trkpt lat="44.0617" lon="1.88885">
        <ele>245</ele>
        <time>2016-04-03T09:37:19.000Z</time>
      </trkpt>
      <trkpt lat="44.06163" lon="1.88872">
        <ele>245</ele>
        <time>2016-04-03T09:37:21.000Z</time>
      </trkpt>
      <trkpt lat="44.06158" lon="1.88863">
        <ele>246</ele>
        <time>2016-04-03T09:37:23.000Z</time>
      </trkpt>
      <trkpt lat="44.06156" lon="1.88856">
        <ele>246</ele>
        <time>2016-04-03T09:37:25.000Z</time>
      </trkpt>
      <trkpt lat="44.06154" lon="1.8885">
        <ele>246</ele>
        <time>2016-04-03T09:37:27.000Z</time>
      </trkpt>
      <trkpt lat="44.0615" lon="1.88833">
        <ele>246</ele>
        <time>2016-04-03T09:37:31.000Z</time>
      </trkpt>
      <trkpt lat="44.0615" lon="1.88833">
        <ele>246</ele>
        <time>2016-04-03T09:37:33.000Z</time>
      </trkpt>
      <trkpt lat="44.0615" lon="1.88833">
        <ele>246</ele>
        <time>2016-04-03T09:37:35.000Z</time>
      </trkpt>
      <trkpt lat="44.0615" lon="1.88833">
        <ele>246</ele>
        <time>2016-04-03T09:37:37.000Z</time>
      </trkpt>
      <trkpt lat="44.0615" lon="1.88833">
        <ele>246</ele>
        <time>2016-04-03T09:37:39.000Z</time>
      </trkpt>
      <trkpt lat="44.0615" lon="1.88833">
        <ele>246</ele>
        <time>2016-04-03T09:37:41.000Z</time>
      </trkpt>
      <trkpt lat="44.0615" lon="1.88833">
        <ele>246</ele>
        <time>2016-04-03T09:37:43.000Z</time>
      </trkpt>
      <trkpt lat="44.0615" lon="1.88833">
        <ele>246</ele>
        <time>2016-04-03T09:37:45.000Z</time>
      </trkpt>
      <trkpt lat="44.0615" lon="1.88833">
        <ele>246</ele>
        <time>2016-04-03T09:37:47.000Z</time>
      </trkpt>
      <trkpt lat="44.0615" lon="1.88833">
        <ele>246</ele>
        <time>2016-04-03T09:37:49.000Z</time>
      </trkpt>
      <trkpt lat="44.0615" lon="1.88833">
        <ele>246</ele>
        <time>2016-04-03T09:37:51.000Z</time>
      </trkpt>
      <trkpt lat="44.0615" lon="1.88833">
        <ele>246</ele>
        <time>2016-04-03T09:37:53.000Z</time>
      </trkpt>
      <trkpt lat="44.0615" lon="1.88833">
        <ele>246</ele>
        <time>2016-04-03T09:37:55.000Z</time>
      </trkpt>
      <trkpt lat="44.06128" lon="1.88773">
        <ele>249</ele>
        <time>2016-04-03T09:37:59.000Z</time>
      </trkpt>
      <trkpt lat="44.06123" lon="1.88759">
        <ele>251</ele>
        <time>2016-04-03T09:38:05.000Z</time>
      </trkpt>
      <trkpt lat="44.06118" lon="1.88745">
        <ele>253</ele>
        <time>2016-04-03T09:38:11.000Z</time>
      </trkpt>
      <trkpt lat="44.06118" lon="1.88745">
        <ele>253</ele>
        <time>2016-04-03T09:38:13.000Z</time>
      </trkpt>
      <trkpt lat="44.06118" lon="1.88745">
        <ele>253</ele>
        <time>2016-04-03T09:38:15.000Z</time>
      </trkpt>
      <trkpt lat="44.06118" lon="1.88745">
        <ele>253</ele>
        <time>2016-04-03T09:38:17.000Z</time>
      </trkpt>
      <trkpt lat="44.06109" lon="1.88723">
        <ele>255</ele>
        <time>2016-04-03T09:38:21.000Z</time>
      </trkpt>
      <trkpt lat="44.06109" lon="1.88723">
        <ele>255</ele>
        <time>2016-04-03T09:38:25.000Z</time>
      </trkpt>
      <trkpt lat="44.06109" lon="1.88723">
        <ele>255</ele>
        <time>2016-04-03T09:38:27.000Z</time>
      </trkpt>
      <trkpt lat="44.06109" lon="1.88723">
        <ele>255</ele>
        <time>2016-04-03T09:38:29.000Z</time>
      </trkpt>
      <trkpt lat="44.06109" lon="1.88723">
        <ele>255</ele>
        <time>2016-04-03T09:38:31.000Z</time>
      </trkpt>
      <trkpt lat="44.06109" lon="1.88723">
        <ele>255</ele>
        <time>2016-04-03T09:38:33.000Z</time>
      </trkpt>
      <trkpt lat="44.06109" lon="1.88723">
        <ele>255</ele>
        <time>2016-04-03T09:38:35.000Z</time>
      </trkpt>
      <trkpt lat="44.06109" lon="1.88723">
        <ele>255</ele>
        <time>2016-04-03T09:38:39.000Z</time>
      </trkpt>
      <trkpt lat="44.06109" lon="1.88723">
        <ele>255</ele>
        <time>2016-04-03T09:38:41.000Z</time>
      </trkpt>
      <trkpt lat="44.06109" lon="1.88723">
        <ele>255</ele>
        <time>2016-04-03T09:38:43.000Z</time>
      </trkpt>
      <trkpt lat="44.06091" lon="1.88696">
        <ele>263</ele>
        <time>2016-04-03T09:40:00.000Z</time>
      </trkpt>
      <trkpt lat="44.06081" lon="1.88681">
        <ele>263</ele>
        <time>2016-04-03T09:40:02.000Z</time>
      </trkpt>
      <trkpt lat="44.06075" lon="1.88673">
        <ele>263</ele>
        <time>2016-04-03T09:40:04.000Z</time>
      </trkpt>
      <trkpt lat="44.06071" lon="1.88667">
        <ele>263</ele>
        <time>2016-04-03T09:40:06.000Z</time>
      </trkpt>
      <trkpt lat="44.06071" lon="1.88667">
        <ele>263</ele>
        <time>2016-04-03T09:40:08.000Z</time>
      </trkpt>
      <trkpt lat="44.06071" lon="1.88667">
        <ele>263</ele>
        <time>2016-04-03T09:40:10.000Z</time>
      </trkpt>
      <trkpt lat="44.06071" lon="1.88667">
        <ele>263</ele>
        <time>2016-04-03T09:40:12.000Z</time>
      </trkpt>
      <trkpt lat="44.06071" lon="1.88667">
        <ele>263</ele>
        <time>2016-04-03T09:40:14.000Z</time>
      </trkpt>
      <trkpt lat="44.06065" lon="1.88659">
        <ele>265</ele>
        <time>2016-04-03T09:40:18.000Z</time>
      </trkpt>
      <trkpt lat="44.06061" lon="1.88653">
        <ele>265</ele>
        <time>2016-04-03T09:40:20.000Z</time>
      </trkpt>
      <trkpt lat="44.06056" lon="1.88652">
        <ele>266</ele>
        <time>2016-04-03T09:40:26.000Z</time>
      </trkpt>
      <trkpt lat="44.0605" lon="1.88652">
        <ele>267</ele>
        <time>2016-04-03T09:40:30.000Z</time>
      </trkpt>
      <trkpt lat="44.06046" lon="1.88653">
        <ele>267</ele>
        <time>2016-04-03T09:40:32.000Z</time>
      </trkpt>
      <trkpt lat="44.0604" lon="1.88656">
        <ele>268</ele>
        <time>2016-04-03T09:40:36.000Z</time>
      </trkpt>
      <trkpt lat="44.06036" lon="1.88658">
        <ele>268</ele>
        <time>2016-04-03T09:40:38.000Z</time>
      </trkpt>
      <trkpt lat="44.06031" lon="1.88661">
        <ele>269</ele>
        <time>2016-04-03T09:40:42.000Z</time>
      </trkpt>
      <trkpt lat="44.06027" lon="1.88665">
        <ele>269</ele>
        <time>2016-04-03T09:40:46.000Z</time>
      </trkpt>
      <trkpt lat="44.06023" lon="1.88669">
        <ele>270</ele>
        <time>2016-04-03T09:40:50.000Z</time>
      </trkpt>
      <trkpt lat="44.06023" lon="1.88669">
        <ele>270</ele>
        <time>2016-04-03T09:40:52.000Z</time>
      </trkpt>
      <trkpt lat="44.06023" lon="1.88669">
        <ele>270</ele>
        <time>2016-04-03T09:40:54.000Z</time>
      </trkpt>
      <trkpt lat="44.06017" lon="1.88675">
        <ele>270</ele>
        <time>2016-04-03T09:40:56.000Z</time>
      </trkpt>
      <trkpt lat="44.06013" lon="1.8868">
        <ele>270</ele>
        <time>2016-04-03T09:40:58.000Z</time>
      </trkpt>
      <trkpt lat="44.06009" lon="1.88685">
        <ele>271</ele>
        <time>2016-04-03T09:41:02.000Z</time>
      </trkpt>
      <trkpt lat="44.06005" lon="1.88691">
        <ele>271</ele>
        <time>2016-04-03T09:41:06.000Z</time>
      </trkpt>
      <trkpt lat="44.06005" lon="1.88691">
        <ele>271</ele>
        <time>2016-04-03T09:41:08.000Z</time>
      </trkpt>
      <trkpt lat="44.06005" lon="1.88691">
        <ele>271</ele>
        <time>2016-04-03T09:41:10.000Z</time>
      </trkpt>
      <trkpt lat="44.06005" lon="1.88691">
        <ele>271</ele>
        <time>2016-04-03T09:41:12.000Z</time>
      </trkpt>
      <trkpt lat="44.06005" lon="1.88691">
        <ele>271</ele>
        <time>2016-04-03T09:41:14.000Z</time>
      </trkpt>
      <trkpt lat="44.06005" lon="1.88691">
        <ele>271</ele>
        <time>2016-04-03T09:41:16.000Z</time>
      </trkpt>
      <trkpt lat="44.06005" lon="1.88691">
        <ele>271</ele>
        <time>2016-04-03T09:41:18.000Z</time>
      </trkpt>
      <trkpt lat="44.05995" lon="1.88699">
        <ele>274</ele>
        <time>2016-04-03T09:41:22.000Z</time>
      </trkpt>
      <trkpt lat="44.05989" lon="1.88702">
        <ele>275</ele>
        <time>2016-04-03T09:41:24.000Z</time>
      </trkpt>
      <trkpt lat="44.05989" lon="1.88702">
        <ele>275</ele>
        <time>2016-04-03T09:41:26.000Z</time>
      </trkpt>
      <trkpt lat="44.05983" lon="1.88702">
        <ele>275</ele>
        <time>2016-04-03T09:41:28.000Z</time>
      </trkpt>
      <trkpt lat="44.05983" lon="1.88702">
        <ele>275</ele>
        <time>2016-04-03T09:41:30.000Z</time>
      </trkpt>
      <trkpt lat="44.05983" lon="1.88702">
        <ele>275</ele>
        <time>2016-04-03T09:41:32.000Z</time>
      </trkpt>
      <trkpt lat="44.05983" lon="1.88702">
        <ele>275</ele>
        <time>2016-04-03T09:41:34.000Z</time>
      </trkpt>
      <trkpt lat="44.05983" lon="1.88702">
        <ele>275</ele>
        <time>2016-04-03T09:41:36.000Z</time>
      </trkpt>
      <trkpt lat="44.05983" lon="1.88702">
        <ele>275</ele>
        <time>2016-04-03T09:41:38.000Z</time>
      </trkpt>
      <trkpt lat="44.05967" lon="1.88703">
        <ele>277</ele>
        <time>2016-04-03T09:42:14.000Z</time>
      </trkpt>
      <trkpt lat="44.05956" lon="1.88704">
        <ele>277</ele>
        <time>2016-04-03T09:42:16.000Z</time>
      </trkpt>
      <trkpt lat="44.05948" lon="1.88704">
        <ele>277</ele>
        <time>2016-04-03T09:42:18.000Z</time>
      </trkpt>
      <trkpt lat="44.05942" lon="1.88703">
        <ele>277</ele>
        <time>2016-04-03T09:42:20.000Z</time>
      </trkpt>
      <trkpt lat="44.05942" lon="1.88703">
        <ele>277</ele>
        <time>2016-04-03T09:42:22.000Z</time>
      </trkpt>
      <trkpt lat="44.05936" lon="1.88701">
        <ele>277</ele>
        <time>2016-04-03T09:42:24.000Z</time>
      </trkpt>
      <trkpt lat="44.05936" lon="1.88701">
        <ele>277</ele>
        <time>2016-04-03T09:42:26.000Z</time>
      </trkpt>
      <trkpt lat="44.05927" lon="1.887">
        <ele>275</ele>
        <time>2016-04-03T09:42:32.000Z</time>
      </trkpt>
      <trkpt lat="44.0592" lon="1.88699">
        <ele>274</ele>
        <time>2016-04-03T09:42:34.000Z</time>
      </trkpt>
      <trkpt lat="44.05914" lon="1.88699">
        <ele>273</ele>
        <time>2016-04-03T09:42:36.000Z</time>
      </trkpt>
      <trkpt lat="44.05909" lon="1.88699">
        <ele>272</ele>
        <time>2016-04-03T09:42:38.000Z</time>
      </trkpt>
      <trkpt lat="44.05904" lon="1.88701">
        <ele>271</ele>
        <time>2016-04-03T09:42:40.000Z</time>
      </trkpt>
      <trkpt lat="44.05894" lon="1.88707">
        <ele>270</ele>
        <time>2016-04-03T09:42:42.000Z</time>
      </trkpt>
      <trkpt lat="44.05894" lon="1.88707">
        <ele>270</ele>
        <time>2016-04-03T09:42:44.000Z</time>
      </trkpt>
      <trkpt lat="44.05883" lon="1.88717">
        <ele>267</ele>
        <time>2016-04-03T09:42:46.000Z</time>
      </trkpt>
      <trkpt lat="44.05883" lon="1.88717">
        <ele>267</ele>
        <time>2016-04-03T09:42:48.000Z</time>
      </trkpt>
      <trkpt lat="44.05883" lon="1.88717">
        <ele>267</ele>
        <time>2016-04-03T09:42:50.000Z</time>
      </trkpt>
      <trkpt lat="44.05883" lon="1.88717">
        <ele>267</ele>
        <time>2016-04-03T09:42:52.000Z</time>
      </trkpt>
      <trkpt lat="44.05883" lon="1.88717">
        <ele>267</ele>
        <time>2016-04-03T09:42:54.000Z</time>
      </trkpt>
      <trkpt lat="44.05883" lon="1.88717">
        <ele>267</ele>
        <time>2016-04-03T09:42:56.000Z</time>
      </trkpt>
      <trkpt lat="44.05867" lon="1.88758">
        <ele>258</ele>
        <time>2016-04-03T09:43:00.000Z</time>
      </trkpt>
      <trkpt lat="44.05857" lon="1.88765">
        <ele>254</ele>
        <time>2016-04-03T09:43:04.000Z</time>
      </trkpt>
      <trkpt lat="44.05846" lon="1.88771">
        <ele>250</ele>
        <time>2016-04-03T09:43:08.000Z</time>
      </trkpt>
      <trkpt lat="44.05835" lon="1.88773">
        <ele>248</ele>
        <time>2016-04-03T09:43:12.000Z</time>
      </trkpt>
      <trkpt lat="44.05835" lon="1.88773">
        <ele>248</ele>
        <time>2016-04-03T09:43:14.000Z</time>
      </trkpt>
      <trkpt lat="44.05823" lon="1.88774">
        <ele>246</ele>
        <time>2016-04-03T09:43:16.000Z</time>
      </trkpt>
      <trkpt lat="44.05811" lon="1.8877">
        <ele>243</ele>
        <time>2016-04-03T09:43:20.000Z</time>
      </trkpt>
      <trkpt lat="44.05801" lon="1.88763">
        <ele>241</ele>
        <time>2016-04-03T09:43:24.000Z</time>
      </trkpt>
      <trkpt lat="44.05801" lon="1.88763">
        <ele>241</ele>
        <time>2016-04-03T09:43:26.000Z</time>
      </trkpt>
      <trkpt lat="44.05801" lon="1.88763">
        <ele>241</ele>
        <time>2016-04-03T09:43:28.000Z</time>
      </trkpt>
      <trkpt lat="44.05801" lon="1.88763">
        <ele>241</ele>
        <time>2016-04-03T09:43:30.000Z</time>
      </trkpt>
      <trkpt lat="44.05801" lon="1.88763">
        <ele>241</ele>
        <time>2016-04-03T09:43:38.000Z</time>
      </trkpt>
      <trkpt lat="44.05801" lon="1.88763">
        <ele>241</ele>
        <time>2016-04-03T09:43:40.000Z</time>
      </trkpt>
      <trkpt lat="44.05801" lon="1.88763">
        <ele>241</ele>
        <time>2016-04-03T09:43:42.000Z</time>
      </trkpt>
      <trkpt lat="44.05762" lon="1.88734">
        <ele>231</ele>
        <time>2016-04-03T09:43:44.000Z</time>
      </trkpt>
      <trkpt lat="44.05751" lon="1.88723">
        <ele>228</ele>
        <time>2016-04-03T09:43:48.000Z</time>
      </trkpt>
      <trkpt lat="44.05751" lon="1.88723">
        <ele>228</ele>
        <time>2016-04-03T09:43:50.000Z</time>
      </trkpt>
      <trkpt lat="44.05751" lon="1.88723">
        <ele>228</ele>
        <time>2016-04-03T09:43:52.000Z</time>
      </trkpt>
      <trkpt lat="44.05751" lon="1.88723">
        <ele>228</ele>
        <time>2016-04-03T09:43:54.000Z</time>
      </trkpt>
      <trkpt lat="44.05751" lon="1.88723">
        <ele>228</ele>
        <time>2016-04-03T09:43:56.000Z</time>
      </trkpt>
      <trkpt lat="44.05751" lon="1.88723">
        <ele>228</ele>
        <time>2016-04-03T09:43:58.000Z</time>
      </trkpt>
      <trkpt lat="44.05751" lon="1.88723">
        <ele>228</ele>
        <time>2016-04-03T09:44:00.000Z</time>
      </trkpt>
      <trkpt lat="44.05751" lon="1.88723">
        <ele>228</ele>
        <time>2016-04-03T09:44:02.000Z</time>
      </trkpt>
      <trkpt lat="44.05745" lon="1.88712">
        <ele>220</ele>
        <time>2016-04-03T09:44:06.000Z</time>
      </trkpt>
      <trkpt lat="44.0574" lon="1.88705">
        <ele>219</ele>
        <time>2016-04-03T09:44:08.000Z</time>
      </trkpt>
      <trkpt lat="44.05737" lon="1.887">
        <ele>218</ele>
        <time>2016-04-03T09:44:10.000Z</time>
      </trkpt>
      <trkpt lat="44.05733" lon="1.88694">
        <ele>216</ele>
        <time>2016-04-03T09:44:14.000Z</time>
      </trkpt>
      <trkpt lat="44.05733" lon="1.88694">
        <ele>216</ele>
        <time>2016-04-03T09:44:16.000Z</time>
      </trkpt>
      <trkpt lat="44.05733" lon="1.88694">
        <ele>216</ele>
        <time>2016-04-03T09:44:18.000Z</time>
      </trkpt>
      <trkpt lat="44.05733" lon="1.88694">
        <ele>216</ele>
        <time>2016-04-03T09:44:20.000Z</time>
      </trkpt>
      <trkpt lat="44.05728" lon="1.88685">
        <ele>214</ele>
        <time>2016-04-03T09:44:22.000Z</time>
      </trkpt>
      <trkpt lat="44.05724" lon="1.88679">
        <ele>213</ele>
        <time>2016-04-03T09:44:24.000Z</time>
      </trkpt>
      <trkpt lat="44.05721" lon="1.88675">
        <ele>213</ele>
        <time>2016-04-03T09:44:26.000Z</time>
      </trkpt>
      <trkpt lat="44.05721" lon="1.88675">
        <ele>213</ele>
        <time>2016-04-03T09:44:28.000Z</time>
      </trkpt>
      <trkpt lat="44.05719" lon="1.88669">
        <ele>212</ele>
        <time>2016-04-03T09:44:30.000Z</time>
      </trkpt>
      <trkpt lat="44.05718" lon="1.88661">
        <ele>211</ele>
        <time>2016-04-03T09:44:34.000Z</time>
      </trkpt>
      <trkpt lat="44.05718" lon="1.88661">
        <ele>211</ele>
        <time>2016-04-03T09:44:36.000Z</time>
      </trkpt>
      <trkpt lat="44.05718" lon="1.88661">
        <ele>211</ele>
        <time>2016-04-03T09:44:38.000Z</time>
      </trkpt>
      <trkpt lat="44.05719" lon="1.88649">
        <ele>210</ele>
        <time>2016-04-03T09:44:42.000Z</time>
      </trkpt>
      <trkpt lat="44.0572" lon="1.88639">
        <ele>210</ele>
        <time>2016-04-03T09:44:44.000Z</time>
      </trkpt>
      <trkpt lat="44.05721" lon="1.88632">
        <ele>210</ele>
        <time>2016-04-03T09:44:46.000Z</time>
      </trkpt>
      <trkpt lat="44.05721" lon="1.88625">
        <ele>209</ele>
        <time>2016-04-03T09:44:48.000Z</time>
      </trkpt>
      <trkpt lat="44.05721" lon="1.88616">
        <ele>210</ele>
        <time>2016-04-03T09:44:52.000Z</time>
      </trkpt>
      <trkpt lat="44.05721" lon="1.88608">
        <ele>210</ele>
        <time>2016-04-03T09:44:54.000Z</time>
      </trkpt>
      <trkpt lat="44.05722" lon="1.886">
        <ele>210</ele>
        <time>2016-04-03T09:44:56.000Z</time>
      </trkpt>
      <trkpt lat="44.05722" lon="1.88592">
        <ele>210</ele>
        <time>2016-04-03T09:44:58.000Z</time>
      </trkpt>
      <trkpt lat="44.05722" lon="1.88585">
        <ele>211</ele>
        <time>2016-04-03T09:45:00.000Z</time>
      </trkpt>
      <trkpt lat="44.05722" lon="1.88571">
        <ele>211</ele>
        <time>2016-04-03T09:45:02.000Z</time>
      </trkpt>
      <trkpt lat="44.05721" lon="1.88558">
        <ele>211</ele>
        <time>2016-04-03T09:45:06.000Z</time>
      </trkpt>
      <trkpt lat="44.05721" lon="1.88544">
        <ele>211</ele>
        <time>2016-04-03T09:45:10.000Z</time>
      </trkpt>
      <trkpt lat="44.05721" lon="1.88544">
        <ele>211</ele>
        <time>2016-04-03T09:45:12.000Z</time>
      </trkpt>
      <trkpt lat="44.05721" lon="1.88544">
        <ele>211</ele>
        <time>2016-04-03T09:45:14.000Z</time>
      </trkpt>
      <trkpt lat="44.05721" lon="1.88544">
        <ele>211</ele>
        <time>2016-04-03T09:45:16.000Z</time>
      </trkpt>
      <trkpt lat="44.05711" lon="1.88493">
        <ele>216</ele>
        <time>2016-04-03T09:45:26.000Z</time>
      </trkpt>
      <trkpt lat="44.0571" lon="1.88478">
        <ele>216</ele>
        <time>2016-04-03T09:45:30.000Z</time>
      </trkpt>
      <trkpt lat="44.0571" lon="1.88478">
        <ele>216</ele>
        <time>2016-04-03T09:45:32.000Z</time>
      </trkpt>
      <trkpt lat="44.0571" lon="1.88478">
        <ele>216</ele>
        <time>2016-04-03T09:45:34.000Z</time>
      </trkpt>
      <trkpt lat="44.05711" lon="1.88452">
        <ele>215</ele>
        <time>2016-04-03T09:45:38.000Z</time>
      </trkpt>
      <trkpt lat="44.0571" lon="1.88439">
        <ele>215</ele>
        <time>2016-04-03T09:45:42.000Z</time>
      </trkpt>
      <trkpt lat="44.0571" lon="1.88439">
        <ele>215</ele>
        <time>2016-04-03T09:45:44.000Z</time>
      </trkpt>
      <trkpt lat="44.0571" lon="1.88439">
        <ele>215</ele>
        <time>2016-04-03T09:45:46.000Z</time>
      </trkpt>
      <trkpt lat="44.0571" lon="1.88439">
        <ele>215</ele>
        <time>2016-04-03T09:45:48.000Z</time>
      </trkpt>
      <trkpt lat="44.0571" lon="1.88439">
        <ele>215</ele>
        <time>2016-04-03T09:45:50.000Z</time>
      </trkpt>
      <trkpt lat="44.0571" lon="1.88439">
        <ele>215</ele>
        <time>2016-04-03T09:45:52.000Z</time>
      </trkpt>
      <trkpt lat="44.0571" lon="1.88439">
        <ele>215</ele>
        <time>2016-04-03T09:45:54.000Z</time>
      </trkpt>
      <trkpt lat="44.0571" lon="1.88439">
        <ele>215</ele>
        <time>2016-04-03T09:45:56.000Z</time>
      </trkpt>
      <trkpt lat="44.0571" lon="1.88439">
        <ele>215</ele>
        <time>2016-04-03T09:45:58.000Z</time>
      </trkpt>
      <trkpt lat="44.0571" lon="1.88439">
        <ele>215</ele>
        <time>2016-04-03T09:46:00.000Z</time>
      </trkpt>
      <trkpt lat="44.0571" lon="1.88439">
        <ele>215</ele>
        <time>2016-04-03T09:46:02.000Z</time>
      </trkpt>
      <trkpt lat="44.0571" lon="1.88439">
        <ele>215</ele>
        <time>2016-04-03T09:46:04.000Z</time>
      </trkpt>
      <trkpt lat="44.0571" lon="1.88439">
        <ele>215</ele>
        <time>2016-04-03T09:46:06.000Z</time>
      </trkpt>
      <trkpt lat="44.0571" lon="1.88439">
        <ele>215</ele>
        <time>2016-04-03T09:46:08.000Z</time>
      </trkpt>
      <trkpt lat="44.0571" lon="1.88439">
        <ele>215</ele>
        <time>2016-04-03T09:46:10.000Z</time>
      </trkpt>
      <trkpt lat="44.05712" lon="1.88395">
        <ele>220</ele>
        <time>2016-04-03T09:46:16.000Z</time>
      </trkpt>
      <trkpt lat="44.05713" lon="1.88371">
        <ele>220</ele>
        <time>2016-04-03T09:46:18.000Z</time>
      </trkpt>
      <trkpt lat="44.05713" lon="1.88371">
        <ele>220</ele>
        <time>2016-04-03T09:46:20.000Z</time>
      </trkpt>
      <trkpt lat="44.05713" lon="1.88371">
        <ele>220</ele>
        <time>2016-04-03T09:46:22.000Z</time>
      </trkpt>
      <trkpt lat="44.05713" lon="1.88371">
        <ele>220</ele>
        <time>2016-04-03T09:46:24.000Z</time>
      </trkpt>
      <trkpt lat="44.05713" lon="1.88371">
        <ele>220</ele>
        <time>2016-04-03T09:46:26.000Z</time>
      </trkpt>
      <trkpt lat="44.05717" lon="1.8834">
        <ele>222</ele>
        <time>2016-04-03T09:46:38.000Z</time>
      </trkpt>
      <trkpt lat="44.05719" lon="1.88322">
        <ele>222</ele>
        <time>2016-04-03T09:46:40.000Z</time>
      </trkpt>
      <trkpt lat="44.05721" lon="1.88312">
        <ele>222</ele>
        <time>2016-04-03T09:46:42.000Z</time>
      </trkpt>
      <trkpt lat="44.05723" lon="1.88304">
        <ele>222</ele>
        <time>2016-04-03T09:46:44.000Z</time>
      </trkpt>
      <trkpt lat="44.05724" lon="1.88297">
        <ele>222</ele>
        <time>2016-04-03T09:46:48.000Z</time>
      </trkpt>
      <trkpt lat="44.05726" lon="1.88291">
        <ele>222</ele>
        <time>2016-04-03T09:46:50.000Z</time>
      </trkpt>
      <trkpt lat="44.05727" lon="1.88284">
        <ele>222</ele>
        <time>2016-04-03T09:46:54.000Z</time>
      </trkpt>
      <trkpt lat="44.05727" lon="1.88284">
        <ele>222</ele>
        <time>2016-04-03T09:46:56.000Z</time>
      </trkpt>
      <trkpt lat="44.05727" lon="1.88284">
        <ele>222</ele>
        <time>2016-04-03T09:46:58.000Z</time>
      </trkpt>
      <trkpt lat="44.05727" lon="1.88284">
        <ele>222</ele>
        <time>2016-04-03T09:47:00.000Z</time>
      </trkpt>
      <trkpt lat="44.05727" lon="1.88284">
        <ele>222</ele>
        <time>2016-04-03T09:47:02.000Z</time>
      </trkpt>
      <trkpt lat="44.05732" lon="1.88267">
        <ele>225</ele>
        <time>2016-04-03T09:47:08.000Z</time>
      </trkpt>
      <trkpt lat="44.05735" lon="1.88256">
        <ele>225</ele>
        <time>2016-04-03T09:47:10.000Z</time>
      </trkpt>
      <trkpt lat="44.05735" lon="1.88256">
        <ele>225</ele>
        <time>2016-04-03T09:47:12.000Z</time>
      </trkpt>
      <trkpt lat="44.05738" lon="1.88246">
        <ele>226</ele>
        <time>2016-04-03T09:47:16.000Z</time>
      </trkpt>
      <trkpt lat="44.05741" lon="1.88238">
        <ele>226</ele>
        <time>2016-04-03T09:47:18.000Z</time>
      </trkpt>
      <trkpt lat="44.05743" lon="1.88231">
        <ele>227</ele>
        <time>2016-04-03T09:47:22.000Z</time>
      </trkpt>
      <trkpt lat="44.05745" lon="1.88225">
        <ele>227</ele>
        <time>2016-04-03T09:47:24.000Z</time>
      </trkpt>
      <trkpt lat="44.05747" lon="1.88218">
        <ele>228</ele>
        <time>2016-04-03T09:47:28.000Z</time>
      </trkpt>
      <trkpt lat="44.05747" lon="1.88218">
        <ele>228</ele>
        <time>2016-04-03T09:47:30.000Z</time>
      </trkpt>
      <trkpt lat="44.05747" lon="1.88218">
        <ele>228</ele>
        <time>2016-04-03T09:47:32.000Z</time>
      </trkpt>
      <trkpt lat="44.05747" lon="1.88218">
        <ele>228</ele>
        <time>2016-04-03T09:47:34.000Z</time>
      </trkpt>
      <trkpt lat="44.05747" lon="1.88218">
        <ele>228</ele>
        <time>2016-04-03T09:47:36.000Z</time>
      </trkpt>
      <trkpt lat="44.05747" lon="1.88218">
        <ele>228</ele>
        <time>2016-04-03T09:47:38.000Z</time>
      </trkpt>
      <trkpt lat="44.05754" lon="1.88201">
        <ele>231</ele>
        <time>2016-04-03T09:47:44.000Z</time>
      </trkpt>
      <trkpt lat="44.05759" lon="1.88191">
        <ele>231</ele>
        <time>2016-04-03T09:47:46.000Z</time>
      </trkpt>
      <trkpt lat="44.05762" lon="1.88184">
        <ele>231</ele>
        <time>2016-04-03T09:47:48.000Z</time>
      </trkpt>
      <trkpt lat="44.05762" lon="1.88184">
        <ele>231</ele>
        <time>2016-04-03T09:47:50.000Z</time>
      </trkpt>
      <trkpt lat="44.05765" lon="1.88177">
        <ele>232</ele>
        <time>2016-04-03T09:47:52.000Z</time>
      </trkpt>
      <trkpt lat="44.05767" lon="1.88172">
        <ele>232</ele>
        <time>2016-04-03T09:47:54.000Z</time>
      </trkpt>
      <trkpt lat="44.0577" lon="1.88165">
        <ele>232</ele>
        <time>2016-04-03T09:47:58.000Z</time>
      </trkpt>
      <trkpt lat="44.0577" lon="1.88165">
        <ele>232</ele>
        <time>2016-04-03T09:48:00.000Z</time>
      </trkpt>
      <trkpt lat="44.0577" lon="1.88165">
        <ele>232</ele>
        <time>2016-04-03T09:48:02.000Z</time>
      </trkpt>
      <trkpt lat="44.0577" lon="1.88165">
        <ele>232</ele>
        <time>2016-04-03T09:48:04.000Z</time>
      </trkpt>
      <trkpt lat="44.0577" lon="1.88165">
        <ele>232</ele>
        <time>2016-04-03T09:48:06.000Z</time>
      </trkpt>
      <trkpt lat="44.0577" lon="1.88165">
        <ele>232</ele>
        <time>2016-04-03T09:48:08.000Z</time>
      </trkpt>
      <trkpt lat="44.05777" lon="1.88149">
        <ele>235</ele>
        <time>2016-04-03T09:48:12.000Z</time>
      </trkpt>
      <trkpt lat="44.05781" lon="1.8814">
        <ele>235</ele>
        <time>2016-04-03T09:48:14.000Z</time>
      </trkpt>
      <trkpt lat="44.05784" lon="1.88133">
        <ele>235</ele>
        <time>2016-04-03T09:48:16.000Z</time>
      </trkpt>
      <trkpt lat="44.05787" lon="1.88126">
        <ele>236</ele>
        <time>2016-04-03T09:48:20.000Z</time>
      </trkpt>
      <trkpt lat="44.05789" lon="1.8812">
        <ele>236</ele>
        <time>2016-04-03T09:48:22.000Z</time>
      </trkpt>
      <trkpt lat="44.05789" lon="1.8812">
        <ele>236</ele>
        <time>2016-04-03T09:48:26.000Z</time>
      </trkpt>
      <trkpt lat="44.05789" lon="1.8812">
        <ele>236</ele>
        <time>2016-04-03T09:48:28.000Z</time>
      </trkpt>
      <trkpt lat="44.05789" lon="1.8812">
        <ele>236</ele>
        <time>2016-04-03T09:48:30.000Z</time>
      </trkpt>
      <trkpt lat="44.05789" lon="1.8812">
        <ele>236</ele>
        <time>2016-04-03T09:48:34.000Z</time>
      </trkpt>
      <trkpt lat="44.05789" lon="1.8812">
        <ele>236</ele>
        <time>2016-04-03T09:48:36.000Z</time>
      </trkpt>
      <trkpt lat="44.05789" lon="1.8812">
        <ele>236</ele>
        <time>2016-04-03T09:48:38.000Z</time>
      </trkpt>
      <trkpt lat="44.05795" lon="1.88094">
        <ele>239</ele>
        <time>2016-04-03T09:48:46.000Z</time>
      </trkpt>
      <trkpt lat="44.05798" lon="1.88079">
        <ele>239</ele>
        <time>2016-04-03T09:48:48.000Z</time>
      </trkpt>
      <trkpt lat="44.05799" lon="1.88069">
        <ele>239</ele>
        <time>2016-04-03T09:48:50.000Z</time>
      </trkpt>
      <trkpt lat="44.05801" lon="1.88062">
        <ele>239</ele>
        <time>2016-04-03T09:48:52.000Z</time>
      </trkpt>
      <trkpt lat="44.05801" lon="1.88062">
        <ele>239</ele>
        <time>2016-04-03T09:48:54.000Z</time>
      </trkpt>
      <trkpt lat="44.05801" lon="1.88062">
        <ele>239</ele>
        <time>2016-04-03T09:48:56.000Z</time>
      </trkpt>
      <trkpt lat="44.05801" lon="1.88062">
        <ele>239</ele>
        <time>2016-04-03T09:48:58.000Z</time>
      </trkpt>
      <trkpt lat="44.05802" lon="1.88051">
        <ele>240</ele>
        <time>2016-04-03T09:49:00.000Z</time>
      </trkpt>
      <trkpt lat="44.05803" lon="1.88043">
        <ele>241</ele>
        <time>2016-04-03T09:49:02.000Z</time>
      </trkpt>
      <trkpt lat="44.05804" lon="1.88037">
        <ele>241</ele>
        <time>2016-04-03T09:49:04.000Z</time>
      </trkpt>
      <trkpt lat="44.05805" lon="1.88029">
        <ele>241</ele>
        <time>2016-04-03T09:49:08.000Z</time>
      </trkpt>
      <trkpt lat="44.05806" lon="1.88023">
        <ele>241</ele>
        <time>2016-04-03T09:49:10.000Z</time>
      </trkpt>
      <trkpt lat="44.05806" lon="1.88023">
        <ele>241</ele>
        <time>2016-04-03T09:49:12.000Z</time>
      </trkpt>
      <trkpt lat="44.05807" lon="1.88014">
        <ele>241</ele>
        <time>2016-04-03T09:49:14.000Z</time>
      </trkpt>
      <trkpt lat="44.05807" lon="1.88014">
        <ele>241</ele>
        <time>2016-04-03T09:49:16.000Z</time>
      </trkpt>
      <trkpt lat="44.05807" lon="1.88014">
        <ele>241</ele>
        <time>2016-04-03T09:49:18.000Z</time>
      </trkpt>
      <trkpt lat="44.05807" lon="1.88014">
        <ele>241</ele>
        <time>2016-04-03T09:49:20.000Z</time>
      </trkpt>
      <trkpt lat="44.05807" lon="1.88014">
        <ele>241</ele>
        <time>2016-04-03T09:49:22.000Z</time>
      </trkpt>
      <trkpt lat="44.05807" lon="1.88014">
        <ele>241</ele>
        <time>2016-04-03T09:49:24.000Z</time>
      </trkpt>
      <trkpt lat="44.05807" lon="1.88014">
        <ele>241</ele>
        <time>2016-04-03T09:49:26.000Z</time>
      </trkpt>
      <trkpt lat="44.05807" lon="1.88014">
        <ele>241</ele>
        <time>2016-04-03T09:49:28.000Z</time>
      </trkpt>
      <trkpt lat="44.05809" lon="1.87998">
        <ele>250</ele>
        <time>2016-04-03T09:52:23.000Z</time>
      </trkpt>
      <trkpt lat="44.05811" lon="1.8799">
        <ele>250</ele>
        <time>2016-04-03T09:52:25.000Z</time>
      </trkpt>
      <trkpt lat="44.05816" lon="1.87989">
        <ele>248</ele>
        <time>2016-04-03T09:52:29.000Z</time>
      </trkpt>
      <trkpt lat="44.05821" lon="1.87991">
        <ele>248</ele>
        <time>2016-04-03T09:52:31.000Z</time>
      </trkpt>
      <trkpt lat="44.05826" lon="1.87994">
        <ele>248</ele>
        <time>2016-04-03T09:52:33.000Z</time>
      </trkpt>
      <trkpt lat="44.05831" lon="1.87998">
        <ele>248</ele>
        <time>2016-04-03T09:52:35.000Z</time>
      </trkpt>
      <trkpt lat="44.05837" lon="1.88002">
        <ele>246</ele>
        <time>2016-04-03T09:52:37.000Z</time>
      </trkpt>
      <trkpt lat="44.0585" lon="1.88013">
        <ele>246</ele>
        <time>2016-04-03T09:52:39.000Z</time>
      </trkpt>
      <trkpt lat="44.05864" lon="1.88027">
        <ele>244</ele>
        <time>2016-04-03T09:52:43.000Z</time>
      </trkpt>
      <trkpt lat="44.05873" lon="1.88035">
        <ele>243</ele>
        <time>2016-04-03T09:52:45.000Z</time>
      </trkpt>
      <trkpt lat="44.05882" lon="1.88043">
        <ele>242</ele>
        <time>2016-04-03T09:52:47.000Z</time>
      </trkpt>
      <trkpt lat="44.05891" lon="1.88051">
        <ele>241</ele>
        <time>2016-04-03T09:52:49.000Z</time>
      </trkpt>
      <trkpt lat="44.05899" lon="1.88059">
        <ele>239</ele>
        <time>2016-04-03T09:52:51.000Z</time>
      </trkpt>
      <trkpt lat="44.05899" lon="1.88059">
        <ele>239</ele>
        <time>2016-04-03T09:52:53.000Z</time>
      </trkpt>
      <trkpt lat="44.05899" lon="1.88059">
        <ele>239</ele>
        <time>2016-04-03T09:52:55.000Z</time>
      </trkpt>
      <trkpt lat="44.05931" lon="1.88097">
        <ele>235</ele>
        <time>2016-04-03T09:52:59.000Z</time>
      </trkpt>
      <trkpt lat="44.05939" lon="1.8811">
        <ele>235</ele>
        <time>2016-04-03T09:53:01.000Z</time>
      </trkpt>
      <trkpt lat="44.05946" lon="1.88123">
        <ele>234</ele>
        <time>2016-04-03T09:53:03.000Z</time>
      </trkpt>
      <trkpt lat="44.05953" lon="1.88136">
        <ele>233</ele>
        <time>2016-04-03T09:53:05.000Z</time>
      </trkpt>
      <trkpt lat="44.05959" lon="1.88148">
        <ele>232</ele>
        <time>2016-04-03T09:53:07.000Z</time>
      </trkpt>
      <trkpt lat="44.05959" lon="1.88148">
        <ele>232</ele>
        <time>2016-04-03T09:53:09.000Z</time>
      </trkpt>
      <trkpt lat="44.05959" lon="1.88148">
        <ele>232</ele>
        <time>2016-04-03T09:53:11.000Z</time>
      </trkpt>
      <trkpt lat="44.05959" lon="1.88148">
        <ele>232</ele>
        <time>2016-04-03T09:53:13.000Z</time>
      </trkpt>
      <trkpt lat="44.05959" lon="1.88148">
        <ele>232</ele>
        <time>2016-04-03T09:53:15.000Z</time>
      </trkpt>
      <trkpt lat="44.05959" lon="1.88148">
        <ele>232</ele>
        <time>2016-04-03T09:53:17.000Z</time>
      </trkpt>
      <trkpt lat="44.05959" lon="1.88148">
        <ele>232</ele>
        <time>2016-04-03T09:53:19.000Z</time>
      </trkpt>
      <trkpt lat="44.05959" lon="1.88148">
        <ele>232</ele>
        <time>2016-04-03T09:53:21.000Z</time>
      </trkpt>
      <trkpt lat="44.05984" lon="1.88123">
        <ele>229</ele>
        <time>2016-04-03T09:53:27.000Z</time>
      </trkpt>
      <trkpt lat="44.05984" lon="1.88123">
        <ele>229</ele>
        <time>2016-04-03T09:53:29.000Z</time>
      </trkpt>
      <trkpt lat="44.05984" lon="1.88123">
        <ele>229</ele>
        <time>2016-04-03T09:53:31.000Z</time>
      </trkpt>
      <trkpt lat="44.05984" lon="1.88123">
        <ele>229</ele>
        <time>2016-04-03T09:53:33.000Z</time>
      </trkpt>
      <trkpt lat="44.05984" lon="1.88123">
        <ele>229</ele>
        <time>2016-04-03T09:53:35.000Z</time>
      </trkpt>
      <trkpt lat="44.05997" lon="1.88099">
        <ele>231</ele>
        <time>2016-04-03T09:53:39.000Z</time>
      </trkpt>
      <trkpt lat="44.06004" lon="1.88085">
        <ele>232</ele>
        <time>2016-04-03T09:53:45.000Z</time>
      </trkpt>
      <trkpt lat="44.0601" lon="1.88072">
        <ele>234</ele>
        <time>2016-04-03T09:53:51.000Z</time>
      </trkpt>
      <trkpt lat="44.0601" lon="1.88072">
        <ele>234</ele>
        <time>2016-04-03T09:53:53.000Z</time>
      </trkpt>
      <trkpt lat="44.0601" lon="1.88072">
        <ele>234</ele>
        <time>2016-04-03T09:53:55.000Z</time>
      </trkpt>
      <trkpt lat="44.0601" lon="1.88072">
        <ele>234</ele>
        <time>2016-04-03T09:53:57.000Z</time>
      </trkpt>
      <trkpt lat="44.06021" lon="1.88043">
        <ele>236</ele>
        <time>2016-04-03T09:54:03.000Z</time>
      </trkpt>
      <trkpt lat="44.06027" lon="1.88029">
        <ele>237</ele>
        <time>2016-04-03T09:54:09.000Z</time>
      </trkpt>
      <trkpt lat="44.06027" lon="1.88029">
        <ele>237</ele>
        <time>2016-04-03T09:54:11.000Z</time>
      </trkpt>
      <trkpt lat="44.06027" lon="1.88029">
        <ele>237</ele>
        <time>2016-04-03T09:54:13.000Z</time>
      </trkpt>
      <trkpt lat="44.06027" lon="1.88029">
        <ele>237</ele>
        <time>2016-04-03T09:54:15.000Z</time>
      </trkpt>
      <trkpt lat="44.06032" lon="1.88018">
        <ele>239</ele>
        <time>2016-04-03T09:54:19.000Z</time>
      </trkpt>
      <trkpt lat="44.06036" lon="1.8801">
        <ele>239</ele>
        <time>2016-04-03T09:54:21.000Z</time>
      </trkpt>
      <trkpt lat="44.06036" lon="1.8801">
        <ele>239</ele>
        <time>2016-04-03T09:54:23.000Z</time>
      </trkpt>
      <trkpt lat="44.06036" lon="1.8801">
        <ele>239</ele>
        <time>2016-04-03T09:54:25.000Z</time>
      </trkpt>
      <trkpt lat="44.06036" lon="1.8801">
        <ele>239</ele>
        <time>2016-04-03T09:54:27.000Z</time>
      </trkpt>
      <trkpt lat="44.06036" lon="1.8801">
        <ele>239</ele>
        <time>2016-04-03T09:54:29.000Z</time>
      </trkpt>
      <trkpt lat="44.06036" lon="1.8801">
        <ele>239</ele>
        <time>2016-04-03T09:54:31.000Z</time>
      </trkpt>
      <trkpt lat="44.06036" lon="1.8801">
        <ele>239</ele>
        <time>2016-04-03T09:54:33.000Z</time>
      </trkpt>
      <trkpt lat="44.06036" lon="1.8801">
        <ele>239</ele>
        <time>2016-04-03T09:54:35.000Z</time>
      </trkpt>
      <trkpt lat="44.06036" lon="1.8801">
        <ele>239</ele>
        <time>2016-04-03T09:54:37.000Z</time>
      </trkpt>
      <trkpt lat="44.06036" lon="1.8801">
        <ele>239</ele>
        <time>2016-04-03T09:54:39.000Z</time>
      </trkpt>
      <trkpt lat="44.06052" lon="1.87992">
        <ele>247</ele>
        <time>2016-04-03T09:54:55.000Z</time>
      </trkpt>
      <trkpt lat="44.0606" lon="1.87981">
        <ele>247</ele>
        <time>2016-04-03T09:54:57.000Z</time>
      </trkpt>
      <trkpt lat="44.06065" lon="1.87974">
        <ele>247</ele>
        <time>2016-04-03T09:54:59.000Z</time>
      </trkpt>
      <trkpt lat="44.06068" lon="1.87969">
        <ele>247</ele>
        <time>2016-04-03T09:55:01.000Z</time>
      </trkpt>
      <trkpt lat="44.06068" lon="1.87969">
        <ele>247</ele>
        <time>2016-04-03T09:55:03.000Z</time>
      </trkpt>
      <trkpt lat="44.06071" lon="1.87963">
        <ele>248</ele>
        <time>2016-04-03T09:55:05.000Z</time>
      </trkpt>
      <trkpt lat="44.06074" lon="1.87956">
        <ele>248</ele>
        <time>2016-04-03T09:55:09.000Z</time>
      </trkpt>
      <trkpt lat="44.06074" lon="1.87956">
        <ele>248</ele>
        <time>2016-04-03T09:55:11.000Z</time>
      </trkpt>
      <trkpt lat="44.06076" lon="1.87949">
        <ele>248</ele>
        <time>2016-04-03T09:55:13.000Z</time>
      </trkpt>
      <trkpt lat="44.06076" lon="1.87949">
        <ele>248</ele>
        <time>2016-04-03T09:55:15.000Z</time>
      </trkpt>
      <trkpt lat="44.06076" lon="1.87949">
        <ele>248</ele>
        <time>2016-04-03T09:55:17.000Z</time>
      </trkpt>
      <trkpt lat="44.0608" lon="1.87939">
        <ele>248</ele>
        <time>2016-04-03T09:55:21.000Z</time>
      </trkpt>
      <trkpt lat="44.06083" lon="1.87932">
        <ele>249</ele>
        <time>2016-04-03T09:55:23.000Z</time>
      </trkpt>
      <trkpt lat="44.06085" lon="1.87925">
        <ele>250</ele>
        <time>2016-04-03T09:55:27.000Z</time>
      </trkpt>
      <trkpt lat="44.06085" lon="1.87925">
        <ele>250</ele>
        <time>2016-04-03T09:55:29.000Z</time>
      </trkpt>
      <trkpt lat="44.06085" lon="1.87925">
        <ele>250</ele>
        <time>2016-04-03T09:55:31.000Z</time>
      </trkpt>
      <trkpt lat="44.06085" lon="1.87925">
        <ele>250</ele>
        <time>2016-04-03T09:55:33.000Z</time>
      </trkpt>
      <trkpt lat="44.06085" lon="1.87925">
        <ele>250</ele>
        <time>2016-04-03T09:55:39.000Z</time>
      </trkpt>
      <trkpt lat="44.06085" lon="1.87925">
        <ele>250</ele>
        <time>2016-04-03T09:55:41.000Z</time>
      </trkpt>
      <trkpt lat="44.06085" lon="1.87925">
        <ele>250</ele>
        <time>2016-04-03T09:55:43.000Z</time>
      </trkpt>
      <trkpt lat="44.0609" lon="1.87909">
        <ele>250</ele>
        <time>2016-04-03T09:56:07.000Z</time>
      </trkpt>
      <trkpt lat="44.06093" lon="1.87899">
        <ele>250</ele>
        <time>2016-04-03T09:56:09.000Z</time>
      </trkpt>
      <trkpt lat="44.06095" lon="1.87892">
        <ele>250</ele>
        <time>2016-04-03T09:56:11.000Z</time>
      </trkpt>
      <trkpt lat="44.06097" lon="1.87885">
        <ele>250</ele>
        <time>2016-04-03T09:56:15.000Z</time>
      </trkpt>
      <trkpt lat="44.06097" lon="1.87885">
        <ele>250</ele>
        <time>2016-04-03T09:56:17.000Z</time>
      </trkpt>
      <trkpt lat="44.06097" lon="1.87885">
        <ele>250</ele>
        <time>2016-04-03T09:56:19.000Z</time>
      </trkpt>
      <trkpt lat="44.06101" lon="1.87873">
        <ele>253</ele>
        <time>2016-04-03T09:56:23.000Z</time>
      </trkpt>
      <trkpt lat="44.06103" lon="1.87866">
        <ele>253</ele>
        <time>2016-04-03T09:56:25.000Z</time>
      </trkpt>
      <trkpt lat="44.06105" lon="1.8786">
        <ele>254</ele>
        <time>2016-04-03T09:56:27.000Z</time>
      </trkpt>
      <trkpt lat="44.06105" lon="1.8786">
        <ele>254</ele>
        <time>2016-04-03T09:56:29.000Z</time>
      </trkpt>
      <trkpt lat="44.06105" lon="1.8786">
        <ele>254</ele>
        <time>2016-04-03T09:56:31.000Z</time>
      </trkpt>
      <trkpt lat="44.06105" lon="1.8786">
        <ele>254</ele>
        <time>2016-04-03T09:56:33.000Z</time>
      </trkpt>
      <trkpt lat="44.06105" lon="1.8786">
        <ele>254</ele>
        <time>2016-04-03T09:56:35.000Z</time>
      </trkpt>
      <trkpt lat="44.06105" lon="1.8786">
        <ele>254</ele>
        <time>2016-04-03T09:56:37.000Z</time>
      </trkpt>
      <trkpt lat="44.06105" lon="1.8786">
        <ele>254</ele>
        <time>2016-04-03T09:56:39.000Z</time>
      </trkpt>
      <trkpt lat="44.06105" lon="1.8786">
        <ele>254</ele>
        <time>2016-04-03T09:56:41.000Z</time>
      </trkpt>
      <trkpt lat="44.06105" lon="1.8786">
        <ele>254</ele>
        <time>2016-04-03T09:56:43.000Z</time>
      </trkpt>
      <trkpt lat="44.06105" lon="1.8786">
        <ele>254</ele>
        <time>2016-04-03T09:56:45.000Z</time>
      </trkpt>
      <trkpt lat="44.0611" lon="1.87841">
        <ele>256</ele>
        <time>2016-04-03T09:56:49.000Z</time>
      </trkpt>
      <trkpt lat="44.06114" lon="1.87829">
        <ele>256</ele>
        <time>2016-04-03T09:56:51.000Z</time>
      </trkpt>
      <trkpt lat="44.06116" lon="1.87819">
        <ele>256</ele>
        <time>2016-04-03T09:56:53.000Z</time>
      </trkpt>
      <trkpt lat="44.06117" lon="1.87812">
        <ele>256</ele>
        <time>2016-04-03T09:56:55.000Z</time>
      </trkpt>
      <trkpt lat="44.06117" lon="1.87812">
        <ele>256</ele>
        <time>2016-04-03T09:56:57.000Z</time>
      </trkpt>
      <trkpt lat="44.06117" lon="1.87812">
        <ele>256</ele>
        <time>2016-04-03T09:56:59.000Z</time>
      </trkpt>
      <trkpt lat="44.06117" lon="1.87812">
        <ele>256</ele>
        <time>2016-04-03T09:57:01.000Z</time>
      </trkpt>
      <trkpt lat="44.06117" lon="1.87812">
        <ele>256</ele>
        <time>2016-04-03T09:57:03.000Z</time>
      </trkpt>
      <trkpt lat="44.06117" lon="1.87812">
        <ele>256</ele>
        <time>2016-04-03T09:57:05.000Z</time>
      </trkpt>
      <trkpt lat="44.06117" lon="1.87812">
        <ele>256</ele>
        <time>2016-04-03T09:57:13.000Z</time>
      </trkpt>
      <trkpt lat="44.06121" lon="1.87787">
        <ele>257</ele>
        <time>2016-04-03T09:57:17.000Z</time>
      </trkpt>
      <trkpt lat="44.06123" lon="1.87771">
        <ele>257</ele>
        <time>2016-04-03T09:57:19.000Z</time>
      </trkpt>
      <trkpt lat="44.06124" lon="1.87762">
        <ele>257</ele>
        <time>2016-04-03T09:57:21.000Z</time>
      </trkpt>
      <trkpt lat="44.06125" lon="1.87754">
        <ele>258</ele>
        <time>2016-04-03T09:57:23.000Z</time>
      </trkpt>
      <trkpt lat="44.06125" lon="1.87754">
        <ele>258</ele>
        <time>2016-04-03T09:57:25.000Z</time>
      </trkpt>
      <trkpt lat="44.06125" lon="1.87754">
        <ele>258</ele>
        <time>2016-04-03T09:57:27.000Z</time>
      </trkpt>
      <trkpt lat="44.06125" lon="1.87754">
        <ele>258</ele>
        <time>2016-04-03T09:57:29.000Z</time>
      </trkpt>
      <trkpt lat="44.06125" lon="1.87754">
        <ele>258</ele>
        <time>2016-04-03T09:57:31.000Z</time>
      </trkpt>
      <trkpt lat="44.06125" lon="1.87754">
        <ele>258</ele>
        <time>2016-04-03T09:57:33.000Z</time>
      </trkpt>
      <trkpt lat="44.06125" lon="1.87754">
        <ele>258</ele>
        <time>2016-04-03T09:57:35.000Z</time>
      </trkpt>
      <trkpt lat="44.06125" lon="1.87754">
        <ele>258</ele>
        <time>2016-04-03T09:57:37.000Z</time>
      </trkpt>
      <trkpt lat="44.06125" lon="1.87754">
        <ele>258</ele>
        <time>2016-04-03T09:57:39.000Z</time>
      </trkpt>
      <trkpt lat="44.06131" lon="1.87734">
        <ele>259</ele>
        <time>2016-04-03T09:57:43.000Z</time>
      </trkpt>
      <trkpt lat="44.06134" lon="1.87722">
        <ele>259</ele>
        <time>2016-04-03T09:57:45.000Z</time>
      </trkpt>
      <trkpt lat="44.06136" lon="1.87715">
        <ele>259</ele>
        <time>2016-04-03T09:57:47.000Z</time>
      </trkpt>
      <trkpt lat="44.06138" lon="1.87707">
        <ele>259</ele>
        <time>2016-04-03T09:57:51.000Z</time>
      </trkpt>
      <trkpt lat="44.06138" lon="1.87707">
        <ele>259</ele>
        <time>2016-04-03T09:57:53.000Z</time>
      </trkpt>
      <trkpt lat="44.06138" lon="1.87707">
        <ele>259</ele>
        <time>2016-04-03T09:57:55.000Z</time>
      </trkpt>
      <trkpt lat="44.06142" lon="1.87695">
        <ele>260</ele>
        <time>2016-04-03T09:58:01.000Z</time>
      </trkpt>
      <trkpt lat="44.06145" lon="1.87686">
        <ele>259</ele>
        <time>2016-04-03T09:58:03.000Z</time>
      </trkpt>
      <trkpt lat="44.06146" lon="1.8768">
        <ele>259</ele>
        <time>2016-04-03T09:58:05.000Z</time>
      </trkpt>
      <trkpt lat="44.06146" lon="1.8768">
        <ele>259</ele>
        <time>2016-04-03T09:58:07.000Z</time>
      </trkpt>
      <trkpt lat="44.06146" lon="1.8768">
        <ele>259</ele>
        <time>2016-04-03T09:58:09.000Z</time>
      </trkpt>
      <trkpt lat="44.06146" lon="1.8768">
        <ele>259</ele>
        <time>2016-04-03T09:58:11.000Z</time>
      </trkpt>
      <trkpt lat="44.0615" lon="1.87667">
        <ele>259</ele>
        <time>2016-04-03T09:58:17.000Z</time>
      </trkpt>
      <trkpt lat="44.06152" lon="1.87658">
        <ele>259</ele>
        <time>2016-04-03T09:58:19.000Z</time>
      </trkpt>
      <trkpt lat="44.06152" lon="1.87658">
        <ele>259</ele>
        <time>2016-04-03T09:58:21.000Z</time>
      </trkpt>
      <trkpt lat="44.06153" lon="1.8765">
        <ele>258</ele>
        <time>2016-04-03T09:58:23.000Z</time>
      </trkpt>
      <trkpt lat="44.06153" lon="1.8765">
        <ele>258</ele>
        <time>2016-04-03T09:58:25.000Z</time>
      </trkpt>
      <trkpt lat="44.06153" lon="1.8765">
        <ele>258</ele>
        <time>2016-04-03T09:58:27.000Z</time>
      </trkpt>
      <trkpt lat="44.06154" lon="1.87644">
        <ele>258</ele>
        <time>2016-04-03T09:58:32.000Z</time>
      </trkpt>
      <trkpt lat="44.06155" lon="1.87637">
        <ele>258</ele>
        <time>2016-04-03T09:58:36.000Z</time>
      </trkpt>
      <trkpt lat="44.06157" lon="1.87629">
        <ele>257</ele>
        <time>2016-04-03T09:58:40.000Z</time>
      </trkpt>
      <trkpt lat="44.06158" lon="1.87623">
        <ele>257</ele>
        <time>2016-04-03T09:58:42.000Z</time>
      </trkpt>
      <trkpt lat="44.06159" lon="1.87617">
        <ele>257</ele>
        <time>2016-04-03T09:58:44.000Z</time>
      </trkpt>
      <trkpt lat="44.06159" lon="1.87617">
        <ele>257</ele>
        <time>2016-04-03T09:58:46.000Z</time>
      </trkpt>
      <trkpt lat="44.06159" lon="1.87617">
        <ele>257</ele>
        <time>2016-04-03T09:58:48.000Z</time>
      </trkpt>
      <trkpt lat="44.06159" lon="1.87617">
        <ele>257</ele>
        <time>2016-04-03T09:58:50.000Z</time>
      </trkpt>
      <trkpt lat="44.06159" lon="1.87617">
        <ele>257</ele>
        <time>2016-04-03T09:58:52.000Z</time>
      </trkpt>
      <trkpt lat="44.06159" lon="1.87617">
        <ele>257</ele>
        <time>2016-04-03T09:58:54.000Z</time>
      </trkpt>
      <trkpt lat="44.06159" lon="1.87617">
        <ele>257</ele>
        <time>2016-04-03T09:58:56.000Z</time>
      </trkpt>
      <trkpt lat="44.06159" lon="1.87617">
        <ele>257</ele>
        <time>2016-04-03T09:59:04.000Z</time>
      </trkpt>
      <trkpt lat="44.06159" lon="1.87617">
        <ele>257</ele>
        <time>2016-04-03T09:59:06.000Z</time>
      </trkpt>
      <trkpt lat="44.06159" lon="1.87617">
        <ele>257</ele>
        <time>2016-04-03T09:59:12.000Z</time>
      </trkpt>
      <trkpt lat="44.06159" lon="1.87617">
        <ele>257</ele>
        <time>2016-04-03T09:59:14.000Z</time>
      </trkpt>
      <trkpt lat="44.06169" lon="1.87589">
        <ele>258</ele>
        <time>2016-04-03T09:59:23.000Z</time>
      </trkpt>
      <trkpt lat="44.06174" lon="1.87575">
        <ele>258</ele>
        <time>2016-04-03T09:59:25.000Z</time>
      </trkpt>
      <trkpt lat="44.06178" lon="1.87566">
        <ele>258</ele>
        <time>2016-04-03T09:59:27.000Z</time>
      </trkpt>
      <trkpt lat="44.06179" lon="1.8756">
        <ele>258</ele>
        <time>2016-04-03T09:59:29.000Z</time>
      </trkpt>
      <trkpt lat="44.06179" lon="1.8756">
        <ele>258</ele>
        <time>2016-04-03T09:59:31.000Z</time>
      </trkpt>
      <trkpt lat="44.06179" lon="1.8756">
        <ele>258</ele>
        <time>2016-04-03T09:59:33.000Z</time>
      </trkpt>
      <trkpt lat="44.06179" lon="1.8756">
        <ele>258</ele>
        <time>2016-04-03T09:59:35.000Z</time>
      </trkpt>
      <trkpt lat="44.06179" lon="1.8756">
        <ele>258</ele>
        <time>2016-04-03T09:59:37.000Z</time>
      </trkpt>
      <trkpt lat="44.06179" lon="1.8756">
        <ele>258</ele>
        <time>2016-04-03T09:59:39.000Z</time>
      </trkpt>
      <trkpt lat="44.06181" lon="1.87551">
        <ele>258</ele>
        <time>2016-04-03T09:59:51.000Z</time>
      </trkpt>
      <trkpt lat="44.06182" lon="1.87544">
        <ele>258</ele>
        <time>2016-04-03T09:59:53.000Z</time>
      </trkpt>
      <trkpt lat="44.06183" lon="1.87537">
        <ele>258</ele>
        <time>2016-04-03T09:59:57.000Z</time>
      </trkpt>
      <trkpt lat="44.06184" lon="1.8753">
        <ele>258</ele>
        <time>2016-04-03T10:00:01.000Z</time>
      </trkpt>
      <trkpt lat="44.06184" lon="1.8753">
        <ele>258</ele>
        <time>2016-04-03T10:00:03.000Z</time>
      </trkpt>
      <trkpt lat="44.06184" lon="1.8753">
        <ele>258</ele>
        <time>2016-04-03T10:00:05.000Z</time>
      </trkpt>
      <trkpt lat="44.06184" lon="1.8753">
        <ele>258</ele>
        <time>2016-04-03T10:00:07.000Z</time>
      </trkpt>
      <trkpt lat="44.06184" lon="1.8753">
        <ele>258</ele>
        <time>2016-04-03T10:00:09.000Z</time>
      </trkpt>
      <trkpt lat="44.06185" lon="1.87519">
        <ele>259</ele>
        <time>2016-04-03T10:00:15.000Z</time>
      </trkpt>
      <trkpt lat="44.06185" lon="1.87511">
        <ele>259</ele>
        <time>2016-04-03T10:00:17.000Z</time>
      </trkpt>
      <trkpt lat="44.06186" lon="1.87504">
        <ele>260</ele>
        <time>2016-04-03T10:00:21.000Z</time>
      </trkpt>
      <trkpt lat="44.06186" lon="1.87504">
        <ele>260</ele>
        <time>2016-04-03T10:00:23.000Z</time>
      </trkpt>
      <trkpt lat="44.06186" lon="1.87504">
        <ele>260</ele>
        <time>2016-04-03T10:00:25.000Z</time>
      </trkpt>
      <trkpt lat="44.06186" lon="1.87504">
        <ele>260</ele>
        <time>2016-04-03T10:00:27.000Z</time>
      </trkpt>
      <trkpt lat="44.06186" lon="1.87492">
        <ele>262</ele>
        <time>2016-04-03T10:00:41.000Z</time>
      </trkpt>
      <trkpt lat="44.06186" lon="1.87485">
        <ele>262</ele>
        <time>2016-04-03T10:00:43.000Z</time>
      </trkpt>
      <trkpt lat="44.06186" lon="1.87485">
        <ele>262</ele>
        <time>2016-04-03T10:00:45.000Z</time>
      </trkpt>
      <trkpt lat="44.06186" lon="1.87485">
        <ele>262</ele>
        <time>2016-04-03T10:00:47.000Z</time>
      </trkpt>
      <trkpt lat="44.06187" lon="1.87477">
        <ele>263</ele>
        <time>2016-04-03T10:00:51.000Z</time>
      </trkpt>
      <trkpt lat="44.06188" lon="1.87471">
        <ele>263</ele>
        <time>2016-04-03T10:00:55.000Z</time>
      </trkpt>
      <trkpt lat="44.06189" lon="1.87464">
        <ele>264</ele>
        <time>2016-04-03T10:00:59.000Z</time>
      </trkpt>
      <trkpt lat="44.0619" lon="1.87457">
        <ele>265</ele>
        <time>2016-04-03T10:01:03.000Z</time>
      </trkpt>
      <trkpt lat="44.06192" lon="1.8745">
        <ele>266</ele>
        <time>2016-04-03T10:01:09.000Z</time>
      </trkpt>
      <trkpt lat="44.06192" lon="1.8745">
        <ele>266</ele>
        <time>2016-04-03T10:01:11.000Z</time>
      </trkpt>
      <trkpt lat="44.06192" lon="1.8745">
        <ele>266</ele>
        <time>2016-04-03T10:01:13.000Z</time>
      </trkpt>
      <trkpt lat="44.06193" lon="1.87441">
        <ele>268</ele>
        <time>2016-04-03T10:01:17.000Z</time>
      </trkpt>
      <trkpt lat="44.06193" lon="1.87441">
        <ele>268</ele>
        <time>2016-04-03T10:01:19.000Z</time>
      </trkpt>
      <trkpt lat="44.06193" lon="1.87441">
        <ele>268</ele>
        <time>2016-04-03T10:01:21.000Z</time>
      </trkpt>
      <trkpt lat="44.06193" lon="1.87441">
        <ele>268</ele>
        <time>2016-04-03T10:01:23.000Z</time>
      </trkpt>
      <trkpt lat="44.06193" lon="1.87441">
        <ele>268</ele>
        <time>2016-04-03T10:01:25.000Z</time>
      </trkpt>
      <trkpt lat="44.06195" lon="1.87426">
        <ele>273</ele>
        <time>2016-04-03T10:01:39.000Z</time>
      </trkpt>
      <trkpt lat="44.06197" lon="1.87417">
        <ele>274</ele>
        <time>2016-04-03T10:01:41.000Z</time>
      </trkpt>
      <trkpt lat="44.06199" lon="1.8741">
        <ele>274</ele>
        <time>2016-04-03T10:01:45.000Z</time>
      </trkpt>
      <trkpt lat="44.062" lon="1.87403">
        <ele>275</ele>
        <time>2016-04-03T10:01:49.000Z</time>
      </trkpt>
      <trkpt lat="44.06202" lon="1.87397">
        <ele>276</ele>
        <time>2016-04-03T10:01:53.000Z</time>
      </trkpt>
      <trkpt lat="44.06204" lon="1.8739">
        <ele>277</ele>
        <time>2016-04-03T10:01:59.000Z</time>
      </trkpt>
      <trkpt lat="44.06204" lon="1.8739">
        <ele>277</ele>
        <time>2016-04-03T10:02:01.000Z</time>
      </trkpt>
      <trkpt lat="44.06204" lon="1.8739">
        <ele>277</ele>
        <time>2016-04-03T10:02:03.000Z</time>
      </trkpt>
      <trkpt lat="44.06204" lon="1.8739">
        <ele>277</ele>
        <time>2016-04-03T10:02:05.000Z</time>
      </trkpt>
      <trkpt lat="44.06204" lon="1.8739">
        <ele>277</ele>
        <time>2016-04-03T10:02:07.000Z</time>
      </trkpt>
      <trkpt lat="44.06204" lon="1.8739">
        <ele>277</ele>
        <time>2016-04-03T10:02:09.000Z</time>
      </trkpt>
      <trkpt lat="44.06204" lon="1.8739">
        <ele>277</ele>
        <time>2016-04-03T10:02:11.000Z</time>
      </trkpt>
      <trkpt lat="44.06204" lon="1.8739">
        <ele>277</ele>
        <time>2016-04-03T10:02:13.000Z</time>
      </trkpt>
      <trkpt lat="44.06212" lon="1.87376">
        <ele>282</ele>
        <time>2016-04-03T10:02:29.000Z</time>
      </trkpt>
      <trkpt lat="44.06217" lon="1.87368">
        <ele>282</ele>
        <time>2016-04-03T10:02:31.000Z</time>
      </trkpt>
      <trkpt lat="44.0622" lon="1.87363">
        <ele>282</ele>
        <time>2016-04-03T10:02:33.000Z</time>
      </trkpt>
      <trkpt lat="44.06223" lon="1.87358">
        <ele>283</ele>
        <time>2016-04-03T10:02:37.000Z</time>
      </trkpt>
      <trkpt lat="44.06226" lon="1.87352">
        <ele>284</ele>
        <time>2016-04-03T10:02:43.000Z</time>
      </trkpt>
      <trkpt lat="44.0623" lon="1.87348">
        <ele>285</ele>
        <time>2016-04-03T10:02:47.000Z</time>
      </trkpt>
      <trkpt lat="44.0623" lon="1.87348">
        <ele>285</ele>
        <time>2016-04-03T10:02:49.000Z</time>
      </trkpt>
      <trkpt lat="44.0623" lon="1.87348">
        <ele>285</ele>
        <time>2016-04-03T10:02:51.000Z</time>
      </trkpt>
      <trkpt lat="44.0623" lon="1.87348">
        <ele>285</ele>
        <time>2016-04-03T10:02:53.000Z</time>
      </trkpt>
      <trkpt lat="44.0623" lon="1.87348">
        <ele>285</ele>
        <time>2016-04-03T10:02:59.000Z</time>
      </trkpt>
      <trkpt lat="44.0623" lon="1.87348">
        <ele>285</ele>
        <time>2016-04-03T10:03:01.000Z</time>
      </trkpt>
      <trkpt lat="44.06239" lon="1.87338">
        <ele>290</ele>
        <time>2016-04-03T10:03:07.000Z</time>
      </trkpt>
      <trkpt lat="44.06239" lon="1.87338">
        <ele>290</ele>
        <time>2016-04-03T10:03:09.000Z</time>
      </trkpt>
      <trkpt lat="44.06245" lon="1.87331">
        <ele>291</ele>
        <time>2016-04-03T10:03:11.000Z</time>
      </trkpt>
      <trkpt lat="44.06249" lon="1.87328">
        <ele>292</ele>
        <time>2016-04-03T10:03:13.000Z</time>
      </trkpt>
      <trkpt lat="44.06253" lon="1.87324">
        <ele>293</ele>
        <time>2016-04-03T10:03:17.000Z</time>
      </trkpt>
      <trkpt lat="44.06257" lon="1.8732">
        <ele>294</ele>
        <time>2016-04-03T10:03:23.000Z</time>
      </trkpt>
      <trkpt lat="44.06261" lon="1.87317">
        <ele>294</ele>
        <time>2016-04-03T10:03:27.000Z</time>
      </trkpt>
      <trkpt lat="44.06266" lon="1.87313">
        <ele>295</ele>
        <time>2016-04-03T10:03:31.000Z</time>
      </trkpt>
      <trkpt lat="44.06266" lon="1.87313">
        <ele>295</ele>
        <time>2016-04-03T10:03:33.000Z</time>
      </trkpt>
      <trkpt lat="44.06266" lon="1.87313">
        <ele>295</ele>
        <time>2016-04-03T10:03:35.000Z</time>
      </trkpt>
      <trkpt lat="44.06266" lon="1.87313">
        <ele>295</ele>
        <time>2016-04-03T10:03:41.000Z</time>
      </trkpt>
      <trkpt lat="44.06266" lon="1.87313">
        <ele>295</ele>
        <time>2016-04-03T10:03:43.000Z</time>
      </trkpt>
      <trkpt lat="44.06276" lon="1.87306">
        <ele>296</ele>
        <time>2016-04-03T10:03:47.000Z</time>
      </trkpt>
      <trkpt lat="44.06281" lon="1.87302">
        <ele>296</ele>
        <time>2016-04-03T10:03:49.000Z</time>
      </trkpt>
      <trkpt lat="44.06281" lon="1.87302">
        <ele>296</ele>
        <time>2016-04-03T10:03:51.000Z</time>
      </trkpt>
      <trkpt lat="44.06286" lon="1.87299">
        <ele>296</ele>
        <time>2016-04-03T10:03:53.000Z</time>
      </trkpt>
      <trkpt lat="44.06286" lon="1.87299">
        <ele>296</ele>
        <time>2016-04-03T10:03:55.000Z</time>
      </trkpt>
      <trkpt lat="44.06286" lon="1.87299">
        <ele>296</ele>
        <time>2016-04-03T10:03:57.000Z</time>
      </trkpt>
      <trkpt lat="44.06286" lon="1.87299">
        <ele>296</ele>
        <time>2016-04-03T10:03:59.000Z</time>
      </trkpt>
      <trkpt lat="44.06292" lon="1.87295">
        <ele>298</ele>
        <time>2016-04-03T10:04:01.000Z</time>
      </trkpt>
      <trkpt lat="44.06292" lon="1.87295">
        <ele>298</ele>
        <time>2016-04-03T10:04:03.000Z</time>
      </trkpt>
      <trkpt lat="44.06296" lon="1.87292">
        <ele>300</ele>
        <time>2016-04-03T10:04:05.000Z</time>
      </trkpt>
      <trkpt lat="44.06296" lon="1.87292">
        <ele>300</ele>
        <time>2016-04-03T10:04:07.000Z</time>
      </trkpt>
      <trkpt lat="44.06296" lon="1.87292">
        <ele>300</ele>
        <time>2016-04-03T10:04:09.000Z</time>
      </trkpt>
      <trkpt lat="44.06296" lon="1.87292">
        <ele>300</ele>
        <time>2016-04-03T10:04:11.000Z</time>
      </trkpt>
      <trkpt lat="44.06296" lon="1.87292">
        <ele>300</ele>
        <time>2016-04-03T10:04:21.000Z</time>
      </trkpt>
      <trkpt lat="44.06296" lon="1.87292">
        <ele>300</ele>
        <time>2016-04-03T10:04:23.000Z</time>
      </trkpt>
      <trkpt lat="44.06306" lon="1.87285">
        <ele>306</ele>
        <time>2016-04-03T10:04:25.000Z</time>
      </trkpt>
      <trkpt lat="44.06313" lon="1.8728">
        <ele>307</ele>
        <time>2016-04-03T10:04:27.000Z</time>
      </trkpt>
      <trkpt lat="44.06318" lon="1.87277">
        <ele>307</ele>
        <time>2016-04-03T10:04:29.000Z</time>
      </trkpt>
      <trkpt lat="44.06318" lon="1.87277">
        <ele>307</ele>
        <time>2016-04-03T10:04:33.000Z</time>
      </trkpt>
      <trkpt lat="44.06318" lon="1.87277">
        <ele>307</ele>
        <time>2016-04-03T10:04:35.000Z</time>
      </trkpt>
      <trkpt lat="44.06318" lon="1.87277">
        <ele>307</ele>
        <time>2016-04-03T10:04:37.000Z</time>
      </trkpt>
      <trkpt lat="44.06318" lon="1.87277">
        <ele>307</ele>
        <time>2016-04-03T10:04:39.000Z</time>
      </trkpt>
      <trkpt lat="44.0633" lon="1.87268">
        <ele>312</ele>
        <time>2016-04-03T10:04:51.000Z</time>
      </trkpt>
      <trkpt lat="44.0633" lon="1.87268">
        <ele>312</ele>
        <time>2016-04-03T10:04:53.000Z</time>
      </trkpt>
      <trkpt lat="44.0633" lon="1.87268">
        <ele>312</ele>
        <time>2016-04-03T10:04:55.000Z</time>
      </trkpt>
      <trkpt lat="44.0633" lon="1.87268">
        <ele>312</ele>
        <time>2016-04-03T10:04:57.000Z</time>
      </trkpt>
      <trkpt lat="44.0633" lon="1.87268">
        <ele>312</ele>
        <time>2016-04-03T10:04:59.000Z</time>
      </trkpt>
      <trkpt lat="44.06352" lon="1.87252">
        <ele>320</ele>
        <time>2016-04-03T10:05:37.000Z</time>
      </trkpt>
      <trkpt lat="44.06366" lon="1.87244">
        <ele>320</ele>
        <time>2016-04-03T10:05:39.000Z</time>
      </trkpt>
      <trkpt lat="44.06373" lon="1.87239">
        <ele>320</ele>
        <time>2016-04-03T10:05:41.000Z</time>
      </trkpt>
      <trkpt lat="44.06379" lon="1.87237">
        <ele>320</ele>
        <time>2016-04-03T10:05:43.000Z</time>
      </trkpt>
      <trkpt lat="44.06383" lon="1.87235">
        <ele>321</ele>
        <time>2016-04-03T10:05:47.000Z</time>
      </trkpt>
      <trkpt lat="44.06383" lon="1.87235">
        <ele>321</ele>
        <time>2016-04-03T10:05:49.000Z</time>
      </trkpt>
      <trkpt lat="44.06383" lon="1.87235">
        <ele>321</ele>
        <time>2016-04-03T10:05:51.000Z</time>
      </trkpt>
      <trkpt lat="44.06389" lon="1.87231">
        <ele>323</ele>
        <time>2016-04-03T10:05:55.000Z</time>
      </trkpt>
      <trkpt lat="44.06394" lon="1.87226">
        <ele>323</ele>
        <time>2016-04-03T10:05:59.000Z</time>
      </trkpt>
      <trkpt lat="44.06397" lon="1.87222">
        <ele>324</ele>
        <time>2016-04-03T10:06:03.000Z</time>
      </trkpt>
      <trkpt lat="44.06397" lon="1.87222">
        <ele>324</ele>
        <time>2016-04-03T10:06:05.000Z</time>
      </trkpt>
      <trkpt lat="44.06401" lon="1.87216">
        <ele>325</ele>
        <time>2016-04-03T10:06:07.000Z</time>
      </trkpt>
      <trkpt lat="44.06404" lon="1.8721">
        <ele>325</ele>
        <time>2016-04-03T10:06:11.000Z</time>
      </trkpt>
      <trkpt lat="44.06406" lon="1.87203">
        <ele>325</ele>
        <time>2016-04-03T10:06:15.000Z</time>
      </trkpt>
      <trkpt lat="44.06409" lon="1.87196">
        <ele>326</ele>
        <time>2016-04-03T10:06:19.000Z</time>
      </trkpt>
      <trkpt lat="44.06409" lon="1.87196">
        <ele>326</ele>
        <time>2016-04-03T10:06:21.000Z</time>
      </trkpt>
      <trkpt lat="44.06409" lon="1.87196">
        <ele>326</ele>
        <time>2016-04-03T10:06:23.000Z</time>
      </trkpt>
      <trkpt lat="44.06409" lon="1.87196">
        <ele>326</ele>
        <time>2016-04-03T10:06:25.000Z</time>
      </trkpt>
      <trkpt lat="44.06412" lon="1.87184">
        <ele>326</ele>
        <time>2016-04-03T10:06:29.000Z</time>
      </trkpt>
      <trkpt lat="44.06414" lon="1.87176">
        <ele>326</ele>
        <time>2016-04-03T10:06:31.000Z</time>
      </trkpt>
      <trkpt lat="44.06414" lon="1.87176">
        <ele>326</ele>
        <time>2016-04-03T10:06:33.000Z</time>
      </trkpt>
      <trkpt lat="44.06414" lon="1.87176">
        <ele>326</ele>
        <time>2016-04-03T10:06:35.000Z</time>
      </trkpt>
      <trkpt lat="44.06416" lon="1.87166">
        <ele>326</ele>
        <time>2016-04-03T10:06:39.000Z</time>
      </trkpt>
      <trkpt lat="44.06417" lon="1.87159">
        <ele>326</ele>
        <time>2016-04-03T10:06:41.000Z</time>
      </trkpt>
      <trkpt lat="44.06417" lon="1.87159">
        <ele>326</ele>
        <time>2016-04-03T10:06:43.000Z</time>
      </trkpt>
      <trkpt lat="44.06417" lon="1.87159">
        <ele>326</ele>
        <time>2016-04-03T10:06:45.000Z</time>
      </trkpt>
      <trkpt lat="44.06417" lon="1.87159">
        <ele>326</ele>
        <time>2016-04-03T10:06:51.000Z</time>
      </trkpt>
      <trkpt lat="44.06417" lon="1.87159">
        <ele>326</ele>
        <time>2016-04-03T10:06:53.000Z</time>
      </trkpt>
      <trkpt lat="44.06417" lon="1.87159">
        <ele>326</ele>
        <time>2016-04-03T10:06:55.000Z</time>
      </trkpt>
      <trkpt lat="44.06417" lon="1.87159">
        <ele>326</ele>
        <time>2016-04-03T10:06:57.000Z</time>
      </trkpt>
      <trkpt lat="44.06419" lon="1.8714">
        <ele>326</ele>
        <time>2016-04-03T10:07:01.000Z</time>
      </trkpt>
      <trkpt lat="44.06421" lon="1.87129">
        <ele>326</ele>
        <time>2016-04-03T10:07:03.000Z</time>
      </trkpt>
      <trkpt lat="44.06421" lon="1.87123">
        <ele>326</ele>
        <time>2016-04-03T10:07:05.000Z</time>
      </trkpt>
      <trkpt lat="44.06421" lon="1.87123">
        <ele>326</ele>
        <time>2016-04-03T10:07:09.000Z</time>
      </trkpt>
      <trkpt lat="44.06421" lon="1.87123">
        <ele>326</ele>
        <time>2016-04-03T10:07:11.000Z</time>
      </trkpt>
      <trkpt lat="44.06421" lon="1.87123">
        <ele>326</ele>
        <time>2016-04-03T10:07:13.000Z</time>
      </trkpt>
      <trkpt lat="44.06421" lon="1.87123">
        <ele>326</ele>
        <time>2016-04-03T10:07:15.000Z</time>
      </trkpt>
      <trkpt lat="44.06421" lon="1.87123">
        <ele>326</ele>
        <time>2016-04-03T10:07:23.000Z</time>
      </trkpt>
      <trkpt lat="44.06424" lon="1.87101">
        <ele>325</ele>
        <time>2016-04-03T10:07:55.000Z</time>
      </trkpt>
      <trkpt lat="44.06425" lon="1.87088">
        <ele>325</ele>
        <time>2016-04-03T10:07:57.000Z</time>
      </trkpt>
      <trkpt lat="44.06427" lon="1.8708">
        <ele>325</ele>
        <time>2016-04-03T10:07:59.000Z</time>
      </trkpt>
      <trkpt lat="44.06429" lon="1.87073">
        <ele>325</ele>
        <time>2016-04-03T10:08:03.000Z</time>
      </trkpt>
      <trkpt lat="44.06429" lon="1.87073">
        <ele>325</ele>
        <time>2016-04-03T10:08:05.000Z</time>
      </trkpt>
      <trkpt lat="44.06429" lon="1.87073">
        <ele>325</ele>
        <time>2016-04-03T10:08:07.000Z</time>
      </trkpt>
      <trkpt lat="44.06429" lon="1.87073">
        <ele>325</ele>
        <time>2016-04-03T10:08:09.000Z</time>
      </trkpt>
      <trkpt lat="44.06429" lon="1.87073">
        <ele>325</ele>
        <time>2016-04-03T10:08:11.000Z</time>
      </trkpt>
      <trkpt lat="44.06431" lon="1.87063">
        <ele>323</ele>
        <time>2016-04-03T10:08:23.000Z</time>
      </trkpt>
      <trkpt lat="44.06432" lon="1.87055">
        <ele>322</ele>
        <time>2016-04-03T10:08:25.000Z</time>
      </trkpt>
      <trkpt lat="44.06432" lon="1.87046">
        <ele>322</ele>
        <time>2016-04-03T10:08:27.000Z</time>
      </trkpt>
      <trkpt lat="44.06431" lon="1.87038">
        <ele>322</ele>
        <time>2016-04-03T10:08:29.000Z</time>
      </trkpt>
      <trkpt lat="44.06432" lon="1.87028">
        <ele>321</ele>
        <time>2016-04-03T10:08:31.000Z</time>
      </trkpt>
      <trkpt lat="44.06431" lon="1.87008">
        <ele>320</ele>
        <time>2016-04-03T10:08:33.000Z</time>
      </trkpt>
      <trkpt lat="44.06431" lon="1.87008">
        <ele>320</ele>
        <time>2016-04-03T10:08:35.000Z</time>
      </trkpt>
      <trkpt lat="44.06431" lon="1.87008">
        <ele>320</ele>
        <time>2016-04-03T10:08:37.000Z</time>
      </trkpt>
      <trkpt lat="44.06431" lon="1.87008">
        <ele>320</ele>
        <time>2016-04-03T10:08:39.000Z</time>
      </trkpt>
      <trkpt lat="44.06431" lon="1.87008">
        <ele>320</ele>
        <time>2016-04-03T10:08:41.000Z</time>
      </trkpt>
      <trkpt lat="44.06431" lon="1.87008">
        <ele>320</ele>
        <time>2016-04-03T10:08:43.000Z</time>
      </trkpt>
      <trkpt lat="44.06431" lon="1.87008">
        <ele>320</ele>
        <time>2016-04-03T10:08:45.000Z</time>
      </trkpt>
      <trkpt lat="44.06431" lon="1.87008">
        <ele>320</ele>
        <time>2016-04-03T10:08:47.000Z</time>
      </trkpt>
      <trkpt lat="44.06416" lon="1.86959">
        <ele>319</ele>
        <time>2016-04-03T10:08:51.000Z</time>
      </trkpt>
      <trkpt lat="44.06416" lon="1.86959">
        <ele>319</ele>
        <time>2016-04-03T10:08:53.000Z</time>
      </trkpt>
      <trkpt lat="44.06416" lon="1.86959">
        <ele>319</ele>
        <time>2016-04-03T10:08:55.000Z</time>
      </trkpt>
      <trkpt lat="44.06408" lon="1.86944">
        <ele>319</ele>
        <time>2016-04-03T10:08:57.000Z</time>
      </trkpt>
      <trkpt lat="44.06408" lon="1.86944">
        <ele>319</ele>
        <time>2016-04-03T10:08:59.000Z</time>
      </trkpt>
      <trkpt lat="44.06408" lon="1.86944">
        <ele>319</ele>
        <time>2016-04-03T10:09:01.000Z</time>
      </trkpt>
      <trkpt lat="44.06408" lon="1.86944">
        <ele>319</ele>
        <time>2016-04-03T10:09:03.000Z</time>
      </trkpt>
      <trkpt lat="44.06408" lon="1.86944">
        <ele>319</ele>
        <time>2016-04-03T10:09:05.000Z</time>
      </trkpt>
      <trkpt lat="44.06408" lon="1.86944">
        <ele>319</ele>
        <time>2016-04-03T10:09:11.000Z</time>
      </trkpt>
      <trkpt lat="44.06408" lon="1.86944">
        <ele>319</ele>
        <time>2016-04-03T10:09:13.000Z</time>
      </trkpt>
      <trkpt lat="44.06408" lon="1.86944">
        <ele>319</ele>
        <time>2016-04-03T10:09:15.000Z</time>
      </trkpt>
      <trkpt lat="44.06408" lon="1.86944">
        <ele>319</ele>
        <time>2016-04-03T10:09:17.000Z</time>
      </trkpt>
      <trkpt lat="44.06391" lon="1.86912">
        <ele>326</ele>
        <time>2016-04-03T10:09:47.000Z</time>
      </trkpt>
      <trkpt lat="44.06381" lon="1.86896">
        <ele>326</ele>
        <time>2016-04-03T10:09:49.000Z</time>
      </trkpt>
      <trkpt lat="44.06381" lon="1.86896">
        <ele>326</ele>
        <time>2016-04-03T10:09:51.000Z</time>
      </trkpt>
      <trkpt lat="44.06381" lon="1.86896">
        <ele>326</ele>
        <time>2016-04-03T10:09:53.000Z</time>
      </trkpt>
      <trkpt lat="44.06381" lon="1.86896">
        <ele>326</ele>
        <time>2016-04-03T10:09:55.000Z</time>
      </trkpt>
      <trkpt lat="44.06381" lon="1.86896">
        <ele>326</ele>
        <time>2016-04-03T10:09:57.000Z</time>
      </trkpt>
      <trkpt lat="44.06381" lon="1.86896">
        <ele>326</ele>
        <time>2016-04-03T10:09:59.000Z</time>
      </trkpt>
      <trkpt lat="44.06373" lon="1.86878">
        <ele>331</ele>
        <time>2016-04-03T10:10:23.000Z</time>
      </trkpt>
      <trkpt lat="44.06368" lon="1.86867">
        <ele>331</ele>
        <time>2016-04-03T10:10:25.000Z</time>
      </trkpt>
      <trkpt lat="44.06364" lon="1.8686">
        <ele>331</ele>
        <time>2016-04-03T10:10:27.000Z</time>
      </trkpt>
      <trkpt lat="44.06364" lon="1.8686">
        <ele>331</ele>
        <time>2016-04-03T10:10:31.000Z</time>
      </trkpt>
      <trkpt lat="44.06364" lon="1.8686">
        <ele>331</ele>
        <time>2016-04-03T10:10:33.000Z</time>
      </trkpt>
      <trkpt lat="44.06358" lon="1.86848">
        <ele>333</ele>
        <time>2016-04-03T10:10:39.000Z</time>
      </trkpt>
      <trkpt lat="44.06355" lon="1.86838">
        <ele>334</ele>
        <time>2016-04-03T10:10:41.000Z</time>
      </trkpt>
      <trkpt lat="44.06354" lon="1.86829">
        <ele>335</ele>
        <time>2016-04-03T10:10:43.000Z</time>
      </trkpt>
      <trkpt lat="44.06354" lon="1.86822">
        <ele>336</ele>
        <time>2016-04-03T10:10:45.000Z</time>
      </trkpt>
      <trkpt lat="44.06354" lon="1.86822">
        <ele>336</ele>
        <time>2016-04-03T10:10:47.000Z</time>
      </trkpt>
      <trkpt lat="44.06354" lon="1.86822">
        <ele>336</ele>
        <time>2016-04-03T10:10:49.000Z</time>
      </trkpt>
      <trkpt lat="44.06354" lon="1.86822">
        <ele>336</ele>
        <time>2016-04-03T10:10:51.000Z</time>
      </trkpt>
      <trkpt lat="44.06354" lon="1.86822">
        <ele>336</ele>
        <time>2016-04-03T10:10:57.000Z</time>
      </trkpt>
      <trkpt lat="44.06354" lon="1.86822">
        <ele>336</ele>
        <time>2016-04-03T10:10:59.000Z</time>
      </trkpt>
      <trkpt lat="44.06354" lon="1.86822">
        <ele>336</ele>
        <time>2016-04-03T10:11:01.000Z</time>
      </trkpt>
      <trkpt lat="44.06366" lon="1.86815">
        <ele>341</ele>
        <time>2016-04-03T10:11:05.000Z</time>
      </trkpt>
      <trkpt lat="44.06375" lon="1.86812">
        <ele>342</ele>
        <time>2016-04-03T10:11:07.000Z</time>
      </trkpt>
      <trkpt lat="44.06381" lon="1.8681">
        <ele>343</ele>
        <time>2016-04-03T10:11:09.000Z</time>
      </trkpt>
      <trkpt lat="44.06386" lon="1.86808">
        <ele>344</ele>
        <time>2016-04-03T10:11:11.000Z</time>
      </trkpt>
      <trkpt lat="44.0639" lon="1.86802">
        <ele>345</ele>
        <time>2016-04-03T10:11:15.000Z</time>
      </trkpt>
      <trkpt lat="44.06393" lon="1.86797">
        <ele>345</ele>
        <time>2016-04-03T10:11:17.000Z</time>
      </trkpt>
      <trkpt lat="44.06396" lon="1.86793">
        <ele>346</ele>
        <time>2016-04-03T10:11:19.000Z</time>
      </trkpt>
      <trkpt lat="44.064" lon="1.8679">
        <ele>346</ele>
        <time>2016-04-03T10:11:21.000Z</time>
      </trkpt>
      <trkpt lat="44.06405" lon="1.86788">
        <ele>346</ele>
        <time>2016-04-03T10:11:23.000Z</time>
      </trkpt>
      <trkpt lat="44.06415" lon="1.86785">
        <ele>346</ele>
        <time>2016-04-03T10:11:25.000Z</time>
      </trkpt>
      <trkpt lat="44.06427" lon="1.86781">
        <ele>346</ele>
        <time>2016-04-03T10:11:29.000Z</time>
      </trkpt>
      <trkpt lat="44.06436" lon="1.86772">
        <ele>345</ele>
        <time>2016-04-03T10:11:33.000Z</time>
      </trkpt>
      <trkpt lat="44.06436" lon="1.86772">
        <ele>345</ele>
        <time>2016-04-03T10:11:35.000Z</time>
      </trkpt>
      <trkpt lat="44.06436" lon="1.86772">
        <ele>345</ele>
        <time>2016-04-03T10:11:37.000Z</time>
      </trkpt>
      <trkpt lat="44.06436" lon="1.86772">
        <ele>345</ele>
        <time>2016-04-03T10:11:39.000Z</time>
      </trkpt>
      <trkpt lat="44.06449" lon="1.86742">
        <ele>343</ele>
        <time>2016-04-03T10:11:43.000Z</time>
      </trkpt>
      <trkpt lat="44.06451" lon="1.86725">
        <ele>342</ele>
        <time>2016-04-03T10:11:47.000Z</time>
      </trkpt>
      <trkpt lat="44.06448" lon="1.86709">
        <ele>342</ele>
        <time>2016-04-03T10:11:51.000Z</time>
      </trkpt>
      <trkpt lat="44.06448" lon="1.86709">
        <ele>342</ele>
        <time>2016-04-03T10:11:53.000Z</time>
      </trkpt>
      <trkpt lat="44.06439" lon="1.86699">
        <ele>341</ele>
        <time>2016-04-03T10:11:55.000Z</time>
      </trkpt>
      <trkpt lat="44.06425" lon="1.86695">
        <ele>340</ele>
        <time>2016-04-03T10:11:59.000Z</time>
      </trkpt>
      <trkpt lat="44.0641" lon="1.86689">
        <ele>339</ele>
        <time>2016-04-03T10:12:03.000Z</time>
      </trkpt>
      <trkpt lat="44.06407" lon="1.8667">
        <ele>337</ele>
        <time>2016-04-03T10:12:07.000Z</time>
      </trkpt>
      <trkpt lat="44.06407" lon="1.8667">
        <ele>337</ele>
        <time>2016-04-03T10:12:09.000Z</time>
      </trkpt>
      <trkpt lat="44.06407" lon="1.8667">
        <ele>337</ele>
        <time>2016-04-03T10:12:11.000Z</time>
      </trkpt>
      <trkpt lat="44.06407" lon="1.8667">
        <ele>337</ele>
        <time>2016-04-03T10:12:13.000Z</time>
      </trkpt>
      <trkpt lat="44.06407" lon="1.8667">
        <ele>337</ele>
        <time>2016-04-03T10:12:15.000Z</time>
      </trkpt>
      <trkpt lat="44.06419" lon="1.86616">
        <ele>339</ele>
        <time>2016-04-03T10:12:21.000Z</time>
      </trkpt>
      <trkpt lat="44.06422" lon="1.866">
        <ele>339</ele>
        <time>2016-04-03T10:12:25.000Z</time>
      </trkpt>
      <trkpt lat="44.06422" lon="1.866">
        <ele>339</ele>
        <time>2016-04-03T10:12:27.000Z</time>
      </trkpt>
      <trkpt lat="44.06422" lon="1.866">
        <ele>339</ele>
        <time>2016-04-03T10:12:29.000Z</time>
      </trkpt>
      <trkpt lat="44.06422" lon="1.866">
        <ele>339</ele>
        <time>2016-04-03T10:12:31.000Z</time>
      </trkpt>
      <trkpt lat="44.06418" lon="1.86587">
        <ele>339</ele>
        <time>2016-04-03T10:13:14.000Z</time>
      </trkpt>
      <trkpt lat="44.06415" lon="1.8658">
        <ele>339</ele>
        <time>2016-04-03T10:13:18.000Z</time>
      </trkpt>
      <trkpt lat="44.06412" lon="1.86574">
        <ele>339</ele>
        <time>2016-04-03T10:13:20.000Z</time>
      </trkpt>
      <trkpt lat="44.06409" lon="1.86569">
        <ele>339</ele>
        <time>2016-04-03T10:13:22.000Z</time>
      </trkpt>
      <trkpt lat="44.06409" lon="1.86569">
        <ele>339</ele>
        <time>2016-04-03T10:13:24.000Z</time>
      </trkpt>
      <trkpt lat="44.06409" lon="1.86569">
        <ele>339</ele>
        <time>2016-04-03T10:13:26.000Z</time>
      </trkpt>
      <trkpt lat="44.06409" lon="1.86569">
        <ele>339</ele>
        <time>2016-04-03T10:13:28.000Z</time>
      </trkpt>
      <trkpt lat="44.06407" lon="1.86559">
        <ele>347</ele>
        <time>2016-04-03T10:26:30.000Z</time>
      </trkpt>
      <trkpt lat="44.06413" lon="1.8656">
        <ele>347</ele>
        <time>2016-04-03T10:26:36.000Z</time>
      </trkpt>
      <trkpt lat="44.06413" lon="1.8656">
        <ele>347</ele>
        <time>2016-04-03T10:26:38.000Z</time>
      </trkpt>
      <trkpt lat="44.06413" lon="1.8656">
        <ele>347</ele>
        <time>2016-04-03T10:26:40.000Z</time>
      </trkpt>
      <trkpt lat="44.06411" lon="1.86553">
        <ele>347</ele>
        <time>2016-04-03T10:26:46.000Z</time>
      </trkpt>
      <trkpt lat="44.06407" lon="1.86547">
        <ele>347</ele>
        <time>2016-04-03T10:26:50.000Z</time>
      </trkpt>
      <trkpt lat="44.06402" lon="1.86541">
        <ele>346</ele>
        <time>2016-04-03T10:26:52.000Z</time>
      </trkpt>
      <trkpt lat="44.06396" lon="1.86536">
        <ele>346</ele>
        <time>2016-04-03T10:26:54.000Z</time>
      </trkpt>
      <trkpt lat="44.0639" lon="1.86531">
        <ele>345</ele>
        <time>2016-04-03T10:26:56.000Z</time>
      </trkpt>
      <trkpt lat="44.06384" lon="1.86527">
        <ele>345</ele>
        <time>2016-04-03T10:26:58.000Z</time>
      </trkpt>
      <trkpt lat="44.06372" lon="1.86518">
        <ele>344</ele>
        <time>2016-04-03T10:27:00.000Z</time>
      </trkpt>
      <trkpt lat="44.06372" lon="1.86518">
        <ele>344</ele>
        <time>2016-04-03T10:27:02.000Z</time>
      </trkpt>
      <trkpt lat="44.06372" lon="1.86518">
        <ele>344</ele>
        <time>2016-04-03T10:27:04.000Z</time>
      </trkpt>
      <trkpt lat="44.06372" lon="1.86518">
        <ele>344</ele>
        <time>2016-04-03T10:27:06.000Z</time>
      </trkpt>
      <trkpt lat="44.06372" lon="1.86518">
        <ele>344</ele>
        <time>2016-04-03T10:27:08.000Z</time>
      </trkpt>
      <trkpt lat="44.06372" lon="1.86518">
        <ele>344</ele>
        <time>2016-04-03T10:27:10.000Z</time>
      </trkpt>
      <trkpt lat="44.06372" lon="1.86518">
        <ele>344</ele>
        <time>2016-04-03T10:27:12.000Z</time>
      </trkpt>
      <trkpt lat="44.06344" lon="1.86486">
        <ele>341</ele>
        <time>2016-04-03T10:27:16.000Z</time>
      </trkpt>
      <trkpt lat="44.06348" lon="1.86473">
        <ele>340</ele>
        <time>2016-04-03T10:27:20.000Z</time>
      </trkpt>
      <trkpt lat="44.06355" lon="1.86463">
        <ele>339</ele>
        <time>2016-04-03T10:27:24.000Z</time>
      </trkpt>
      <trkpt lat="44.06355" lon="1.86463">
        <ele>339</ele>
        <time>2016-04-03T10:27:26.000Z</time>
      </trkpt>
      <trkpt lat="44.06355" lon="1.86463">
        <ele>339</ele>
        <time>2016-04-03T10:27:28.000Z</time>
      </trkpt>
      <trkpt lat="44.06355" lon="1.86463">
        <ele>339</ele>
        <time>2016-04-03T10:27:30.000Z</time>
      </trkpt>
      <trkpt lat="44.06345" lon="1.86472">
        <ele>337</ele>
        <time>2016-04-03T10:27:38.000Z</time>
      </trkpt>
      <trkpt lat="44.06332" lon="1.86475">
        <ele>336</ele>
        <time>2016-04-03T10:27:42.000Z</time>
      </trkpt>
      <trkpt lat="44.06332" lon="1.86475">
        <ele>336</ele>
        <time>2016-04-03T10:27:44.000Z</time>
      </trkpt>
      <trkpt lat="44.06323" lon="1.86479">
        <ele>335</ele>
        <time>2016-04-03T10:27:46.000Z</time>
      </trkpt>
      <trkpt lat="44.06323" lon="1.86479">
        <ele>335</ele>
        <time>2016-04-03T10:27:48.000Z</time>
      </trkpt>
      <trkpt lat="44.06323" lon="1.86479">
        <ele>335</ele>
        <time>2016-04-03T10:27:50.000Z</time>
      </trkpt>
      <trkpt lat="44.06323" lon="1.86479">
        <ele>335</ele>
        <time>2016-04-03T10:27:52.000Z</time>
      </trkpt>
      <trkpt lat="44.06312" lon="1.86474">
        <ele>334</ele>
        <time>2016-04-03T10:27:56.000Z</time>
      </trkpt>
      <trkpt lat="44.06309" lon="1.86459">
        <ele>334</ele>
        <time>2016-04-03T10:28:00.000Z</time>
      </trkpt>
      <trkpt lat="44.06303" lon="1.86443">
        <ele>333</ele>
        <time>2016-04-03T10:28:04.000Z</time>
      </trkpt>
      <trkpt lat="44.06294" lon="1.86425">
        <ele>331</ele>
        <time>2016-04-03T10:28:08.000Z</time>
      </trkpt>
      <trkpt lat="44.06284" lon="1.86405">
        <ele>329</ele>
        <time>2016-04-03T10:28:12.000Z</time>
      </trkpt>
      <trkpt lat="44.06274" lon="1.86384">
        <ele>327</ele>
        <time>2016-04-03T10:28:16.000Z</time>
      </trkpt>
      <trkpt lat="44.06269" lon="1.86373">
        <ele>326</ele>
        <time>2016-04-03T10:28:18.000Z</time>
      </trkpt>
      <trkpt lat="44.06264" lon="1.86361">
        <ele>325</ele>
        <time>2016-04-03T10:28:20.000Z</time>
      </trkpt>
      <trkpt lat="44.06257" lon="1.86349">
        <ele>324</ele>
        <time>2016-04-03T10:28:22.000Z</time>
      </trkpt>
      <trkpt lat="44.0625" lon="1.86335">
        <ele>323</ele>
        <time>2016-04-03T10:28:24.000Z</time>
      </trkpt>
      <trkpt lat="44.06241" lon="1.8632">
        <ele>322</ele>
        <time>2016-04-03T10:28:26.000Z</time>
      </trkpt>
      <trkpt lat="44.06231" lon="1.86308">
        <ele>321</ele>
        <time>2016-04-03T10:28:28.000Z</time>
      </trkpt>
      <trkpt lat="44.06219" lon="1.86301">
        <ele>320</ele>
        <time>2016-04-03T10:28:30.000Z</time>
      </trkpt>
      <trkpt lat="44.06209" lon="1.86295">
        <ele>320</ele>
        <time>2016-04-03T10:28:32.000Z</time>
      </trkpt>
      <trkpt lat="44.06209" lon="1.86295">
        <ele>320</ele>
        <time>2016-04-03T10:28:34.000Z</time>
      </trkpt>
      <trkpt lat="44.06209" lon="1.86295">
        <ele>320</ele>
        <time>2016-04-03T10:28:36.000Z</time>
      </trkpt>
      <trkpt lat="44.06209" lon="1.86295">
        <ele>320</ele>
        <time>2016-04-03T10:28:38.000Z</time>
      </trkpt>
      <trkpt lat="44.06209" lon="1.86295">
        <ele>320</ele>
        <time>2016-04-03T10:28:40.000Z</time>
      </trkpt>
      <trkpt lat="44.06209" lon="1.86295">
        <ele>320</ele>
        <time>2016-04-03T10:28:42.000Z</time>
      </trkpt>
      <trkpt lat="44.06209" lon="1.86295">
        <ele>320</ele>
        <time>2016-04-03T10:28:44.000Z</time>
      </trkpt>
      <trkpt lat="44.06209" lon="1.86295">
        <ele>320</ele>
        <time>2016-04-03T10:28:46.000Z</time>
      </trkpt>
      <trkpt lat="44.06209" lon="1.86295">
        <ele>320</ele>
        <time>2016-04-03T10:28:48.000Z</time>
      </trkpt>
      <trkpt lat="44.06209" lon="1.86295">
        <ele>320</ele>
        <time>2016-04-03T10:28:50.000Z</time>
      </trkpt>
      <trkpt lat="44.06186" lon="1.86278">
        <ele>324</ele>
        <time>2016-04-03T10:28:56.000Z</time>
      </trkpt>
      <trkpt lat="44.06173" lon="1.86266">
        <ele>324</ele>
        <time>2016-04-03T10:28:58.000Z</time>
      </trkpt>
      <trkpt lat="44.06165" lon="1.86259">
        <ele>325</ele>
        <time>2016-04-03T10:29:00.000Z</time>
      </trkpt>
      <trkpt lat="44.06159" lon="1.86253">
        <ele>325</ele>
        <time>2016-04-03T10:29:02.000Z</time>
      </trkpt>
      <trkpt lat="44.06154" lon="1.86248">
        <ele>325</ele>
        <time>2016-04-03T10:29:04.000Z</time>
      </trkpt>
      <trkpt lat="44.06145" lon="1.86238">
        <ele>325</ele>
        <time>2016-04-03T10:29:06.000Z</time>
      </trkpt>
      <trkpt lat="44.06145" lon="1.86238">
        <ele>325</ele>
        <time>2016-04-03T10:29:08.000Z</time>
      </trkpt>
      <trkpt lat="44.06138" lon="1.86229">
        <ele>326</ele>
        <time>2016-04-03T10:29:10.000Z</time>
      </trkpt>
      <trkpt lat="44.06138" lon="1.86229">
        <ele>326</ele>
        <time>2016-04-03T10:29:12.000Z</time>
      </trkpt>
      <trkpt lat="44.06138" lon="1.86229">
        <ele>326</ele>
        <time>2016-04-03T10:29:14.000Z</time>
      </trkpt>
      <trkpt lat="44.06138" lon="1.86229">
        <ele>326</ele>
        <time>2016-04-03T10:29:16.000Z</time>
      </trkpt>
      <trkpt lat="44.06138" lon="1.86229">
        <ele>326</ele>
        <time>2016-04-03T10:29:18.000Z</time>
      </trkpt>
      <trkpt lat="44.06113" lon="1.86209">
        <ele>328</ele>
        <time>2016-04-03T10:29:24.000Z</time>
      </trkpt>
      <trkpt lat="44.06105" lon="1.86197">
        <ele>329</ele>
        <time>2016-04-03T10:29:30.000Z</time>
      </trkpt>
      <trkpt lat="44.06105" lon="1.86197">
        <ele>329</ele>
        <time>2016-04-03T10:29:34.000Z</time>
      </trkpt>
      <trkpt lat="44.06095" lon="1.86186">
        <ele>330</ele>
        <time>2016-04-03T10:29:36.000Z</time>
      </trkpt>
      <trkpt lat="44.06087" lon="1.86179">
        <ele>331</ele>
        <time>2016-04-03T10:29:40.000Z</time>
      </trkpt>
      <trkpt lat="44.06077" lon="1.86168">
        <ele>331</ele>
        <time>2016-04-03T10:29:46.000Z</time>
      </trkpt>
      <trkpt lat="44.06077" lon="1.86168">
        <ele>331</ele>
        <time>2016-04-03T10:29:48.000Z</time>
      </trkpt>
      <trkpt lat="44.06077" lon="1.86168">
        <ele>331</ele>
        <time>2016-04-03T10:29:50.000Z</time>
      </trkpt>
      <trkpt lat="44.06077" lon="1.86168">
        <ele>331</ele>
        <time>2016-04-03T10:29:52.000Z</time>
      </trkpt>
      <trkpt lat="44.06077" lon="1.86168">
        <ele>331</ele>
        <time>2016-04-03T10:29:54.000Z</time>
      </trkpt>
      <trkpt lat="44.06077" lon="1.86168">
        <ele>331</ele>
        <time>2016-04-03T10:29:56.000Z</time>
      </trkpt>
      <trkpt lat="44.06048" lon="1.86144">
        <ele>332</ele>
        <time>2016-04-03T10:30:02.000Z</time>
      </trkpt>
      <trkpt lat="44.06038" lon="1.86138">
        <ele>332</ele>
        <time>2016-04-03T10:30:06.000Z</time>
      </trkpt>
      <trkpt lat="44.06028" lon="1.86132">
        <ele>332</ele>
        <time>2016-04-03T10:30:10.000Z</time>
      </trkpt>
      <trkpt lat="44.06019" lon="1.86125">
        <ele>332</ele>
        <time>2016-04-03T10:30:14.000Z</time>
      </trkpt>
      <trkpt lat="44.06019" lon="1.86125">
        <ele>332</ele>
        <time>2016-04-03T10:30:16.000Z</time>
      </trkpt>
      <trkpt lat="44.06019" lon="1.86125">
        <ele>332</ele>
        <time>2016-04-03T10:30:18.000Z</time>
      </trkpt>
      <trkpt lat="44.06001" lon="1.86106">
        <ele>331</ele>
        <time>2016-04-03T10:30:22.000Z</time>
      </trkpt>
      <trkpt lat="44.0599" lon="1.86092">
        <ele>330</ele>
        <time>2016-04-03T10:30:26.000Z</time>
      </trkpt>
      <trkpt lat="44.05976" lon="1.86075">
        <ele>328</ele>
        <time>2016-04-03T10:30:30.000Z</time>
      </trkpt>
      <trkpt lat="44.0597" lon="1.86066">
        <ele>327</ele>
        <time>2016-04-03T10:30:32.000Z</time>
      </trkpt>
      <trkpt lat="44.05963" lon="1.86056">
        <ele>326</ele>
        <time>2016-04-03T10:30:34.000Z</time>
      </trkpt>
      <trkpt lat="44.05957" lon="1.86044">
        <ele>325</ele>
        <time>2016-04-03T10:30:36.000Z</time>
      </trkpt>
      <trkpt lat="44.05949" lon="1.86031">
        <ele>325</ele>
        <time>2016-04-03T10:30:38.000Z</time>
      </trkpt>
      <trkpt lat="44.05943" lon="1.86019">
        <ele>324</ele>
        <time>2016-04-03T10:30:40.000Z</time>
      </trkpt>
      <trkpt lat="44.05936" lon="1.86008">
        <ele>324</ele>
        <time>2016-04-03T10:30:42.000Z</time>
      </trkpt>
      <trkpt lat="44.05928" lon="1.85999">
        <ele>324</ele>
        <time>2016-04-03T10:30:44.000Z</time>
      </trkpt>
      <trkpt lat="44.05928" lon="1.85999">
        <ele>324</ele>
        <time>2016-04-03T10:30:46.000Z</time>
      </trkpt>
      <trkpt lat="44.05928" lon="1.85999">
        <ele>324</ele>
        <time>2016-04-03T10:30:48.000Z</time>
      </trkpt>
      <trkpt lat="44.05928" lon="1.85999">
        <ele>324</ele>
        <time>2016-04-03T10:30:50.000Z</time>
      </trkpt>
      <trkpt lat="44.05928" lon="1.85999">
        <ele>324</ele>
        <time>2016-04-03T10:30:52.000Z</time>
      </trkpt>
      <trkpt lat="44.05928" lon="1.85999">
        <ele>324</ele>
        <time>2016-04-03T10:30:56.000Z</time>
      </trkpt>
      <trkpt lat="44.05928" lon="1.85999">
        <ele>324</ele>
        <time>2016-04-03T10:30:58.000Z</time>
      </trkpt>
      <trkpt lat="44.05928" lon="1.85999">
        <ele>324</ele>
        <time>2016-04-03T10:31:00.000Z</time>
      </trkpt>
      <trkpt lat="44.05928" lon="1.85999">
        <ele>324</ele>
        <time>2016-04-03T10:31:02.000Z</time>
      </trkpt>
      <trkpt lat="44.05928" lon="1.85999">
        <ele>324</ele>
        <time>2016-04-03T10:31:04.000Z</time>
      </trkpt>
      <trkpt lat="44.05928" lon="1.85999">
        <ele>324</ele>
        <time>2016-04-03T10:31:06.000Z</time>
      </trkpt>
      <trkpt lat="44.05928" lon="1.85999">
        <ele>324</ele>
        <time>2016-04-03T10:31:08.000Z</time>
      </trkpt>
      <trkpt lat="44.05928" lon="1.85999">
        <ele>324</ele>
        <time>2016-04-03T10:31:10.000Z</time>
      </trkpt>
      <trkpt lat="44.05928" lon="1.85999">
        <ele>324</ele>
        <time>2016-04-03T10:31:12.000Z</time>
      </trkpt>
      <trkpt lat="44.05928" lon="1.85999">
        <ele>324</ele>
        <time>2016-04-03T10:31:14.000Z</time>
      </trkpt>
      <trkpt lat="44.05928" lon="1.85999">
        <ele>324</ele>
        <time>2016-04-03T10:31:16.000Z</time>
      </trkpt>
      <trkpt lat="44.05928" lon="1.85999">
        <ele>324</ele>
        <time>2016-04-03T10:31:18.000Z</time>
      </trkpt>
      <trkpt lat="44.05928" lon="1.85999">
        <ele>324</ele>
        <time>2016-04-03T10:31:26.000Z</time>
      </trkpt>
      <trkpt lat="44.05928" lon="1.85999">
        <ele>324</ele>
        <time>2016-04-03T10:31:28.000Z</time>
      </trkpt>
      <trkpt lat="44.05928" lon="1.85999">
        <ele>324</ele>
        <time>2016-04-03T10:31:30.000Z</time>
      </trkpt>
      <trkpt lat="44.05878" lon="1.8595">
        <ele>330</ele>
        <time>2016-04-03T10:31:36.000Z</time>
      </trkpt>
      <trkpt lat="44.05852" lon="1.85925">
        <ele>330</ele>
        <time>2016-04-03T10:31:38.000Z</time>
      </trkpt>
      <trkpt lat="44.05838" lon="1.8591">
        <ele>330</ele>
        <time>2016-04-03T10:31:40.000Z</time>
      </trkpt>
      <trkpt lat="44.0583" lon="1.85902">
        <ele>330</ele>
        <time>2016-04-03T10:31:42.000Z</time>
      </trkpt>
      <trkpt lat="44.05825" lon="1.85896">
        <ele>329</ele>
        <time>2016-04-03T10:31:44.000Z</time>
      </trkpt>
      <trkpt lat="44.05825" lon="1.85896">
        <ele>329</ele>
        <time>2016-04-03T10:31:46.000Z</time>
      </trkpt>
      <trkpt lat="44.05825" lon="1.85896">
        <ele>329</ele>
        <time>2016-04-03T10:31:48.000Z</time>
      </trkpt>
      <trkpt lat="44.05814" lon="1.85886">
        <ele>329</ele>
        <time>2016-04-03T10:32:10.000Z</time>
      </trkpt>
      <trkpt lat="44.05809" lon="1.85875">
        <ele>329</ele>
        <time>2016-04-03T10:32:18.000Z</time>
      </trkpt>
      <trkpt lat="44.05803" lon="1.85864">
        <ele>329</ele>
        <time>2016-04-03T10:32:24.000Z</time>
      </trkpt>
      <trkpt lat="44.05795" lon="1.85848">
        <ele>329</ele>
        <time>2016-04-03T10:32:30.000Z</time>
      </trkpt>
      <trkpt lat="44.05787" lon="1.85837">
        <ele>328</ele>
        <time>2016-04-03T10:32:34.000Z</time>
      </trkpt>
      <trkpt lat="44.0578" lon="1.85827">
        <ele>328</ele>
        <time>2016-04-03T10:32:38.000Z</time>
      </trkpt>
      <trkpt lat="44.0578" lon="1.85827">
        <ele>328</ele>
        <time>2016-04-03T10:32:40.000Z</time>
      </trkpt>
      <trkpt lat="44.05772" lon="1.85817">
        <ele>328</ele>
        <time>2016-04-03T10:32:42.000Z</time>
      </trkpt>
      <trkpt lat="44.05763" lon="1.85807">
        <ele>328</ele>
        <time>2016-04-03T10:32:46.000Z</time>
      </trkpt>
      <trkpt lat="44.05763" lon="1.85807">
        <ele>328</ele>
        <time>2016-04-03T10:32:50.000Z</time>
      </trkpt>
      <trkpt lat="44.05763" lon="1.85807">
        <ele>328</ele>
        <time>2016-04-03T10:32:52.000Z</time>
      </trkpt>
      <trkpt lat="44.05763" lon="1.85807">
        <ele>328</ele>
        <time>2016-04-03T10:32:54.000Z</time>
      </trkpt>
      <trkpt lat="44.05763" lon="1.85807">
        <ele>328</ele>
        <time>2016-04-03T10:32:56.000Z</time>
      </trkpt>
      <trkpt lat="44.05763" lon="1.85807">
        <ele>328</ele>
        <time>2016-04-03T10:32:58.000Z</time>
      </trkpt>
      <trkpt lat="44.05763" lon="1.85807">
        <ele>328</ele>
        <time>2016-04-03T10:33:00.000Z</time>
      </trkpt>
      <trkpt lat="44.05731" lon="1.85791">
        <ele>327</ele>
        <time>2016-04-03T10:33:06.000Z</time>
      </trkpt>
      <trkpt lat="44.0572" lon="1.85789">
        <ele>327</ele>
        <time>2016-04-03T10:33:12.000Z</time>
      </trkpt>
      <trkpt lat="44.05709" lon="1.85788">
        <ele>326</ele>
        <time>2016-04-03T10:33:16.000Z</time>
      </trkpt>
      <trkpt lat="44.05696" lon="1.85792">
        <ele>325</ele>
        <time>2016-04-03T10:33:20.000Z</time>
      </trkpt>
      <trkpt lat="44.0569" lon="1.85793">
        <ele>324</ele>
        <time>2016-04-03T10:33:24.000Z</time>
      </trkpt>
      <trkpt lat="44.05683" lon="1.85795">
        <ele>324</ele>
        <time>2016-04-03T10:33:26.000Z</time>
      </trkpt>
      <trkpt lat="44.05676" lon="1.85797">
        <ele>324</ele>
        <time>2016-04-03T10:33:28.000Z</time>
      </trkpt>
      <trkpt lat="44.05669" lon="1.858">
        <ele>325</ele>
        <time>2016-04-03T10:33:30.000Z</time>
      </trkpt>
      <trkpt lat="44.05661" lon="1.85802">
        <ele>324</ele>
        <time>2016-04-03T10:33:32.000Z</time>
      </trkpt>
      <trkpt lat="44.05646" lon="1.85807">
        <ele>324</ele>
        <time>2016-04-03T10:33:34.000Z</time>
      </trkpt>
      <trkpt lat="44.05646" lon="1.85807">
        <ele>324</ele>
        <time>2016-04-03T10:33:36.000Z</time>
      </trkpt>
      <trkpt lat="44.05624" lon="1.85821">
        <ele>323</ele>
        <time>2016-04-03T10:33:40.000Z</time>
      </trkpt>
      <trkpt lat="44.0561" lon="1.85833">
        <ele>322</ele>
        <time>2016-04-03T10:33:44.000Z</time>
      </trkpt>
      <trkpt lat="44.05595" lon="1.85845">
        <ele>322</ele>
        <time>2016-04-03T10:33:48.000Z</time>
      </trkpt>
      <trkpt lat="44.05595" lon="1.85845">
        <ele>322</ele>
        <time>2016-04-03T10:33:50.000Z</time>
      </trkpt>
      <trkpt lat="44.05579" lon="1.85856">
        <ele>321</ele>
        <time>2016-04-03T10:33:52.000Z</time>
      </trkpt>
      <trkpt lat="44.05571" lon="1.85863">
        <ele>320</ele>
        <time>2016-04-03T10:33:54.000Z</time>
      </trkpt>
      <trkpt lat="44.05562" lon="1.85871">
        <ele>320</ele>
        <time>2016-04-03T10:33:56.000Z</time>
      </trkpt>
      <trkpt lat="44.05553" lon="1.85878">
        <ele>319</ele>
        <time>2016-04-03T10:33:58.000Z</time>
      </trkpt>
      <trkpt lat="44.05545" lon="1.85885">
        <ele>318</ele>
        <time>2016-04-03T10:34:00.000Z</time>
      </trkpt>
      <trkpt lat="44.05536" lon="1.85892">
        <ele>317</ele>
        <time>2016-04-03T10:34:02.000Z</time>
      </trkpt>
      <trkpt lat="44.05526" lon="1.859">
        <ele>316</ele>
        <time>2016-04-03T10:34:04.000Z</time>
      </trkpt>
      <trkpt lat="44.05515" lon="1.85909">
        <ele>315</ele>
        <time>2016-04-03T10:34:06.000Z</time>
      </trkpt>
      <trkpt lat="44.05506" lon="1.85921">
        <ele>315</ele>
        <time>2016-04-03T10:34:08.000Z</time>
      </trkpt>
      <trkpt lat="44.05498" lon="1.85933">
        <ele>314</ele>
        <time>2016-04-03T10:34:10.000Z</time>
      </trkpt>
      <trkpt lat="44.0549" lon="1.85945">
        <ele>313</ele>
        <time>2016-04-03T10:34:12.000Z</time>
      </trkpt>
      <trkpt lat="44.05482" lon="1.85959">
        <ele>312</ele>
        <time>2016-04-03T10:34:14.000Z</time>
      </trkpt>
      <trkpt lat="44.05475" lon="1.85971">
        <ele>311</ele>
        <time>2016-04-03T10:34:16.000Z</time>
      </trkpt>
      <trkpt lat="44.05467" lon="1.85981">
        <ele>309</ele>
        <time>2016-04-03T10:34:18.000Z</time>
      </trkpt>
      <trkpt lat="44.05467" lon="1.85981">
        <ele>309</ele>
        <time>2016-04-03T10:34:20.000Z</time>
      </trkpt>
      <trkpt lat="44.05467" lon="1.85981">
        <ele>309</ele>
        <time>2016-04-03T10:34:22.000Z</time>
      </trkpt>
      <trkpt lat="44.05467" lon="1.85981">
        <ele>309</ele>
        <time>2016-04-03T10:34:24.000Z</time>
      </trkpt>
      <trkpt lat="44.05467" lon="1.85981">
        <ele>309</ele>
        <time>2016-04-03T10:34:26.000Z</time>
      </trkpt>
      <trkpt lat="44.05421" lon="1.86035">
        <ele>302</ele>
        <time>2016-04-03T10:34:30.000Z</time>
      </trkpt>
      <trkpt lat="44.05414" lon="1.86044">
        <ele>301</ele>
        <time>2016-04-03T10:34:32.000Z</time>
      </trkpt>
      <trkpt lat="44.05405" lon="1.86054">
        <ele>300</ele>
        <time>2016-04-03T10:34:34.000Z</time>
      </trkpt>
      <trkpt lat="44.05397" lon="1.86064">
        <ele>299</ele>
        <time>2016-04-03T10:34:36.000Z</time>
      </trkpt>
      <trkpt lat="44.05397" lon="1.86064">
        <ele>299</ele>
        <time>2016-04-03T10:34:38.000Z</time>
      </trkpt>
      <trkpt lat="44.05397" lon="1.86064">
        <ele>299</ele>
        <time>2016-04-03T10:34:40.000Z</time>
      </trkpt>
      <trkpt lat="44.05364" lon="1.86096">
        <ele>295</ele>
        <time>2016-04-03T10:34:44.000Z</time>
      </trkpt>
      <trkpt lat="44.05357" lon="1.86104">
        <ele>294</ele>
        <time>2016-04-03T10:34:46.000Z</time>
      </trkpt>
      <trkpt lat="44.05357" lon="1.86104">
        <ele>294</ele>
        <time>2016-04-03T10:34:48.000Z</time>
      </trkpt>
      <trkpt lat="44.05357" lon="1.86104">
        <ele>294</ele>
        <time>2016-04-03T10:34:50.000Z</time>
      </trkpt>
      <trkpt lat="44.05357" lon="1.86104">
        <ele>294</ele>
        <time>2016-04-03T10:34:52.000Z</time>
      </trkpt>
      <trkpt lat="44.05357" lon="1.86104">
        <ele>294</ele>
        <time>2016-04-03T10:34:54.000Z</time>
      </trkpt>
      <trkpt lat="44.05357" lon="1.86104">
        <ele>294</ele>
        <time>2016-04-03T10:34:56.000Z</time>
      </trkpt>
      <trkpt lat="44.05357" lon="1.86104">
        <ele>294</ele>
        <time>2016-04-03T10:34:58.000Z</time>
      </trkpt>
      <trkpt lat="44.05357" lon="1.86104">
        <ele>294</ele>
        <time>2016-04-03T10:35:00.000Z</time>
      </trkpt>
      <trkpt lat="44.05307" lon="1.86173">
        <ele>294</ele>
        <time>2016-04-03T10:35:06.000Z</time>
      </trkpt>
      <trkpt lat="44.05301" lon="1.86183">
        <ele>294</ele>
        <time>2016-04-03T10:35:08.000Z</time>
      </trkpt>
      <trkpt lat="44.05294" lon="1.86194">
        <ele>294</ele>
        <time>2016-04-03T10:35:10.000Z</time>
      </trkpt>
      <trkpt lat="44.05287" lon="1.86205">
        <ele>294</ele>
        <time>2016-04-03T10:35:12.000Z</time>
      </trkpt>
      <trkpt lat="44.05287" lon="1.86205">
        <ele>294</ele>
        <time>2016-04-03T10:35:14.000Z</time>
      </trkpt>
      <trkpt lat="44.05287" lon="1.86205">
        <ele>294</ele>
        <time>2016-04-03T10:35:16.000Z</time>
      </trkpt>
      <trkpt lat="44.05287" lon="1.86205">
        <ele>294</ele>
        <time>2016-04-03T10:35:18.000Z</time>
      </trkpt>
      <trkpt lat="44.05287" lon="1.86205">
        <ele>294</ele>
        <time>2016-04-03T10:35:20.000Z</time>
      </trkpt>
      <trkpt lat="44.05287" lon="1.86205">
        <ele>294</ele>
        <time>2016-04-03T10:35:22.000Z</time>
      </trkpt>
      <trkpt lat="44.05287" lon="1.86205">
        <ele>294</ele>
        <time>2016-04-03T10:35:24.000Z</time>
      </trkpt>
      <trkpt lat="44.05261" lon="1.86242">
        <ele>297</ele>
        <time>2016-04-03T10:35:28.000Z</time>
      </trkpt>
      <trkpt lat="44.05261" lon="1.86242">
        <ele>297</ele>
        <time>2016-04-03T10:35:30.000Z</time>
      </trkpt>
      <trkpt lat="44.05261" lon="1.86242">
        <ele>297</ele>
        <time>2016-04-03T10:35:32.000Z</time>
      </trkpt>
      <trkpt lat="44.05261" lon="1.86242">
        <ele>297</ele>
        <time>2016-04-03T10:35:34.000Z</time>
      </trkpt>
      <trkpt lat="44.05252" lon="1.86249">
        <ele>298</ele>
        <time>2016-04-03T10:35:38.000Z</time>
      </trkpt>
      <trkpt lat="44.05245" lon="1.86254">
        <ele>298</ele>
        <time>2016-04-03T10:35:40.000Z</time>
      </trkpt>
      <trkpt lat="44.05238" lon="1.86258">
        <ele>297</ele>
        <time>2016-04-03T10:35:42.000Z</time>
      </trkpt>
      <trkpt lat="44.0523" lon="1.86262">
        <ele>295</ele>
        <time>2016-04-03T10:35:44.000Z</time>
      </trkpt>
      <trkpt lat="44.05222" lon="1.86266">
        <ele>294</ele>
        <time>2016-04-03T10:35:46.000Z</time>
      </trkpt>
      <trkpt lat="44.05203" lon="1.86275">
        <ele>292</ele>
        <time>2016-04-03T10:35:48.000Z</time>
      </trkpt>
      <trkpt lat="44.05192" lon="1.8628">
        <ele>290</ele>
        <time>2016-04-03T10:35:50.000Z</time>
      </trkpt>
      <trkpt lat="44.0518" lon="1.86284">
        <ele>288</ele>
        <time>2016-04-03T10:35:52.000Z</time>
      </trkpt>
      <trkpt lat="44.05171" lon="1.86286">
        <ele>287</ele>
        <time>2016-04-03T10:35:54.000Z</time>
      </trkpt>
      <trkpt lat="44.05171" lon="1.86286">
        <ele>287</ele>
        <time>2016-04-03T10:35:56.000Z</time>
      </trkpt>
      <trkpt lat="44.05171" lon="1.86286">
        <ele>287</ele>
        <time>2016-04-03T10:35:58.000Z</time>
      </trkpt>
      <trkpt lat="44.05171" lon="1.86286">
        <ele>287</ele>
        <time>2016-04-03T10:36:00.000Z</time>
      </trkpt>
      <trkpt lat="44.05171" lon="1.86286">
        <ele>287</ele>
        <time>2016-04-03T10:36:02.000Z</time>
      </trkpt>
      <trkpt lat="44.05171" lon="1.86286">
        <ele>287</ele>
        <time>2016-04-03T10:36:04.000Z</time>
      </trkpt>
      <trkpt lat="44.05171" lon="1.86286">
        <ele>287</ele>
        <time>2016-04-03T10:36:06.000Z</time>
      </trkpt>
      <trkpt lat="44.05128" lon="1.86305">
        <ele>287</ele>
        <time>2016-04-03T10:36:12.000Z</time>
      </trkpt>
      <trkpt lat="44.05128" lon="1.86305">
        <ele>287</ele>
        <time>2016-04-03T10:36:14.000Z</time>
      </trkpt>
      <trkpt lat="44.05128" lon="1.86305">
        <ele>287</ele>
        <time>2016-04-03T10:36:16.000Z</time>
      </trkpt>
      <trkpt lat="44.05128" lon="1.86305">
        <ele>287</ele>
        <time>2016-04-03T10:36:18.000Z</time>
      </trkpt>
      <trkpt lat="44.05128" lon="1.86305">
        <ele>287</ele>
        <time>2016-04-03T10:36:20.000Z</time>
      </trkpt>
      <trkpt lat="44.05128" lon="1.86305">
        <ele>287</ele>
        <time>2016-04-03T10:36:22.000Z</time>
      </trkpt>
      <trkpt lat="44.05128" lon="1.86305">
        <ele>287</ele>
        <time>2016-04-03T10:36:24.000Z</time>
      </trkpt>
      <trkpt lat="44.05128" lon="1.86305">
        <ele>287</ele>
        <time>2016-04-03T10:36:26.000Z</time>
      </trkpt>
      <trkpt lat="44.05128" lon="1.86305">
        <ele>287</ele>
        <time>2016-04-03T10:36:30.000Z</time>
      </trkpt>
      <trkpt lat="44.05128" lon="1.86305">
        <ele>287</ele>
        <time>2016-04-03T10:36:32.000Z</time>
      </trkpt>
      <trkpt lat="44.05128" lon="1.86305">
        <ele>287</ele>
        <time>2016-04-03T10:36:34.000Z</time>
      </trkpt>
      <trkpt lat="44.05136" lon="1.86374">
        <ele>291</ele>
        <time>2016-04-03T10:36:38.000Z</time>
      </trkpt>
      <trkpt lat="44.0514" lon="1.86386">
        <ele>292</ele>
        <time>2016-04-03T10:36:42.000Z</time>
      </trkpt>
      <trkpt lat="44.05144" lon="1.86399">
        <ele>291</ele>
        <time>2016-04-03T10:36:46.000Z</time>
      </trkpt>
      <trkpt lat="44.05148" lon="1.86411">
        <ele>290</ele>
        <time>2016-04-03T10:36:50.000Z</time>
      </trkpt>
      <trkpt lat="44.05154" lon="1.86425">
        <ele>290</ele>
        <time>2016-04-03T10:36:54.000Z</time>
      </trkpt>
      <trkpt lat="44.05159" lon="1.86444">
        <ele>289</ele>
        <time>2016-04-03T10:36:58.000Z</time>
      </trkpt>
      <trkpt lat="44.05167" lon="1.86467">
        <ele>288</ele>
        <time>2016-04-03T10:37:02.000Z</time>
      </trkpt>
      <trkpt lat="44.05174" lon="1.86489">
        <ele>287</ele>
        <time>2016-04-03T10:37:06.000Z</time>
      </trkpt>
      <trkpt lat="44.05178" lon="1.86501">
        <ele>287</ele>
        <time>2016-04-03T10:37:08.000Z</time>
      </trkpt>
      <trkpt lat="44.05182" lon="1.86513">
        <ele>287</ele>
        <time>2016-04-03T10:37:10.000Z</time>
      </trkpt>
      <trkpt lat="44.05182" lon="1.86513">
        <ele>287</ele>
        <time>2016-04-03T10:37:12.000Z</time>
      </trkpt>
      <trkpt lat="44.05182" lon="1.86513">
        <ele>287</ele>
        <time>2016-04-03T10:37:14.000Z</time>
      </trkpt>
      <trkpt lat="44.05182" lon="1.86513">
        <ele>287</ele>
        <time>2016-04-03T10:37:16.000Z</time>
      </trkpt>
      <trkpt lat="44.05182" lon="1.86513">
        <ele>287</ele>
        <time>2016-04-03T10:37:18.000Z</time>
      </trkpt>
      <trkpt lat="44.05182" lon="1.86513">
        <ele>287</ele>
        <time>2016-04-03T10:37:20.000Z</time>
      </trkpt>
      <trkpt lat="44.05182" lon="1.86513">
        <ele>287</ele>
        <time>2016-04-03T10:37:22.000Z</time>
      </trkpt>
      <trkpt lat="44.05193" lon="1.86552">
        <ele>285</ele>
        <time>2016-04-03T10:37:26.000Z</time>
      </trkpt>
      <trkpt lat="44.05199" lon="1.86577">
        <ele>285</ele>
        <time>2016-04-03T10:37:28.000Z</time>
      </trkpt>
      <trkpt lat="44.05204" lon="1.86595">
        <ele>284</ele>
        <time>2016-04-03T10:37:30.000Z</time>
      </trkpt>
      <trkpt lat="44.05206" lon="1.8661">
        <ele>284</ele>
        <time>2016-04-03T10:37:32.000Z</time>
      </trkpt>
      <trkpt lat="44.05205" lon="1.86623">
        <ele>284</ele>
        <time>2016-04-03T10:37:34.000Z</time>
      </trkpt>
      <trkpt lat="44.05202" lon="1.8665">
        <ele>283</ele>
        <time>2016-04-03T10:37:36.000Z</time>
      </trkpt>
      <trkpt lat="44.05201" lon="1.86664">
        <ele>282</ele>
        <time>2016-04-03T10:37:38.000Z</time>
      </trkpt>
      <trkpt lat="44.05201" lon="1.86678">
        <ele>282</ele>
        <time>2016-04-03T10:37:40.000Z</time>
      </trkpt>
      <trkpt lat="44.05205" lon="1.86689">
        <ele>281</ele>
        <time>2016-04-03T10:37:42.000Z</time>
      </trkpt>
      <trkpt lat="44.05213" lon="1.86697">
        <ele>281</ele>
        <time>2016-04-03T10:37:44.000Z</time>
      </trkpt>
      <trkpt lat="44.05223" lon="1.86702">
        <ele>280</ele>
        <time>2016-04-03T10:37:46.000Z</time>
      </trkpt>
      <trkpt lat="44.05223" lon="1.86702">
        <ele>280</ele>
        <time>2016-04-03T10:37:48.000Z</time>
      </trkpt>
      <trkpt lat="44.05223" lon="1.86702">
        <ele>280</ele>
        <time>2016-04-03T10:37:50.000Z</time>
      </trkpt>
      <trkpt lat="44.05223" lon="1.86702">
        <ele>280</ele>
        <time>2016-04-03T10:37:52.000Z</time>
      </trkpt>
      <trkpt lat="44.05223" lon="1.86702">
        <ele>280</ele>
        <time>2016-04-03T10:37:54.000Z</time>
      </trkpt>
      <trkpt lat="44.05223" lon="1.86702">
        <ele>280</ele>
        <time>2016-04-03T10:37:56.000Z</time>
      </trkpt>
      <trkpt lat="44.05234" lon="1.86728">
        <ele>277</ele>
        <time>2016-04-03T10:38:02.000Z</time>
      </trkpt>
      <trkpt lat="44.05224" lon="1.86734">
        <ele>276</ele>
        <time>2016-04-03T10:38:06.000Z</time>
      </trkpt>
      <trkpt lat="44.05214" lon="1.86737">
        <ele>275</ele>
        <time>2016-04-03T10:38:08.000Z</time>
      </trkpt>
      <trkpt lat="44.05204" lon="1.86741">
        <ele>274</ele>
        <time>2016-04-03T10:38:10.000Z</time>
      </trkpt>
      <trkpt lat="44.05193" lon="1.86745">
        <ele>273</ele>
        <time>2016-04-03T10:38:12.000Z</time>
      </trkpt>
      <trkpt lat="44.05182" lon="1.86748">
        <ele>273</ele>
        <time>2016-04-03T10:38:14.000Z</time>
      </trkpt>
      <trkpt lat="44.0517" lon="1.86748">
        <ele>272</ele>
        <time>2016-04-03T10:38:16.000Z</time>
      </trkpt>
      <trkpt lat="44.05156" lon="1.86746">
        <ele>271</ele>
        <time>2016-04-03T10:38:18.000Z</time>
      </trkpt>
      <trkpt lat="44.05143" lon="1.86743">
        <ele>269</ele>
        <time>2016-04-03T10:38:20.000Z</time>
      </trkpt>
      <trkpt lat="44.05131" lon="1.8674">
        <ele>268</ele>
        <time>2016-04-03T10:38:22.000Z</time>
      </trkpt>
      <trkpt lat="44.05117" lon="1.86737">
        <ele>267</ele>
        <time>2016-04-03T10:38:24.000Z</time>
      </trkpt>
      <trkpt lat="44.05105" lon="1.86735">
        <ele>266</ele>
        <time>2016-04-03T10:38:26.000Z</time>
      </trkpt>
      <trkpt lat="44.05094" lon="1.86733">
        <ele>266</ele>
        <time>2016-04-03T10:38:28.000Z</time>
      </trkpt>
      <trkpt lat="44.05094" lon="1.86733">
        <ele>266</ele>
        <time>2016-04-03T10:38:30.000Z</time>
      </trkpt>
      <trkpt lat="44.05094" lon="1.86733">
        <ele>266</ele>
        <time>2016-04-03T10:38:32.000Z</time>
      </trkpt>
      <trkpt lat="44.05094" lon="1.86733">
        <ele>266</ele>
        <time>2016-04-03T10:38:34.000Z</time>
      </trkpt>
      <trkpt lat="44.05036" lon="1.86735">
        <ele>261</ele>
        <time>2016-04-03T10:38:40.000Z</time>
      </trkpt>
      <trkpt lat="44.05036" lon="1.86735">
        <ele>261</ele>
        <time>2016-04-03T10:38:42.000Z</time>
      </trkpt>
      <trkpt lat="44.05036" lon="1.86735">
        <ele>261</ele>
        <time>2016-04-03T10:38:44.000Z</time>
      </trkpt>
      <trkpt lat="44.05036" lon="1.86735">
        <ele>261</ele>
        <time>2016-04-03T10:38:46.000Z</time>
      </trkpt>
      <trkpt lat="44.0499" lon="1.86757">
        <ele>260</ele>
        <time>2016-04-03T10:38:50.000Z</time>
      </trkpt>
      <trkpt lat="44.0498" lon="1.86766">
        <ele>260</ele>
        <time>2016-04-03T10:38:52.000Z</time>
      </trkpt>
      <trkpt lat="44.04971" lon="1.86777">
        <ele>260</ele>
        <time>2016-04-03T10:38:54.000Z</time>
      </trkpt>
      <trkpt lat="44.0496" lon="1.86788">
        <ele>260</ele>
        <time>2016-04-03T10:38:56.000Z</time>
      </trkpt>
      <trkpt lat="44.04954" lon="1.868">
        <ele>259</ele>
        <time>2016-04-03T10:38:58.000Z</time>
      </trkpt>
      <trkpt lat="44.04954" lon="1.868">
        <ele>259</ele>
        <time>2016-04-03T10:39:00.000Z</time>
      </trkpt>
      <trkpt lat="44.04954" lon="1.868">
        <ele>259</ele>
        <time>2016-04-03T10:39:02.000Z</time>
      </trkpt>
      <trkpt lat="44.04954" lon="1.868">
        <ele>259</ele>
        <time>2016-04-03T10:39:04.000Z</time>
      </trkpt>
      <trkpt lat="44.04954" lon="1.868">
        <ele>259</ele>
        <time>2016-04-03T10:39:06.000Z</time>
      </trkpt>
      <trkpt lat="44.04912" lon="1.86806">
        <ele>259</ele>
        <time>2016-04-03T10:39:10.000Z</time>
      </trkpt>
      <trkpt lat="44.04905" lon="1.86794">
        <ele>259</ele>
        <time>2016-04-03T10:39:12.000Z</time>
      </trkpt>
      <trkpt lat="44.04897" lon="1.86781">
        <ele>259</ele>
        <time>2016-04-03T10:39:14.000Z</time>
      </trkpt>
      <trkpt lat="44.0489" lon="1.86767">
        <ele>259</ele>
        <time>2016-04-03T10:39:16.000Z</time>
      </trkpt>
      <trkpt lat="44.04882" lon="1.86754">
        <ele>259</ele>
        <time>2016-04-03T10:39:18.000Z</time>
      </trkpt>
      <trkpt lat="44.04874" lon="1.86741">
        <ele>259</ele>
        <time>2016-04-03T10:39:20.000Z</time>
      </trkpt>
      <trkpt lat="44.04865" lon="1.86729">
        <ele>258</ele>
        <time>2016-04-03T10:39:22.000Z</time>
      </trkpt>
      <trkpt lat="44.04857" lon="1.86718">
        <ele>258</ele>
        <time>2016-04-03T10:39:24.000Z</time>
      </trkpt>
      <trkpt lat="44.04848" lon="1.86709">
        <ele>257</ele>
        <time>2016-04-03T10:39:26.000Z</time>
      </trkpt>
      <trkpt lat="44.04848" lon="1.86709">
        <ele>257</ele>
        <time>2016-04-03T10:39:28.000Z</time>
      </trkpt>
      <trkpt lat="44.04848" lon="1.86709">
        <ele>257</ele>
        <time>2016-04-03T10:39:30.000Z</time>
      </trkpt>
      <trkpt lat="44.04848" lon="1.86709">
        <ele>257</ele>
        <time>2016-04-03T10:39:32.000Z</time>
      </trkpt>
      <trkpt lat="44.04848" lon="1.86709">
        <ele>257</ele>
        <time>2016-04-03T10:39:34.000Z</time>
      </trkpt>
      <trkpt lat="44.04848" lon="1.86709">
        <ele>257</ele>
        <time>2016-04-03T10:39:36.000Z</time>
      </trkpt>
      <trkpt lat="44.04848" lon="1.86709">
        <ele>257</ele>
        <time>2016-04-03T10:39:38.000Z</time>
      </trkpt>
      <trkpt lat="44.04848" lon="1.86709">
        <ele>257</ele>
        <time>2016-04-03T10:39:40.000Z</time>
      </trkpt>
      <trkpt lat="44.04829" lon="1.86688">
        <ele>258</ele>
        <time>2016-04-03T10:39:48.000Z</time>
      </trkpt>
      <trkpt lat="44.04821" lon="1.86675">
        <ele>258</ele>
        <time>2016-04-03T10:39:50.000Z</time>
      </trkpt>
      <trkpt lat="44.04816" lon="1.86668">
        <ele>258</ele>
        <time>2016-04-03T10:39:52.000Z</time>
      </trkpt>
      <trkpt lat="44.04816" lon="1.86668">
        <ele>258</ele>
        <time>2016-04-03T10:39:54.000Z</time>
      </trkpt>
      <trkpt lat="44.04813" lon="1.86658">
        <ele>258</ele>
        <time>2016-04-03T10:39:56.000Z</time>
      </trkpt>
      <trkpt lat="44.04813" lon="1.86646">
        <ele>259</ele>
        <time>2016-04-03T10:39:58.000Z</time>
      </trkpt>
      <trkpt lat="44.04811" lon="1.86636">
        <ele>259</ele>
        <time>2016-04-03T10:40:00.000Z</time>
      </trkpt>
      <trkpt lat="44.04809" lon="1.86626">
        <ele>260</ele>
        <time>2016-04-03T10:40:02.000Z</time>
      </trkpt>
      <trkpt lat="44.04808" lon="1.86615">
        <ele>260</ele>
        <time>2016-04-03T10:40:04.000Z</time>
      </trkpt>
      <trkpt lat="44.04806" lon="1.86592">
        <ele>260</ele>
        <time>2016-04-03T10:40:06.000Z</time>
      </trkpt>
      <trkpt lat="44.04801" lon="1.8658">
        <ele>260</ele>
        <time>2016-04-03T10:40:08.000Z</time>
      </trkpt>
      <trkpt lat="44.04797" lon="1.86568">
        <ele>260</ele>
        <time>2016-04-03T10:40:10.000Z</time>
      </trkpt>
      <trkpt lat="44.04797" lon="1.86568">
        <ele>260</ele>
        <time>2016-04-03T10:40:12.000Z</time>
      </trkpt>
      <trkpt lat="44.04787" lon="1.86548">
        <ele>261</ele>
        <time>2016-04-03T10:40:14.000Z</time>
      </trkpt>
      <trkpt lat="44.04787" lon="1.86548">
        <ele>261</ele>
        <time>2016-04-03T10:40:16.000Z</time>
      </trkpt>
      <trkpt lat="44.04787" lon="1.86548">
        <ele>261</ele>
        <time>2016-04-03T10:40:18.000Z</time>
      </trkpt>
      <trkpt lat="44.04787" lon="1.86548">
        <ele>261</ele>
        <time>2016-04-03T10:40:20.000Z</time>
      </trkpt>
      <trkpt lat="44.04787" lon="1.86548">
        <ele>261</ele>
        <time>2016-04-03T10:40:22.000Z</time>
      </trkpt>
      <trkpt lat="44.04787" lon="1.86548">
        <ele>261</ele>
        <time>2016-04-03T10:40:24.000Z</time>
      </trkpt>
      <trkpt lat="44.0475" lon="1.86505">
        <ele>260</ele>
        <time>2016-04-03T10:40:28.000Z</time>
      </trkpt>
      <trkpt lat="44.04736" lon="1.86503">
        <ele>260</ele>
        <time>2016-04-03T10:40:30.000Z</time>
      </trkpt>
      <trkpt lat="44.04722" lon="1.86505">
        <ele>259</ele>
        <time>2016-04-03T10:40:32.000Z</time>
      </trkpt>
      <trkpt lat="44.04708" lon="1.86504">
        <ele>259</ele>
        <time>2016-04-03T10:40:34.000Z</time>
      </trkpt>
      <trkpt lat="44.04694" lon="1.86501">
        <ele>258</ele>
        <time>2016-04-03T10:40:36.000Z</time>
      </trkpt>
      <trkpt lat="44.04678" lon="1.86495">
        <ele>258</ele>
        <time>2016-04-03T10:40:38.000Z</time>
      </trkpt>
      <trkpt lat="44.04665" lon="1.86487">
        <ele>257</ele>
        <time>2016-04-03T10:40:40.000Z</time>
      </trkpt>
      <trkpt lat="44.04654" lon="1.86477">
        <ele>255</ele>
        <time>2016-04-03T10:40:42.000Z</time>
      </trkpt>
      <trkpt lat="44.04643" lon="1.86468">
        <ele>254</ele>
        <time>2016-04-03T10:40:44.000Z</time>
      </trkpt>
      <trkpt lat="44.04633" lon="1.86459">
        <ele>253</ele>
        <time>2016-04-03T10:40:46.000Z</time>
      </trkpt>
      <trkpt lat="44.04623" lon="1.86448">
        <ele>252</ele>
        <time>2016-04-03T10:40:48.000Z</time>
      </trkpt>
      <trkpt lat="44.04613" lon="1.86439">
        <ele>251</ele>
        <time>2016-04-03T10:40:50.000Z</time>
      </trkpt>
      <trkpt lat="44.04602" lon="1.8643">
        <ele>250</ele>
        <time>2016-04-03T10:40:52.000Z</time>
      </trkpt>
      <trkpt lat="44.04591" lon="1.86421">
        <ele>249</ele>
        <time>2016-04-03T10:40:54.000Z</time>
      </trkpt>
      <trkpt lat="44.04582" lon="1.86409">
        <ele>247</ele>
        <time>2016-04-03T10:40:56.000Z</time>
      </trkpt>
      <trkpt lat="44.04574" lon="1.86393">
        <ele>246</ele>
        <time>2016-04-03T10:40:58.000Z</time>
      </trkpt>
      <trkpt lat="44.04571" lon="1.86372">
        <ele>246</ele>
        <time>2016-04-03T10:41:00.000Z</time>
      </trkpt>
      <trkpt lat="44.04565" lon="1.86353">
        <ele>245</ele>
        <time>2016-04-03T10:41:02.000Z</time>
      </trkpt>
      <trkpt lat="44.04556" lon="1.86336">
        <ele>244</ele>
        <time>2016-04-03T10:41:04.000Z</time>
      </trkpt>
      <trkpt lat="44.04544" lon="1.86322">
        <ele>242</ele>
        <time>2016-04-03T10:41:06.000Z</time>
      </trkpt>
      <trkpt lat="44.04533" lon="1.8631">
        <ele>240</ele>
        <time>2016-04-03T10:41:08.000Z</time>
      </trkpt>
      <trkpt lat="44.04525" lon="1.86299">
        <ele>237</ele>
        <time>2016-04-03T10:41:10.000Z</time>
      </trkpt>
      <trkpt lat="44.04516" lon="1.86291">
        <ele>236</ele>
        <time>2016-04-03T10:41:12.000Z</time>
      </trkpt>
      <trkpt lat="44.04516" lon="1.86291">
        <ele>236</ele>
        <time>2016-04-03T10:41:14.000Z</time>
      </trkpt>
      <trkpt lat="44.04516" lon="1.86291">
        <ele>236</ele>
        <time>2016-04-03T10:41:16.000Z</time>
      </trkpt>
      <trkpt lat="44.04516" lon="1.86291">
        <ele>236</ele>
        <time>2016-04-03T10:41:18.000Z</time>
      </trkpt>
      <trkpt lat="44.04516" lon="1.86291">
        <ele>236</ele>
        <time>2016-04-03T10:41:20.000Z</time>
      </trkpt>
      <trkpt lat="44.04516" lon="1.86291">
        <ele>236</ele>
        <time>2016-04-03T10:41:22.000Z</time>
      </trkpt>
      <trkpt lat="44.04516" lon="1.86291">
        <ele>236</ele>
        <time>2016-04-03T10:41:24.000Z</time>
      </trkpt>
      <trkpt lat="44.04516" lon="1.86291">
        <ele>236</ele>
        <time>2016-04-03T10:41:26.000Z</time>
      </trkpt>
      <trkpt lat="44.04516" lon="1.86291">
        <ele>236</ele>
        <time>2016-04-03T10:41:30.000Z</time>
      </trkpt>
      <trkpt lat="44.04516" lon="1.86291">
        <ele>236</ele>
        <time>2016-04-03T10:41:32.000Z</time>
      </trkpt>
      <trkpt lat="44.04516" lon="1.86291">
        <ele>236</ele>
        <time>2016-04-03T10:41:34.000Z</time>
      </trkpt>
      <trkpt lat="44.04447" lon="1.86294">
        <ele>231</ele>
        <time>2016-04-03T10:41:38.000Z</time>
      </trkpt>
      <trkpt lat="44.0444" lon="1.86308">
        <ele>231</ele>
        <time>2016-04-03T10:41:42.000Z</time>
      </trkpt>
      <trkpt lat="44.0443" lon="1.86325">
        <ele>231</ele>
        <time>2016-04-03T10:41:46.000Z</time>
      </trkpt>
      <trkpt lat="44.04426" lon="1.86343">
        <ele>230</ele>
        <time>2016-04-03T10:41:50.000Z</time>
      </trkpt>
      <trkpt lat="44.04426" lon="1.86343">
        <ele>230</ele>
        <time>2016-04-03T10:41:52.000Z</time>
      </trkpt>
      <trkpt lat="44.04426" lon="1.86343">
        <ele>230</ele>
        <time>2016-04-03T10:41:54.000Z</time>
      </trkpt>
      <trkpt lat="44.04426" lon="1.86343">
        <ele>230</ele>
        <time>2016-04-03T10:41:56.000Z</time>
      </trkpt>
      <trkpt lat="44.04426" lon="1.86343">
        <ele>230</ele>
        <time>2016-04-03T10:41:58.000Z</time>
      </trkpt>
      <trkpt lat="44.04426" lon="1.86343">
        <ele>230</ele>
        <time>2016-04-03T10:42:00.000Z</time>
      </trkpt>
      <trkpt lat="44.04426" lon="1.86343">
        <ele>230</ele>
        <time>2016-04-03T10:42:02.000Z</time>
      </trkpt>
      <trkpt lat="44.04426" lon="1.86343">
        <ele>230</ele>
        <time>2016-04-03T10:42:04.000Z</time>
      </trkpt>
      <trkpt lat="44.04426" lon="1.86343">
        <ele>230</ele>
        <time>2016-04-03T10:42:06.000Z</time>
      </trkpt>
      <trkpt lat="44.04426" lon="1.86343">
        <ele>230</ele>
        <time>2016-04-03T10:42:08.000Z</time>
      </trkpt>
      <trkpt lat="44.04426" lon="1.86343">
        <ele>230</ele>
        <time>2016-04-03T10:42:10.000Z</time>
      </trkpt>
      <trkpt lat="44.04426" lon="1.86343">
        <ele>230</ele>
        <time>2016-04-03T10:42:18.000Z</time>
      </trkpt>
      <trkpt lat="44.04426" lon="1.86343">
        <ele>230</ele>
        <time>2016-04-03T10:42:20.000Z</time>
      </trkpt>
      <trkpt lat="44.04426" lon="1.86343">
        <ele>230</ele>
        <time>2016-04-03T10:42:22.000Z</time>
      </trkpt>
      <trkpt lat="44.04426" lon="1.86343">
        <ele>230</ele>
        <time>2016-04-03T10:42:24.000Z</time>
      </trkpt>
      <trkpt lat="44.04426" lon="1.86343">
        <ele>230</ele>
        <time>2016-04-03T10:42:26.000Z</time>
      </trkpt>
      <trkpt lat="44.04426" lon="1.86343">
        <ele>230</ele>
        <time>2016-04-03T10:42:28.000Z</time>
      </trkpt>
      <trkpt lat="44.04426" lon="1.86343">
        <ele>230</ele>
        <time>2016-04-03T10:42:30.000Z</time>
      </trkpt>
      <trkpt lat="44.04426" lon="1.86387">
        <ele>238</ele>
        <time>2016-04-03T10:42:32.000Z</time>
      </trkpt>
      <trkpt lat="44.04427" lon="1.86411">
        <ele>239</ele>
        <time>2016-04-03T10:42:34.000Z</time>
      </trkpt>
      <trkpt lat="44.04429" lon="1.86423">
        <ele>240</ele>
        <time>2016-04-03T10:42:36.000Z</time>
      </trkpt>
      <trkpt lat="44.0443" lon="1.8643">
        <ele>241</ele>
        <time>2016-04-03T10:42:38.000Z</time>
      </trkpt>
      <trkpt lat="44.0443" lon="1.8643">
        <ele>241</ele>
        <time>2016-04-03T10:42:40.000Z</time>
      </trkpt>
      <trkpt lat="44.0443" lon="1.8643">
        <ele>241</ele>
        <time>2016-04-03T10:42:42.000Z</time>
      </trkpt>
      <trkpt lat="44.04435" lon="1.86436">
        <ele>245</ele>
        <time>2016-04-03T10:42:46.000Z</time>
      </trkpt>
      <trkpt lat="44.04439" lon="1.86441">
        <ele>246</ele>
        <time>2016-04-03T10:42:50.000Z</time>
      </trkpt>
      <trkpt lat="44.04439" lon="1.86441">
        <ele>246</ele>
        <time>2016-04-03T10:42:52.000Z</time>
      </trkpt>
      <trkpt lat="44.04439" lon="1.86441">
        <ele>246</ele>
        <time>2016-04-03T10:42:54.000Z</time>
      </trkpt>
      <trkpt lat="44.04453" lon="1.86448">
        <ele>254</ele>
        <time>2016-04-03T10:43:12.000Z</time>
      </trkpt>
      <trkpt lat="44.04461" lon="1.86453">
        <ele>255</ele>
        <time>2016-04-03T10:43:14.000Z</time>
      </trkpt>
      <trkpt lat="44.04466" lon="1.86457">
        <ele>255</ele>
        <time>2016-04-03T10:43:16.000Z</time>
      </trkpt>
      <trkpt lat="44.04472" lon="1.8646">
        <ele>257</ele>
        <time>2016-04-03T10:43:20.000Z</time>
      </trkpt>
      <trkpt lat="44.04472" lon="1.8646">
        <ele>257</ele>
        <time>2016-04-03T10:43:24.000Z</time>
      </trkpt>
      <trkpt lat="44.04472" lon="1.8646">
        <ele>257</ele>
        <time>2016-04-03T10:43:26.000Z</time>
      </trkpt>
      <trkpt lat="44.04488" lon="1.86481">
        <ele>261</ele>
        <time>2016-04-03T10:44:11.000Z</time>
      </trkpt>
      <trkpt lat="44.04497" lon="1.86493">
        <ele>261</ele>
        <time>2016-04-03T10:44:13.000Z</time>
      </trkpt>
      <trkpt lat="44.04501" lon="1.86501">
        <ele>261</ele>
        <time>2016-04-03T10:44:15.000Z</time>
      </trkpt>
      <trkpt lat="44.04504" lon="1.86507">
        <ele>261</ele>
        <time>2016-04-03T10:44:19.000Z</time>
      </trkpt>
      <trkpt lat="44.04504" lon="1.86507">
        <ele>261</ele>
        <time>2016-04-03T10:44:21.000Z</time>
      </trkpt>
      <trkpt lat="44.04504" lon="1.86507">
        <ele>261</ele>
        <time>2016-04-03T10:44:23.000Z</time>
      </trkpt>
      <trkpt lat="44.04506" lon="1.86514">
        <ele>261</ele>
        <time>2016-04-03T10:44:25.000Z</time>
      </trkpt>
      <trkpt lat="44.04508" lon="1.8652">
        <ele>262</ele>
        <time>2016-04-03T10:44:29.000Z</time>
      </trkpt>
      <trkpt lat="44.04508" lon="1.8652">
        <ele>262</ele>
        <time>2016-04-03T10:44:31.000Z</time>
      </trkpt>
      <trkpt lat="44.04508" lon="1.8652">
        <ele>262</ele>
        <time>2016-04-03T10:44:33.000Z</time>
      </trkpt>
      <trkpt lat="44.04508" lon="1.8652">
        <ele>262</ele>
        <time>2016-04-03T10:44:35.000Z</time>
      </trkpt>
      <trkpt lat="44.04508" lon="1.8652">
        <ele>262</ele>
        <time>2016-04-03T10:44:37.000Z</time>
      </trkpt>
      <trkpt lat="44.04508" lon="1.8652">
        <ele>262</ele>
        <time>2016-04-03T10:44:39.000Z</time>
      </trkpt>
      <trkpt lat="44.04508" lon="1.8652">
        <ele>262</ele>
        <time>2016-04-03T10:44:41.000Z</time>
      </trkpt>
      <trkpt lat="44.04508" lon="1.8652">
        <ele>262</ele>
        <time>2016-04-03T10:44:43.000Z</time>
      </trkpt>
      <trkpt lat="44.04521" lon="1.86537">
        <ele>265</ele>
        <time>2016-04-03T10:45:07.000Z</time>
      </trkpt>
      <trkpt lat="44.04532" lon="1.86547">
        <ele>265</ele>
        <time>2016-04-03T10:45:09.000Z</time>
      </trkpt>
      <trkpt lat="44.04544" lon="1.86556">
        <ele>264</ele>
        <time>2016-04-03T10:45:11.000Z</time>
      </trkpt>
      <trkpt lat="44.04556" lon="1.86563">
        <ele>265</ele>
        <time>2016-04-03T10:45:13.000Z</time>
      </trkpt>
      <trkpt lat="44.04565" lon="1.86568">
        <ele>265</ele>
        <time>2016-04-03T10:45:15.000Z</time>
      </trkpt>
      <trkpt lat="44.04565" lon="1.86568">
        <ele>265</ele>
        <time>2016-04-03T10:45:17.000Z</time>
      </trkpt>
      <trkpt lat="44.04565" lon="1.86568">
        <ele>265</ele>
        <time>2016-04-03T10:45:19.000Z</time>
      </trkpt>
      <trkpt lat="44.04565" lon="1.86568">
        <ele>265</ele>
        <time>2016-04-03T10:45:21.000Z</time>
      </trkpt>
      <trkpt lat="44.04565" lon="1.86568">
        <ele>265</ele>
        <time>2016-04-03T10:45:23.000Z</time>
      </trkpt>
      <trkpt lat="44.04565" lon="1.86568">
        <ele>265</ele>
        <time>2016-04-03T10:45:25.000Z</time>
      </trkpt>
      <trkpt lat="44.04565" lon="1.86568">
        <ele>265</ele>
        <time>2016-04-03T10:45:27.000Z</time>
      </trkpt>
      <trkpt lat="44.04565" lon="1.86568">
        <ele>265</ele>
        <time>2016-04-03T10:45:29.000Z</time>
      </trkpt>
      <trkpt lat="44.04565" lon="1.86568">
        <ele>265</ele>
        <time>2016-04-03T10:45:31.000Z</time>
      </trkpt>
      <trkpt lat="44.04565" lon="1.86568">
        <ele>265</ele>
        <time>2016-04-03T10:45:33.000Z</time>
      </trkpt>
      <trkpt lat="44.04618" lon="1.86594">
        <ele>270</ele>
        <time>2016-04-03T10:45:37.000Z</time>
      </trkpt>
      <trkpt lat="44.04618" lon="1.86594">
        <ele>270</ele>
        <time>2016-04-03T10:45:39.000Z</time>
      </trkpt>
      <trkpt lat="44.04618" lon="1.86594">
        <ele>270</ele>
        <time>2016-04-03T10:45:41.000Z</time>
      </trkpt>
      <trkpt lat="44.04628" lon="1.86599">
        <ele>272</ele>
        <time>2016-04-03T10:45:43.000Z</time>
      </trkpt>
      <trkpt lat="44.04628" lon="1.86599">
        <ele>272</ele>
        <time>2016-04-03T10:45:45.000Z</time>
      </trkpt>
      <trkpt lat="44.04628" lon="1.86599">
        <ele>272</ele>
        <time>2016-04-03T10:45:47.000Z</time>
      </trkpt>
      <trkpt lat="44.04628" lon="1.86599">
        <ele>272</ele>
        <time>2016-04-03T10:45:49.000Z</time>
      </trkpt>
      <trkpt lat="44.04628" lon="1.86599">
        <ele>272</ele>
        <time>2016-04-03T10:45:53.000Z</time>
      </trkpt>
      <trkpt lat="44.04628" lon="1.86599">
        <ele>272</ele>
        <time>2016-04-03T10:45:55.000Z</time>
      </trkpt>
      <trkpt lat="44.04628" lon="1.86599">
        <ele>272</ele>
        <time>2016-04-03T10:45:57.000Z</time>
      </trkpt>
      <trkpt lat="44.04628" lon="1.86599">
        <ele>272</ele>
        <time>2016-04-03T10:45:59.000Z</time>
      </trkpt>
      <trkpt lat="44.04628" lon="1.86599">
        <ele>272</ele>
        <time>2016-04-03T10:46:01.000Z</time>
      </trkpt>
      <trkpt lat="44.04628" lon="1.86599">
        <ele>272</ele>
        <time>2016-04-03T10:46:03.000Z</time>
      </trkpt>
      <trkpt lat="44.04657" lon="1.86626">
        <ele>280</ele>
        <time>2016-04-03T10:46:07.000Z</time>
      </trkpt>
      <trkpt lat="44.04661" lon="1.86641">
        <ele>280</ele>
        <time>2016-04-03T10:46:11.000Z</time>
      </trkpt>
      <trkpt lat="44.04665" lon="1.86658">
        <ele>279</ele>
        <time>2016-04-03T10:46:15.000Z</time>
      </trkpt>
      <trkpt lat="44.04669" lon="1.86679">
        <ele>279</ele>
        <time>2016-04-03T10:46:19.000Z</time>
      </trkpt>
      <trkpt lat="44.04684" lon="1.86694">
        <ele>278</ele>
        <time>2016-04-03T10:46:23.000Z</time>
      </trkpt>
      <trkpt lat="44.04697" lon="1.86692">
        <ele>279</ele>
        <time>2016-04-03T10:46:27.000Z</time>
      </trkpt>
      <trkpt lat="44.04697" lon="1.86692">
        <ele>279</ele>
        <time>2016-04-03T10:46:29.000Z</time>
      </trkpt>
      <trkpt lat="44.04697" lon="1.86692">
        <ele>279</ele>
        <time>2016-04-03T10:46:31.000Z</time>
      </trkpt>
      <trkpt lat="44.04697" lon="1.86692">
        <ele>279</ele>
        <time>2016-04-03T10:46:33.000Z</time>
      </trkpt>
      <trkpt lat="44.04697" lon="1.86692">
        <ele>279</ele>
        <time>2016-04-03T10:46:35.000Z</time>
      </trkpt>
      <trkpt lat="44.04697" lon="1.86692">
        <ele>279</ele>
        <time>2016-04-03T10:46:37.000Z</time>
      </trkpt>
      <trkpt lat="44.04714" lon="1.86682">
        <ele>291</ele>
        <time>2016-04-03T10:46:51.000Z</time>
      </trkpt>
      <trkpt lat="44.04723" lon="1.86676">
        <ele>291</ele>
        <time>2016-04-03T10:46:53.000Z</time>
      </trkpt>
      <trkpt lat="44.0473" lon="1.86671">
        <ele>292</ele>
        <time>2016-04-03T10:46:55.000Z</time>
      </trkpt>
      <trkpt lat="44.04735" lon="1.86668">
        <ele>293</ele>
        <time>2016-04-03T10:46:57.000Z</time>
      </trkpt>
      <trkpt lat="44.04735" lon="1.86668">
        <ele>293</ele>
        <time>2016-04-03T10:46:59.000Z</time>
      </trkpt>
      <trkpt lat="44.04735" lon="1.86668">
        <ele>293</ele>
        <time>2016-04-03T10:47:01.000Z</time>
      </trkpt>
      <trkpt lat="44.04735" lon="1.86668">
        <ele>293</ele>
        <time>2016-04-03T10:47:03.000Z</time>
      </trkpt>
      <trkpt lat="44.04744" lon="1.8667">
        <ele>295</ele>
        <time>2016-04-03T10:47:09.000Z</time>
      </trkpt>
      <trkpt lat="44.0475" lon="1.86672">
        <ele>295</ele>
        <time>2016-04-03T10:47:11.000Z</time>
      </trkpt>
      <trkpt lat="44.04753" lon="1.86677">
        <ele>293</ele>
        <time>2016-04-03T10:47:15.000Z</time>
      </trkpt>
      <trkpt lat="44.04753" lon="1.86677">
        <ele>293</ele>
        <time>2016-04-03T10:47:17.000Z</time>
      </trkpt>
      <trkpt lat="44.04753" lon="1.86677">
        <ele>293</ele>
        <time>2016-04-03T10:47:19.000Z</time>
      </trkpt>
      <trkpt lat="44.04753" lon="1.86677">
        <ele>293</ele>
        <time>2016-04-03T10:47:21.000Z</time>
      </trkpt>
      <trkpt lat="44.04753" lon="1.86677">
        <ele>293</ele>
        <time>2016-04-03T10:47:27.000Z</time>
      </trkpt>
      <trkpt lat="44.04753" lon="1.86677">
        <ele>293</ele>
        <time>2016-04-03T10:47:29.000Z</time>
      </trkpt>
      <trkpt lat="44.04753" lon="1.86677">
        <ele>293</ele>
        <time>2016-04-03T10:47:31.000Z</time>
      </trkpt>
      <trkpt lat="44.04753" lon="1.86677">
        <ele>293</ele>
        <time>2016-04-03T10:47:33.000Z</time>
      </trkpt>
      <trkpt lat="44.04753" lon="1.86677">
        <ele>293</ele>
        <time>2016-04-03T10:47:35.000Z</time>
      </trkpt>
      <trkpt lat="44.04753" lon="1.86677">
        <ele>293</ele>
        <time>2016-04-03T10:47:37.000Z</time>
      </trkpt>
      <trkpt lat="44.0477" lon="1.86724">
        <ele>285</ele>
        <time>2016-04-03T10:48:38.000Z</time>
      </trkpt>
      <trkpt lat="44.04779" lon="1.86749">
        <ele>285</ele>
        <time>2016-04-03T10:48:40.000Z</time>
      </trkpt>
      <trkpt lat="44.04784" lon="1.86763">
        <ele>285</ele>
        <time>2016-04-03T10:48:42.000Z</time>
      </trkpt>
      <trkpt lat="44.04787" lon="1.86772">
        <ele>284</ele>
        <time>2016-04-03T10:48:44.000Z</time>
      </trkpt>
      <trkpt lat="44.04787" lon="1.86772">
        <ele>284</ele>
        <time>2016-04-03T10:48:46.000Z</time>
      </trkpt>
      <trkpt lat="44.04789" lon="1.86779">
        <ele>284</ele>
        <time>2016-04-03T10:48:48.000Z</time>
      </trkpt>
      <trkpt lat="44.0479" lon="1.86785">
        <ele>284</ele>
        <time>2016-04-03T10:48:52.000Z</time>
      </trkpt>
      <trkpt lat="44.0479" lon="1.86785">
        <ele>284</ele>
        <time>2016-04-03T10:48:54.000Z</time>
      </trkpt>
      <trkpt lat="44.0479" lon="1.86785">
        <ele>284</ele>
        <time>2016-04-03T10:48:56.000Z</time>
      </trkpt>
      <trkpt lat="44.0479" lon="1.86785">
        <ele>284</ele>
        <time>2016-04-03T10:48:58.000Z</time>
      </trkpt>
      <trkpt lat="44.0479" lon="1.86785">
        <ele>284</ele>
        <time>2016-04-03T10:49:00.000Z</time>
      </trkpt>
      <trkpt lat="44.0479" lon="1.86785">
        <ele>284</ele>
        <time>2016-04-03T10:49:02.000Z</time>
      </trkpt>
      <trkpt lat="44.04791" lon="1.86796">
        <ele>284</ele>
        <time>2016-04-03T10:49:04.000Z</time>
      </trkpt>
      <trkpt lat="44.04792" lon="1.86803">
        <ele>283</ele>
        <time>2016-04-03T10:49:06.000Z</time>
      </trkpt>
      <trkpt lat="44.04792" lon="1.86803">
        <ele>283</ele>
        <time>2016-04-03T10:49:10.000Z</time>
      </trkpt>
      <trkpt lat="44.04792" lon="1.86803">
        <ele>283</ele>
        <time>2016-04-03T10:49:12.000Z</time>
      </trkpt>
      <trkpt lat="44.04792" lon="1.86811">
        <ele>283</ele>
        <time>2016-04-03T10:49:14.000Z</time>
      </trkpt>
      <trkpt lat="44.04792" lon="1.86811">
        <ele>283</ele>
        <time>2016-04-03T10:49:16.000Z</time>
      </trkpt>
      <trkpt lat="44.04792" lon="1.86811">
        <ele>283</ele>
        <time>2016-04-03T10:49:18.000Z</time>
      </trkpt>
      <trkpt lat="44.04792" lon="1.86811">
        <ele>283</ele>
        <time>2016-04-03T10:49:20.000Z</time>
      </trkpt>
      <trkpt lat="44.04792" lon="1.86811">
        <ele>283</ele>
        <time>2016-04-03T10:49:22.000Z</time>
      </trkpt>
      <trkpt lat="44.04792" lon="1.86811">
        <ele>283</ele>
        <time>2016-04-03T10:49:24.000Z</time>
      </trkpt>
      <trkpt lat="44.04792" lon="1.86811">
        <ele>283</ele>
        <time>2016-04-03T10:49:26.000Z</time>
      </trkpt>
      <trkpt lat="44.04792" lon="1.86825">
        <ele>283</ele>
        <time>2016-04-03T10:49:30.000Z</time>
      </trkpt>
      <trkpt lat="44.04791" lon="1.86834">
        <ele>283</ele>
        <time>2016-04-03T10:49:32.000Z</time>
      </trkpt>
      <trkpt lat="44.04791" lon="1.86834">
        <ele>283</ele>
        <time>2016-04-03T10:49:34.000Z</time>
      </trkpt>
      <trkpt lat="44.04791" lon="1.8684">
        <ele>282</ele>
        <time>2016-04-03T10:49:36.000Z</time>
      </trkpt>
      <trkpt lat="44.0479" lon="1.86848">
        <ele>283</ele>
        <time>2016-04-03T10:49:42.000Z</time>
      </trkpt>
      <trkpt lat="44.0479" lon="1.86848">
        <ele>283</ele>
        <time>2016-04-03T10:49:44.000Z</time>
      </trkpt>
      <trkpt lat="44.0479" lon="1.86848">
        <ele>283</ele>
        <time>2016-04-03T10:49:46.000Z</time>
      </trkpt>
      <trkpt lat="44.0479" lon="1.86848">
        <ele>283</ele>
        <time>2016-04-03T10:49:54.000Z</time>
      </trkpt>
      <trkpt lat="44.0479" lon="1.86848">
        <ele>283</ele>
        <time>2016-04-03T10:49:56.000Z</time>
      </trkpt>
      <trkpt lat="44.0479" lon="1.86848">
        <ele>283</ele>
        <time>2016-04-03T10:49:58.000Z</time>
      </trkpt>
      <trkpt lat="44.0479" lon="1.86848">
        <ele>283</ele>
        <time>2016-04-03T10:50:00.000Z</time>
      </trkpt>
      <trkpt lat="44.04789" lon="1.86864">
        <ele>285</ele>
        <time>2016-04-03T10:50:02.000Z</time>
      </trkpt>
      <trkpt lat="44.04788" lon="1.86874">
        <ele>285</ele>
        <time>2016-04-03T10:50:04.000Z</time>
      </trkpt>
      <trkpt lat="44.04787" lon="1.86881">
        <ele>285</ele>
        <time>2016-04-03T10:50:06.000Z</time>
      </trkpt>
      <trkpt lat="44.04787" lon="1.86881">
        <ele>285</ele>
        <time>2016-04-03T10:50:08.000Z</time>
      </trkpt>
      <trkpt lat="44.04787" lon="1.86881">
        <ele>285</ele>
        <time>2016-04-03T10:50:10.000Z</time>
      </trkpt>
      <trkpt lat="44.04786" lon="1.8689">
        <ele>285</ele>
        <time>2016-04-03T10:50:12.000Z</time>
      </trkpt>
      <trkpt lat="44.04784" lon="1.86897">
        <ele>285</ele>
        <time>2016-04-03T10:50:16.000Z</time>
      </trkpt>
      <trkpt lat="44.04783" lon="1.86904">
        <ele>286</ele>
        <time>2016-04-03T10:50:20.000Z</time>
      </trkpt>
      <trkpt lat="44.04782" lon="1.8691">
        <ele>286</ele>
        <time>2016-04-03T10:50:24.000Z</time>
      </trkpt>
      <trkpt lat="44.04782" lon="1.8691">
        <ele>286</ele>
        <time>2016-04-03T10:50:26.000Z</time>
      </trkpt>
      <trkpt lat="44.04782" lon="1.8691">
        <ele>286</ele>
        <time>2016-04-03T10:50:28.000Z</time>
      </trkpt>
      <trkpt lat="44.04782" lon="1.8691">
        <ele>286</ele>
        <time>2016-04-03T10:50:30.000Z</time>
      </trkpt>
      <trkpt lat="44.04782" lon="1.8691">
        <ele>286</ele>
        <time>2016-04-03T10:50:32.000Z</time>
      </trkpt>
      <trkpt lat="44.04778" lon="1.86928">
        <ele>287</ele>
        <time>2016-04-03T10:50:42.000Z</time>
      </trkpt>
      <trkpt lat="44.04776" lon="1.86939">
        <ele>287</ele>
        <time>2016-04-03T10:50:44.000Z</time>
      </trkpt>
      <trkpt lat="44.04774" lon="1.86946">
        <ele>287</ele>
        <time>2016-04-03T10:50:46.000Z</time>
      </trkpt>
      <trkpt lat="44.04774" lon="1.86946">
        <ele>287</ele>
        <time>2016-04-03T10:50:48.000Z</time>
      </trkpt>
      <trkpt lat="44.04774" lon="1.86946">
        <ele>287</ele>
        <time>2016-04-03T10:50:50.000Z</time>
      </trkpt>
      <trkpt lat="44.04771" lon="1.86953">
        <ele>286</ele>
        <time>2016-04-03T10:50:52.000Z</time>
      </trkpt>
      <trkpt lat="44.04769" lon="1.86959">
        <ele>286</ele>
        <time>2016-04-03T10:50:54.000Z</time>
      </trkpt>
      <trkpt lat="44.04769" lon="1.86959">
        <ele>286</ele>
        <time>2016-04-03T10:50:58.000Z</time>
      </trkpt>
      <trkpt lat="44.04769" lon="1.86959">
        <ele>286</ele>
        <time>2016-04-03T10:51:00.000Z</time>
      </trkpt>
      <trkpt lat="44.04769" lon="1.86959">
        <ele>286</ele>
        <time>2016-04-03T10:51:03.000Z</time>
      </trkpt>
      <trkpt lat="44.04769" lon="1.86959">
        <ele>286</ele>
        <time>2016-04-03T10:51:04.000Z</time>
      </trkpt>
      <trkpt lat="44.04763" lon="1.86973">
        <ele>288</ele>
        <time>2016-04-03T10:51:16.000Z</time>
      </trkpt>
      <trkpt lat="44.04759" lon="1.86983">
        <ele>288</ele>
        <time>2016-04-03T10:51:18.000Z</time>
      </trkpt>
      <trkpt lat="44.04757" lon="1.8699">
        <ele>288</ele>
        <time>2016-04-03T10:51:20.000Z</time>
      </trkpt>
      <trkpt lat="44.04754" lon="1.86997">
        <ele>288</ele>
        <time>2016-04-03T10:51:24.000Z</time>
      </trkpt>
      <trkpt lat="44.04754" lon="1.86997">
        <ele>288</ele>
        <time>2016-04-03T10:51:26.000Z</time>
      </trkpt>
      <trkpt lat="44.04754" lon="1.86997">
        <ele>288</ele>
        <time>2016-04-03T10:51:28.000Z</time>
      </trkpt>
      <trkpt lat="44.04754" lon="1.86997">
        <ele>288</ele>
        <time>2016-04-03T10:51:30.000Z</time>
      </trkpt>
      <trkpt lat="44.04752" lon="1.87007">
        <ele>288</ele>
        <time>2016-04-03T10:51:32.000Z</time>
      </trkpt>
      <trkpt lat="44.0475" lon="1.87014">
        <ele>288</ele>
        <time>2016-04-03T10:51:34.000Z</time>
      </trkpt>
      <trkpt lat="44.0475" lon="1.87021">
        <ele>289</ele>
        <time>2016-04-03T10:51:38.000Z</time>
      </trkpt>
      <trkpt lat="44.0475" lon="1.87021">
        <ele>289</ele>
        <time>2016-04-03T10:51:40.000Z</time>
      </trkpt>
      <trkpt lat="44.04749" lon="1.87028">
        <ele>289</ele>
        <time>2016-04-03T10:51:42.000Z</time>
      </trkpt>
      <trkpt lat="44.04747" lon="1.87035">
        <ele>289</ele>
        <time>2016-04-03T10:51:46.000Z</time>
      </trkpt>
      <trkpt lat="44.04746" lon="1.87041">
        <ele>290</ele>
        <time>2016-04-03T10:51:48.000Z</time>
      </trkpt>
      <trkpt lat="44.04744" lon="1.8705">
        <ele>290</ele>
        <time>2016-04-03T10:51:52.000Z</time>
      </trkpt>
      <trkpt lat="44.04744" lon="1.87057">
        <ele>291</ele>
        <time>2016-04-03T10:51:54.000Z</time>
      </trkpt>
      <trkpt lat="44.04744" lon="1.87057">
        <ele>291</ele>
        <time>2016-04-03T10:51:58.000Z</time>
      </trkpt>
      <trkpt lat="44.04742" lon="1.87071">
        <ele>292</ele>
        <time>2016-04-03T10:52:02.000Z</time>
      </trkpt>
      <trkpt lat="44.0474" lon="1.87081">
        <ele>293</ele>
        <time>2016-04-03T10:52:04.000Z</time>
      </trkpt>
      <trkpt lat="44.04739" lon="1.87088">
        <ele>293</ele>
        <time>2016-04-03T10:52:06.000Z</time>
      </trkpt>
      <trkpt lat="44.04739" lon="1.87095">
        <ele>294</ele>
        <time>2016-04-03T10:52:08.000Z</time>
      </trkpt>
      <trkpt lat="44.04739" lon="1.87095">
        <ele>294</ele>
        <time>2016-04-03T10:52:10.000Z</time>
      </trkpt>
      <trkpt lat="44.04738" lon="1.87104">
        <ele>294</ele>
        <time>2016-04-03T10:52:12.000Z</time>
      </trkpt>
      <trkpt lat="44.04737" lon="1.87111">
        <ele>295</ele>
        <time>2016-04-03T10:52:14.000Z</time>
      </trkpt>
      <trkpt lat="44.04737" lon="1.87118">
        <ele>295</ele>
        <time>2016-04-03T10:52:16.000Z</time>
      </trkpt>
      <trkpt lat="44.04735" lon="1.87127">
        <ele>296</ele>
        <time>2016-04-03T10:52:20.000Z</time>
      </trkpt>
      <trkpt lat="44.04734" lon="1.87135">
        <ele>296</ele>
        <time>2016-04-03T10:52:22.000Z</time>
      </trkpt>
      <trkpt lat="44.04733" lon="1.87143">
        <ele>297</ele>
        <time>2016-04-03T10:52:24.000Z</time>
      </trkpt>
      <trkpt lat="44.04732" lon="1.8715">
        <ele>298</ele>
        <time>2016-04-03T10:52:26.000Z</time>
      </trkpt>
      <trkpt lat="44.0473" lon="1.87156">
        <ele>299</ele>
        <time>2016-04-03T10:52:28.000Z</time>
      </trkpt>
      <trkpt lat="44.04726" lon="1.87169">
        <ele>299</ele>
        <time>2016-04-03T10:52:30.000Z</time>
      </trkpt>
      <trkpt lat="44.04726" lon="1.87169">
        <ele>299</ele>
        <time>2016-04-03T10:52:32.000Z</time>
      </trkpt>
      <trkpt lat="44.04724" lon="1.87184">
        <ele>301</ele>
        <time>2016-04-03T10:52:34.000Z</time>
      </trkpt>
      <trkpt lat="44.04721" lon="1.87199">
        <ele>304</ele>
        <time>2016-04-03T10:52:38.000Z</time>
      </trkpt>
      <trkpt lat="44.04721" lon="1.87199">
        <ele>304</ele>
        <time>2016-04-03T10:52:40.000Z</time>
      </trkpt>
      <trkpt lat="44.04717" lon="1.87213">
        <ele>305</ele>
        <time>2016-04-03T10:52:42.000Z</time>
      </trkpt>
      <trkpt lat="44.04717" lon="1.87213">
        <ele>305</ele>
        <time>2016-04-03T10:52:44.000Z</time>
      </trkpt>
      <trkpt lat="44.04717" lon="1.87213">
        <ele>305</ele>
        <time>2016-04-03T10:52:46.000Z</time>
      </trkpt>
      <trkpt lat="44.04712" lon="1.87251">
        <ele>306</ele>
        <time>2016-04-03T10:52:52.000Z</time>
      </trkpt>
      <trkpt lat="44.0471" lon="1.87266">
        <ele>305</ele>
        <time>2016-04-03T10:52:56.000Z</time>
      </trkpt>
      <trkpt lat="44.0471" lon="1.87266">
        <ele>305</ele>
        <time>2016-04-03T10:52:58.000Z</time>
      </trkpt>
      <trkpt lat="44.04707" lon="1.8728">
        <ele>305</ele>
        <time>2016-04-03T10:53:00.000Z</time>
      </trkpt>
      <trkpt lat="44.04707" lon="1.8728">
        <ele>305</ele>
        <time>2016-04-03T10:53:04.000Z</time>
      </trkpt>
      <trkpt lat="44.04707" lon="1.8728">
        <ele>305</ele>
        <time>2016-04-03T10:53:06.000Z</time>
      </trkpt>
      <trkpt lat="44.04707" lon="1.8728">
        <ele>305</ele>
        <time>2016-04-03T10:53:08.000Z</time>
      </trkpt>
      <trkpt lat="44.04707" lon="1.8728">
        <ele>305</ele>
        <time>2016-04-03T10:53:10.000Z</time>
      </trkpt>
      <trkpt lat="44.04707" lon="1.8728">
        <ele>305</ele>
        <time>2016-04-03T10:53:12.000Z</time>
      </trkpt>
      <trkpt lat="44.04707" lon="1.8728">
        <ele>305</ele>
        <time>2016-04-03T10:53:14.000Z</time>
      </trkpt>
      <trkpt lat="44.04691" lon="1.87339">
        <ele>296</ele>
        <time>2016-04-03T10:53:20.000Z</time>
      </trkpt>
      <trkpt lat="44.04691" lon="1.87339">
        <ele>296</ele>
        <time>2016-04-03T10:53:22.000Z</time>
      </trkpt>
      <trkpt lat="44.04689" lon="1.87352">
        <ele>295</ele>
        <time>2016-04-03T10:53:24.000Z</time>
      </trkpt>
      <trkpt lat="44.04684" lon="1.87366">
        <ele>295</ele>
        <time>2016-04-03T10:53:28.000Z</time>
      </trkpt>
      <trkpt lat="44.0468" lon="1.87377">
        <ele>294</ele>
        <time>2016-04-03T10:53:32.000Z</time>
      </trkpt>
      <trkpt lat="44.0468" lon="1.87377">
        <ele>294</ele>
        <time>2016-04-03T10:53:34.000Z</time>
      </trkpt>
      <trkpt lat="44.0468" lon="1.87377">
        <ele>294</ele>
        <time>2016-04-03T10:53:36.000Z</time>
      </trkpt>
      <trkpt lat="44.04671" lon="1.87405">
        <ele>295</ele>
        <time>2016-04-03T10:53:42.000Z</time>
      </trkpt>
      <trkpt lat="44.04671" lon="1.87405">
        <ele>295</ele>
        <time>2016-04-03T10:53:44.000Z</time>
      </trkpt>
      <trkpt lat="44.04671" lon="1.87405">
        <ele>295</ele>
        <time>2016-04-03T10:53:46.000Z</time>
      </trkpt>
      <trkpt lat="44.04671" lon="1.87405">
        <ele>295</ele>
        <time>2016-04-03T10:53:48.000Z</time>
      </trkpt>
      <trkpt lat="44.04671" lon="1.87405">
        <ele>295</ele>
        <time>2016-04-03T10:53:50.000Z</time>
      </trkpt>
      <trkpt lat="44.04671" lon="1.87405">
        <ele>295</ele>
        <time>2016-04-03T10:53:52.000Z</time>
      </trkpt>
      <trkpt lat="44.04664" lon="1.87425">
        <ele>293</ele>
        <time>2016-04-03T10:53:58.000Z</time>
      </trkpt>
      <trkpt lat="44.0466" lon="1.87437">
        <ele>293</ele>
        <time>2016-04-03T10:53:59.000Z</time>
      </trkpt>
      <trkpt lat="44.04656" lon="1.87447">
        <ele>292</ele>
        <time>2016-04-03T10:54:01.000Z</time>
      </trkpt>
      <trkpt lat="44.04654" lon="1.87456">
        <ele>292</ele>
        <time>2016-04-03T10:54:03.000Z</time>
      </trkpt>
      <trkpt lat="44.0465" lon="1.87464">
        <ele>291</ele>
        <time>2016-04-03T10:54:05.000Z</time>
      </trkpt>
      <trkpt lat="44.04644" lon="1.87479">
        <ele>291</ele>
        <time>2016-04-03T10:54:07.000Z</time>
      </trkpt>
      <trkpt lat="44.04638" lon="1.87495">
        <ele>291</ele>
        <time>2016-04-03T10:54:11.000Z</time>
      </trkpt>
      <trkpt lat="44.04638" lon="1.87495">
        <ele>291</ele>
        <time>2016-04-03T10:54:13.000Z</time>
      </trkpt>
      <trkpt lat="44.04632" lon="1.8751">
        <ele>291</ele>
        <time>2016-04-03T10:54:15.000Z</time>
      </trkpt>
      <trkpt lat="44.04632" lon="1.8751">
        <ele>291</ele>
        <time>2016-04-03T10:54:17.000Z</time>
      </trkpt>
      <trkpt lat="44.04632" lon="1.8751">
        <ele>291</ele>
        <time>2016-04-03T10:54:19.000Z</time>
      </trkpt>
      <trkpt lat="44.04632" lon="1.8751">
        <ele>291</ele>
        <time>2016-04-03T10:54:21.000Z</time>
      </trkpt>
      <trkpt lat="44.04632" lon="1.8751">
        <ele>291</ele>
        <time>2016-04-03T10:54:23.000Z</time>
      </trkpt>
      <trkpt lat="44.04632" lon="1.8751">
        <ele>291</ele>
        <time>2016-04-03T10:54:25.000Z</time>
      </trkpt>
      <trkpt lat="44.04632" lon="1.8751">
        <ele>291</ele>
        <time>2016-04-03T10:54:27.000Z</time>
      </trkpt>
      <trkpt lat="44.04632" lon="1.8751">
        <ele>291</ele>
        <time>2016-04-03T10:54:29.000Z</time>
      </trkpt>
      <trkpt lat="44.04632" lon="1.8751">
        <ele>291</ele>
        <time>2016-04-03T10:54:31.000Z</time>
      </trkpt>
      <trkpt lat="44.04632" lon="1.8751">
        <ele>291</ele>
        <time>2016-04-03T10:54:33.000Z</time>
      </trkpt>
      <trkpt lat="44.04632" lon="1.8751">
        <ele>291</ele>
        <time>2016-04-03T10:54:35.000Z</time>
      </trkpt>
      <trkpt lat="44.04632" lon="1.8751">
        <ele>291</ele>
        <time>2016-04-03T10:54:37.000Z</time>
      </trkpt>
      <trkpt lat="44.04592" lon="1.87601">
        <ele>292</ele>
        <time>2016-04-03T10:54:43.000Z</time>
      </trkpt>
      <trkpt lat="44.04592" lon="1.87601">
        <ele>292</ele>
        <time>2016-04-03T10:54:45.000Z</time>
      </trkpt>
      <trkpt lat="44.04592" lon="1.87601">
        <ele>292</ele>
        <time>2016-04-03T10:54:47.000Z</time>
      </trkpt>
      <trkpt lat="44.04592" lon="1.87601">
        <ele>292</ele>
        <time>2016-04-03T10:54:49.000Z</time>
      </trkpt>
      <trkpt lat="44.04579" lon="1.87629">
        <ele>293</ele>
        <time>2016-04-03T10:54:53.000Z</time>
      </trkpt>
      <trkpt lat="44.04574" lon="1.87641">
        <ele>293</ele>
        <time>2016-04-03T10:54:57.000Z</time>
      </trkpt>
      <trkpt lat="44.04574" lon="1.87641">
        <ele>293</ele>
        <time>2016-04-03T10:54:59.000Z</time>
      </trkpt>
      <trkpt lat="44.04574" lon="1.87641">
        <ele>293</ele>
        <time>2016-04-03T10:55:01.000Z</time>
      </trkpt>
      <trkpt lat="44.04574" lon="1.87641">
        <ele>293</ele>
        <time>2016-04-03T10:55:03.000Z</time>
      </trkpt>
      <trkpt lat="44.04574" lon="1.87641">
        <ele>293</ele>
        <time>2016-04-03T10:55:05.000Z</time>
      </trkpt>
      <trkpt lat="44.04574" lon="1.87641">
        <ele>293</ele>
        <time>2016-04-03T10:55:07.000Z</time>
      </trkpt>
      <trkpt lat="44.04558" lon="1.87677">
        <ele>293</ele>
        <time>2016-04-03T10:55:11.000Z</time>
      </trkpt>
      <trkpt lat="44.04553" lon="1.87689">
        <ele>292</ele>
        <time>2016-04-03T10:55:15.000Z</time>
      </trkpt>
      <trkpt lat="44.04548" lon="1.877">
        <ele>292</ele>
        <time>2016-04-03T10:55:19.000Z</time>
      </trkpt>
      <trkpt lat="44.04548" lon="1.877">
        <ele>292</ele>
        <time>2016-04-03T10:55:21.000Z</time>
      </trkpt>
      <trkpt lat="44.04543" lon="1.87711">
        <ele>292</ele>
        <time>2016-04-03T10:55:23.000Z</time>
      </trkpt>
      <trkpt lat="44.04541" lon="1.87718">
        <ele>292</ele>
        <time>2016-04-03T10:55:27.000Z</time>
      </trkpt>
      <trkpt lat="44.04538" lon="1.87724">
        <ele>293</ele>
        <time>2016-04-03T10:55:29.000Z</time>
      </trkpt>
      <trkpt lat="44.04536" lon="1.87729">
        <ele>293</ele>
        <time>2016-04-03T10:55:31.000Z</time>
      </trkpt>
      <trkpt lat="44.04536" lon="1.87729">
        <ele>293</ele>
        <time>2016-04-03T10:55:33.000Z</time>
      </trkpt>
      <trkpt lat="44.04536" lon="1.87729">
        <ele>293</ele>
        <time>2016-04-03T10:55:35.000Z</time>
      </trkpt>
      <trkpt lat="44.04536" lon="1.87729">
        <ele>293</ele>
        <time>2016-04-03T10:55:37.000Z</time>
      </trkpt>
      <trkpt lat="44.04536" lon="1.87729">
        <ele>293</ele>
        <time>2016-04-03T10:55:39.000Z</time>
      </trkpt>
      <trkpt lat="44.04536" lon="1.87729">
        <ele>293</ele>
        <time>2016-04-03T10:55:41.000Z</time>
      </trkpt>
      <trkpt lat="44.04536" lon="1.87729">
        <ele>293</ele>
        <time>2016-04-03T10:55:43.000Z</time>
      </trkpt>
      <trkpt lat="44.04536" lon="1.87729">
        <ele>293</ele>
        <time>2016-04-03T10:55:45.000Z</time>
      </trkpt>
      <trkpt lat="44.04536" lon="1.87729">
        <ele>293</ele>
        <time>2016-04-03T10:55:47.000Z</time>
      </trkpt>
      <trkpt lat="44.04536" lon="1.87729">
        <ele>293</ele>
        <time>2016-04-03T10:55:49.000Z</time>
      </trkpt>
      <trkpt lat="44.04522" lon="1.8776">
        <ele>293</ele>
        <time>2016-04-03T10:55:53.000Z</time>
      </trkpt>
      <trkpt lat="44.04514" lon="1.87778">
        <ele>293</ele>
        <time>2016-04-03T10:55:55.000Z</time>
      </trkpt>
      <trkpt lat="44.04509" lon="1.87789">
        <ele>293</ele>
        <time>2016-04-03T10:55:57.000Z</time>
      </trkpt>
      <trkpt lat="44.04506" lon="1.87798">
        <ele>293</ele>
        <time>2016-04-03T10:55:59.000Z</time>
      </trkpt>
      <trkpt lat="44.04502" lon="1.87804">
        <ele>293</ele>
        <time>2016-04-03T10:56:01.000Z</time>
      </trkpt>
      <trkpt lat="44.04497" lon="1.87816">
        <ele>294</ele>
        <time>2016-04-03T10:56:03.000Z</time>
      </trkpt>
      <trkpt lat="44.04497" lon="1.87816">
        <ele>294</ele>
        <time>2016-04-03T10:56:05.000Z</time>
      </trkpt>
      <trkpt lat="44.04497" lon="1.87816">
        <ele>294</ele>
        <time>2016-04-03T10:56:07.000Z</time>
      </trkpt>
      <trkpt lat="44.04497" lon="1.87816">
        <ele>294</ele>
        <time>2016-04-03T10:56:13.000Z</time>
      </trkpt>
      <trkpt lat="44.04497" lon="1.87816">
        <ele>294</ele>
        <time>2016-04-03T10:56:15.000Z</time>
      </trkpt>
      <trkpt lat="44.04497" lon="1.87816">
        <ele>294</ele>
        <time>2016-04-03T10:56:17.000Z</time>
      </trkpt>
      <trkpt lat="44.04497" lon="1.87816">
        <ele>294</ele>
        <time>2016-04-03T10:56:19.000Z</time>
      </trkpt>
      <trkpt lat="44.04473" lon="1.87862">
        <ele>295</ele>
        <time>2016-04-03T10:56:23.000Z</time>
      </trkpt>
      <trkpt lat="44.04464" lon="1.87874">
        <ele>296</ele>
        <time>2016-04-03T10:56:29.000Z</time>
      </trkpt>
      <trkpt lat="44.04457" lon="1.87882">
        <ele>295</ele>
        <time>2016-04-03T10:56:33.000Z</time>
      </trkpt>
      <trkpt lat="44.04457" lon="1.87882">
        <ele>295</ele>
        <time>2016-04-03T10:56:35.000Z</time>
      </trkpt>
      <trkpt lat="44.04457" lon="1.87882">
        <ele>295</ele>
        <time>2016-04-03T10:56:37.000Z</time>
      </trkpt>
      <trkpt lat="44.04446" lon="1.87893">
        <ele>295</ele>
        <time>2016-04-03T10:56:39.000Z</time>
      </trkpt>
      <trkpt lat="44.04438" lon="1.87902">
        <ele>295</ele>
        <time>2016-04-03T10:56:43.000Z</time>
      </trkpt>
      <trkpt lat="44.04431" lon="1.87911">
        <ele>295</ele>
        <time>2016-04-03T10:56:47.000Z</time>
      </trkpt>
      <trkpt lat="44.04431" lon="1.87911">
        <ele>295</ele>
        <time>2016-04-03T10:56:49.000Z</time>
      </trkpt>
      <trkpt lat="44.04431" lon="1.87911">
        <ele>295</ele>
        <time>2016-04-03T10:56:51.000Z</time>
      </trkpt>
      <trkpt lat="44.04417" lon="1.87931">
        <ele>294</ele>
        <time>2016-04-03T10:56:55.000Z</time>
      </trkpt>
      <trkpt lat="44.04406" lon="1.87931">
        <ele>294</ele>
        <time>2016-04-03T10:56:59.000Z</time>
      </trkpt>
      <trkpt lat="44.04393" lon="1.87927">
        <ele>294</ele>
        <time>2016-04-03T10:57:03.000Z</time>
      </trkpt>
      <trkpt lat="44.0438" lon="1.87921">
        <ele>293</ele>
        <time>2016-04-03T10:57:07.000Z</time>
      </trkpt>
      <trkpt lat="44.04368" lon="1.87918">
        <ele>293</ele>
        <time>2016-04-03T10:57:11.000Z</time>
      </trkpt>
      <trkpt lat="44.04368" lon="1.87918">
        <ele>293</ele>
        <time>2016-04-03T10:57:13.000Z</time>
      </trkpt>
      <trkpt lat="44.04368" lon="1.87918">
        <ele>293</ele>
        <time>2016-04-03T10:57:15.000Z</time>
      </trkpt>
      <trkpt lat="44.04368" lon="1.87918">
        <ele>293</ele>
        <time>2016-04-03T10:57:17.000Z</time>
      </trkpt>
      <trkpt lat="44.04368" lon="1.87918">
        <ele>293</ele>
        <time>2016-04-03T10:57:19.000Z</time>
      </trkpt>
      <trkpt lat="44.04368" lon="1.87918">
        <ele>293</ele>
        <time>2016-04-03T10:57:21.000Z</time>
      </trkpt>
      <trkpt lat="44.04353" lon="1.87947">
        <ele>294</ele>
        <time>2016-04-03T10:57:25.000Z</time>
      </trkpt>
      <trkpt lat="44.04354" lon="1.87957">
        <ele>295</ele>
        <time>2016-04-03T10:57:29.000Z</time>
      </trkpt>
      <trkpt lat="44.04354" lon="1.87966">
        <ele>296</ele>
        <time>2016-04-03T10:57:31.000Z</time>
      </trkpt>
      <trkpt lat="44.04355" lon="1.87976">
        <ele>296</ele>
        <time>2016-04-03T10:57:33.000Z</time>
      </trkpt>
      <trkpt lat="44.04355" lon="1.87985">
        <ele>296</ele>
        <time>2016-04-03T10:57:36.000Z</time>
      </trkpt>
      <trkpt lat="44.04356" lon="1.87995">
        <ele>296</ele>
        <time>2016-04-03T10:57:37.000Z</time>
      </trkpt>
      <trkpt lat="44.04357" lon="1.88014">
        <ele>296</ele>
        <time>2016-04-03T10:57:39.000Z</time>
      </trkpt>
      <trkpt lat="44.04354" lon="1.88032">
        <ele>295</ele>
        <time>2016-04-03T10:57:43.000Z</time>
      </trkpt>
      <trkpt lat="44.04354" lon="1.88032">
        <ele>295</ele>
        <time>2016-04-03T10:57:45.000Z</time>
      </trkpt>
      <trkpt lat="44.04354" lon="1.88032">
        <ele>295</ele>
        <time>2016-04-03T10:57:47.000Z</time>
      </trkpt>
      <trkpt lat="44.04354" lon="1.88032">
        <ele>295</ele>
        <time>2016-04-03T10:57:49.000Z</time>
      </trkpt>
      <trkpt lat="44.04354" lon="1.88032">
        <ele>295</ele>
        <time>2016-04-03T10:57:51.000Z</time>
      </trkpt>
      <trkpt lat="44.04354" lon="1.88032">
        <ele>295</ele>
        <time>2016-04-03T10:57:53.000Z</time>
      </trkpt>
      <trkpt lat="44.04354" lon="1.88032">
        <ele>295</ele>
        <time>2016-04-03T10:57:55.000Z</time>
      </trkpt>
      <trkpt lat="44.04302" lon="1.88038">
        <ele>293</ele>
        <time>2016-04-03T10:58:01.000Z</time>
      </trkpt>
      <trkpt lat="44.04289" lon="1.88041">
        <ele>292</ele>
        <time>2016-04-03T10:58:05.000Z</time>
      </trkpt>
      <trkpt lat="44.04275" lon="1.88045">
        <ele>291</ele>
        <time>2016-04-03T10:58:09.000Z</time>
      </trkpt>
      <trkpt lat="44.04258" lon="1.88052">
        <ele>290</ele>
        <time>2016-04-03T10:58:13.000Z</time>
      </trkpt>
      <trkpt lat="44.04249" lon="1.88056">
        <ele>289</ele>
        <time>2016-04-03T10:58:15.000Z</time>
      </trkpt>
      <trkpt lat="44.0424" lon="1.8806">
        <ele>288</ele>
        <time>2016-04-03T10:58:17.000Z</time>
      </trkpt>
      <trkpt lat="44.04231" lon="1.88066">
        <ele>288</ele>
        <time>2016-04-03T10:58:19.000Z</time>
      </trkpt>
      <trkpt lat="44.04221" lon="1.88072">
        <ele>287</ele>
        <time>2016-04-03T10:58:21.000Z</time>
      </trkpt>
      <trkpt lat="44.04213" lon="1.88079">
        <ele>287</ele>
        <time>2016-04-03T10:58:23.000Z</time>
      </trkpt>
      <trkpt lat="44.04204" lon="1.88084">
        <ele>287</ele>
        <time>2016-04-03T10:58:25.000Z</time>
      </trkpt>
      <trkpt lat="44.04204" lon="1.88084">
        <ele>287</ele>
        <time>2016-04-03T10:58:27.000Z</time>
      </trkpt>
      <trkpt lat="44.04204" lon="1.88084">
        <ele>287</ele>
        <time>2016-04-03T10:58:29.000Z</time>
      </trkpt>
      <trkpt lat="44.04204" lon="1.88084">
        <ele>287</ele>
        <time>2016-04-03T10:58:31.000Z</time>
      </trkpt>
      <trkpt lat="44.04204" lon="1.88084">
        <ele>287</ele>
        <time>2016-04-03T10:58:33.000Z</time>
      </trkpt>
      <trkpt lat="44.04204" lon="1.88084">
        <ele>287</ele>
        <time>2016-04-03T10:58:35.000Z</time>
      </trkpt>
      <trkpt lat="44.04204" lon="1.88084">
        <ele>287</ele>
        <time>2016-04-03T10:58:38.000Z</time>
      </trkpt>
      <trkpt lat="44.04204" lon="1.88084">
        <ele>287</ele>
        <time>2016-04-03T10:58:39.000Z</time>
      </trkpt>
      <trkpt lat="44.04204" lon="1.88084">
        <ele>287</ele>
        <time>2016-04-03T10:58:41.000Z</time>
      </trkpt>
      <trkpt lat="44.04204" lon="1.88084">
        <ele>287</ele>
        <time>2016-04-03T10:58:43.000Z</time>
      </trkpt>
      <trkpt lat="44.04204" lon="1.88084">
        <ele>287</ele>
        <time>2016-04-03T10:58:45.000Z</time>
      </trkpt>
      <trkpt lat="44.04204" lon="1.88084">
        <ele>287</ele>
        <time>2016-04-03T10:58:47.000Z</time>
      </trkpt>
      <trkpt lat="44.04104" lon="1.88084">
        <ele>286</ele>
        <time>2016-04-03T10:58:51.000Z</time>
      </trkpt>
      <trkpt lat="44.0409" lon="1.88098">
        <ele>286</ele>
        <time>2016-04-03T10:58:55.000Z</time>
      </trkpt>
      <trkpt lat="44.04084" lon="1.88106">
        <ele>285</ele>
        <time>2016-04-03T10:58:57.000Z</time>
      </trkpt>
      <trkpt lat="44.04074" lon="1.8811">
        <ele>284</ele>
        <time>2016-04-03T10:58:59.000Z</time>
      </trkpt>
      <trkpt lat="44.04063" lon="1.88112">
        <ele>284</ele>
        <time>2016-04-03T10:59:01.000Z</time>
      </trkpt>
      <trkpt lat="44.04063" lon="1.88112">
        <ele>284</ele>
        <time>2016-04-03T10:59:03.000Z</time>
      </trkpt>
      <trkpt lat="44.04063" lon="1.88112">
        <ele>284</ele>
        <time>2016-04-03T10:59:05.000Z</time>
      </trkpt>
      <trkpt lat="44.04063" lon="1.88112">
        <ele>284</ele>
        <time>2016-04-03T10:59:07.000Z</time>
      </trkpt>
      <trkpt lat="44.04063" lon="1.88112">
        <ele>284</ele>
        <time>2016-04-03T10:59:09.000Z</time>
      </trkpt>
      <trkpt lat="44.04063" lon="1.88112">
        <ele>284</ele>
        <time>2016-04-03T10:59:15.000Z</time>
      </trkpt>
      <trkpt lat="44.04063" lon="1.88112">
        <ele>284</ele>
        <time>2016-04-03T10:59:17.000Z</time>
      </trkpt>
      <trkpt lat="44.04063" lon="1.88112">
        <ele>284</ele>
        <time>2016-04-03T10:59:19.000Z</time>
      </trkpt>
      <trkpt lat="44.04063" lon="1.88112">
        <ele>284</ele>
        <time>2016-04-03T10:59:21.000Z</time>
      </trkpt>
      <trkpt lat="44.0406" lon="1.88159">
        <ele>283</ele>
        <time>2016-04-03T10:59:25.000Z</time>
      </trkpt>
      <trkpt lat="44.0406" lon="1.88187">
        <ele>284</ele>
        <time>2016-04-03T10:59:27.000Z</time>
      </trkpt>
      <trkpt lat="44.04063" lon="1.88206">
        <ele>285</ele>
        <time>2016-04-03T10:59:29.000Z</time>
      </trkpt>
      <trkpt lat="44.04065" lon="1.8822">
        <ele>285</ele>
        <time>2016-04-03T10:59:31.000Z</time>
      </trkpt>
      <trkpt lat="44.04065" lon="1.8822">
        <ele>285</ele>
        <time>2016-04-03T10:59:33.000Z</time>
      </trkpt>
      <trkpt lat="44.04065" lon="1.8822">
        <ele>285</ele>
        <time>2016-04-03T10:59:35.000Z</time>
      </trkpt>
      <trkpt lat="44.04065" lon="1.8822">
        <ele>285</ele>
        <time>2016-04-03T10:59:37.000Z</time>
      </trkpt>
      <trkpt lat="44.04065" lon="1.8822">
        <ele>285</ele>
        <time>2016-04-03T10:59:39.000Z</time>
      </trkpt>
      <trkpt lat="44.04075" lon="1.88258">
        <ele>287</ele>
        <time>2016-04-03T10:59:45.000Z</time>
      </trkpt>
      <trkpt lat="44.04081" lon="1.88281">
        <ele>287</ele>
        <time>2016-04-03T10:59:47.000Z</time>
      </trkpt>
      <trkpt lat="44.04086" lon="1.88298">
        <ele>287</ele>
        <time>2016-04-03T10:59:49.000Z</time>
      </trkpt>
      <trkpt lat="44.0409" lon="1.88311">
        <ele>286</ele>
        <time>2016-04-03T10:59:51.000Z</time>
      </trkpt>
      <trkpt lat="44.04092" lon="1.88322">
        <ele>286</ele>
        <time>2016-04-03T10:59:53.000Z</time>
      </trkpt>
      <trkpt lat="44.04092" lon="1.88322">
        <ele>286</ele>
        <time>2016-04-03T10:59:55.000Z</time>
      </trkpt>
      <trkpt lat="44.04092" lon="1.88322">
        <ele>286</ele>
        <time>2016-04-03T10:59:57.000Z</time>
      </trkpt>
      <trkpt lat="44.04068" lon="1.88333">
        <ele>282</ele>
        <time>2016-04-03T11:00:01.000Z</time>
      </trkpt>
      <trkpt lat="44.04054" lon="1.88336">
        <ele>281</ele>
        <time>2016-04-03T11:00:05.000Z</time>
      </trkpt>
      <trkpt lat="44.04054" lon="1.88336">
        <ele>281</ele>
        <time>2016-04-03T11:00:07.000Z</time>
      </trkpt>
      <trkpt lat="44.04054" lon="1.88336">
        <ele>281</ele>
        <time>2016-04-03T11:00:09.000Z</time>
      </trkpt>
      <trkpt lat="44.04054" lon="1.88336">
        <ele>281</ele>
        <time>2016-04-03T11:00:11.000Z</time>
      </trkpt>
      <trkpt lat="44.04054" lon="1.88336">
        <ele>281</ele>
        <time>2016-04-03T11:00:13.000Z</time>
      </trkpt>
      <trkpt lat="44.04054" lon="1.88336">
        <ele>281</ele>
        <time>2016-04-03T11:00:15.000Z</time>
      </trkpt>
      <trkpt lat="44.04054" lon="1.88336">
        <ele>281</ele>
        <time>2016-04-03T11:00:17.000Z</time>
      </trkpt>
      <trkpt lat="44.04054" lon="1.88336">
        <ele>281</ele>
        <time>2016-04-03T11:00:19.000Z</time>
      </trkpt>
      <trkpt lat="44.04054" lon="1.88336">
        <ele>281</ele>
        <time>2016-04-03T11:00:21.000Z</time>
      </trkpt>
      <trkpt lat="44.04054" lon="1.88336">
        <ele>281</ele>
        <time>2016-04-03T11:00:23.000Z</time>
      </trkpt>
      <trkpt lat="44.04054" lon="1.88336">
        <ele>281</ele>
        <time>2016-04-03T11:00:25.000Z</time>
      </trkpt>
      <trkpt lat="44.04034" lon="1.8842">
        <ele>282</ele>
        <time>2016-04-03T11:00:31.000Z</time>
      </trkpt>
      <trkpt lat="44.04034" lon="1.8842">
        <ele>282</ele>
        <time>2016-04-03T11:00:33.000Z</time>
      </trkpt>
      <trkpt lat="44.04034" lon="1.8842">
        <ele>282</ele>
        <time>2016-04-03T11:00:35.000Z</time>
      </trkpt>
      <trkpt lat="44.04034" lon="1.8842">
        <ele>282</ele>
        <time>2016-04-03T11:00:37.000Z</time>
      </trkpt>
      <trkpt lat="44.04033" lon="1.88449">
        <ele>284</ele>
        <time>2016-04-03T11:00:41.000Z</time>
      </trkpt>
      <trkpt lat="44.04033" lon="1.88462">
        <ele>284</ele>
        <time>2016-04-03T11:00:45.000Z</time>
      </trkpt>
      <trkpt lat="44.04033" lon="1.88462">
        <ele>284</ele>
        <time>2016-04-03T11:00:47.000Z</time>
      </trkpt>
      <trkpt lat="44.04033" lon="1.88462">
        <ele>284</ele>
        <time>2016-04-03T11:00:50.000Z</time>
      </trkpt>
      <trkpt lat="44.04033" lon="1.88462">
        <ele>284</ele>
        <time>2016-04-03T11:00:51.000Z</time>
      </trkpt>
      <trkpt lat="44.04033" lon="1.88462">
        <ele>284</ele>
        <time>2016-04-03T11:00:53.000Z</time>
      </trkpt>
      <trkpt lat="44.04033" lon="1.88462">
        <ele>284</ele>
        <time>2016-04-03T11:00:55.000Z</time>
      </trkpt>
      <trkpt lat="44.04033" lon="1.88462">
        <ele>284</ele>
        <time>2016-04-03T11:00:57.000Z</time>
      </trkpt>
      <trkpt lat="44.04033" lon="1.88462">
        <ele>284</ele>
        <time>2016-04-03T11:00:59.000Z</time>
      </trkpt>
      <trkpt lat="44.04033" lon="1.88462">
        <ele>284</ele>
        <time>2016-04-03T11:01:01.000Z</time>
      </trkpt>
      <trkpt lat="44.04033" lon="1.88462">
        <ele>284</ele>
        <time>2016-04-03T11:01:03.000Z</time>
      </trkpt>
      <trkpt lat="44.04033" lon="1.88462">
        <ele>284</ele>
        <time>2016-04-03T11:01:05.000Z</time>
      </trkpt>
      <trkpt lat="44.04026" lon="1.88496">
        <ele>287</ele>
        <time>2016-04-03T11:01:09.000Z</time>
      </trkpt>
      <trkpt lat="44.04023" lon="1.88515">
        <ele>287</ele>
        <time>2016-04-03T11:01:11.000Z</time>
      </trkpt>
      <trkpt lat="44.0402" lon="1.88528">
        <ele>287</ele>
        <time>2016-04-03T11:01:13.000Z</time>
      </trkpt>
      <trkpt lat="44.04018" lon="1.88537">
        <ele>287</ele>
        <time>2016-04-03T11:01:15.000Z</time>
      </trkpt>
      <trkpt lat="44.04018" lon="1.88537">
        <ele>287</ele>
        <time>2016-04-03T11:01:17.000Z</time>
      </trkpt>
      <trkpt lat="44.04015" lon="1.8855">
        <ele>287</ele>
        <time>2016-04-03T11:01:21.000Z</time>
      </trkpt>
      <trkpt lat="44.04012" lon="1.88559">
        <ele>287</ele>
        <time>2016-04-03T11:01:23.000Z</time>
      </trkpt>
      <trkpt lat="44.0401" lon="1.88567">
        <ele>288</ele>
        <time>2016-04-03T11:01:25.000Z</time>
      </trkpt>
      <trkpt lat="44.04008" lon="1.88574">
        <ele>288</ele>
        <time>2016-04-03T11:01:27.000Z</time>
      </trkpt>
      <trkpt lat="44.04006" lon="1.8858">
        <ele>288</ele>
        <time>2016-04-03T11:01:29.000Z</time>
      </trkpt>
      <trkpt lat="44.04006" lon="1.8858">
        <ele>288</ele>
        <time>2016-04-03T11:01:32.000Z</time>
      </trkpt>
      <trkpt lat="44.04006" lon="1.8858">
        <ele>288</ele>
        <time>2016-04-03T11:01:33.000Z</time>
      </trkpt>
      <trkpt lat="44.04006" lon="1.8858">
        <ele>288</ele>
        <time>2016-04-03T11:01:35.000Z</time>
      </trkpt>
      <trkpt lat="44.04006" lon="1.8858">
        <ele>288</ele>
        <time>2016-04-03T11:01:37.000Z</time>
      </trkpt>
      <trkpt lat="44.04006" lon="1.8858">
        <ele>288</ele>
        <time>2016-04-03T11:01:40.000Z</time>
      </trkpt>
      <trkpt lat="44.04006" lon="1.8858">
        <ele>288</ele>
        <time>2016-04-03T11:01:41.000Z</time>
      </trkpt>
      <trkpt lat="44.04006" lon="1.8858">
        <ele>288</ele>
        <time>2016-04-03T11:01:43.000Z</time>
      </trkpt>
      <trkpt lat="44.04006" lon="1.8858">
        <ele>288</ele>
        <time>2016-04-03T11:01:45.000Z</time>
      </trkpt>
      <trkpt lat="44.04006" lon="1.8858">
        <ele>288</ele>
        <time>2016-04-03T11:01:47.000Z</time>
      </trkpt>
      <trkpt lat="44.04006" lon="1.8858">
        <ele>288</ele>
        <time>2016-04-03T11:01:49.000Z</time>
      </trkpt>
      <trkpt lat="44.04006" lon="1.8858">
        <ele>288</ele>
        <time>2016-04-03T11:01:51.000Z</time>
      </trkpt>
      <trkpt lat="44.04006" lon="1.8858">
        <ele>288</ele>
        <time>2016-04-03T11:01:53.000Z</time>
      </trkpt>
      <trkpt lat="44.04006" lon="1.8858">
        <ele>288</ele>
        <time>2016-04-03T11:01:55.000Z</time>
      </trkpt>
      <trkpt lat="44.04006" lon="1.8858">
        <ele>288</ele>
        <time>2016-04-03T11:01:57.000Z</time>
      </trkpt>
      <trkpt lat="44.03988" lon="1.88643">
        <ele>291</ele>
        <time>2016-04-03T11:01:59.000Z</time>
      </trkpt>
      <trkpt lat="44.0399" lon="1.88656">
        <ele>291</ele>
        <time>2016-04-03T11:02:05.000Z</time>
      </trkpt>
      <trkpt lat="44.03996" lon="1.88669">
        <ele>291</ele>
        <time>2016-04-03T11:02:11.000Z</time>
      </trkpt>
      <trkpt lat="44.03996" lon="1.88669">
        <ele>291</ele>
        <time>2016-04-03T11:02:13.000Z</time>
      </trkpt>
      <trkpt lat="44.03996" lon="1.88669">
        <ele>291</ele>
        <time>2016-04-03T11:02:15.000Z</time>
      </trkpt>
      <trkpt lat="44.03996" lon="1.88669">
        <ele>291</ele>
        <time>2016-04-03T11:02:17.000Z</time>
      </trkpt>
      <trkpt lat="44.04003" lon="1.88689">
        <ele>292</ele>
        <time>2016-04-03T11:02:21.000Z</time>
      </trkpt>
      <trkpt lat="44.04003" lon="1.88689">
        <ele>292</ele>
        <time>2016-04-03T11:02:27.000Z</time>
      </trkpt>
      <trkpt lat="44.04003" lon="1.88689">
        <ele>292</ele>
        <time>2016-04-03T11:02:29.000Z</time>
      </trkpt>
      <trkpt lat="44.04003" lon="1.88689">
        <ele>292</ele>
        <time>2016-04-03T11:02:32.000Z</time>
      </trkpt>
      <trkpt lat="44.0401" lon="1.88699">
        <ele>293</ele>
        <time>2016-04-03T11:02:43.000Z</time>
      </trkpt>
      <trkpt lat="44.04011" lon="1.88713">
        <ele>293</ele>
        <time>2016-04-03T11:02:47.000Z</time>
      </trkpt>
      <trkpt lat="44.04014" lon="1.88725">
        <ele>294</ele>
        <time>2016-04-03T11:02:51.000Z</time>
      </trkpt>
      <trkpt lat="44.04014" lon="1.88725">
        <ele>294</ele>
        <time>2016-04-03T11:02:53.000Z</time>
      </trkpt>
      <trkpt lat="44.04014" lon="1.88725">
        <ele>294</ele>
        <time>2016-04-03T11:02:55.000Z</time>
      </trkpt>
      <trkpt lat="44.04014" lon="1.88725">
        <ele>294</ele>
        <time>2016-04-03T11:02:57.000Z</time>
      </trkpt>
      <trkpt lat="44.04015" lon="1.88737">
        <ele>295</ele>
        <time>2016-04-03T11:02:59.000Z</time>
      </trkpt>
      <trkpt lat="44.04014" lon="1.88747">
        <ele>295</ele>
        <time>2016-04-03T11:03:01.000Z</time>
      </trkpt>
      <trkpt lat="44.04013" lon="1.88754">
        <ele>295</ele>
        <time>2016-04-03T11:03:03.000Z</time>
      </trkpt>
      <trkpt lat="44.04011" lon="1.88762">
        <ele>295</ele>
        <time>2016-04-03T11:03:05.000Z</time>
      </trkpt>
      <trkpt lat="44.04009" lon="1.88769">
        <ele>294</ele>
        <time>2016-04-03T11:03:07.000Z</time>
      </trkpt>
      <trkpt lat="44.04005" lon="1.88784">
        <ele>294</ele>
        <time>2016-04-03T11:03:09.000Z</time>
      </trkpt>
      <trkpt lat="44.04001" lon="1.88798">
        <ele>294</ele>
        <time>2016-04-03T11:03:13.000Z</time>
      </trkpt>
      <trkpt lat="44.03997" lon="1.88813">
        <ele>294</ele>
        <time>2016-04-03T11:03:17.000Z</time>
      </trkpt>
      <trkpt lat="44.03992" lon="1.88829">
        <ele>294</ele>
        <time>2016-04-03T11:03:21.000Z</time>
      </trkpt>
      <trkpt lat="44.03992" lon="1.88829">
        <ele>294</ele>
        <time>2016-04-03T11:03:23.000Z</time>
      </trkpt>
      <trkpt lat="44.03992" lon="1.88829">
        <ele>294</ele>
        <time>2016-04-03T11:03:25.000Z</time>
      </trkpt>
      <trkpt lat="44.03992" lon="1.88829">
        <ele>294</ele>
        <time>2016-04-03T11:03:27.000Z</time>
      </trkpt>
      <trkpt lat="44.03992" lon="1.88829">
        <ele>294</ele>
        <time>2016-04-03T11:03:35.000Z</time>
      </trkpt>
      <trkpt lat="44.03992" lon="1.88829">
        <ele>294</ele>
        <time>2016-04-03T11:03:37.000Z</time>
      </trkpt>
      <trkpt lat="44.03992" lon="1.88829">
        <ele>294</ele>
        <time>2016-04-03T11:03:39.000Z</time>
      </trkpt>
      <trkpt lat="44.03992" lon="1.88829">
        <ele>294</ele>
        <time>2016-04-03T11:03:41.000Z</time>
      </trkpt>
      <trkpt lat="44.03992" lon="1.88829">
        <ele>294</ele>
        <time>2016-04-03T11:03:43.000Z</time>
      </trkpt>
      <trkpt lat="44.03979" lon="1.88889">
        <ele>293</ele>
        <time>2016-04-03T11:03:45.000Z</time>
      </trkpt>
      <trkpt lat="44.03988" lon="1.88898">
        <ele>293</ele>
        <time>2016-04-03T11:03:51.000Z</time>
      </trkpt>
      <trkpt lat="44.03999" lon="1.88904">
        <ele>293</ele>
        <time>2016-04-03T11:03:55.000Z</time>
      </trkpt>
      <trkpt lat="44.04011" lon="1.88911">
        <ele>292</ele>
        <time>2016-04-03T11:03:59.000Z</time>
      </trkpt>
      <trkpt lat="44.04022" lon="1.88921">
        <ele>291</ele>
        <time>2016-04-03T11:04:03.000Z</time>
      </trkpt>
      <trkpt lat="44.04022" lon="1.88921">
        <ele>291</ele>
        <time>2016-04-03T11:04:05.000Z</time>
      </trkpt>
      <trkpt lat="44.04022" lon="1.88921">
        <ele>291</ele>
        <time>2016-04-03T11:04:07.000Z</time>
      </trkpt>
      <trkpt lat="44.04022" lon="1.88921">
        <ele>291</ele>
        <time>2016-04-03T11:04:09.000Z</time>
      </trkpt>
      <trkpt lat="44.04022" lon="1.88921">
        <ele>291</ele>
        <time>2016-04-03T11:04:11.000Z</time>
      </trkpt>
      <trkpt lat="44.04022" lon="1.88921">
        <ele>291</ele>
        <time>2016-04-03T11:04:13.000Z</time>
      </trkpt>
      <trkpt lat="44.04022" lon="1.88921">
        <ele>291</ele>
        <time>2016-04-03T11:04:15.000Z</time>
      </trkpt>
      <trkpt lat="44.04022" lon="1.88921">
        <ele>291</ele>
        <time>2016-04-03T11:04:17.000Z</time>
      </trkpt>
      <trkpt lat="44.0407" lon="1.88959">
        <ele>292</ele>
        <time>2016-04-03T11:04:25.000Z</time>
      </trkpt>
      <trkpt lat="44.04075" lon="1.88957">
        <ele>292</ele>
        <time>2016-04-03T11:04:29.000Z</time>
      </trkpt>
      <trkpt lat="44.0408" lon="1.88956">
        <ele>292</ele>
        <time>2016-04-03T11:04:32.000Z</time>
      </trkpt>
      <trkpt lat="44.0408" lon="1.88956">
        <ele>292</ele>
        <time>2016-04-03T11:04:33.000Z</time>
      </trkpt>
      <trkpt lat="44.0408" lon="1.88956">
        <ele>292</ele>
        <time>2016-04-03T11:04:35.000Z</time>
      </trkpt>
      <trkpt lat="44.0408" lon="1.88956">
        <ele>292</ele>
        <time>2016-04-03T11:04:37.000Z</time>
      </trkpt>
      <trkpt lat="44.0408" lon="1.88956">
        <ele>292</ele>
        <time>2016-04-03T11:04:39.000Z</time>
      </trkpt>
      <trkpt lat="44.0408" lon="1.88956">
        <ele>292</ele>
        <time>2016-04-03T11:04:41.000Z</time>
      </trkpt>
      <trkpt lat="44.0408" lon="1.88956">
        <ele>292</ele>
        <time>2016-04-03T11:04:43.000Z</time>
      </trkpt>
      <trkpt lat="44.04096" lon="1.88964">
        <ele>295</ele>
        <time>2016-04-03T11:04:47.000Z</time>
      </trkpt>
      <trkpt lat="44.04105" lon="1.88969">
        <ele>294</ele>
        <time>2016-04-03T11:04:49.000Z</time>
      </trkpt>
      <trkpt lat="44.04112" lon="1.88974">
        <ele>294</ele>
        <time>2016-04-03T11:04:51.000Z</time>
      </trkpt>
      <trkpt lat="44.04117" lon="1.88978">
        <ele>295</ele>
        <time>2016-04-03T11:04:53.000Z</time>
      </trkpt>
      <trkpt lat="44.04121" lon="1.88982">
        <ele>295</ele>
        <time>2016-04-03T11:04:55.000Z</time>
      </trkpt>
      <trkpt lat="44.0413" lon="1.8899">
        <ele>295</ele>
        <time>2016-04-03T11:04:57.000Z</time>
      </trkpt>
      <trkpt lat="44.04139" lon="1.88999">
        <ele>295</ele>
        <time>2016-04-03T11:05:01.000Z</time>
      </trkpt>
      <trkpt lat="44.04145" lon="1.89012">
        <ele>295</ele>
        <time>2016-04-03T11:05:05.000Z</time>
      </trkpt>
      <trkpt lat="44.0415" lon="1.89027">
        <ele>295</ele>
        <time>2016-04-03T11:05:09.000Z</time>
      </trkpt>
      <trkpt lat="44.04154" lon="1.89043">
        <ele>295</ele>
        <time>2016-04-03T11:05:13.000Z</time>
      </trkpt>
      <trkpt lat="44.04154" lon="1.89043">
        <ele>295</ele>
        <time>2016-04-03T11:05:16.000Z</time>
      </trkpt>
      <trkpt lat="44.04154" lon="1.89043">
        <ele>295</ele>
        <time>2016-04-03T11:05:17.000Z</time>
      </trkpt>
      <trkpt lat="44.04158" lon="1.89073">
        <ele>294</ele>
        <time>2016-04-03T11:05:21.000Z</time>
      </trkpt>
      <trkpt lat="44.04158" lon="1.8909">
        <ele>293</ele>
        <time>2016-04-03T11:05:25.000Z</time>
      </trkpt>
      <trkpt lat="44.04156" lon="1.89108">
        <ele>292</ele>
        <time>2016-04-03T11:05:29.000Z</time>
      </trkpt>
      <trkpt lat="44.04155" lon="1.8913">
        <ele>291</ele>
        <time>2016-04-03T11:05:33.000Z</time>
      </trkpt>
      <trkpt lat="44.04155" lon="1.89144">
        <ele>291</ele>
        <time>2016-04-03T11:05:35.000Z</time>
      </trkpt>
      <trkpt lat="44.04156" lon="1.89161">
        <ele>290</ele>
        <time>2016-04-03T11:05:37.000Z</time>
      </trkpt>
      <trkpt lat="44.0416" lon="1.89177">
        <ele>290</ele>
        <time>2016-04-03T11:05:40.000Z</time>
      </trkpt>
      <trkpt lat="44.04166" lon="1.89193">
        <ele>289</ele>
        <time>2016-04-03T11:05:41.000Z</time>
      </trkpt>
      <trkpt lat="44.04173" lon="1.89209">
        <ele>289</ele>
        <time>2016-04-03T11:05:43.000Z</time>
      </trkpt>
      <trkpt lat="44.04183" lon="1.89223">
        <ele>289</ele>
        <time>2016-04-03T11:05:45.000Z</time>
      </trkpt>
      <trkpt lat="44.04196" lon="1.89236">
        <ele>287</ele>
        <time>2016-04-03T11:05:47.000Z</time>
      </trkpt>
      <trkpt lat="44.0421" lon="1.89249">
        <ele>286</ele>
        <time>2016-04-03T11:05:49.000Z</time>
      </trkpt>
      <trkpt lat="44.04225" lon="1.89263">
        <ele>285</ele>
        <time>2016-04-03T11:05:51.000Z</time>
      </trkpt>
      <trkpt lat="44.0424" lon="1.89279">
        <ele>284</ele>
        <time>2016-04-03T11:05:53.000Z</time>
      </trkpt>
      <trkpt lat="44.04253" lon="1.89297">
        <ele>283</ele>
        <time>2016-04-03T11:05:55.000Z</time>
      </trkpt>
      <trkpt lat="44.04265" lon="1.89316">
        <ele>281</ele>
        <time>2016-04-03T11:05:57.000Z</time>
      </trkpt>
      <trkpt lat="44.04278" lon="1.89336">
        <ele>280</ele>
        <time>2016-04-03T11:05:59.000Z</time>
      </trkpt>
      <trkpt lat="44.04292" lon="1.89356">
        <ele>278</ele>
        <time>2016-04-03T11:06:01.000Z</time>
      </trkpt>
      <trkpt lat="44.04306" lon="1.89376">
        <ele>277</ele>
        <time>2016-04-03T11:06:03.000Z</time>
      </trkpt>
      <trkpt lat="44.04319" lon="1.89394">
        <ele>275</ele>
        <time>2016-04-03T11:06:05.000Z</time>
      </trkpt>
      <trkpt lat="44.04334" lon="1.89409">
        <ele>274</ele>
        <time>2016-04-03T11:06:07.000Z</time>
      </trkpt>
      <trkpt lat="44.04348" lon="1.89421">
        <ele>273</ele>
        <time>2016-04-03T11:06:09.000Z</time>
      </trkpt>
      <trkpt lat="44.04361" lon="1.89434">
        <ele>272</ele>
        <time>2016-04-03T11:06:11.000Z</time>
      </trkpt>
      <trkpt lat="44.04371" lon="1.89449">
        <ele>271</ele>
        <time>2016-04-03T11:06:13.000Z</time>
      </trkpt>
      <trkpt lat="44.04381" lon="1.89465">
        <ele>270</ele>
        <time>2016-04-03T11:06:15.000Z</time>
      </trkpt>
      <trkpt lat="44.04389" lon="1.89479">
        <ele>270</ele>
        <time>2016-04-03T11:06:17.000Z</time>
      </trkpt>
      <trkpt lat="44.04398" lon="1.89492">
        <ele>270</ele>
        <time>2016-04-03T11:06:19.000Z</time>
      </trkpt>
      <trkpt lat="44.04407" lon="1.89502">
        <ele>270</ele>
        <time>2016-04-03T11:06:21.000Z</time>
      </trkpt>
      <trkpt lat="44.04416" lon="1.8951">
        <ele>271</ele>
        <time>2016-04-03T11:06:23.000Z</time>
      </trkpt>
      <trkpt lat="44.04425" lon="1.89517">
        <ele>271</ele>
        <time>2016-04-03T11:06:25.000Z</time>
      </trkpt>
      <trkpt lat="44.04425" lon="1.89517">
        <ele>271</ele>
        <time>2016-04-03T11:06:27.000Z</time>
      </trkpt>
      <trkpt lat="44.04425" lon="1.89517">
        <ele>271</ele>
        <time>2016-04-03T11:06:29.000Z</time>
      </trkpt>
      <trkpt lat="44.04425" lon="1.89517">
        <ele>271</ele>
        <time>2016-04-03T11:06:31.000Z</time>
      </trkpt>
      <trkpt lat="44.04425" lon="1.89517">
        <ele>271</ele>
        <time>2016-04-03T11:06:33.000Z</time>
      </trkpt>
      <trkpt lat="44.04425" lon="1.89517">
        <ele>271</ele>
        <time>2016-04-03T11:06:35.000Z</time>
      </trkpt>
      <trkpt lat="44.04425" lon="1.89517">
        <ele>271</ele>
        <time>2016-04-03T11:06:37.000Z</time>
      </trkpt>
      <trkpt lat="44.04425" lon="1.89517">
        <ele>271</ele>
        <time>2016-04-03T11:06:39.000Z</time>
      </trkpt>
      <trkpt lat="44.04425" lon="1.89517">
        <ele>271</ele>
        <time>2016-04-03T11:06:41.000Z</time>
      </trkpt>
      <trkpt lat="44.04425" lon="1.89517">
        <ele>271</ele>
        <time>2016-04-03T11:06:43.000Z</time>
      </trkpt>
      <trkpt lat="44.04511" lon="1.89571">
        <ele>277</ele>
        <time>2016-04-03T11:06:47.000Z</time>
      </trkpt>
      <trkpt lat="44.04519" lon="1.89577">
        <ele>278</ele>
        <time>2016-04-03T11:06:49.000Z</time>
      </trkpt>
      <trkpt lat="44.04535" lon="1.89588">
        <ele>279</ele>
        <time>2016-04-03T11:06:53.000Z</time>
      </trkpt>
      <trkpt lat="44.04544" lon="1.89593">
        <ele>278</ele>
        <time>2016-04-03T11:06:55.000Z</time>
      </trkpt>
      <trkpt lat="44.04544" lon="1.89593">
        <ele>278</ele>
        <time>2016-04-03T11:06:57.000Z</time>
      </trkpt>
      <trkpt lat="44.0456" lon="1.89603">
        <ele>279</ele>
        <time>2016-04-03T11:06:59.000Z</time>
      </trkpt>
      <trkpt lat="44.0457" lon="1.89607">
        <ele>279</ele>
        <time>2016-04-03T11:07:01.000Z</time>
      </trkpt>
      <trkpt lat="44.0458" lon="1.89612">
        <ele>280</ele>
        <time>2016-04-03T11:07:03.000Z</time>
      </trkpt>
      <trkpt lat="44.0459" lon="1.89617">
        <ele>280</ele>
        <time>2016-04-03T11:07:05.000Z</time>
      </trkpt>
      <trkpt lat="44.046" lon="1.89621">
        <ele>280</ele>
        <time>2016-04-03T11:07:07.000Z</time>
      </trkpt>
      <trkpt lat="44.0461" lon="1.89626">
        <ele>280</ele>
        <time>2016-04-03T11:07:09.000Z</time>
      </trkpt>
      <trkpt lat="44.04621" lon="1.8963">
        <ele>279</ele>
        <time>2016-04-03T11:07:11.000Z</time>
      </trkpt>
      <trkpt lat="44.04631" lon="1.89634">
        <ele>279</ele>
        <time>2016-04-03T11:07:13.000Z</time>
      </trkpt>
      <trkpt lat="44.04651" lon="1.89643">
        <ele>278</ele>
        <time>2016-04-03T11:07:17.000Z</time>
      </trkpt>
      <trkpt lat="44.04661" lon="1.89648">
        <ele>278</ele>
        <time>2016-04-03T11:07:19.000Z</time>
      </trkpt>
      <trkpt lat="44.0467" lon="1.89654">
        <ele>278</ele>
        <time>2016-04-03T11:07:21.000Z</time>
      </trkpt>
      <trkpt lat="44.04681" lon="1.89662">
        <ele>277</ele>
        <time>2016-04-03T11:07:23.000Z</time>
      </trkpt>
      <trkpt lat="44.04691" lon="1.8967">
        <ele>275</ele>
        <time>2016-04-03T11:07:25.000Z</time>
      </trkpt>
      <trkpt lat="44.04702" lon="1.89678">
        <ele>275</ele>
        <time>2016-04-03T11:07:27.000Z</time>
      </trkpt>
      <trkpt lat="44.04712" lon="1.89687">
        <ele>274</ele>
        <time>2016-04-03T11:07:29.000Z</time>
      </trkpt>
      <trkpt lat="44.04721" lon="1.89696">
        <ele>273</ele>
        <time>2016-04-03T11:07:31.000Z</time>
      </trkpt>
      <trkpt lat="44.04731" lon="1.89705">
        <ele>272</ele>
        <time>2016-04-03T11:07:33.000Z</time>
      </trkpt>
      <trkpt lat="44.04742" lon="1.89712">
        <ele>272</ele>
        <time>2016-04-03T11:07:35.000Z</time>
      </trkpt>
      <trkpt lat="44.04751" lon="1.89719">
        <ele>272</ele>
        <time>2016-04-03T11:07:37.000Z</time>
      </trkpt>
      <trkpt lat="44.04751" lon="1.89719">
        <ele>272</ele>
        <time>2016-04-03T11:07:39.000Z</time>
      </trkpt>
      <trkpt lat="44.04751" lon="1.89719">
        <ele>272</ele>
        <time>2016-04-03T11:07:41.000Z</time>
      </trkpt>
      <trkpt lat="44.04751" lon="1.89719">
        <ele>272</ele>
        <time>2016-04-03T11:07:43.000Z</time>
      </trkpt>
      <trkpt lat="44.04751" lon="1.89719">
        <ele>272</ele>
        <time>2016-04-03T11:07:45.000Z</time>
      </trkpt>
      <trkpt lat="44.04751" lon="1.89719">
        <ele>272</ele>
        <time>2016-04-03T11:07:47.000Z</time>
      </trkpt>
      <trkpt lat="44.04751" lon="1.89719">
        <ele>272</ele>
        <time>2016-04-03T11:07:49.000Z</time>
      </trkpt>
      <trkpt lat="44.04751" lon="1.89719">
        <ele>272</ele>
        <time>2016-04-03T11:07:53.000Z</time>
      </trkpt>
      <trkpt lat="44.04751" lon="1.89719">
        <ele>272</ele>
        <time>2016-04-03T11:07:55.000Z</time>
      </trkpt>
      <trkpt lat="44.04751" lon="1.89719">
        <ele>272</ele>
        <time>2016-04-03T11:07:57.000Z</time>
      </trkpt>
      <trkpt lat="44.04751" lon="1.89719">
        <ele>272</ele>
        <time>2016-04-03T11:07:59.000Z</time>
      </trkpt>
      <trkpt lat="44.04751" lon="1.89719">
        <ele>272</ele>
        <time>2016-04-03T11:08:01.000Z</time>
      </trkpt>
      <trkpt lat="44.04807" lon="1.89767">
        <ele>264</ele>
        <time>2016-04-03T11:08:05.000Z</time>
      </trkpt>
      <trkpt lat="44.04839" lon="1.89795">
        <ele>263</ele>
        <time>2016-04-03T11:08:07.000Z</time>
      </trkpt>
      <trkpt lat="44.04859" lon="1.89812">
        <ele>263</ele>
        <time>2016-04-03T11:08:09.000Z</time>
      </trkpt>
      <trkpt lat="44.04873" lon="1.89826">
        <ele>262</ele>
        <time>2016-04-03T11:08:11.000Z</time>
      </trkpt>
      <trkpt lat="44.04884" lon="1.89837">
        <ele>262</ele>
        <time>2016-04-03T11:08:13.000Z</time>
      </trkpt>
      <trkpt lat="44.04904" lon="1.89857">
        <ele>261</ele>
        <time>2016-04-03T11:08:15.000Z</time>
      </trkpt>
      <trkpt lat="44.04913" lon="1.89866">
        <ele>260</ele>
        <time>2016-04-03T11:08:17.000Z</time>
      </trkpt>
      <trkpt lat="44.04922" lon="1.89873">
        <ele>259</ele>
        <time>2016-04-03T11:08:19.000Z</time>
      </trkpt>
      <trkpt lat="44.04922" lon="1.89873">
        <ele>259</ele>
        <time>2016-04-03T11:08:21.000Z</time>
      </trkpt>
      <trkpt lat="44.04922" lon="1.89873">
        <ele>259</ele>
        <time>2016-04-03T11:08:23.000Z</time>
      </trkpt>
      <trkpt lat="44.04922" lon="1.89873">
        <ele>259</ele>
        <time>2016-04-03T11:08:25.000Z</time>
      </trkpt>
      <trkpt lat="44.04922" lon="1.89873">
        <ele>259</ele>
        <time>2016-04-03T11:08:27.000Z</time>
      </trkpt>
      <trkpt lat="44.04922" lon="1.89873">
        <ele>259</ele>
        <time>2016-04-03T11:08:35.000Z</time>
      </trkpt>
      <trkpt lat="44.04922" lon="1.89873">
        <ele>259</ele>
        <time>2016-04-03T11:08:37.000Z</time>
      </trkpt>
      <trkpt lat="44.04922" lon="1.89873">
        <ele>259</ele>
        <time>2016-04-03T11:08:40.000Z</time>
      </trkpt>
      <trkpt lat="44.04987" lon="1.89965">
        <ele>252</ele>
        <time>2016-04-03T11:08:43.000Z</time>
      </trkpt>
      <trkpt lat="44.04995" lon="1.89981">
        <ele>250</ele>
        <time>2016-04-03T11:08:47.000Z</time>
      </trkpt>
      <trkpt lat="44.05004" lon="1.9">
        <ele>249</ele>
        <time>2016-04-03T11:08:51.000Z</time>
      </trkpt>
      <trkpt lat="44.05011" lon="1.90019">
        <ele>248</ele>
        <time>2016-04-03T11:08:55.000Z</time>
      </trkpt>
      <trkpt lat="44.05011" lon="1.90019">
        <ele>248</ele>
        <time>2016-04-03T11:08:57.000Z</time>
      </trkpt>
      <trkpt lat="44.05011" lon="1.90019">
        <ele>248</ele>
        <time>2016-04-03T11:08:59.000Z</time>
      </trkpt>
      <trkpt lat="44.05011" lon="1.90019">
        <ele>248</ele>
        <time>2016-04-03T11:09:01.000Z</time>
      </trkpt>
      <trkpt lat="44.05011" lon="1.90019">
        <ele>248</ele>
        <time>2016-04-03T11:09:08.000Z</time>
      </trkpt>
      <trkpt lat="44.05011" lon="1.90019">
        <ele>248</ele>
        <time>2016-04-03T11:09:09.000Z</time>
      </trkpt>
      <trkpt lat="44.05011" lon="1.90019">
        <ele>248</ele>
        <time>2016-04-03T11:09:11.000Z</time>
      </trkpt>
      <trkpt lat="44.05011" lon="1.90019">
        <ele>248</ele>
        <time>2016-04-03T11:09:13.000Z</time>
      </trkpt>
      <trkpt lat="44.05011" lon="1.90019">
        <ele>248</ele>
        <time>2016-04-03T11:09:17.000Z</time>
      </trkpt>
      <trkpt lat="44.05011" lon="1.90019">
        <ele>248</ele>
        <time>2016-04-03T11:09:19.000Z</time>
      </trkpt>
      <trkpt lat="44.05011" lon="1.90019">
        <ele>248</ele>
        <time>2016-04-03T11:09:21.000Z</time>
      </trkpt>
      <trkpt lat="44.05011" lon="1.90019">
        <ele>248</ele>
        <time>2016-04-03T11:09:23.000Z</time>
      </trkpt>
      <trkpt lat="44.05011" lon="1.90019">
        <ele>248</ele>
        <time>2016-04-03T11:09:25.000Z</time>
      </trkpt>
      <trkpt lat="44.05035" lon="1.90071">
        <ele>237</ele>
        <time>2016-04-03T11:09:31.000Z</time>
      </trkpt>
      <trkpt lat="44.05048" lon="1.90099">
        <ele>236</ele>
        <time>2016-04-03T11:09:33.000Z</time>
      </trkpt>
      <trkpt lat="44.05056" lon="1.90114">
        <ele>235</ele>
        <time>2016-04-03T11:09:35.000Z</time>
      </trkpt>
      <trkpt lat="44.0506" lon="1.90124">
        <ele>234</ele>
        <time>2016-04-03T11:09:37.000Z</time>
      </trkpt>
      <trkpt lat="44.0506" lon="1.90124">
        <ele>234</ele>
        <time>2016-04-03T11:09:39.000Z</time>
      </trkpt>
      <trkpt lat="44.05064" lon="1.90138">
        <ele>231</ele>
        <time>2016-04-03T11:09:45.000Z</time>
      </trkpt>
      <trkpt lat="44.05067" lon="1.90146">
        <ele>230</ele>
        <time>2016-04-03T11:09:47.000Z</time>
      </trkpt>
      <trkpt lat="44.0507" lon="1.90153">
        <ele>229</ele>
        <time>2016-04-03T11:09:49.000Z</time>
      </trkpt>
      <trkpt lat="44.0507" lon="1.90153">
        <ele>229</ele>
        <time>2016-04-03T11:09:51.000Z</time>
      </trkpt>
      <trkpt lat="44.0507" lon="1.90153">
        <ele>229</ele>
        <time>2016-04-03T11:09:53.000Z</time>
      </trkpt>
      <trkpt lat="44.0507" lon="1.90153">
        <ele>229</ele>
        <time>2016-04-03T11:09:55.000Z</time>
      </trkpt>
      <trkpt lat="44.0507" lon="1.90153">
        <ele>229</ele>
        <time>2016-04-03T11:09:57.000Z</time>
      </trkpt>
      <trkpt lat="44.05075" lon="1.90168">
        <ele>226</ele>
        <time>2016-04-03T11:10:01.000Z</time>
      </trkpt>
      <trkpt lat="44.05079" lon="1.90178">
        <ele>225</ele>
        <time>2016-04-03T11:10:03.000Z</time>
      </trkpt>
      <trkpt lat="44.05083" lon="1.90185">
        <ele>224</ele>
        <time>2016-04-03T11:10:05.000Z</time>
      </trkpt>
      <trkpt lat="44.05089" lon="1.90191">
        <ele>223</ele>
        <time>2016-04-03T11:10:07.000Z</time>
      </trkpt>
      <trkpt lat="44.05094" lon="1.90195">
        <ele>222</ele>
        <time>2016-04-03T11:10:09.000Z</time>
      </trkpt>
      <trkpt lat="44.05103" lon="1.90202">
        <ele>222</ele>
        <time>2016-04-03T11:10:11.000Z</time>
      </trkpt>
      <trkpt lat="44.05103" lon="1.90202">
        <ele>222</ele>
        <time>2016-04-03T11:10:13.000Z</time>
      </trkpt>
      <trkpt lat="44.05103" lon="1.90202">
        <ele>222</ele>
        <time>2016-04-03T11:10:15.000Z</time>
      </trkpt>
      <trkpt lat="44.05103" lon="1.90202">
        <ele>222</ele>
        <time>2016-04-03T11:10:17.000Z</time>
      </trkpt>
      <trkpt lat="44.05103" lon="1.90202">
        <ele>222</ele>
        <time>2016-04-03T11:10:19.000Z</time>
      </trkpt>
      <trkpt lat="44.05122" lon="1.90234">
        <ele>218</ele>
        <time>2016-04-03T11:10:23.000Z</time>
      </trkpt>
      <trkpt lat="44.0513" lon="1.90249">
        <ele>214</ele>
        <time>2016-04-03T11:10:27.000Z</time>
      </trkpt>
      <trkpt lat="44.05134" lon="1.90266">
        <ele>210</ele>
        <time>2016-04-03T11:10:31.000Z</time>
      </trkpt>
      <trkpt lat="44.05134" lon="1.90266">
        <ele>210</ele>
        <time>2016-04-03T11:10:33.000Z</time>
      </trkpt>
      <trkpt lat="44.05134" lon="1.90266">
        <ele>210</ele>
        <time>2016-04-03T11:10:35.000Z</time>
      </trkpt>
      <trkpt lat="44.05134" lon="1.90266">
        <ele>210</ele>
        <time>2016-04-03T11:10:37.000Z</time>
      </trkpt>
      <trkpt lat="44.05134" lon="1.90266">
        <ele>210</ele>
        <time>2016-04-03T11:10:39.000Z</time>
      </trkpt>
      <trkpt lat="44.05134" lon="1.90266">
        <ele>210</ele>
        <time>2016-04-03T11:10:41.000Z</time>
      </trkpt>
      <trkpt lat="44.05134" lon="1.90266">
        <ele>210</ele>
        <time>2016-04-03T11:10:49.000Z</time>
      </trkpt>
      <trkpt lat="44.05134" lon="1.90266">
        <ele>210</ele>
        <time>2016-04-03T11:10:51.000Z</time>
      </trkpt>
      <trkpt lat="44.05134" lon="1.90266">
        <ele>210</ele>
        <time>2016-04-03T11:10:53.000Z</time>
      </trkpt>
      <trkpt lat="44.05134" lon="1.90266">
        <ele>210</ele>
        <time>2016-04-03T11:10:55.000Z</time>
      </trkpt>
      <trkpt lat="44.05134" lon="1.90266">
        <ele>210</ele>
        <time>2016-04-03T11:10:57.000Z</time>
      </trkpt>
      <trkpt lat="44.05134" lon="1.90266">
        <ele>210</ele>
        <time>2016-04-03T11:10:59.000Z</time>
      </trkpt>
      <trkpt lat="44.05163" lon="1.90317">
        <ele>192</ele>
        <time>2016-04-03T11:11:33.000Z</time>
      </trkpt>
      <trkpt lat="44.05163" lon="1.90317">
        <ele>192</ele>
        <time>2016-04-03T11:11:35.000Z</time>
      </trkpt>
      <trkpt lat="44.05163" lon="1.90317">
        <ele>192</ele>
        <time>2016-04-03T11:11:37.000Z</time>
      </trkpt>
      <trkpt lat="44.05169" lon="1.90316">
        <ele>193</ele>
        <time>2016-04-03T11:12:27.000Z</time>
      </trkpt>
      <trkpt lat="44.05175" lon="1.90317">
        <ele>193</ele>
        <time>2016-04-03T11:12:29.000Z</time>
      </trkpt>
      <trkpt lat="44.05182" lon="1.90318">
        <ele>193</ele>
        <time>2016-04-03T11:12:31.000Z</time>
      </trkpt>
      <trkpt lat="44.05188" lon="1.9032">
        <ele>193</ele>
        <time>2016-04-03T11:12:33.000Z</time>
      </trkpt>
      <trkpt lat="44.05194" lon="1.90324">
        <ele>193</ele>
        <time>2016-04-03T11:12:35.000Z</time>
      </trkpt>
      <trkpt lat="44.05199" lon="1.90338">
        <ele>194</ele>
        <time>2016-04-03T11:12:37.000Z</time>
      </trkpt>
      <trkpt lat="44.05198" lon="1.90363">
        <ele>194</ele>
        <time>2016-04-03T11:12:41.000Z</time>
      </trkpt>
      <trkpt lat="44.05198" lon="1.90376">
        <ele>195</ele>
        <time>2016-04-03T11:12:43.000Z</time>
      </trkpt>
      <trkpt lat="44.05198" lon="1.9039">
        <ele>195</ele>
        <time>2016-04-03T11:12:45.000Z</time>
      </trkpt>
      <trkpt lat="44.05198" lon="1.90403">
        <ele>195</ele>
        <time>2016-04-03T11:12:47.000Z</time>
      </trkpt>
      <trkpt lat="44.05197" lon="1.90417">
        <ele>195</ele>
        <time>2016-04-03T11:12:49.000Z</time>
      </trkpt>
      <trkpt lat="44.05196" lon="1.9043">
        <ele>195</ele>
        <time>2016-04-03T11:12:51.000Z</time>
      </trkpt>
      <trkpt lat="44.05195" lon="1.90443">
        <ele>194</ele>
        <time>2016-04-03T11:12:53.000Z</time>
      </trkpt>
      <trkpt lat="44.05195" lon="1.90443">
        <ele>194</ele>
        <time>2016-04-03T11:12:55.000Z</time>
      </trkpt>
      <trkpt lat="44.05195" lon="1.90443">
        <ele>194</ele>
        <time>2016-04-03T11:12:57.000Z</time>
      </trkpt>
      <trkpt lat="44.05195" lon="1.90443">
        <ele>194</ele>
        <time>2016-04-03T11:12:59.000Z</time>
      </trkpt>
      <trkpt lat="44.05195" lon="1.90443">
        <ele>194</ele>
        <time>2016-04-03T11:13:01.000Z</time>
      </trkpt>
      <trkpt lat="44.05209" lon="1.9047">
        <ele>194</ele>
        <time>2016-04-03T11:13:05.000Z</time>
      </trkpt>
      <trkpt lat="44.05215" lon="1.90486">
        <ele>194</ele>
        <time>2016-04-03T11:13:09.000Z</time>
      </trkpt>
      <trkpt lat="44.05221" lon="1.90501">
        <ele>195</ele>
        <time>2016-04-03T11:13:13.000Z</time>
      </trkpt>
      <trkpt lat="44.05221" lon="1.90501">
        <ele>195</ele>
        <time>2016-04-03T11:13:15.000Z</time>
      </trkpt>
      <trkpt lat="44.05231" lon="1.90512">
        <ele>195</ele>
        <time>2016-04-03T11:13:17.000Z</time>
      </trkpt>
      <trkpt lat="44.05241" lon="1.90523">
        <ele>196</ele>
        <time>2016-04-03T11:13:21.000Z</time>
      </trkpt>
      <trkpt lat="44.05241" lon="1.90523">
        <ele>196</ele>
        <time>2016-04-03T11:13:23.000Z</time>
      </trkpt>
      <trkpt lat="44.05241" lon="1.90523">
        <ele>196</ele>
        <time>2016-04-03T11:13:25.000Z</time>
      </trkpt>
      <trkpt lat="44.05241" lon="1.90523">
        <ele>196</ele>
        <time>2016-04-03T11:13:29.000Z</time>
      </trkpt>
      <trkpt lat="44.05241" lon="1.90523">
        <ele>196</ele>
        <time>2016-04-03T11:13:31.000Z</time>
      </trkpt>
      <trkpt lat="44.05241" lon="1.90523">
        <ele>196</ele>
        <time>2016-04-03T11:13:33.000Z</time>
      </trkpt>
      <trkpt lat="44.05275" lon="1.90571">
        <ele>194</ele>
        <time>2016-04-03T11:13:37.000Z</time>
      </trkpt>
      <trkpt lat="44.05283" lon="1.90583">
        <ele>193</ele>
        <time>2016-04-03T11:13:41.000Z</time>
      </trkpt>
      <trkpt lat="44.05291" lon="1.90596">
        <ele>192</ele>
        <time>2016-04-03T11:13:45.000Z</time>
      </trkpt>
      <trkpt lat="44.05299" lon="1.90611">
        <ele>192</ele>
        <time>2016-04-03T11:13:49.000Z</time>
      </trkpt>
      <trkpt lat="44.05299" lon="1.90611">
        <ele>192</ele>
        <time>2016-04-03T11:13:51.000Z</time>
      </trkpt>
      <trkpt lat="44.05299" lon="1.90611">
        <ele>192</ele>
        <time>2016-04-03T11:13:53.000Z</time>
      </trkpt>
      <trkpt lat="44.05299" lon="1.90611">
        <ele>192</ele>
        <time>2016-04-03T11:13:55.000Z</time>
      </trkpt>
      <trkpt lat="44.05299" lon="1.90611">
        <ele>192</ele>
        <time>2016-04-03T11:13:57.000Z</time>
      </trkpt>
      <trkpt lat="44.05299" lon="1.90611">
        <ele>192</ele>
        <time>2016-04-03T11:14:00.000Z</time>
      </trkpt>
      <trkpt lat="44.05299" lon="1.90611">
        <ele>192</ele>
        <time>2016-04-03T11:14:02.000Z</time>
      </trkpt>
      <trkpt lat="44.0533" lon="1.90629">
        <ele>195</ele>
        <time>2016-04-03T11:14:08.000Z</time>
      </trkpt>
      <trkpt lat="44.0533" lon="1.90629">
        <ele>195</ele>
        <time>2016-04-03T11:14:12.000Z</time>
      </trkpt>
      <trkpt lat="44.0533" lon="1.90629">
        <ele>195</ele>
        <time>2016-04-03T11:14:14.000Z</time>
      </trkpt>
      <trkpt lat="44.0533" lon="1.90629">
        <ele>195</ele>
        <time>2016-04-03T11:14:16.000Z</time>
      </trkpt>
      <trkpt lat="44.0533" lon="1.90629">
        <ele>195</ele>
        <time>2016-04-03T11:14:18.000Z</time>
      </trkpt>
      <trkpt lat="44.0533" lon="1.90629">
        <ele>195</ele>
        <time>2016-04-03T11:14:22.000Z</time>
      </trkpt>
      <trkpt lat="44.0533" lon="1.90629">
        <ele>195</ele>
        <time>2016-04-03T11:14:24.000Z</time>
      </trkpt>
      <trkpt lat="44.0533" lon="1.90629">
        <ele>195</ele>
        <time>2016-04-03T11:14:26.000Z</time>
      </trkpt>
      <trkpt lat="44.0533" lon="1.90629">
        <ele>195</ele>
        <time>2016-04-03T11:14:28.000Z</time>
      </trkpt>
      <trkpt lat="44.0533" lon="1.90629">
        <ele>195</ele>
        <time>2016-04-03T11:14:30.000Z</time>
      </trkpt>
      <trkpt lat="44.05352" lon="1.90635">
        <ele>191</ele>
        <time>2016-04-03T11:14:32.000Z</time>
      </trkpt>
      <trkpt lat="44.05365" lon="1.9064">
        <ele>190</ele>
        <time>2016-04-03T11:14:34.000Z</time>
      </trkpt>
      <trkpt lat="44.05373" lon="1.90645">
        <ele>190</ele>
        <time>2016-04-03T11:14:36.000Z</time>
      </trkpt>
      <trkpt lat="44.05379" lon="1.90651">
        <ele>190</ele>
        <time>2016-04-03T11:14:38.000Z</time>
      </trkpt>
      <trkpt lat="44.05384" lon="1.90657">
        <ele>190</ele>
        <time>2016-04-03T11:14:40.000Z</time>
      </trkpt>
      <trkpt lat="44.05392" lon="1.90669">
        <ele>190</ele>
        <time>2016-04-03T11:14:42.000Z</time>
      </trkpt>
      <trkpt lat="44.05392" lon="1.90669">
        <ele>190</ele>
        <time>2016-04-03T11:14:44.000Z</time>
      </trkpt>
      <trkpt lat="44.054" lon="1.90682">
        <ele>190</ele>
        <time>2016-04-03T11:14:46.000Z</time>
      </trkpt>
      <trkpt lat="44.054" lon="1.90682">
        <ele>190</ele>
        <time>2016-04-03T11:14:48.000Z</time>
      </trkpt>
      <trkpt lat="44.054" lon="1.90682">
        <ele>190</ele>
        <time>2016-04-03T11:14:50.000Z</time>
      </trkpt>
      <trkpt lat="44.05412" lon="1.90698">
        <ele>190</ele>
        <time>2016-04-03T11:14:52.000Z</time>
      </trkpt>
      <trkpt lat="44.05423" lon="1.90713">
        <ele>189</ele>
        <time>2016-04-03T11:14:56.000Z</time>
      </trkpt>
      <trkpt lat="44.05433" lon="1.90731">
        <ele>189</ele>
        <time>2016-04-03T11:15:00.000Z</time>
      </trkpt>
      <trkpt lat="44.05443" lon="1.90752">
        <ele>188</ele>
        <time>2016-04-03T11:15:04.000Z</time>
      </trkpt>
      <trkpt lat="44.05447" lon="1.90764">
        <ele>187</ele>
        <time>2016-04-03T11:15:06.000Z</time>
      </trkpt>
      <trkpt lat="44.05452" lon="1.90777">
        <ele>187</ele>
        <time>2016-04-03T11:15:08.000Z</time>
      </trkpt>
      <trkpt lat="44.05457" lon="1.9079">
        <ele>187</ele>
        <time>2016-04-03T11:15:10.000Z</time>
      </trkpt>
      <trkpt lat="44.05462" lon="1.90804">
        <ele>186</ele>
        <time>2016-04-03T11:15:12.000Z</time>
      </trkpt>
      <trkpt lat="44.05468" lon="1.90818">
        <ele>186</ele>
        <time>2016-04-03T11:15:14.000Z</time>
      </trkpt>
      <trkpt lat="44.05473" lon="1.90832">
        <ele>185</ele>
        <time>2016-04-03T11:15:16.000Z</time>
      </trkpt>
      <trkpt lat="44.05479" lon="1.90846">
        <ele>185</ele>
        <time>2016-04-03T11:15:18.000Z</time>
      </trkpt>
      <trkpt lat="44.05486" lon="1.9086">
        <ele>184</ele>
        <time>2016-04-03T11:15:20.000Z</time>
      </trkpt>
      <trkpt lat="44.05495" lon="1.90873">
        <ele>184</ele>
        <time>2016-04-03T11:15:22.000Z</time>
      </trkpt>
      <trkpt lat="44.05507" lon="1.90881">
        <ele>183</ele>
        <time>2016-04-03T11:15:24.000Z</time>
      </trkpt>
      <trkpt lat="44.0552" lon="1.90884">
        <ele>182</ele>
        <time>2016-04-03T11:15:26.000Z</time>
      </trkpt>
      <trkpt lat="44.05534" lon="1.90887">
        <ele>181</ele>
        <time>2016-04-03T11:15:28.000Z</time>
      </trkpt>
      <trkpt lat="44.0555" lon="1.90892">
        <ele>180</ele>
        <time>2016-04-03T11:15:30.000Z</time>
      </trkpt>
      <trkpt lat="44.05564" lon="1.90904">
        <ele>178</ele>
        <time>2016-04-03T11:15:32.000Z</time>
      </trkpt>
      <trkpt lat="44.05577" lon="1.90924">
        <ele>175</ele>
        <time>2016-04-03T11:15:34.000Z</time>
      </trkpt>
      <trkpt lat="44.0559" lon="1.90946">
        <ele>173</ele>
        <time>2016-04-03T11:15:36.000Z</time>
      </trkpt>
      <trkpt lat="44.05604" lon="1.90969">
        <ele>171</ele>
        <time>2016-04-03T11:15:38.000Z</time>
      </trkpt>
      <trkpt lat="44.05618" lon="1.90991">
        <ele>171</ele>
        <time>2016-04-03T11:15:40.000Z</time>
      </trkpt>
      <trkpt lat="44.05632" lon="1.91011">
        <ele>170</ele>
        <time>2016-04-03T11:15:42.000Z</time>
      </trkpt>
      <trkpt lat="44.05648" lon="1.91027">
        <ele>169</ele>
        <time>2016-04-03T11:15:44.000Z</time>
      </trkpt>
      <trkpt lat="44.05663" lon="1.9104">
        <ele>169</ele>
        <time>2016-04-03T11:15:46.000Z</time>
      </trkpt>
      <trkpt lat="44.05678" lon="1.91051">
        <ele>167</ele>
        <time>2016-04-03T11:15:48.000Z</time>
      </trkpt>
      <trkpt lat="44.05693" lon="1.91058">
        <ele>166</ele>
        <time>2016-04-03T11:15:50.000Z</time>
      </trkpt>
      <trkpt lat="44.05708" lon="1.91058">
        <ele>166</ele>
        <time>2016-04-03T11:15:52.000Z</time>
      </trkpt>
      <trkpt lat="44.05721" lon="1.91058">
        <ele>165</ele>
        <time>2016-04-03T11:15:54.000Z</time>
      </trkpt>
      <trkpt lat="44.05736" lon="1.91059">
        <ele>165</ele>
        <time>2016-04-03T11:15:56.000Z</time>
      </trkpt>
      <trkpt lat="44.0575" lon="1.91059">
        <ele>165</ele>
        <time>2016-04-03T11:15:58.000Z</time>
      </trkpt>
      <trkpt lat="44.05765" lon="1.91061">
        <ele>164</ele>
        <time>2016-04-03T11:16:00.000Z</time>
      </trkpt>
      <trkpt lat="44.05779" lon="1.91064">
        <ele>164</ele>
        <time>2016-04-03T11:16:02.000Z</time>
      </trkpt>
      <trkpt lat="44.05794" lon="1.91068">
        <ele>164</ele>
        <time>2016-04-03T11:16:04.000Z</time>
      </trkpt>
      <trkpt lat="44.05808" lon="1.91072">
        <ele>164</ele>
        <time>2016-04-03T11:16:06.000Z</time>
      </trkpt>
      <trkpt lat="44.05822" lon="1.91076">
        <ele>164</ele>
        <time>2016-04-03T11:16:08.000Z</time>
      </trkpt>
      <trkpt lat="44.05835" lon="1.91083">
        <ele>164</ele>
        <time>2016-04-03T11:16:10.000Z</time>
      </trkpt>
      <trkpt lat="44.05847" lon="1.9109">
        <ele>164</ele>
        <time>2016-04-03T11:16:12.000Z</time>
      </trkpt>
      <trkpt lat="44.0586" lon="1.91096">
        <ele>164</ele>
        <time>2016-04-03T11:16:14.000Z</time>
      </trkpt>
      <trkpt lat="44.05871" lon="1.91103">
        <ele>165</ele>
        <time>2016-04-03T11:16:16.000Z</time>
      </trkpt>
      <trkpt lat="44.05883" lon="1.9111">
        <ele>165</ele>
        <time>2016-04-03T11:16:18.000Z</time>
      </trkpt>
      <trkpt lat="44.05894" lon="1.91116">
        <ele>166</ele>
        <time>2016-04-03T11:16:20.000Z</time>
      </trkpt>
      <trkpt lat="44.05905" lon="1.91121">
        <ele>167</ele>
        <time>2016-04-03T11:16:22.000Z</time>
      </trkpt>
      <trkpt lat="44.05917" lon="1.91128">
        <ele>168</ele>
        <time>2016-04-03T11:16:24.000Z</time>
      </trkpt>
      <trkpt lat="44.05929" lon="1.91132">
        <ele>169</ele>
        <time>2016-04-03T11:16:26.000Z</time>
      </trkpt>
      <trkpt lat="44.05941" lon="1.91138">
        <ele>170</ele>
        <time>2016-04-03T11:16:28.000Z</time>
      </trkpt>
      <trkpt lat="44.05954" lon="1.91144">
        <ele>171</ele>
        <time>2016-04-03T11:16:30.000Z</time>
      </trkpt>
      <trkpt lat="44.05965" lon="1.91149">
        <ele>172</ele>
        <time>2016-04-03T11:16:32.000Z</time>
      </trkpt>
      <trkpt lat="44.05976" lon="1.91156">
        <ele>173</ele>
        <time>2016-04-03T11:16:34.000Z</time>
      </trkpt>
      <trkpt lat="44.05989" lon="1.91161">
        <ele>174</ele>
        <time>2016-04-03T11:16:36.000Z</time>
      </trkpt>
      <trkpt lat="44.06001" lon="1.91167">
        <ele>174</ele>
        <time>2016-04-03T11:16:38.000Z</time>
      </trkpt>
      <trkpt lat="44.06012" lon="1.91173">
        <ele>175</ele>
        <time>2016-04-03T11:16:40.000Z</time>
      </trkpt>
      <trkpt lat="44.06023" lon="1.9118">
        <ele>176</ele>
        <time>2016-04-03T11:16:42.000Z</time>
      </trkpt>
      <trkpt lat="44.06023" lon="1.9118">
        <ele>176</ele>
        <time>2016-04-03T11:16:44.000Z</time>
      </trkpt>
      <trkpt lat="44.06023" lon="1.9118">
        <ele>176</ele>
        <time>2016-04-03T11:16:46.000Z</time>
      </trkpt>
      <trkpt lat="44.06023" lon="1.9118">
        <ele>176</ele>
        <time>2016-04-03T11:16:48.000Z</time>
      </trkpt>
      <trkpt lat="44.06023" lon="1.9118">
        <ele>176</ele>
        <time>2016-04-03T11:16:50.000Z</time>
      </trkpt>
      <trkpt lat="44.06023" lon="1.9118">
        <ele>176</ele>
        <time>2016-04-03T11:16:54.000Z</time>
      </trkpt>
      <trkpt lat="44.06023" lon="1.9118">
        <ele>176</ele>
        <time>2016-04-03T11:16:56.000Z</time>
      </trkpt>
      <trkpt lat="44.06095" lon="1.91222">
        <ele>178</ele>
        <time>2016-04-03T11:17:00.000Z</time>
      </trkpt>
      <trkpt lat="44.06095" lon="1.91222">
        <ele>178</ele>
        <time>2016-04-03T11:17:04.000Z</time>
      </trkpt>
      <trkpt lat="44.06095" lon="1.91222">
        <ele>178</ele>
        <time>2016-04-03T11:17:06.000Z</time>
      </trkpt>
      <trkpt lat="44.06095" lon="1.91222">
        <ele>178</ele>
        <time>2016-04-03T11:17:08.000Z</time>
      </trkpt>
      <trkpt lat="44.0615" lon="1.91243">
        <ele>176</ele>
        <time>2016-04-03T11:17:14.000Z</time>
      </trkpt>
      <trkpt lat="44.06166" lon="1.9125">
        <ele>175</ele>
        <time>2016-04-03T11:17:18.000Z</time>
      </trkpt>
      <trkpt lat="44.06166" lon="1.9125">
        <ele>175</ele>
        <time>2016-04-03T11:17:20.000Z</time>
      </trkpt>
      <trkpt lat="44.06166" lon="1.9125">
        <ele>175</ele>
        <time>2016-04-03T11:17:22.000Z</time>
      </trkpt>
      <trkpt lat="44.06197" lon="1.91262">
        <ele>172</ele>
        <time>2016-04-03T11:17:26.000Z</time>
      </trkpt>
      <trkpt lat="44.06207" lon="1.91265">
        <ele>171</ele>
        <time>2016-04-03T11:17:28.000Z</time>
      </trkpt>
      <trkpt lat="44.06217" lon="1.91265">
        <ele>170</ele>
        <time>2016-04-03T11:17:30.000Z</time>
      </trkpt>
      <trkpt lat="44.06227" lon="1.91263">
        <ele>170</ele>
        <time>2016-04-03T11:17:32.000Z</time>
      </trkpt>
      <trkpt lat="44.06237" lon="1.91258">
        <ele>169</ele>
        <time>2016-04-03T11:17:34.000Z</time>
      </trkpt>
      <trkpt lat="44.06247" lon="1.9125">
        <ele>168</ele>
        <time>2016-04-03T11:17:36.000Z</time>
      </trkpt>
      <trkpt lat="44.06258" lon="1.91243">
        <ele>168</ele>
        <time>2016-04-03T11:17:38.000Z</time>
      </trkpt>
      <trkpt lat="44.06268" lon="1.91238">
        <ele>167</ele>
        <time>2016-04-03T11:17:40.000Z</time>
      </trkpt>
      <trkpt lat="44.06268" lon="1.91238">
        <ele>167</ele>
        <time>2016-04-03T11:17:42.000Z</time>
      </trkpt>
      <trkpt lat="44.06268" lon="1.91238">
        <ele>167</ele>
        <time>2016-04-03T11:17:44.000Z</time>
      </trkpt>
      <trkpt lat="44.06268" lon="1.91238">
        <ele>167</ele>
        <time>2016-04-03T11:17:46.000Z</time>
      </trkpt>
      <trkpt lat="44.06268" lon="1.91238">
        <ele>167</ele>
        <time>2016-04-03T11:17:48.000Z</time>
      </trkpt>
      <trkpt lat="44.06268" lon="1.91238">
        <ele>167</ele>
        <time>2016-04-03T11:17:50.000Z</time>
      </trkpt>
      <trkpt lat="44.06268" lon="1.91238">
        <ele>167</ele>
        <time>2016-04-03T11:17:52.000Z</time>
      </trkpt>
      <trkpt lat="44.06268" lon="1.91238">
        <ele>167</ele>
        <time>2016-04-03T11:17:54.000Z</time>
      </trkpt>
      <trkpt lat="44.06268" lon="1.91238">
        <ele>167</ele>
        <time>2016-04-03T11:17:56.000Z</time>
      </trkpt>
      <trkpt lat="44.06285" lon="1.91263">
        <ele>170</ele>
        <time>2016-04-03T11:18:02.000Z</time>
      </trkpt>
      <trkpt lat="44.06296" lon="1.91279">
        <ele>170</ele>
        <time>2016-04-03T11:18:04.000Z</time>
      </trkpt>
      <trkpt lat="44.06301" lon="1.91289">
        <ele>171</ele>
        <time>2016-04-03T11:18:06.000Z</time>
      </trkpt>
      <trkpt lat="44.06306" lon="1.91297">
        <ele>171</ele>
        <time>2016-04-03T11:18:08.000Z</time>
      </trkpt>
      <trkpt lat="44.06309" lon="1.91303">
        <ele>172</ele>
        <time>2016-04-03T11:18:10.000Z</time>
      </trkpt>
      <trkpt lat="44.06314" lon="1.91315">
        <ele>172</ele>
        <time>2016-04-03T11:18:12.000Z</time>
      </trkpt>
      <trkpt lat="44.06314" lon="1.91315">
        <ele>172</ele>
        <time>2016-04-03T11:18:14.000Z</time>
      </trkpt>
      <trkpt lat="44.0632" lon="1.91331">
        <ele>172</ele>
        <time>2016-04-03T11:18:18.000Z</time>
      </trkpt>
      <trkpt lat="44.06325" lon="1.91342">
        <ele>171</ele>
        <time>2016-04-03T11:18:22.000Z</time>
      </trkpt>
      <trkpt lat="44.06325" lon="1.91342">
        <ele>171</ele>
        <time>2016-04-03T11:18:24.000Z</time>
      </trkpt>
      <trkpt lat="44.0633" lon="1.91353">
        <ele>170</ele>
        <time>2016-04-03T11:18:25.000Z</time>
      </trkpt>
      <trkpt lat="44.06337" lon="1.91369">
        <ele>171</ele>
        <time>2016-04-03T11:18:31.000Z</time>
      </trkpt>
      <trkpt lat="44.06342" lon="1.9138">
        <ele>171</ele>
        <time>2016-04-03T11:18:35.000Z</time>
      </trkpt>
      <trkpt lat="44.06342" lon="1.9138">
        <ele>171</ele>
        <time>2016-04-03T11:18:37.000Z</time>
      </trkpt>
      <trkpt lat="44.06342" lon="1.9138">
        <ele>171</ele>
        <time>2016-04-03T11:18:42.000Z</time>
      </trkpt>
      <trkpt lat="44.06342" lon="1.9138">
        <ele>171</ele>
        <time>2016-04-03T11:18:43.000Z</time>
      </trkpt>
      <trkpt lat="44.06342" lon="1.9138">
        <ele>171</ele>
        <time>2016-04-03T11:18:45.000Z</time>
      </trkpt>
      <trkpt lat="44.06356" lon="1.91411">
        <ele>170</ele>
        <time>2016-04-03T11:18:47.000Z</time>
      </trkpt>
      <trkpt lat="44.06361" lon="1.91423">
        <ele>170</ele>
        <time>2016-04-03T11:18:52.000Z</time>
      </trkpt>
      <trkpt lat="44.06361" lon="1.91423">
        <ele>170</ele>
        <time>2016-04-03T11:18:54.000Z</time>
      </trkpt>
      <trkpt lat="44.06367" lon="1.91435">
        <ele>170</ele>
        <time>2016-04-03T11:18:56.000Z</time>
      </trkpt>
      <trkpt lat="44.06372" lon="1.91446">
        <ele>170</ele>
        <time>2016-04-03T11:18:59.000Z</time>
      </trkpt>
      <trkpt lat="44.06372" lon="1.91446">
        <ele>170</ele>
        <time>2016-04-03T11:19:01.000Z</time>
      </trkpt>
      <trkpt lat="44.06372" lon="1.91446">
        <ele>170</ele>
        <time>2016-04-03T11:19:03.000Z</time>
      </trkpt>
      <trkpt lat="44.06372" lon="1.91446">
        <ele>170</ele>
        <time>2016-04-03T11:19:06.000Z</time>
      </trkpt>
      <trkpt lat="44.06372" lon="1.91446">
        <ele>170</ele>
        <time>2016-04-03T11:19:08.000Z</time>
      </trkpt>
      <trkpt lat="44.06386" lon="1.91482">
        <ele>170</ele>
        <time>2016-04-03T11:19:11.000Z</time>
      </trkpt>
      <trkpt lat="44.06391" lon="1.91494">
        <ele>171</ele>
        <time>2016-04-03T11:19:15.000Z</time>
      </trkpt>
      <trkpt lat="44.06391" lon="1.91494">
        <ele>171</ele>
        <time>2016-04-03T11:19:18.000Z</time>
      </trkpt>
      <trkpt lat="44.06396" lon="1.91507">
        <ele>171</ele>
        <time>2016-04-03T11:19:20.000Z</time>
      </trkpt>
      <trkpt lat="44.064" lon="1.91519">
        <ele>171</ele>
        <time>2016-04-03T11:19:24.000Z</time>
      </trkpt>
      <trkpt lat="44.064" lon="1.91519">
        <ele>171</ele>
        <time>2016-04-03T11:19:26.000Z</time>
      </trkpt>
      <trkpt lat="44.06406" lon="1.91531">
        <ele>170</ele>
        <time>2016-04-03T11:19:27.000Z</time>
      </trkpt>
      <trkpt lat="44.06412" lon="1.91543">
        <ele>170</ele>
        <time>2016-04-03T11:19:32.000Z</time>
      </trkpt>
      <trkpt lat="44.06418" lon="1.91556">
        <ele>170</ele>
        <time>2016-04-03T11:19:36.000Z</time>
      </trkpt>
      <trkpt lat="44.06423" lon="1.91568">
        <ele>170</ele>
        <time>2016-04-03T11:19:40.000Z</time>
      </trkpt>
      <trkpt lat="44.06423" lon="1.91568">
        <ele>170</ele>
        <time>2016-04-03T11:19:42.000Z</time>
      </trkpt>
      <trkpt lat="44.06423" lon="1.91568">
        <ele>170</ele>
        <time>2016-04-03T11:19:44.000Z</time>
      </trkpt>
      <trkpt lat="44.06423" lon="1.91568">
        <ele>170</ele>
        <time>2016-04-03T11:19:46.000Z</time>
      </trkpt>
      <trkpt lat="44.06423" lon="1.91568">
        <ele>170</ele>
        <time>2016-04-03T11:19:48.000Z</time>
      </trkpt>
      <trkpt lat="44.06423" lon="1.91568">
        <ele>170</ele>
        <time>2016-04-03T11:19:50.000Z</time>
      </trkpt>
      <trkpt lat="44.06423" lon="1.91568">
        <ele>170</ele>
        <time>2016-04-03T11:19:52.000Z</time>
      </trkpt>
      <trkpt lat="44.06423" lon="1.91568">
        <ele>170</ele>
        <time>2016-04-03T11:19:54.000Z</time>
      </trkpt>
      <trkpt lat="44.06431" lon="1.91587">
        <ele>171</ele>
        <time>2016-04-03T11:19:58.000Z</time>
      </trkpt>
      <trkpt lat="44.06435" lon="1.91599">
        <ele>172</ele>
        <time>2016-04-03T11:20:00.000Z</time>
      </trkpt>
      <trkpt lat="44.06438" lon="1.91608">
        <ele>172</ele>
        <time>2016-04-03T11:20:02.000Z</time>
      </trkpt>
      <trkpt lat="44.0644" lon="1.91616">
        <ele>172</ele>
        <time>2016-04-03T11:20:04.000Z</time>
      </trkpt>
      <trkpt lat="44.0644" lon="1.91622">
        <ele>172</ele>
        <time>2016-04-03T11:20:06.000Z</time>
      </trkpt>
      <trkpt lat="44.0644" lon="1.91622">
        <ele>172</ele>
        <time>2016-04-03T11:20:08.000Z</time>
      </trkpt>
      <trkpt lat="44.06441" lon="1.91647">
        <ele>175</ele>
        <time>2016-04-03T11:20:12.000Z</time>
      </trkpt>
      <trkpt lat="44.06441" lon="1.91659">
        <ele>175</ele>
        <time>2016-04-03T11:20:16.000Z</time>
      </trkpt>
      <trkpt lat="44.06441" lon="1.91659">
        <ele>175</ele>
        <time>2016-04-03T11:20:18.000Z</time>
      </trkpt>
      <trkpt lat="44.06441" lon="1.91659">
        <ele>175</ele>
        <time>2016-04-03T11:20:20.000Z</time>
      </trkpt>
      <trkpt lat="44.06441" lon="1.91659">
        <ele>175</ele>
        <time>2016-04-03T11:20:22.000Z</time>
      </trkpt>
      <trkpt lat="44.06441" lon="1.91659">
        <ele>175</ele>
        <time>2016-04-03T11:20:24.000Z</time>
      </trkpt>
      <trkpt lat="44.06441" lon="1.91659">
        <ele>175</ele>
        <time>2016-04-03T11:20:26.000Z</time>
      </trkpt>
      <trkpt lat="44.06438" lon="1.91704">
        <ele>175</ele>
        <time>2016-04-03T11:20:32.000Z</time>
      </trkpt>
      <trkpt lat="44.06438" lon="1.91704">
        <ele>175</ele>
        <time>2016-04-03T11:20:34.000Z</time>
      </trkpt>
      <trkpt lat="44.06438" lon="1.91704">
        <ele>175</ele>
        <time>2016-04-03T11:20:36.000Z</time>
      </trkpt>
      <trkpt lat="44.06438" lon="1.91704">
        <ele>175</ele>
        <time>2016-04-03T11:20:38.000Z</time>
      </trkpt>
      <trkpt lat="44.06438" lon="1.91704">
        <ele>175</ele>
        <time>2016-04-03T11:20:40.000Z</time>
      </trkpt>
      <trkpt lat="44.0643" lon="1.91733">
        <ele>176</ele>
        <time>2016-04-03T11:20:44.000Z</time>
      </trkpt>
      <trkpt lat="44.06425" lon="1.91748">
        <ele>176</ele>
        <time>2016-04-03T11:20:50.000Z</time>
      </trkpt>
      <trkpt lat="44.0642" lon="1.91765">
        <ele>175</ele>
        <time>2016-04-03T11:20:56.000Z</time>
      </trkpt>
      <trkpt lat="44.0642" lon="1.91765">
        <ele>175</ele>
        <time>2016-04-03T11:21:00.000Z</time>
      </trkpt>
      <trkpt lat="44.0642" lon="1.91765">
        <ele>175</ele>
        <time>2016-04-03T11:21:02.000Z</time>
      </trkpt>
      <trkpt lat="44.0642" lon="1.91765">
        <ele>175</ele>
        <time>2016-04-03T11:21:04.000Z</time>
      </trkpt>
      <trkpt lat="44.06408" lon="1.91803">
        <ele>175</ele>
        <time>2016-04-03T11:21:10.000Z</time>
      </trkpt>
      <trkpt lat="44.06404" lon="1.91816">
        <ele>175</ele>
        <time>2016-04-03T11:21:14.000Z</time>
      </trkpt>
      <trkpt lat="44.06399" lon="1.91829">
        <ele>175</ele>
        <time>2016-04-03T11:21:18.000Z</time>
      </trkpt>
      <trkpt lat="44.06399" lon="1.91829">
        <ele>175</ele>
        <time>2016-04-03T11:21:20.000Z</time>
      </trkpt>
      <trkpt lat="44.06396" lon="1.91842">
        <ele>174</ele>
        <time>2016-04-03T11:21:22.000Z</time>
      </trkpt>
      <trkpt lat="44.06396" lon="1.91842">
        <ele>174</ele>
        <time>2016-04-03T11:21:24.000Z</time>
      </trkpt>
      <trkpt lat="44.06396" lon="1.91842">
        <ele>174</ele>
        <time>2016-04-03T11:21:26.000Z</time>
      </trkpt>
      <trkpt lat="44.06396" lon="1.91842">
        <ele>174</ele>
        <time>2016-04-03T11:21:28.000Z</time>
      </trkpt>
      <trkpt lat="44.06396" lon="1.91842">
        <ele>174</ele>
        <time>2016-04-03T11:21:30.000Z</time>
      </trkpt>
      <trkpt lat="44.0639" lon="1.9186">
        <ele>175</ele>
        <time>2016-04-03T11:21:34.000Z</time>
      </trkpt>
      <trkpt lat="44.06386" lon="1.91873">
        <ele>175</ele>
        <time>2016-04-03T11:21:36.000Z</time>
      </trkpt>
      <trkpt lat="44.06383" lon="1.91882">
        <ele>175</ele>
        <time>2016-04-03T11:21:38.000Z</time>
      </trkpt>
      <trkpt lat="44.0638" lon="1.9189">
        <ele>175</ele>
        <time>2016-04-03T11:21:40.000Z</time>
      </trkpt>
      <trkpt lat="44.06378" lon="1.91897">
        <ele>175</ele>
        <time>2016-04-03T11:21:42.000Z</time>
      </trkpt>
      <trkpt lat="44.06372" lon="1.91911">
        <ele>175</ele>
        <time>2016-04-03T11:21:44.000Z</time>
      </trkpt>
      <trkpt lat="44.06367" lon="1.91925">
        <ele>175</ele>
        <time>2016-04-03T11:21:48.000Z</time>
      </trkpt>
      <trkpt lat="44.06361" lon="1.91939">
        <ele>175</ele>
        <time>2016-04-03T11:21:52.000Z</time>
      </trkpt>
      <trkpt lat="44.06355" lon="1.91953">
        <ele>175</ele>
        <time>2016-04-03T11:21:56.000Z</time>
      </trkpt>
      <trkpt lat="44.06355" lon="1.91953">
        <ele>175</ele>
        <time>2016-04-03T11:21:58.000Z</time>
      </trkpt>
      <trkpt lat="44.06355" lon="1.91953">
        <ele>175</ele>
        <time>2016-04-03T11:22:00.000Z</time>
      </trkpt>
      <trkpt lat="44.06355" lon="1.91953">
        <ele>175</ele>
        <time>2016-04-03T11:22:06.000Z</time>
      </trkpt>
      <trkpt lat="44.06355" lon="1.91953">
        <ele>175</ele>
        <time>2016-04-03T11:22:08.000Z</time>
      </trkpt>
      <trkpt lat="44.06355" lon="1.91953">
        <ele>175</ele>
        <time>2016-04-03T11:22:10.000Z</time>
      </trkpt>
      <trkpt lat="44.06355" lon="1.91953">
        <ele>175</ele>
        <time>2016-04-03T11:22:12.000Z</time>
      </trkpt>
      <trkpt lat="44.06355" lon="1.91953">
        <ele>175</ele>
        <time>2016-04-03T11:22:14.000Z</time>
      </trkpt>
      <trkpt lat="44.06355" lon="1.91953">
        <ele>175</ele>
        <time>2016-04-03T11:22:16.000Z</time>
      </trkpt>
      <trkpt lat="44.06355" lon="1.91953">
        <ele>175</ele>
        <time>2016-04-03T11:22:18.000Z</time>
      </trkpt>
      <trkpt lat="44.06355" lon="1.91953">
        <ele>175</ele>
        <time>2016-04-03T11:22:22.000Z</time>
      </trkpt>
      <trkpt lat="44.06355" lon="1.91953">
        <ele>175</ele>
        <time>2016-04-03T11:22:24.000Z</time>
      </trkpt>
      <trkpt lat="44.06324" lon="1.92048">
        <ele>179</ele>
        <time>2016-04-03T11:22:26.000Z</time>
      </trkpt>
      <trkpt lat="44.06323" lon="1.92068">
        <ele>179</ele>
        <time>2016-04-03T11:22:30.000Z</time>
      </trkpt>
      <trkpt lat="44.06322" lon="1.92081">
        <ele>178</ele>
        <time>2016-04-03T11:22:32.000Z</time>
      </trkpt>
      <trkpt lat="44.06322" lon="1.92094">
        <ele>178</ele>
        <time>2016-04-03T11:22:34.000Z</time>
      </trkpt>
      <trkpt lat="44.06324" lon="1.92107">
        <ele>178</ele>
        <time>2016-04-03T11:22:36.000Z</time>
      </trkpt>
      <trkpt lat="44.06327" lon="1.9212">
        <ele>178</ele>
        <time>2016-04-03T11:22:38.000Z</time>
      </trkpt>
      <trkpt lat="44.06329" lon="1.92134">
        <ele>179</ele>
        <time>2016-04-03T11:22:40.000Z</time>
      </trkpt>
      <trkpt lat="44.06332" lon="1.92149">
        <ele>179</ele>
        <time>2016-04-03T11:22:42.000Z</time>
      </trkpt>
      <trkpt lat="44.06334" lon="1.92163">
        <ele>179</ele>
        <time>2016-04-03T11:22:44.000Z</time>
      </trkpt>
      <trkpt lat="44.06334" lon="1.92163">
        <ele>179</ele>
        <time>2016-04-03T11:22:46.000Z</time>
      </trkpt>
      <trkpt lat="44.06334" lon="1.92163">
        <ele>179</ele>
        <time>2016-04-03T11:22:48.000Z</time>
      </trkpt>
      <trkpt lat="44.06334" lon="1.92163">
        <ele>179</ele>
        <time>2016-04-03T11:22:50.000Z</time>
      </trkpt>
      <trkpt lat="44.06334" lon="1.92163">
        <ele>179</ele>
        <time>2016-04-03T11:22:52.000Z</time>
      </trkpt>
      <trkpt lat="44.06334" lon="1.92163">
        <ele>179</ele>
        <time>2016-04-03T11:22:54.000Z</time>
      </trkpt>
      <trkpt lat="44.06334" lon="1.92163">
        <ele>179</ele>
        <time>2016-04-03T11:22:56.000Z</time>
      </trkpt>
      <trkpt lat="44.06334" lon="1.92163">
        <ele>179</ele>
        <time>2016-04-03T11:22:58.000Z</time>
      </trkpt>
      <trkpt lat="44.06334" lon="1.92163">
        <ele>179</ele>
        <time>2016-04-03T11:23:00.000Z</time>
      </trkpt>
      <trkpt lat="44.06334" lon="1.92163">
        <ele>179</ele>
        <time>2016-04-03T11:23:02.000Z</time>
      </trkpt>
      <trkpt lat="44.06334" lon="1.92163">
        <ele>179</ele>
        <time>2016-04-03T11:23:04.000Z</time>
      </trkpt>
      <trkpt lat="44.06334" lon="1.92163">
        <ele>179</ele>
        <time>2016-04-03T11:23:06.000Z</time>
      </trkpt>
      <trkpt lat="44.06334" lon="1.92163">
        <ele>179</ele>
        <time>2016-04-03T11:23:08.000Z</time>
      </trkpt>
      <trkpt lat="44.0633" lon="1.92232">
        <ele>183</ele>
        <time>2016-04-03T11:23:24.000Z</time>
      </trkpt>
      <trkpt lat="44.06328" lon="1.92268">
        <ele>183</ele>
        <time>2016-04-03T11:23:26.000Z</time>
      </trkpt>
      <trkpt lat="44.06325" lon="1.92289">
        <ele>183</ele>
        <time>2016-04-03T11:23:28.000Z</time>
      </trkpt>
      <trkpt lat="44.06325" lon="1.92289">
        <ele>183</ele>
        <time>2016-04-03T11:23:30.000Z</time>
      </trkpt>
      <trkpt lat="44.06325" lon="1.92289">
        <ele>183</ele>
        <time>2016-04-03T11:23:32.000Z</time>
      </trkpt>
      <trkpt lat="44.06325" lon="1.92289">
        <ele>183</ele>
        <time>2016-04-03T11:23:34.000Z</time>
      </trkpt>
      <trkpt lat="44.06315" lon="1.92313">
        <ele>183</ele>
        <time>2016-04-03T11:23:44.000Z</time>
      </trkpt>
      <trkpt lat="44.06315" lon="1.92313">
        <ele>183</ele>
        <time>2016-04-03T11:23:46.000Z</time>
      </trkpt>
      <trkpt lat="44.06315" lon="1.92313">
        <ele>183</ele>
        <time>2016-04-03T11:23:48.000Z</time>
      </trkpt>
      <trkpt lat="44.06315" lon="1.92313">
        <ele>183</ele>
        <time>2016-04-03T11:23:50.000Z</time>
      </trkpt>
      <trkpt lat="44.06315" lon="1.92313">
        <ele>183</ele>
        <time>2016-04-03T11:23:52.000Z</time>
      </trkpt>
      <trkpt lat="44.06315" lon="1.92313">
        <ele>183</ele>
        <time>2016-04-03T11:23:54.000Z</time>
      </trkpt>
      <trkpt lat="44.06305" lon="1.92336">
        <ele>185</ele>
        <time>2016-04-03T11:23:58.000Z</time>
      </trkpt>
      <trkpt lat="44.06298" lon="1.9235">
        <ele>185</ele>
        <time>2016-04-03T11:24:00.000Z</time>
      </trkpt>
      <trkpt lat="44.06295" lon="1.92359">
        <ele>185</ele>
        <time>2016-04-03T11:24:02.000Z</time>
      </trkpt>
      <trkpt lat="44.06292" lon="1.92365">
        <ele>186</ele>
        <time>2016-04-03T11:24:04.000Z</time>
      </trkpt>
      <trkpt lat="44.06292" lon="1.92365">
        <ele>186</ele>
        <time>2016-04-03T11:24:06.000Z</time>
      </trkpt>
      <trkpt lat="44.06292" lon="1.92365">
        <ele>186</ele>
        <time>2016-04-03T11:24:08.000Z</time>
      </trkpt>
      <trkpt lat="44.06292" lon="1.92365">
        <ele>186</ele>
        <time>2016-04-03T11:24:10.000Z</time>
      </trkpt>
      <trkpt lat="44.06292" lon="1.92365">
        <ele>186</ele>
        <time>2016-04-03T11:24:12.000Z</time>
      </trkpt>
      <trkpt lat="44.06292" lon="1.92365">
        <ele>186</ele>
        <time>2016-04-03T11:24:14.000Z</time>
      </trkpt>
      <trkpt lat="44.06285" lon="1.92383">
        <ele>187</ele>
        <time>2016-04-03T11:24:20.000Z</time>
      </trkpt>
      <trkpt lat="44.06281" lon="1.92393">
        <ele>187</ele>
        <time>2016-04-03T11:24:22.000Z</time>
      </trkpt>
      <trkpt lat="44.06277" lon="1.924">
        <ele>187</ele>
        <time>2016-04-03T11:24:24.000Z</time>
      </trkpt>
      <trkpt lat="44.06277" lon="1.924">
        <ele>187</ele>
        <time>2016-04-03T11:24:26.000Z</time>
      </trkpt>
      <trkpt lat="44.06277" lon="1.924">
        <ele>187</ele>
        <time>2016-04-03T11:24:28.000Z</time>
      </trkpt>
      <trkpt lat="44.06277" lon="1.924">
        <ele>187</ele>
        <time>2016-04-03T11:24:30.000Z</time>
      </trkpt>
      <trkpt lat="44.06273" lon="1.92411">
        <ele>188</ele>
        <time>2016-04-03T11:24:34.000Z</time>
      </trkpt>
      <trkpt lat="44.06271" lon="1.92419">
        <ele>188</ele>
        <time>2016-04-03T11:24:36.000Z</time>
      </trkpt>
      <trkpt lat="44.06268" lon="1.92426">
        <ele>188</ele>
        <time>2016-04-03T11:24:40.000Z</time>
      </trkpt>
      <trkpt lat="44.06268" lon="1.92426">
        <ele>188</ele>
        <time>2016-04-03T11:24:42.000Z</time>
      </trkpt>
      <trkpt lat="44.06268" lon="1.92426">
        <ele>188</ele>
        <time>2016-04-03T11:24:44.000Z</time>
      </trkpt>
      <trkpt lat="44.06265" lon="1.92434">
        <ele>189</ele>
        <time>2016-04-03T11:24:46.000Z</time>
      </trkpt>
      <trkpt lat="44.06262" lon="1.9244">
        <ele>189</ele>
        <time>2016-04-03T11:24:48.000Z</time>
      </trkpt>
      <trkpt lat="44.0626" lon="1.92446">
        <ele>190</ele>
        <time>2016-04-03T11:24:52.000Z</time>
      </trkpt>
      <trkpt lat="44.06256" lon="1.92452">
        <ele>190</ele>
        <time>2016-04-03T11:24:56.000Z</time>
      </trkpt>
      <trkpt lat="44.06256" lon="1.92452">
        <ele>190</ele>
        <time>2016-04-03T11:25:00.000Z</time>
      </trkpt>
      <trkpt lat="44.06256" lon="1.92452">
        <ele>190</ele>
        <time>2016-04-03T11:25:02.000Z</time>
      </trkpt>
      <trkpt lat="44.06252" lon="1.92465">
        <ele>189</ele>
        <time>2016-04-03T11:25:06.000Z</time>
      </trkpt>
      <trkpt lat="44.0625" lon="1.92474">
        <ele>189</ele>
        <time>2016-04-03T11:25:08.000Z</time>
      </trkpt>
      <trkpt lat="44.06247" lon="1.92482">
        <ele>188</ele>
        <time>2016-04-03T11:25:10.000Z</time>
      </trkpt>
      <trkpt lat="44.06245" lon="1.92489">
        <ele>188</ele>
        <time>2016-04-03T11:25:12.000Z</time>
      </trkpt>
      <trkpt lat="44.06244" lon="1.92497">
        <ele>187</ele>
        <time>2016-04-03T11:25:14.000Z</time>
      </trkpt>
      <trkpt lat="44.0624" lon="1.92511">
        <ele>186</ele>
        <time>2016-04-03T11:25:16.000Z</time>
      </trkpt>
      <trkpt lat="44.06236" lon="1.92527">
        <ele>185</ele>
        <time>2016-04-03T11:25:20.000Z</time>
      </trkpt>
      <trkpt lat="44.0623" lon="1.92549">
        <ele>183</ele>
        <time>2016-04-03T11:25:24.000Z</time>
      </trkpt>
      <trkpt lat="44.06224" lon="1.92573">
        <ele>182</ele>
        <time>2016-04-03T11:25:28.000Z</time>
      </trkpt>
      <trkpt lat="44.06217" lon="1.92593">
        <ele>181</ele>
        <time>2016-04-03T11:25:32.000Z</time>
      </trkpt>
      <trkpt lat="44.06217" lon="1.92593">
        <ele>181</ele>
        <time>2016-04-03T11:25:34.000Z</time>
      </trkpt>
      <trkpt lat="44.06217" lon="1.92593">
        <ele>181</ele>
        <time>2016-04-03T11:25:36.000Z</time>
      </trkpt>
      <trkpt lat="44.06217" lon="1.92593">
        <ele>181</ele>
        <time>2016-04-03T11:25:38.000Z</time>
      </trkpt>
      <trkpt lat="44.06217" lon="1.92593">
        <ele>181</ele>
        <time>2016-04-03T11:25:40.000Z</time>
      </trkpt>
      <trkpt lat="44.06217" lon="1.92593">
        <ele>181</ele>
        <time>2016-04-03T11:25:42.000Z</time>
      </trkpt>
      <trkpt lat="44.06217" lon="1.92593">
        <ele>181</ele>
        <time>2016-04-03T11:25:44.000Z</time>
      </trkpt>
      <trkpt lat="44.06217" lon="1.92593">
        <ele>181</ele>
        <time>2016-04-03T11:25:46.000Z</time>
      </trkpt>
      <trkpt lat="44.06218" lon="1.92647">
        <ele>181</ele>
        <time>2016-04-03T11:25:52.000Z</time>
      </trkpt>
      <trkpt lat="44.06218" lon="1.92647">
        <ele>181</ele>
        <time>2016-04-03T11:25:54.000Z</time>
      </trkpt>
      <trkpt lat="44.06218" lon="1.92647">
        <ele>181</ele>
        <time>2016-04-03T11:25:56.000Z</time>
      </trkpt>
      <trkpt lat="44.06218" lon="1.92647">
        <ele>181</ele>
        <time>2016-04-03T11:26:02.000Z</time>
      </trkpt>
      <trkpt lat="44.06218" lon="1.92647">
        <ele>181</ele>
        <time>2016-04-03T11:26:04.000Z</time>
      </trkpt>
      <trkpt lat="44.06225" lon="1.92665">
        <ele>185</ele>
        <time>2016-04-03T11:26:35.000Z</time>
      </trkpt>
      <trkpt lat="44.06229" lon="1.92676">
        <ele>185</ele>
        <time>2016-04-03T11:26:37.000Z</time>
      </trkpt>
      <trkpt lat="44.06229" lon="1.92676">
        <ele>185</ele>
        <time>2016-04-03T11:26:39.000Z</time>
      </trkpt>
      <trkpt lat="44.06229" lon="1.92676">
        <ele>185</ele>
        <time>2016-04-03T11:26:41.000Z</time>
      </trkpt>
      <trkpt lat="44.06234" lon="1.92686">
        <ele>185</ele>
        <time>2016-04-03T11:27:40.000Z</time>
      </trkpt>
      <trkpt lat="44.06238" lon="1.92693">
        <ele>185</ele>
        <time>2016-04-03T11:27:42.000Z</time>
      </trkpt>
      <trkpt lat="44.0624" lon="1.927">
        <ele>185</ele>
        <time>2016-04-03T11:27:46.000Z</time>
      </trkpt>
      <trkpt lat="44.0624" lon="1.927">
        <ele>185</ele>
        <time>2016-04-03T11:27:48.000Z</time>
      </trkpt>
      <trkpt lat="44.0624" lon="1.927">
        <ele>185</ele>
        <time>2016-04-03T11:27:50.000Z</time>
      </trkpt>
      <trkpt lat="44.06242" lon="1.92708">
        <ele>185</ele>
        <time>2016-04-03T11:27:54.000Z</time>
      </trkpt>
      <trkpt lat="44.06242" lon="1.92708">
        <ele>185</ele>
        <time>2016-04-03T11:27:58.000Z</time>
      </trkpt>
      <trkpt lat="44.06242" lon="1.92708">
        <ele>185</ele>
        <time>2016-04-03T11:28:00.000Z</time>
      </trkpt>
      <trkpt lat="44.06242" lon="1.92708">
        <ele>185</ele>
        <time>2016-04-03T11:28:02.000Z</time>
      </trkpt>
      <trkpt lat="44.06242" lon="1.92708">
        <ele>185</ele>
        <time>2016-04-03T11:28:04.000Z</time>
      </trkpt>
      <trkpt lat="44.06242" lon="1.92708">
        <ele>185</ele>
        <time>2016-04-03T11:28:08.000Z</time>
      </trkpt>
      <trkpt lat="44.06242" lon="1.92708">
        <ele>185</ele>
        <time>2016-04-03T11:28:10.000Z</time>
      </trkpt>
      <trkpt lat="44.06248" lon="1.92723">
        <ele>188</ele>
        <time>2016-04-03T11:28:21.000Z</time>
      </trkpt>
      <trkpt lat="44.06251" lon="1.92731">
        <ele>188</ele>
        <time>2016-04-03T11:28:23.000Z</time>
      </trkpt>
      <trkpt lat="44.06251" lon="1.92731">
        <ele>188</ele>
        <time>2016-04-03T11:28:25.000Z</time>
      </trkpt>
      <trkpt lat="44.06251" lon="1.92731">
        <ele>188</ele>
        <time>2016-04-03T11:28:27.000Z</time>
      </trkpt>
      <trkpt lat="44.06251" lon="1.92731">
        <ele>188</ele>
        <time>2016-04-03T11:28:29.000Z</time>
      </trkpt>
      <trkpt lat="44.06257" lon="1.92739">
        <ele>190</ele>
        <time>2016-04-03T11:28:49.000Z</time>
      </trkpt>
      <trkpt lat="44.06261" lon="1.92744">
        <ele>190</ele>
        <time>2016-04-03T11:28:51.000Z</time>
      </trkpt>
      <trkpt lat="44.06266" lon="1.92748">
        <ele>190</ele>
        <time>2016-04-03T11:28:55.000Z</time>
      </trkpt>
      <trkpt lat="44.06266" lon="1.92748">
        <ele>190</ele>
        <time>2016-04-03T11:28:57.000Z</time>
      </trkpt>
      <trkpt lat="44.06275" lon="1.9276">
        <ele>195</ele>
        <time>2016-04-03T11:29:13.000Z</time>
      </trkpt>
      <trkpt lat="44.0628" lon="1.92768">
        <ele>195</ele>
        <time>2016-04-03T11:29:15.000Z</time>
      </trkpt>
      <trkpt lat="44.0628" lon="1.92768">
        <ele>195</ele>
        <time>2016-04-03T11:29:17.000Z</time>
      </trkpt>
      <trkpt lat="44.0628" lon="1.92768">
        <ele>195</ele>
        <time>2016-04-03T11:29:19.000Z</time>
      </trkpt>
      <trkpt lat="44.0628" lon="1.92768">
        <ele>195</ele>
        <time>2016-04-03T11:29:21.000Z</time>
      </trkpt>
      <trkpt lat="44.0628" lon="1.92768">
        <ele>195</ele>
        <time>2016-04-03T11:29:23.000Z</time>
      </trkpt>
      <trkpt lat="44.0628" lon="1.92768">
        <ele>195</ele>
        <time>2016-04-03T11:29:25.000Z</time>
      </trkpt>
      <trkpt lat="44.0628" lon="1.92768">
        <ele>195</ele>
        <time>2016-04-03T11:29:27.000Z</time>
      </trkpt>
      <trkpt lat="44.0628" lon="1.92768">
        <ele>195</ele>
        <time>2016-04-03T11:29:29.000Z</time>
      </trkpt>
      <trkpt lat="44.0628" lon="1.92768">
        <ele>195</ele>
        <time>2016-04-03T11:29:31.000Z</time>
      </trkpt>
      <trkpt lat="44.0628" lon="1.92768">
        <ele>195</ele>
        <time>2016-04-03T11:29:33.000Z</time>
      </trkpt>
      <trkpt lat="44.06289" lon="1.92782">
        <ele>200</ele>
        <time>2016-04-03T11:29:37.000Z</time>
      </trkpt>
      <trkpt lat="44.06293" lon="1.9279">
        <ele>201</ele>
        <time>2016-04-03T11:29:39.000Z</time>
      </trkpt>
      <trkpt lat="44.06297" lon="1.92795">
        <ele>201</ele>
        <time>2016-04-03T11:29:41.000Z</time>
      </trkpt>
      <trkpt lat="44.06297" lon="1.92795">
        <ele>201</ele>
        <time>2016-04-03T11:29:45.000Z</time>
      </trkpt>
      <trkpt lat="44.06297" lon="1.92795">
        <ele>201</ele>
        <time>2016-04-03T11:29:47.000Z</time>
      </trkpt>
      <trkpt lat="44.063" lon="1.92803">
        <ele>203</ele>
        <time>2016-04-03T11:29:49.000Z</time>
      </trkpt>
      <trkpt lat="44.063" lon="1.92803">
        <ele>203</ele>
        <time>2016-04-03T11:29:51.000Z</time>
      </trkpt>
      <trkpt lat="44.063" lon="1.92803">
        <ele>203</ele>
        <time>2016-04-03T11:29:53.000Z</time>
      </trkpt>
      <trkpt lat="44.063" lon="1.92803">
        <ele>203</ele>
        <time>2016-04-03T11:29:55.000Z</time>
      </trkpt>
      <trkpt lat="44.063" lon="1.92803">
        <ele>203</ele>
        <time>2016-04-03T11:30:01.000Z</time>
      </trkpt>
      <trkpt lat="44.06306" lon="1.92813">
        <ele>205</ele>
        <time>2016-04-03T11:30:03.000Z</time>
      </trkpt>
      <trkpt lat="44.06309" lon="1.9282">
        <ele>205</ele>
        <time>2016-04-03T11:30:05.000Z</time>
      </trkpt>
      <trkpt lat="44.06312" lon="1.92826">
        <ele>205</ele>
        <time>2016-04-03T11:30:09.000Z</time>
      </trkpt>
      <trkpt lat="44.06312" lon="1.92826">
        <ele>205</ele>
        <time>2016-04-03T11:30:11.000Z</time>
      </trkpt>
      <trkpt lat="44.06312" lon="1.92826">
        <ele>205</ele>
        <time>2016-04-03T11:30:13.000Z</time>
      </trkpt>
      <trkpt lat="44.06312" lon="1.92826">
        <ele>205</ele>
        <time>2016-04-03T11:30:15.000Z</time>
      </trkpt>
      <trkpt lat="44.06312" lon="1.92826">
        <ele>205</ele>
        <time>2016-04-03T11:30:17.000Z</time>
      </trkpt>
      <trkpt lat="44.06312" lon="1.92826">
        <ele>205</ele>
        <time>2016-04-03T11:30:19.000Z</time>
      </trkpt>
      <trkpt lat="44.06318" lon="1.92836">
        <ele>199</ele>
        <time>2016-04-03T11:30:59.000Z</time>
      </trkpt>
      <trkpt lat="44.06321" lon="1.92843">
        <ele>199</ele>
        <time>2016-04-03T11:31:01.000Z</time>
      </trkpt>
      <trkpt lat="44.06324" lon="1.92849">
        <ele>199</ele>
        <time>2016-04-03T11:31:03.000Z</time>
      </trkpt>
      <trkpt lat="44.06326" lon="1.92856">
        <ele>199</ele>
        <time>2016-04-03T11:31:05.000Z</time>
      </trkpt>
      <trkpt lat="44.06329" lon="1.92863">
        <ele>200</ele>
        <time>2016-04-03T11:31:07.000Z</time>
      </trkpt>
      <trkpt lat="44.06337" lon="1.9288">
        <ele>200</ele>
        <time>2016-04-03T11:31:09.000Z</time>
      </trkpt>
      <trkpt lat="44.06345" lon="1.92896">
        <ele>200</ele>
        <time>2016-04-03T11:31:13.000Z</time>
      </trkpt>
      <trkpt lat="44.06345" lon="1.92896">
        <ele>200</ele>
        <time>2016-04-03T11:31:15.000Z</time>
      </trkpt>
      <trkpt lat="44.06345" lon="1.92896">
        <ele>200</ele>
        <time>2016-04-03T11:31:17.000Z</time>
      </trkpt>
      <trkpt lat="44.06345" lon="1.92896">
        <ele>200</ele>
        <time>2016-04-03T11:31:23.000Z</time>
      </trkpt>
      <trkpt lat="44.06345" lon="1.92896">
        <ele>200</ele>
        <time>2016-04-03T11:31:25.000Z</time>
      </trkpt>
      <trkpt lat="44.06345" lon="1.92896">
        <ele>200</ele>
        <time>2016-04-03T11:31:27.000Z</time>
      </trkpt>
      <trkpt lat="44.06345" lon="1.92896">
        <ele>200</ele>
        <time>2016-04-03T11:31:29.000Z</time>
      </trkpt>
      <trkpt lat="44.06345" lon="1.92896">
        <ele>200</ele>
        <time>2016-04-03T11:31:31.000Z</time>
      </trkpt>
      <trkpt lat="44.06345" lon="1.92896">
        <ele>200</ele>
        <time>2016-04-03T11:31:33.000Z</time>
      </trkpt>
      <trkpt lat="44.06345" lon="1.92896">
        <ele>200</ele>
        <time>2016-04-03T11:31:35.000Z</time>
      </trkpt>
      <trkpt lat="44.06345" lon="1.92896">
        <ele>200</ele>
        <time>2016-04-03T11:31:41.000Z</time>
      </trkpt>
      <trkpt lat="44.06345" lon="1.92896">
        <ele>200</ele>
        <time>2016-04-03T11:31:43.000Z</time>
      </trkpt>
      <trkpt lat="44.06345" lon="1.92896">
        <ele>200</ele>
        <time>2016-04-03T11:31:45.000Z</time>
      </trkpt>
      <trkpt lat="44.06345" lon="1.92896">
        <ele>200</ele>
        <time>2016-04-03T11:31:51.000Z</time>
      </trkpt>
      <trkpt lat="44.06345" lon="1.92896">
        <ele>200</ele>
        <time>2016-04-03T11:31:53.000Z</time>
      </trkpt>
      <trkpt lat="44.06345" lon="1.92896">
        <ele>200</ele>
        <time>2016-04-03T11:31:55.000Z</time>
      </trkpt>
      <trkpt lat="44.06345" lon="1.92896">
        <ele>200</ele>
        <time>2016-04-03T11:31:57.000Z</time>
      </trkpt>
      <trkpt lat="44.06345" lon="1.92896">
        <ele>200</ele>
        <time>2016-04-03T11:31:59.000Z</time>
      </trkpt>
      <trkpt lat="44.06345" lon="1.92896">
        <ele>200</ele>
        <time>2016-04-03T11:32:01.000Z</time>
      </trkpt>
      <trkpt lat="44.06345" lon="1.92896">
        <ele>200</ele>
        <time>2016-04-03T11:32:03.000Z</time>
      </trkpt>
      <trkpt lat="44.06345" lon="1.92896">
        <ele>200</ele>
        <time>2016-04-03T11:32:05.000Z</time>
      </trkpt>
      <trkpt lat="44.06345" lon="1.92896">
        <ele>200</ele>
        <time>2016-04-03T11:32:07.000Z</time>
      </trkpt>
      <trkpt lat="44.06345" lon="1.92896">
        <ele>200</ele>
        <time>2016-04-03T11:32:09.000Z</time>
      </trkpt>
      <trkpt lat="44.06392" lon="1.93024">
        <ele>204</ele>
        <time>2016-04-03T11:32:11.000Z</time>
      </trkpt>
      <trkpt lat="44.0639" lon="1.93029">
        <ele>204</ele>
        <time>2016-04-03T11:32:17.000Z</time>
      </trkpt>
      <trkpt lat="44.06387" lon="1.93035">
        <ele>204</ele>
        <time>2016-04-03T11:32:21.000Z</time>
      </trkpt>
      <trkpt lat="44.06384" lon="1.93043">
        <ele>204</ele>
        <time>2016-04-03T11:32:25.000Z</time>
      </trkpt>
      <trkpt lat="44.06382" lon="1.93048">
        <ele>205</ele>
        <time>2016-04-03T11:32:27.000Z</time>
      </trkpt>
      <trkpt lat="44.06382" lon="1.93048">
        <ele>205</ele>
        <time>2016-04-03T11:32:29.000Z</time>
      </trkpt>
      <trkpt lat="44.06379" lon="1.93055">
        <ele>205</ele>
        <time>2016-04-03T11:32:31.000Z</time>
      </trkpt>
      <trkpt lat="44.06379" lon="1.93055">
        <ele>205</ele>
        <time>2016-04-03T11:32:33.000Z</time>
      </trkpt>
      <trkpt lat="44.06379" lon="1.93055">
        <ele>205</ele>
        <time>2016-04-03T11:32:35.000Z</time>
      </trkpt>
      <trkpt lat="44.06374" lon="1.93066">
        <ele>205</ele>
        <time>2016-04-03T11:32:39.000Z</time>
      </trkpt>
      <trkpt lat="44.06371" lon="1.93074">
        <ele>205</ele>
        <time>2016-04-03T11:32:41.000Z</time>
      </trkpt>
      <trkpt lat="44.06368" lon="1.93079">
        <ele>205</ele>
        <time>2016-04-03T11:32:43.000Z</time>
      </trkpt>
      <trkpt lat="44.06368" lon="1.93079">
        <ele>205</ele>
        <time>2016-04-03T11:32:45.000Z</time>
      </trkpt>
      <trkpt lat="44.06365" lon="1.93086">
        <ele>205</ele>
        <time>2016-04-03T11:32:47.000Z</time>
      </trkpt>
      <trkpt lat="44.06362" lon="1.93091">
        <ele>205</ele>
        <time>2016-04-03T11:32:49.000Z</time>
      </trkpt>
      <trkpt lat="44.06362" lon="1.93091">
        <ele>205</ele>
        <time>2016-04-03T11:32:51.000Z</time>
      </trkpt>
      <trkpt lat="44.06358" lon="1.931">
        <ele>206</ele>
        <time>2016-04-03T11:32:55.000Z</time>
      </trkpt>
      <trkpt lat="44.06354" lon="1.93106">
        <ele>206</ele>
        <time>2016-04-03T11:32:57.000Z</time>
      </trkpt>
      <trkpt lat="44.06351" lon="1.93111">
        <ele>206</ele>
        <time>2016-04-03T11:32:59.000Z</time>
      </trkpt>
      <trkpt lat="44.06348" lon="1.93117">
        <ele>206</ele>
        <time>2016-04-03T11:33:03.000Z</time>
      </trkpt>
      <trkpt lat="44.06344" lon="1.93123">
        <ele>206</ele>
        <time>2016-04-03T11:33:05.000Z</time>
      </trkpt>
      <trkpt lat="44.06341" lon="1.93127">
        <ele>206</ele>
        <time>2016-04-03T11:33:07.000Z</time>
      </trkpt>
      <trkpt lat="44.06341" lon="1.93127">
        <ele>206</ele>
        <time>2016-04-03T11:33:09.000Z</time>
      </trkpt>
      <trkpt lat="44.06337" lon="1.93134">
        <ele>206</ele>
        <time>2016-04-03T11:33:11.000Z</time>
      </trkpt>
      <trkpt lat="44.06337" lon="1.93134">
        <ele>206</ele>
        <time>2016-04-03T11:33:13.000Z</time>
      </trkpt>
      <trkpt lat="44.06337" lon="1.93134">
        <ele>206</ele>
        <time>2016-04-03T11:33:15.000Z</time>
      </trkpt>
      <trkpt lat="44.06337" lon="1.93134">
        <ele>206</ele>
        <time>2016-04-03T11:33:17.000Z</time>
      </trkpt>
      <trkpt lat="44.06328" lon="1.93146">
        <ele>206</ele>
        <time>2016-04-03T11:33:21.000Z</time>
      </trkpt>
      <trkpt lat="44.06322" lon="1.93155">
        <ele>206</ele>
        <time>2016-04-03T11:33:23.000Z</time>
      </trkpt>
      <trkpt lat="44.06318" lon="1.93161">
        <ele>207</ele>
        <time>2016-04-03T11:33:25.000Z</time>
      </trkpt>
      <trkpt lat="44.06314" lon="1.93166">
        <ele>207</ele>
        <time>2016-04-03T11:33:27.000Z</time>
      </trkpt>
      <trkpt lat="44.06311" lon="1.9317">
        <ele>207</ele>
        <time>2016-04-03T11:33:29.000Z</time>
      </trkpt>
      <trkpt lat="44.06303" lon="1.93185">
        <ele>207</ele>
        <time>2016-04-03T11:33:33.000Z</time>
      </trkpt>
      <trkpt lat="44.06298" lon="1.93196">
        <ele>207</ele>
        <time>2016-04-03T11:33:37.000Z</time>
      </trkpt>
      <trkpt lat="44.06298" lon="1.93196">
        <ele>207</ele>
        <time>2016-04-03T11:33:39.000Z</time>
      </trkpt>
      <trkpt lat="44.06293" lon="1.93206">
        <ele>207</ele>
        <time>2016-04-03T11:33:41.000Z</time>
      </trkpt>
      <trkpt lat="44.06293" lon="1.93206">
        <ele>207</ele>
        <time>2016-04-03T11:33:43.000Z</time>
      </trkpt>
      <trkpt lat="44.06289" lon="1.93219">
        <ele>206</ele>
        <time>2016-04-03T11:33:45.000Z</time>
      </trkpt>
      <trkpt lat="44.06285" lon="1.93233">
        <ele>206</ele>
        <time>2016-04-03T11:33:49.000Z</time>
      </trkpt>
      <trkpt lat="44.06285" lon="1.93233">
        <ele>206</ele>
        <time>2016-04-03T11:33:51.000Z</time>
      </trkpt>
      <trkpt lat="44.06285" lon="1.93233">
        <ele>206</ele>
        <time>2016-04-03T11:33:53.000Z</time>
      </trkpt>
      <trkpt lat="44.06285" lon="1.93233">
        <ele>206</ele>
        <time>2016-04-03T11:33:55.000Z</time>
      </trkpt>
      <trkpt lat="44.06282" lon="1.93269">
        <ele>206</ele>
        <time>2016-04-03T11:33:59.000Z</time>
      </trkpt>
      <trkpt lat="44.06282" lon="1.93284">
        <ele>206</ele>
        <time>2016-04-03T11:34:03.000Z</time>
      </trkpt>
      <trkpt lat="44.06282" lon="1.93284">
        <ele>206</ele>
        <time>2016-04-03T11:34:05.000Z</time>
      </trkpt>
      <trkpt lat="44.06282" lon="1.93284">
        <ele>206</ele>
        <time>2016-04-03T11:34:07.000Z</time>
      </trkpt>
      <trkpt lat="44.06282" lon="1.93284">
        <ele>206</ele>
        <time>2016-04-03T11:34:09.000Z</time>
      </trkpt>
      <trkpt lat="44.06282" lon="1.93284">
        <ele>206</ele>
        <time>2016-04-03T11:34:11.000Z</time>
      </trkpt>
      <trkpt lat="44.06282" lon="1.93284">
        <ele>206</ele>
        <time>2016-04-03T11:34:13.000Z</time>
      </trkpt>
      <trkpt lat="44.06279" lon="1.93297">
        <ele>205</ele>
        <time>2016-04-03T11:34:31.000Z</time>
      </trkpt>
      <trkpt lat="44.06287" lon="1.93315">
        <ele>205</ele>
        <time>2016-04-03T11:34:37.000Z</time>
      </trkpt>
      <trkpt lat="44.06299" lon="1.93335">
        <ele>203</ele>
        <time>2016-04-03T11:34:41.000Z</time>
      </trkpt>
      <trkpt lat="44.06307" lon="1.93346">
        <ele>202</ele>
        <time>2016-04-03T11:34:43.000Z</time>
      </trkpt>
      <trkpt lat="44.06316" lon="1.93359">
        <ele>201</ele>
        <time>2016-04-03T11:34:45.000Z</time>
      </trkpt>
      <trkpt lat="44.06324" lon="1.93373">
        <ele>200</ele>
        <time>2016-04-03T11:34:47.000Z</time>
      </trkpt>
      <trkpt lat="44.06334" lon="1.93387">
        <ele>199</ele>
        <time>2016-04-03T11:34:49.000Z</time>
      </trkpt>
      <trkpt lat="44.06343" lon="1.93401">
        <ele>198</ele>
        <time>2016-04-03T11:34:51.000Z</time>
      </trkpt>
      <trkpt lat="44.06353" lon="1.93414">
        <ele>198</ele>
        <time>2016-04-03T11:34:53.000Z</time>
      </trkpt>
      <trkpt lat="44.06362" lon="1.93427">
        <ele>198</ele>
        <time>2016-04-03T11:34:55.000Z</time>
      </trkpt>
      <trkpt lat="44.0637" lon="1.93439">
        <ele>197</ele>
        <time>2016-04-03T11:34:57.000Z</time>
      </trkpt>
      <trkpt lat="44.06378" lon="1.93452">
        <ele>197</ele>
        <time>2016-04-03T11:34:59.000Z</time>
      </trkpt>
      <trkpt lat="44.06385" lon="1.93465">
        <ele>197</ele>
        <time>2016-04-03T11:35:01.000Z</time>
      </trkpt>
      <trkpt lat="44.0639" lon="1.93479">
        <ele>197</ele>
        <time>2016-04-03T11:35:03.000Z</time>
      </trkpt>
      <trkpt lat="44.06393" lon="1.93492">
        <ele>197</ele>
        <time>2016-04-03T11:35:05.000Z</time>
      </trkpt>
      <trkpt lat="44.06393" lon="1.93492">
        <ele>197</ele>
        <time>2016-04-03T11:35:07.000Z</time>
      </trkpt>
      <trkpt lat="44.06393" lon="1.93492">
        <ele>197</ele>
        <time>2016-04-03T11:35:09.000Z</time>
      </trkpt>
      <trkpt lat="44.06393" lon="1.93492">
        <ele>197</ele>
        <time>2016-04-03T11:35:11.000Z</time>
      </trkpt>
      <trkpt lat="44.06393" lon="1.93492">
        <ele>197</ele>
        <time>2016-04-03T11:35:13.000Z</time>
      </trkpt>
      <trkpt lat="44.06377" lon="1.93568">
        <ele>197</ele>
        <time>2016-04-03T11:35:17.000Z</time>
      </trkpt>
      <trkpt lat="44.06371" lon="1.93581">
        <ele>197</ele>
        <time>2016-04-03T11:35:19.000Z</time>
      </trkpt>
      <trkpt lat="44.06365" lon="1.93595">
        <ele>196</ele>
        <time>2016-04-03T11:35:21.000Z</time>
      </trkpt>
      <trkpt lat="44.06359" lon="1.93608">
        <ele>195</ele>
        <time>2016-04-03T11:35:23.000Z</time>
      </trkpt>
      <trkpt lat="44.06353" lon="1.93624">
        <ele>194</ele>
        <time>2016-04-03T11:35:25.000Z</time>
      </trkpt>
      <trkpt lat="44.06348" lon="1.9364">
        <ele>193</ele>
        <time>2016-04-03T11:35:27.000Z</time>
      </trkpt>
      <trkpt lat="44.06346" lon="1.93657">
        <ele>192</ele>
        <time>2016-04-03T11:35:29.000Z</time>
      </trkpt>
      <trkpt lat="44.06345" lon="1.93672">
        <ele>191</ele>
        <time>2016-04-03T11:35:31.000Z</time>
      </trkpt>
      <trkpt lat="44.06346" lon="1.93687">
        <ele>190</ele>
        <time>2016-04-03T11:35:33.000Z</time>
      </trkpt>
      <trkpt lat="44.06346" lon="1.93687">
        <ele>190</ele>
        <time>2016-04-03T11:35:35.000Z</time>
      </trkpt>
      <trkpt lat="44.06346" lon="1.93687">
        <ele>190</ele>
        <time>2016-04-03T11:35:37.000Z</time>
      </trkpt>
      <trkpt lat="44.06346" lon="1.93687">
        <ele>190</ele>
        <time>2016-04-03T11:35:39.000Z</time>
      </trkpt>
      <trkpt lat="44.06346" lon="1.93687">
        <ele>190</ele>
        <time>2016-04-03T11:35:41.000Z</time>
      </trkpt>
      <trkpt lat="44.06318" lon="1.93768">
        <ele>186</ele>
        <time>2016-04-03T11:35:47.000Z</time>
      </trkpt>
      <trkpt lat="44.0631" lon="1.93779">
        <ele>185</ele>
        <time>2016-04-03T11:35:49.000Z</time>
      </trkpt>
      <trkpt lat="44.06304" lon="1.93789">
        <ele>185</ele>
        <time>2016-04-03T11:35:51.000Z</time>
      </trkpt>
      <trkpt lat="44.06296" lon="1.93798">
        <ele>184</ele>
        <time>2016-04-03T11:35:53.000Z</time>
      </trkpt>
      <trkpt lat="44.06296" lon="1.93798">
        <ele>184</ele>
        <time>2016-04-03T11:35:55.000Z</time>
      </trkpt>
      <trkpt lat="44.06296" lon="1.93798">
        <ele>184</ele>
        <time>2016-04-03T11:35:57.000Z</time>
      </trkpt>
      <trkpt lat="44.06296" lon="1.93798">
        <ele>184</ele>
        <time>2016-04-03T11:35:59.000Z</time>
      </trkpt>
      <trkpt lat="44.06296" lon="1.93798">
        <ele>184</ele>
        <time>2016-04-03T11:36:01.000Z</time>
      </trkpt>
      <trkpt lat="44.06296" lon="1.93798">
        <ele>184</ele>
        <time>2016-04-03T11:36:03.000Z</time>
      </trkpt>
      <trkpt lat="44.06296" lon="1.93798">
        <ele>184</ele>
        <time>2016-04-03T11:36:05.000Z</time>
      </trkpt>
      <trkpt lat="44.06296" lon="1.93798">
        <ele>184</ele>
        <time>2016-04-03T11:36:07.000Z</time>
      </trkpt>
      <trkpt lat="44.06285" lon="1.93821">
        <ele>182</ele>
        <time>2016-04-03T11:36:11.000Z</time>
      </trkpt>
      <trkpt lat="44.06279" lon="1.93834">
        <ele>182</ele>
        <time>2016-04-03T11:36:13.000Z</time>
      </trkpt>
      <trkpt lat="44.06274" lon="1.93843">
        <ele>181</ele>
        <time>2016-04-03T11:36:15.000Z</time>
      </trkpt>
      <trkpt lat="44.06272" lon="1.9385">
        <ele>181</ele>
        <time>2016-04-03T11:36:17.000Z</time>
      </trkpt>
      <trkpt lat="44.06269" lon="1.93856">
        <ele>180</ele>
        <time>2016-04-03T11:36:19.000Z</time>
      </trkpt>
      <trkpt lat="44.06263" lon="1.93868">
        <ele>180</ele>
        <time>2016-04-03T11:36:21.000Z</time>
      </trkpt>
      <trkpt lat="44.06257" lon="1.93883">
        <ele>179</ele>
        <time>2016-04-03T11:36:27.000Z</time>
      </trkpt>
      <trkpt lat="44.06257" lon="1.93883">
        <ele>179</ele>
        <time>2016-04-03T11:36:29.000Z</time>
      </trkpt>
      <trkpt lat="44.06257" lon="1.93883">
        <ele>179</ele>
        <time>2016-04-03T11:36:31.000Z</time>
      </trkpt>
      <trkpt lat="44.06254" lon="1.93915">
        <ele>179</ele>
        <time>2016-04-03T11:36:45.000Z</time>
      </trkpt>
      <trkpt lat="44.06254" lon="1.93915">
        <ele>179</ele>
        <time>2016-04-03T11:36:47.000Z</time>
      </trkpt>
      <trkpt lat="44.06254" lon="1.93915">
        <ele>179</ele>
        <time>2016-04-03T11:36:49.000Z</time>
      </trkpt>
      <trkpt lat="44.06254" lon="1.93915">
        <ele>179</ele>
        <time>2016-04-03T11:36:51.000Z</time>
      </trkpt>
      <trkpt lat="44.06254" lon="1.93949">
        <ele>181</ele>
        <time>2016-04-03T11:36:55.000Z</time>
      </trkpt>
      <trkpt lat="44.06257" lon="1.93965">
        <ele>183</ele>
        <time>2016-04-03T11:36:59.000Z</time>
      </trkpt>
      <trkpt lat="44.06263" lon="1.93986">
        <ele>183</ele>
        <time>2016-04-03T11:37:03.000Z</time>
      </trkpt>
      <trkpt lat="44.06272" lon="1.94008">
        <ele>184</ele>
        <time>2016-04-03T11:37:07.000Z</time>
      </trkpt>
      <trkpt lat="44.06279" lon="1.94029">
        <ele>184</ele>
        <time>2016-04-03T11:37:11.000Z</time>
      </trkpt>
      <trkpt lat="44.06279" lon="1.94029">
        <ele>184</ele>
        <time>2016-04-03T11:37:13.000Z</time>
      </trkpt>
      <trkpt lat="44.06279" lon="1.94029">
        <ele>184</ele>
        <time>2016-04-03T11:37:15.000Z</time>
      </trkpt>
      <trkpt lat="44.06279" lon="1.94029">
        <ele>184</ele>
        <time>2016-04-03T11:37:17.000Z</time>
      </trkpt>
      <trkpt lat="44.06279" lon="1.94029">
        <ele>184</ele>
        <time>2016-04-03T11:37:19.000Z</time>
      </trkpt>
      <trkpt lat="44.06279" lon="1.94029">
        <ele>184</ele>
        <time>2016-04-03T11:37:21.000Z</time>
      </trkpt>
      <trkpt lat="44.06279" lon="1.94029">
        <ele>184</ele>
        <time>2016-04-03T11:37:23.000Z</time>
      </trkpt>
      <trkpt lat="44.06279" lon="1.94029">
        <ele>184</ele>
        <time>2016-04-03T11:37:25.000Z</time>
      </trkpt>
      <trkpt lat="44.06279" lon="1.94029">
        <ele>184</ele>
        <time>2016-04-03T11:37:27.000Z</time>
      </trkpt>
      <trkpt lat="44.06279" lon="1.94029">
        <ele>184</ele>
        <time>2016-04-03T11:37:29.000Z</time>
      </trkpt>
      <trkpt lat="44.06279" lon="1.94029">
        <ele>184</ele>
        <time>2016-04-03T11:37:31.000Z</time>
      </trkpt>
      <trkpt lat="44.06279" lon="1.94029">
        <ele>184</ele>
        <time>2016-04-03T11:37:33.000Z</time>
      </trkpt>
      <trkpt lat="44.06301" lon="1.94108">
        <ele>180</ele>
        <time>2016-04-03T11:37:45.000Z</time>
      </trkpt>
      <trkpt lat="44.06301" lon="1.94108">
        <ele>180</ele>
        <time>2016-04-03T11:37:47.000Z</time>
      </trkpt>
      <trkpt lat="44.06301" lon="1.94108">
        <ele>180</ele>
        <time>2016-04-03T11:37:49.000Z</time>
      </trkpt>
      <trkpt lat="44.06301" lon="1.94108">
        <ele>180</ele>
        <time>2016-04-03T11:37:51.000Z</time>
      </trkpt>
      <trkpt lat="44.063" lon="1.94115">
        <ele>178</ele>
        <time>2016-04-03T11:38:06.000Z</time>
      </trkpt>
      <trkpt lat="44.06297" lon="1.94122">
        <ele>178</ele>
        <time>2016-04-03T11:38:10.000Z</time>
      </trkpt>
      <trkpt lat="44.06292" lon="1.94127">
        <ele>178</ele>
        <time>2016-04-03T11:38:14.000Z</time>
      </trkpt>
      <trkpt lat="44.06292" lon="1.94127">
        <ele>178</ele>
        <time>2016-04-03T11:38:16.000Z</time>
      </trkpt>
      <trkpt lat="44.06289" lon="1.94132">
        <ele>178</ele>
        <time>2016-04-03T11:38:18.000Z</time>
      </trkpt>
      <trkpt lat="44.06284" lon="1.94137">
        <ele>178</ele>
        <time>2016-04-03T11:38:22.000Z</time>
      </trkpt>
      <trkpt lat="44.0628" lon="1.9414">
        <ele>178</ele>
        <time>2016-04-03T11:38:24.000Z</time>
      </trkpt>
      <trkpt lat="44.06274" lon="1.94146">
        <ele>179</ele>
        <time>2016-04-03T11:38:28.000Z</time>
      </trkpt>
      <trkpt lat="44.0627" lon="1.9415">
        <ele>180</ele>
        <time>2016-04-03T11:38:30.000Z</time>
      </trkpt>
      <trkpt lat="44.06266" lon="1.94154">
        <ele>180</ele>
        <time>2016-04-03T11:38:32.000Z</time>
      </trkpt>
      <trkpt lat="44.06262" lon="1.94158">
        <ele>180</ele>
        <time>2016-04-03T11:38:34.000Z</time>
      </trkpt>
      <trkpt lat="44.06258" lon="1.94162">
        <ele>181</ele>
        <time>2016-04-03T11:38:36.000Z</time>
      </trkpt>
      <trkpt lat="44.06251" lon="1.94171">
        <ele>181</ele>
        <time>2016-04-03T11:38:38.000Z</time>
      </trkpt>
      <trkpt lat="44.06244" lon="1.94179">
        <ele>182</ele>
        <time>2016-04-03T11:38:42.000Z</time>
      </trkpt>
      <trkpt lat="44.06244" lon="1.94179">
        <ele>182</ele>
        <time>2016-04-03T11:38:44.000Z</time>
      </trkpt>
      <trkpt lat="44.06244" lon="1.94179">
        <ele>182</ele>
        <time>2016-04-03T11:38:46.000Z</time>
      </trkpt>
      <trkpt lat="44.06244" lon="1.94179">
        <ele>182</ele>
        <time>2016-04-03T11:38:48.000Z</time>
      </trkpt>
      <trkpt lat="44.06236" lon="1.942">
        <ele>181</ele>
        <time>2016-04-03T11:38:50.000Z</time>
      </trkpt>
      <trkpt lat="44.06241" lon="1.94213">
        <ele>180</ele>
        <time>2016-04-03T11:38:52.000Z</time>
      </trkpt>
      <trkpt lat="44.06247" lon="1.94226">
        <ele>180</ele>
        <time>2016-04-03T11:38:54.000Z</time>
      </trkpt>
      <trkpt lat="44.06253" lon="1.94239">
        <ele>180</ele>
        <time>2016-04-03T11:38:56.000Z</time>
      </trkpt>
      <trkpt lat="44.0626" lon="1.94252">
        <ele>180</ele>
        <time>2016-04-03T11:38:58.000Z</time>
      </trkpt>
      <trkpt lat="44.06267" lon="1.94265">
        <ele>181</ele>
        <time>2016-04-03T11:39:00.000Z</time>
      </trkpt>
      <trkpt lat="44.06274" lon="1.94277">
        <ele>181</ele>
        <time>2016-04-03T11:39:02.000Z</time>
      </trkpt>
      <trkpt lat="44.06279" lon="1.94289">
        <ele>181</ele>
        <time>2016-04-03T11:39:04.000Z</time>
      </trkpt>
      <trkpt lat="44.06279" lon="1.94289">
        <ele>181</ele>
        <time>2016-04-03T11:39:06.000Z</time>
      </trkpt>
      <trkpt lat="44.06279" lon="1.94289">
        <ele>181</ele>
        <time>2016-04-03T11:39:08.000Z</time>
      </trkpt>
      <trkpt lat="44.06279" lon="1.94289">
        <ele>181</ele>
        <time>2016-04-03T11:39:10.000Z</time>
      </trkpt>
      <trkpt lat="44.06279" lon="1.94289">
        <ele>181</ele>
        <time>2016-04-03T11:39:12.000Z</time>
      </trkpt>
      <trkpt lat="44.06279" lon="1.94289">
        <ele>181</ele>
        <time>2016-04-03T11:39:14.000Z</time>
      </trkpt>
      <trkpt lat="44.06279" lon="1.94289">
        <ele>181</ele>
        <time>2016-04-03T11:39:16.000Z</time>
      </trkpt>
      <trkpt lat="44.06279" lon="1.94289">
        <ele>181</ele>
        <time>2016-04-03T11:39:18.000Z</time>
      </trkpt>
      <trkpt lat="44.06279" lon="1.94289">
        <ele>181</ele>
        <time>2016-04-03T11:39:20.000Z</time>
      </trkpt>
      <trkpt lat="44.06279" lon="1.94289">
        <ele>181</ele>
        <time>2016-04-03T11:39:22.000Z</time>
      </trkpt>
      <trkpt lat="44.06279" lon="1.94289">
        <ele>181</ele>
        <time>2016-04-03T11:39:24.000Z</time>
      </trkpt>
      <trkpt lat="44.06279" lon="1.94289">
        <ele>181</ele>
        <time>2016-04-03T11:39:26.000Z</time>
      </trkpt>
      <trkpt lat="44.06279" lon="1.94289">
        <ele>181</ele>
        <time>2016-04-03T11:39:28.000Z</time>
      </trkpt>
      <trkpt lat="44.06279" lon="1.94289">
        <ele>181</ele>
        <time>2016-04-03T11:39:30.000Z</time>
      </trkpt>
      <trkpt lat="44.06279" lon="1.94289">
        <ele>181</ele>
        <time>2016-04-03T11:39:32.000Z</time>
      </trkpt>
      <trkpt lat="44.06279" lon="1.94289">
        <ele>181</ele>
        <time>2016-04-03T11:39:34.000Z</time>
      </trkpt>
      <trkpt lat="44.06279" lon="1.94289">
        <ele>181</ele>
        <time>2016-04-03T11:39:38.000Z</time>
      </trkpt>
      <trkpt lat="44.06279" lon="1.94289">
        <ele>181</ele>
        <time>2016-04-03T11:39:40.000Z</time>
      </trkpt>
      <trkpt lat="44.06295" lon="1.94361">
        <ele>183</ele>
        <time>2016-04-03T11:40:38.000Z</time>
      </trkpt>
      <trkpt lat="44.06304" lon="1.94396">
        <ele>182</ele>
        <time>2016-04-03T11:40:40.000Z</time>
      </trkpt>
      <trkpt lat="44.06309" lon="1.94412">
        <ele>182</ele>
        <time>2016-04-03T11:40:42.000Z</time>
      </trkpt>
      <trkpt lat="44.06314" lon="1.94418">
        <ele>182</ele>
        <time>2016-04-03T11:40:44.000Z</time>
      </trkpt>
      <trkpt lat="44.06319" lon="1.94415">
        <ele>183</ele>
        <time>2016-04-03T11:40:48.000Z</time>
      </trkpt>
      <trkpt lat="44.06324" lon="1.94409">
        <ele>183</ele>
        <time>2016-04-03T11:40:50.000Z</time>
      </trkpt>
      <trkpt lat="44.06327" lon="1.94403">
        <ele>183</ele>
        <time>2016-04-03T11:40:52.000Z</time>
      </trkpt>
      <trkpt lat="44.06332" lon="1.94396">
        <ele>183</ele>
        <time>2016-04-03T11:40:54.000Z</time>
      </trkpt>
      <trkpt lat="44.06338" lon="1.94389">
        <ele>182</ele>
        <time>2016-04-03T11:40:56.000Z</time>
      </trkpt>
      <trkpt lat="44.06351" lon="1.94372">
        <ele>182</ele>
        <time>2016-04-03T11:40:58.000Z</time>
      </trkpt>
      <trkpt lat="44.06359" lon="1.94364">
        <ele>181</ele>
        <time>2016-04-03T11:41:00.000Z</time>
      </trkpt>
      <trkpt lat="44.06359" lon="1.94364">
        <ele>181</ele>
        <time>2016-04-03T11:41:02.000Z</time>
      </trkpt>
      <trkpt lat="44.06359" lon="1.94364">
        <ele>181</ele>
        <time>2016-04-03T11:41:04.000Z</time>
      </trkpt>
      <trkpt lat="44.06359" lon="1.94364">
        <ele>181</ele>
        <time>2016-04-03T11:41:06.000Z</time>
      </trkpt>
      <trkpt lat="44.06359" lon="1.94364">
        <ele>181</ele>
        <time>2016-04-03T11:41:08.000Z</time>
      </trkpt>
      <trkpt lat="44.06359" lon="1.94364">
        <ele>181</ele>
        <time>2016-04-03T11:41:10.000Z</time>
      </trkpt>
      <trkpt lat="44.064" lon="1.94319">
        <ele>179</ele>
        <time>2016-04-03T11:41:16.000Z</time>
      </trkpt>
      <trkpt lat="44.06406" lon="1.94306">
        <ele>179</ele>
        <time>2016-04-03T11:41:20.000Z</time>
      </trkpt>
      <trkpt lat="44.06406" lon="1.94306">
        <ele>179</ele>
        <time>2016-04-03T11:41:22.000Z</time>
      </trkpt>
      <trkpt lat="44.06406" lon="1.94306">
        <ele>179</ele>
        <time>2016-04-03T11:41:24.000Z</time>
      </trkpt>
      <trkpt lat="44.06416" lon="1.94283">
        <ele>178</ele>
        <time>2016-04-03T11:41:26.000Z</time>
      </trkpt>
      <trkpt lat="44.06425" lon="1.94264">
        <ele>178</ele>
        <time>2016-04-03T11:41:30.000Z</time>
      </trkpt>
      <trkpt lat="44.06436" lon="1.94246">
        <ele>177</ele>
        <time>2016-04-03T11:41:34.000Z</time>
      </trkpt>
      <trkpt lat="44.06446" lon="1.94228">
        <ele>177</ele>
        <time>2016-04-03T11:41:38.000Z</time>
      </trkpt>
      <trkpt lat="44.06446" lon="1.94228">
        <ele>177</ele>
        <time>2016-04-03T11:41:40.000Z</time>
      </trkpt>
      <trkpt lat="44.06456" lon="1.9421">
        <ele>176</ele>
        <time>2016-04-03T11:41:42.000Z</time>
      </trkpt>
      <trkpt lat="44.06463" lon="1.942">
        <ele>175</ele>
        <time>2016-04-03T11:41:44.000Z</time>
      </trkpt>
      <trkpt lat="44.0647" lon="1.94192">
        <ele>175</ele>
        <time>2016-04-03T11:41:46.000Z</time>
      </trkpt>
      <trkpt lat="44.0647" lon="1.94192">
        <ele>175</ele>
        <time>2016-04-03T11:41:48.000Z</time>
      </trkpt>
      <trkpt lat="44.0647" lon="1.94192">
        <ele>175</ele>
        <time>2016-04-03T11:41:50.000Z</time>
      </trkpt>
      <trkpt lat="44.0647" lon="1.94192">
        <ele>175</ele>
        <time>2016-04-03T11:41:52.000Z</time>
      </trkpt>
      <trkpt lat="44.0647" lon="1.94192">
        <ele>175</ele>
        <time>2016-04-03T11:41:56.000Z</time>
      </trkpt>
      <trkpt lat="44.0647" lon="1.94192">
        <ele>175</ele>
        <time>2016-04-03T11:41:58.000Z</time>
      </trkpt>
      <trkpt lat="44.06497" lon="1.94159">
        <ele>175</ele>
        <time>2016-04-03T11:42:00.000Z</time>
      </trkpt>
      <trkpt lat="44.06511" lon="1.94149">
        <ele>175</ele>
        <time>2016-04-03T11:42:04.000Z</time>
      </trkpt>
      <trkpt lat="44.06511" lon="1.94149">
        <ele>175</ele>
        <time>2016-04-03T11:42:06.000Z</time>
      </trkpt>
      <trkpt lat="44.06511" lon="1.94149">
        <ele>175</ele>
        <time>2016-04-03T11:42:08.000Z</time>
      </trkpt>
      <trkpt lat="44.06511" lon="1.94149">
        <ele>175</ele>
        <time>2016-04-03T11:42:10.000Z</time>
      </trkpt>
      <trkpt lat="44.06511" lon="1.94149">
        <ele>175</ele>
        <time>2016-04-03T11:42:12.000Z</time>
      </trkpt>
      <trkpt lat="44.06511" lon="1.94149">
        <ele>175</ele>
        <time>2016-04-03T11:42:14.000Z</time>
      </trkpt>
      <trkpt lat="44.06511" lon="1.94149">
        <ele>175</ele>
        <time>2016-04-03T11:42:16.000Z</time>
      </trkpt>
      <trkpt lat="44.06511" lon="1.94149">
        <ele>175</ele>
        <time>2016-04-03T11:42:22.000Z</time>
      </trkpt>
      <trkpt lat="44.06534" lon="1.94145">
        <ele>171</ele>
        <time>2016-04-03T11:42:26.000Z</time>
      </trkpt>
      <trkpt lat="44.06548" lon="1.94142">
        <ele>171</ele>
        <time>2016-04-03T11:42:28.000Z</time>
      </trkpt>
      <trkpt lat="44.06556" lon="1.94141">
        <ele>171</ele>
        <time>2016-04-03T11:42:30.000Z</time>
      </trkpt>
      <trkpt lat="44.06556" lon="1.94141">
        <ele>171</ele>
        <time>2016-04-03T11:42:32.000Z</time>
      </trkpt>
      <trkpt lat="44.06556" lon="1.94141">
        <ele>171</ele>
        <time>2016-04-03T11:42:34.000Z</time>
      </trkpt>
      <trkpt lat="44.06556" lon="1.94141">
        <ele>171</ele>
        <time>2016-04-03T11:42:36.000Z</time>
      </trkpt>
      <trkpt lat="44.06556" lon="1.94141">
        <ele>171</ele>
        <time>2016-04-03T11:42:38.000Z</time>
      </trkpt>
      <trkpt lat="44.06571" lon="1.94141">
        <ele>170</ele>
        <time>2016-04-03T11:42:44.000Z</time>
      </trkpt>
      <trkpt lat="44.0658" lon="1.94142">
        <ele>171</ele>
        <time>2016-04-03T11:42:46.000Z</time>
      </trkpt>
      <trkpt lat="44.06586" lon="1.94142">
        <ele>171</ele>
        <time>2016-04-03T11:42:48.000Z</time>
      </trkpt>
      <trkpt lat="44.06591" lon="1.94142">
        <ele>172</ele>
        <time>2016-04-03T11:42:50.000Z</time>
      </trkpt>
      <trkpt lat="44.06598" lon="1.94141">
        <ele>173</ele>
        <time>2016-04-03T11:42:54.000Z</time>
      </trkpt>
      <trkpt lat="44.06602" lon="1.94141">
        <ele>173</ele>
        <time>2016-04-03T11:42:56.000Z</time>
      </trkpt>
      <trkpt lat="44.06607" lon="1.94141">
        <ele>173</ele>
        <time>2016-04-03T11:42:58.000Z</time>
      </trkpt>
      <trkpt lat="44.06613" lon="1.94141">
        <ele>174</ele>
        <time>2016-04-03T11:43:00.000Z</time>
      </trkpt>
      <trkpt lat="44.06618" lon="1.94141">
        <ele>175</ele>
        <time>2016-04-03T11:43:02.000Z</time>
      </trkpt>
      <trkpt lat="44.06629" lon="1.94141">
        <ele>175</ele>
        <time>2016-04-03T11:43:04.000Z</time>
      </trkpt>
      <trkpt lat="44.06629" lon="1.94141">
        <ele>175</ele>
        <time>2016-04-03T11:43:06.000Z</time>
      </trkpt>
      <trkpt lat="44.06629" lon="1.94141">
        <ele>175</ele>
        <time>2016-04-03T11:43:08.000Z</time>
      </trkpt>
      <trkpt lat="44.06629" lon="1.94141">
        <ele>175</ele>
        <time>2016-04-03T11:43:10.000Z</time>
      </trkpt>
      <trkpt lat="44.06629" lon="1.94141">
        <ele>175</ele>
        <time>2016-04-03T11:43:12.000Z</time>
      </trkpt>
      <trkpt lat="44.06647" lon="1.94113">
        <ele>176</ele>
        <time>2016-04-03T11:43:18.000Z</time>
      </trkpt>
      <trkpt lat="44.0665" lon="1.94099">
        <ele>177</ele>
        <time>2016-04-03T11:43:22.000Z</time>
      </trkpt>
      <trkpt lat="44.06653" lon="1.94086">
        <ele>177</ele>
        <time>2016-04-03T11:43:26.000Z</time>
      </trkpt>
      <trkpt lat="44.06653" lon="1.94086">
        <ele>177</ele>
        <time>2016-04-03T11:43:28.000Z</time>
      </trkpt>
      <trkpt lat="44.06653" lon="1.94086">
        <ele>177</ele>
        <time>2016-04-03T11:43:30.000Z</time>
      </trkpt>
      <trkpt lat="44.06654" lon="1.94071">
        <ele>180</ele>
        <time>2016-04-03T11:43:32.000Z</time>
      </trkpt>
      <trkpt lat="44.06654" lon="1.94071">
        <ele>180</ele>
        <time>2016-04-03T11:43:34.000Z</time>
      </trkpt>
      <trkpt lat="44.06654" lon="1.94071">
        <ele>180</ele>
        <time>2016-04-03T11:43:36.000Z</time>
      </trkpt>
      <trkpt lat="44.06654" lon="1.94071">
        <ele>180</ele>
        <time>2016-04-03T11:43:38.000Z</time>
      </trkpt>
      <trkpt lat="44.06654" lon="1.94071">
        <ele>180</ele>
        <time>2016-04-03T11:43:40.000Z</time>
      </trkpt>
      <trkpt lat="44.06654" lon="1.94071">
        <ele>180</ele>
        <time>2016-04-03T11:43:42.000Z</time>
      </trkpt>
      <trkpt lat="44.06654" lon="1.94071">
        <ele>180</ele>
        <time>2016-04-03T11:43:57.000Z</time>
      </trkpt>
    </trkseg>
  </trk>
</gpx>